<?xml version='1.0' encoding='UTF-8'?><gpx version="1.1" creator="JPX - https://github.com/jenetics/jpx" xmlns="http://www.topografix.com/GPX/1/1"><trk><trkseg><trkpt lat="38.13382905227375" lon="13.186060870472566"><ele>132.0</ele><time>2026-03-29T07:58:23Z</time></trkpt><trkpt lat="38.13384833682303" lon="13.186194203125758"><ele>132.0</ele><time>2026-03-29T07:58:25Z</time></trkpt><trkpt lat="38.13387970246256" lon="13.186306184344282"><ele>132.0</ele><time>2026-03-29T07:58:26Z</time></trkpt><trkpt lat="38.1339533881656" lon="13.186497824776053"><ele>132.0</ele><time>2026-03-29T07:58:27Z</time></trkpt><trkpt lat="38.13398402148456" lon="13.18661269419511"><ele>130.0</ele><time>2026-03-29T07:58:28Z</time></trkpt><trkpt lat="38.134031887284046" lon="13.186686934577791"><ele>127.99999999999999</ele><time>2026-03-29T07:58:29Z</time></trkpt><trkpt lat="38.1340932190006" lon="13.186788300682695"><ele>125.99999999999999</ele><time>2026-03-29T07:58:30Z</time></trkpt><trkpt lat="38.134148278502664" lon="13.186882193430252"><ele>124.0</ele><time>2026-03-29T07:58:31Z</time></trkpt><trkpt lat="38.13420317254814" lon="13.186981670495292"><ele>122.0</ele><time>2026-03-29T07:58:32Z</time></trkpt><trkpt lat="38.134258324908764" lon="13.18708232658906"><ele>120.66666666666666</ele><time>2026-03-29T07:58:33Z</time></trkpt><trkpt lat="38.13430864929893" lon="13.187178111772612"><ele>119.33333333333333</ele><time>2026-03-29T07:58:34Z</time></trkpt><trkpt lat="38.13435543958107" lon="13.187277440177365"><ele>118.0</ele><time>2026-03-29T07:58:35Z</time></trkpt><trkpt lat="38.134399675819" lon="13.187371467973158"><ele>116.66666666666666</ele><time>2026-03-29T07:58:36Z</time></trkpt><trkpt lat="38.134444844283" lon="13.187463805143986"><ele>115.33333333333333</ele><time>2026-03-29T07:58:37Z</time></trkpt><trkpt lat="38.13448705590692" lon="13.187550097712132"><ele>114.0</ele><time>2026-03-29T07:58:38Z</time></trkpt><trkpt lat="38.134551126291996" lon="13.18768935907623"><ele>113.83333333333333</ele><time>2026-03-29T07:58:40Z</time></trkpt><trkpt lat="38.13458992876234" lon="13.187780264034553"><ele>113.66666666666666</ele><time>2026-03-29T07:58:42Z</time></trkpt><trkpt lat="38.13462761860545" lon="13.187878115714517"><ele>113.5</ele><time>2026-03-29T07:58:46Z</time></trkpt><trkpt lat="38.13465387412469" lon="13.187964538763804"><ele>113.33333333333333</ele><time>2026-03-29T07:58:48Z</time></trkpt><trkpt lat="38.13469020379133" lon="13.188056476730331"><ele>113.16666666666666</ele><time>2026-03-29T07:58:51Z</time></trkpt><trkpt lat="38.1347096211186" lon="13.18817641086556"><ele>113.0</ele><time>2026-03-29T07:58:55Z</time></trkpt><trkpt lat="38.13471884824173" lon="13.188272008154785"><ele>113.4</ele><time>2026-03-29T07:58:58Z</time></trkpt><trkpt lat="38.13473600983161" lon="13.188371539781922"><ele>113.80000000000001</ele><time>2026-03-29T07:59:00Z</time></trkpt><trkpt lat="38.134749176251844" lon="13.188490756855186"><ele>114.2</ele><time>2026-03-29T07:59:01Z</time></trkpt><trkpt lat="38.134772633967444" lon="13.188608220986652"><ele>114.6</ele><time>2026-03-29T07:59:02Z</time></trkpt><trkpt lat="38.134807877939586" lon="13.18872671310186"><ele>115.0</ele><time>2026-03-29T07:59:03Z</time></trkpt><trkpt lat="38.134874954597656" lon="13.18886254525495"><ele>113.25</ele><time>2026-03-29T07:59:04Z</time></trkpt><trkpt lat="38.13494867904731" lon="13.189025271092175"><ele>111.5</ele><time>2026-03-29T07:59:05Z</time></trkpt><trkpt lat="38.13505779074315" lon="13.189166842650632"><ele>109.75</ele><time>2026-03-29T07:59:06Z</time></trkpt><trkpt lat="38.13511395898033" lon="13.189296675600701"><ele>108.0</ele><time>2026-03-29T07:59:07Z</time></trkpt><trkpt lat="38.135180070020816" lon="13.189449268846147"><ele>108.0</ele><time>2026-03-29T07:59:08Z</time></trkpt><trkpt lat="38.135219731170196" lon="13.189621984196474"><ele>108.0</ele><time>2026-03-29T07:59:09Z</time></trkpt><trkpt lat="38.13525616426972" lon="13.18982639449258"><ele>108.0</ele><time>2026-03-29T07:59:10Z</time></trkpt><trkpt lat="38.1352796081654" lon="13.189993876317125"><ele>108.0</ele><time>2026-03-29T07:59:11Z</time></trkpt><trkpt lat="38.13530380278324" lon="13.190153684824153"><ele>108.25</ele><time>2026-03-29T07:59:12Z</time></trkpt><trkpt lat="38.13534523340325" lon="13.190332977706381"><ele>108.5</ele><time>2026-03-29T07:59:13Z</time></trkpt><trkpt lat="38.13538304964772" lon="13.190472846713448"><ele>108.75</ele><time>2026-03-29T07:59:14Z</time></trkpt><trkpt lat="38.135409816467856" lon="13.190628470483457"><ele>109.0</ele><time>2026-03-29T07:59:15Z</time></trkpt><trkpt lat="38.13548236358209" lon="13.190771030300363"><ele>109.66666666666667</ele><time>2026-03-29T07:59:16Z</time></trkpt><trkpt lat="38.13555260152735" lon="13.19093136050305"><ele>110.33333333333334</ele><time>2026-03-29T07:59:17Z</time></trkpt><trkpt lat="38.13562804426935" lon="13.191130417416154"><ele>111.0</ele><time>2026-03-29T07:59:18Z</time></trkpt><trkpt lat="38.13572537118169" lon="13.19132933883836"><ele>109.5</ele><time>2026-03-29T07:59:19Z</time></trkpt><trkpt lat="38.1358046858468" lon="13.191529345614029"><ele>108.0</ele><time>2026-03-29T07:59:20Z</time></trkpt><trkpt lat="38.13583439229675" lon="13.19166660799006"><ele>106.5</ele><time>2026-03-29T07:59:21Z</time></trkpt><trkpt lat="38.13585146248904" lon="13.19180530564543"><ele>105.0</ele><time>2026-03-29T07:59:22Z</time></trkpt><trkpt lat="38.135859905252964" lon="13.191951674562251"><ele>105.0</ele><time>2026-03-29T07:59:23Z</time></trkpt><trkpt lat="38.13588323895637" lon="13.192104066952163"><ele>105.0</ele><time>2026-03-29T07:59:24Z</time></trkpt><trkpt lat="38.13588789074288" lon="13.192263566618625"><ele>105.0</ele><time>2026-03-29T07:59:25Z</time></trkpt><trkpt lat="38.135872790573536" lon="13.19240165287307"><ele>105.0</ele><time>2026-03-29T07:59:26Z</time></trkpt><trkpt lat="38.13586272755145" lon="13.192528796040692"><ele>104.8</ele><time>2026-03-29T07:59:27Z</time></trkpt><trkpt lat="38.13584549365676" lon="13.192657122720895"><ele>104.6</ele><time>2026-03-29T07:59:28Z</time></trkpt><trkpt lat="38.13581844465772" lon="13.192774555491633"><ele>104.4</ele><time>2026-03-29T07:59:29Z</time></trkpt><trkpt lat="38.13579153389354" lon="13.192874823089719"><ele>104.2</ele><time>2026-03-29T07:59:30Z</time></trkpt><trkpt lat="38.13575170033331" lon="13.193009137444248"><ele>104.0</ele><time>2026-03-29T07:59:31Z</time></trkpt><trkpt lat="38.13569088202873" lon="13.193172950953146"><ele>105.33333333333333</ele><time>2026-03-29T07:59:32Z</time></trkpt><trkpt lat="38.135600317524485" lon="13.193346517001654"><ele>106.66666666666666</ele><time>2026-03-29T07:59:33Z</time></trkpt><trkpt lat="38.135490980805386" lon="13.193549669682872"><ele>108.0</ele><time>2026-03-29T07:59:34Z</time></trkpt><trkpt lat="38.135394719417455" lon="13.193741229401484"><ele>108.0</ele><time>2026-03-29T07:59:35Z</time></trkpt><trkpt lat="38.135326662827" lon="13.193932705323586"><ele>108.0</ele><time>2026-03-29T07:59:36Z</time></trkpt><trkpt lat="38.13526860001895" lon="13.194101134974934"><ele>108.0</ele><time>2026-03-29T07:59:37Z</time></trkpt><trkpt lat="38.13524225792765" lon="13.194290282992648"><ele>107.33333333333334</ele><time>2026-03-29T07:59:38Z</time></trkpt><trkpt lat="38.13523328897577" lon="13.1944846216684"><ele>106.66666666666667</ele><time>2026-03-29T07:59:39Z</time></trkpt><trkpt lat="38.1352573586601" lon="13.194689811371976"><ele>106.0</ele><time>2026-03-29T07:59:40Z</time></trkpt><trkpt lat="38.1352949612906" lon="13.194923882800477"><ele>106.0</ele><time>2026-03-29T07:59:41Z</time></trkpt><trkpt lat="38.135348472249646" lon="13.195155699904525"><ele>106.0</ele><time>2026-03-29T07:59:42Z</time></trkpt><trkpt lat="38.13540886221341" lon="13.19538870503866"><ele>106.0</ele><time>2026-03-29T07:59:43Z</time></trkpt><trkpt lat="38.13547219232914" lon="13.19564180959222"><ele>106.33333333333334</ele><time>2026-03-29T07:59:44Z</time></trkpt><trkpt lat="38.135539250073236" lon="13.195904758959964"><ele>106.66666666666666</ele><time>2026-03-29T07:59:45Z</time></trkpt><trkpt lat="38.13558116664314" lon="13.196145958987836"><ele>107.0</ele><time>2026-03-29T07:59:46Z</time></trkpt><trkpt lat="38.135636297013704" lon="13.196387915428172"><ele>107.0</ele><time>2026-03-29T07:59:47Z</time></trkpt><trkpt lat="38.13568807822012" lon="13.196636089839878"><ele>107.0</ele><time>2026-03-29T07:59:48Z</time></trkpt><trkpt lat="38.13573626330618" lon="13.196870392952475"><ele>107.0</ele><time>2026-03-29T07:59:49Z</time></trkpt><trkpt lat="38.13579052594932" lon="13.197137269327685"><ele>107.66666666666666</ele><time>2026-03-29T07:59:50Z</time></trkpt><trkpt lat="38.13584335406038" lon="13.197398318502561"><ele>108.33333333333334</ele><time>2026-03-29T07:59:51Z</time></trkpt><trkpt lat="38.13589400997784" lon="13.197649657607593"><ele>109.0</ele><time>2026-03-29T07:59:52Z</time></trkpt><trkpt lat="38.135940481274766" lon="13.197911579525734"><ele>109.0</ele><time>2026-03-29T07:59:53Z</time></trkpt><trkpt lat="38.13597448873109" lon="13.19816663376073"><ele>109.0</ele><time>2026-03-29T07:59:54Z</time></trkpt><trkpt lat="38.136013365058005" lon="13.198432135152645"><ele>109.0</ele><time>2026-03-29T07:59:55Z</time></trkpt><trkpt lat="38.136054146447684" lon="13.198693453314574"><ele>110.0</ele><time>2026-03-29T07:59:56Z</time></trkpt><trkpt lat="38.136092540468226" lon="13.19894727869386"><ele>111.0</ele><time>2026-03-29T07:59:57Z</time></trkpt><trkpt lat="38.136123111392855" lon="13.199192659868237"><ele>112.0</ele><time>2026-03-29T07:59:58Z</time></trkpt><trkpt lat="38.13614521515676" lon="13.199441545349764"><ele>112.66666666666667</ele><time>2026-03-29T07:59:59Z</time></trkpt><trkpt lat="38.136159675436964" lon="13.1996812039127"><ele>113.33333333333334</ele><time>2026-03-29T08:00:00Z</time></trkpt><trkpt lat="38.13616880131041" lon="13.199914016979065"><ele>114.0</ele><time>2026-03-29T08:00:01Z</time></trkpt><trkpt lat="38.1361780599982" lon="13.200153085306798"><ele>114.0</ele><time>2026-03-29T08:00:02Z</time></trkpt><trkpt lat="38.136182716074245" lon="13.20037875453344"><ele>114.0</ele><time>2026-03-29T08:00:03Z</time></trkpt><trkpt lat="38.13618389651789" lon="13.200596296785157"><ele>114.0</ele><time>2026-03-29T08:00:04Z</time></trkpt><trkpt lat="38.13617474483794" lon="13.200806827133045"><ele>114.66666666666666</ele><time>2026-03-29T08:00:05Z</time></trkpt><trkpt lat="38.136154595496016" lon="13.201014625002218"><ele>115.33333333333333</ele><time>2026-03-29T08:00:06Z</time></trkpt><trkpt lat="38.136127788051894" lon="13.201224036180188"><ele>116.0</ele><time>2026-03-29T08:00:07Z</time></trkpt><trkpt lat="38.13609714007223" lon="13.201450296064825"><ele>115.66666666666666</ele><time>2026-03-29T08:00:08Z</time></trkpt><trkpt lat="38.1360656685856" lon="13.20168122419257"><ele>115.33333333333334</ele><time>2026-03-29T08:00:09Z</time></trkpt><trkpt lat="38.13602893633679" lon="13.201916174355969"><ele>115.0</ele><time>2026-03-29T08:00:10Z</time></trkpt><trkpt lat="38.13599172273818" lon="13.20215566625745"><ele>113.66666666666667</ele><time>2026-03-29T08:00:11Z</time></trkpt><trkpt lat="38.13595930295372" lon="13.202388078339203"><ele>112.33333333333334</ele><time>2026-03-29T08:00:12Z</time></trkpt><trkpt lat="38.13593425815998" lon="13.202605919054088"><ele>111.0</ele><time>2026-03-29T08:00:13Z</time></trkpt><trkpt lat="38.1359251499192" lon="13.20280055456864"><ele>111.0</ele><time>2026-03-29T08:00:14Z</time></trkpt><trkpt lat="38.135952476925894" lon="13.20301035947307"><ele>111.0</ele><time>2026-03-29T08:00:15Z</time></trkpt><trkpt lat="38.13599277835421" lon="13.203235675071399"><ele>111.0</ele><time>2026-03-29T08:00:16Z</time></trkpt><trkpt lat="38.13603877954125" lon="13.203482474475368"><ele>111.33333333333334</ele><time>2026-03-29T08:00:17Z</time></trkpt><trkpt lat="38.13609221419674" lon="13.203738477000066"><ele>111.66666666666667</ele><time>2026-03-29T08:00:18Z</time></trkpt><trkpt lat="38.13615286246962" lon="13.204005638737948"><ele>112.0</ele><time>2026-03-29T08:00:19Z</time></trkpt><trkpt lat="38.136239079106346" lon="13.204290428694712"><ele>113.0</ele><time>2026-03-29T08:00:20Z</time></trkpt><trkpt lat="38.13633158681362" lon="13.204588376395602"><ele>114.0</ele><time>2026-03-29T08:00:21Z</time></trkpt><trkpt lat="38.13642630897984" lon="13.204880986914766"><ele>114.0</ele><time>2026-03-29T08:00:22Z</time></trkpt><trkpt lat="38.136524980582195" lon="13.205160193130407"><ele>114.0</ele><time>2026-03-29T08:00:23Z</time></trkpt><trkpt lat="38.13661133437854" lon="13.205418124341463"><ele>114.0</ele><time>2026-03-29T08:00:24Z</time></trkpt><trkpt lat="38.13669032704909" lon="13.205652545030738"><ele>114.0</ele><time>2026-03-29T08:00:25Z</time></trkpt><trkpt lat="38.136760398028756" lon="13.205871572663959"><ele>114.0</ele><time>2026-03-29T08:00:26Z</time></trkpt><trkpt lat="38.13681812306218" lon="13.206066637356171"><ele>115.66666666666666</ele><time>2026-03-29T08:00:27Z</time></trkpt><trkpt lat="38.13687507371044" lon="13.206277533969953"><ele>117.33333333333333</ele><time>2026-03-29T08:00:28Z</time></trkpt><trkpt lat="38.13692666863084" lon="13.206515094902825"><ele>119.0</ele><time>2026-03-29T08:00:29Z</time></trkpt><trkpt lat="38.1369480456407" lon="13.206733676043122"><ele>119.66666666666666</ele><time>2026-03-29T08:00:30Z</time></trkpt><trkpt lat="38.13694244548177" lon="13.206951121383698"><ele>120.33333333333334</ele><time>2026-03-29T08:00:31Z</time></trkpt><trkpt lat="38.13689198697102" lon="13.207176266308137"><ele>121.0</ele><time>2026-03-29T08:00:32Z</time></trkpt><trkpt lat="38.13683483654996" lon="13.207433579261242"><ele>124.5</ele><time>2026-03-29T08:00:33Z</time></trkpt><trkpt lat="38.13676325841888" lon="13.207711141894567"><ele>128.0</ele><time>2026-03-29T08:00:34Z</time></trkpt><trkpt lat="38.13669646191827" lon="13.207993166259145"><ele>130.0</ele><time>2026-03-29T08:00:35Z</time></trkpt><trkpt lat="38.136628528753846" lon="13.208276588408518"><ele>132.0</ele><time>2026-03-29T08:00:36Z</time></trkpt><trkpt lat="38.13655949669307" lon="13.208556742786847"><ele>134.33333333333334</ele><time>2026-03-29T08:00:37Z</time></trkpt><trkpt lat="38.13649893274202" lon="13.208810075465662"><ele>136.66666666666669</ele><time>2026-03-29T08:00:38Z</time></trkpt><trkpt lat="38.13643804194036" lon="13.209046576584386"><ele>139.0</ele><time>2026-03-29T08:00:39Z</time></trkpt><trkpt lat="38.13638106288281" lon="13.209279864093489"><ele>140.0</ele><time>2026-03-29T08:00:40Z</time></trkpt><trkpt lat="38.13631984626821" lon="13.209515882837326"><ele>141.0</ele><time>2026-03-29T08:00:41Z</time></trkpt><trkpt lat="38.1362605714532" lon="13.209750146304726"><ele>142.0</ele><time>2026-03-29T08:00:42Z</time></trkpt><trkpt lat="38.13620535571006" lon="13.20997383166904"><ele>143.0</ele><time>2026-03-29T08:00:43Z</time></trkpt><trkpt lat="38.136175572685474" lon="13.210191810774"><ele>144.0</ele><time>2026-03-29T08:00:44Z</time></trkpt><trkpt lat="38.136113118044264" lon="13.210409998897765"><ele>145.0</ele><time>2026-03-29T08:00:45Z</time></trkpt><trkpt lat="38.13605817469956" lon="13.210633598043989"><ele>145.33333333333334</ele><time>2026-03-29T08:00:46Z</time></trkpt><trkpt lat="38.136018083952635" lon="13.210851006205964"><ele>145.66666666666666</ele><time>2026-03-29T08:00:47Z</time></trkpt><trkpt lat="38.1359669986863" lon="13.211052830409026"><ele>146.0</ele><time>2026-03-29T08:00:48Z</time></trkpt><trkpt lat="38.135943621555576" lon="13.211272781598492"><ele>147.33333333333331</ele><time>2026-03-29T08:00:49Z</time></trkpt><trkpt lat="38.13593302041131" lon="13.211499021573358"><ele>148.66666666666666</ele><time>2026-03-29T08:00:50Z</time></trkpt><trkpt lat="38.13595199208367" lon="13.211726730452193"><ele>150.0</ele><time>2026-03-29T08:00:51Z</time></trkpt><trkpt lat="38.13595796356664" lon="13.21195238293111"><ele>150.0</ele><time>2026-03-29T08:00:52Z</time></trkpt><trkpt lat="38.13595213040595" lon="13.212190046999217"><ele>150.0</ele><time>2026-03-29T08:00:53Z</time></trkpt><trkpt lat="38.135960734799994" lon="13.212423930267613"><ele>150.0</ele><time>2026-03-29T08:00:54Z</time></trkpt><trkpt lat="38.135969958458645" lon="13.212655692936547"><ele>151.66666666666666</ele><time>2026-03-29T08:00:55Z</time></trkpt><trkpt lat="38.135977444852664" lon="13.212885456360626"><ele>153.33333333333331</ele><time>2026-03-29T08:00:56Z</time></trkpt><trkpt lat="38.135977504214765" lon="13.21311246479528"><ele>155.0</ele><time>2026-03-29T08:00:57Z</time></trkpt><trkpt lat="38.13597520334829" lon="13.213329366859448"><ele>155.5</ele><time>2026-03-29T08:00:58Z</time></trkpt><trkpt lat="38.13597279744787" lon="13.213533885825324"><ele>156.0</ele><time>2026-03-29T08:00:59Z</time></trkpt><trkpt lat="38.135964896552494" lon="13.213703330972441"><ele>156.5</ele><time>2026-03-29T08:01:00Z</time></trkpt><trkpt lat="38.13593763900373" lon="13.21385674167324"><ele>157.0</ele><time>2026-03-29T08:01:01Z</time></trkpt><trkpt lat="38.13591057922279" lon="13.214004272976585"><ele>157.0</ele><time>2026-03-29T08:01:02Z</time></trkpt><trkpt lat="38.135806314511534" lon="13.214146852688266"><ele>157.0</ele><time>2026-03-29T08:01:03Z</time></trkpt><trkpt lat="38.13569101828091" lon="13.214321846714817"><ele>157.0</ele><time>2026-03-29T08:01:04Z</time></trkpt><trkpt lat="38.1355822124566" lon="13.21453602562546"><ele>160.66666666666669</ele><time>2026-03-29T08:01:05Z</time></trkpt><trkpt lat="38.13545547325414" lon="13.214716063161571"><ele>164.33333333333334</ele><time>2026-03-29T08:01:06Z</time></trkpt><trkpt lat="38.135375080969816" lon="13.214928433881566"><ele>168.0</ele><time>2026-03-29T08:01:07Z</time></trkpt><trkpt lat="38.135315419366194" lon="13.215146750314565"><ele>168.5</ele><time>2026-03-29T08:01:08Z</time></trkpt><trkpt lat="38.135256252091196" lon="13.215415533131058"><ele>169.0</ele><time>2026-03-29T08:01:09Z</time></trkpt><trkpt lat="38.135195059217224" lon="13.215719190077513"><ele>169.0</ele><time>2026-03-29T08:01:10Z</time></trkpt><trkpt lat="38.135143125092156" lon="13.216050213485387"><ele>169.0</ele><time>2026-03-29T08:01:11Z</time></trkpt><trkpt lat="38.13510698651803" lon="13.216373122149985"><ele>170.0</ele><time>2026-03-29T08:01:12Z</time></trkpt><trkpt lat="38.135091254306126" lon="13.216730303123105"><ele>171.0</ele><time>2026-03-29T08:01:13Z</time></trkpt><trkpt lat="38.135071335871835" lon="13.21710219281899"><ele>171.0</ele><time>2026-03-29T08:01:14Z</time></trkpt><trkpt lat="38.135043404183826" lon="13.21747147860287"><ele>171.0</ele><time>2026-03-29T08:01:15Z</time></trkpt><trkpt lat="38.13502067266003" lon="13.21785105800145"><ele>171.0</ele><time>2026-03-29T08:01:16Z</time></trkpt><trkpt lat="38.13498846482751" lon="13.218216937992004"><ele>171.0</ele><time>2026-03-29T08:01:17Z</time></trkpt><trkpt lat="38.13494954789218" lon="13.218550342160674"><ele>171.0</ele><time>2026-03-29T08:01:18Z</time></trkpt><trkpt lat="38.13490090983403" lon="13.21886648245706"><ele>171.0</ele><time>2026-03-29T08:01:19Z</time></trkpt><trkpt lat="38.13485156269242" lon="13.219165289679598"><ele>177.66666666666666</ele><time>2026-03-29T08:01:20Z</time></trkpt><trkpt lat="38.134813195392915" lon="13.219434279680376"><ele>184.33333333333331</ele><time>2026-03-29T08:01:21Z</time></trkpt><trkpt lat="38.13478117170664" lon="13.219684344438065"><ele>191.0</ele><time>2026-03-29T08:01:22Z</time></trkpt><trkpt lat="38.134748735517555" lon="13.21991484286475"><ele>191.33333333333331</ele><time>2026-03-29T08:01:23Z</time></trkpt><trkpt lat="38.13472529139671" lon="13.220128129982381"><ele>191.66666666666666</ele><time>2026-03-29T08:01:24Z</time></trkpt><trkpt lat="38.1347058686964" lon="13.220321328193297"><ele>192.0</ele><time>2026-03-29T08:01:25Z</time></trkpt><trkpt lat="38.1346876794917" lon="13.220502256798774"><ele>193.5</ele><time>2026-03-29T08:01:26Z</time></trkpt><trkpt lat="38.13466677575573" lon="13.220688613697655"><ele>195.0</ele><time>2026-03-29T08:01:27Z</time></trkpt><trkpt lat="38.1346476840702" lon="13.220845619317462"><ele>196.5</ele><time>2026-03-29T08:01:28Z</time></trkpt><trkpt lat="38.134630920304566" lon="13.220983480625193"><ele>198.0</ele><time>2026-03-29T08:01:29Z</time></trkpt><trkpt lat="38.1346157118264" lon="13.221108551669968"><ele>198.0</ele><time>2026-03-29T08:01:30Z</time></trkpt><trkpt lat="38.13460254415095" lon="13.221216839563697"><ele>198.0</ele><time>2026-03-29T08:01:31Z</time></trkpt><trkpt lat="38.13459865790583" lon="13.221341557310572"><ele>198.0</ele><time>2026-03-29T08:01:33Z</time></trkpt><trkpt lat="38.13456991443874" lon="13.221440670017932"><ele>198.0</ele><time>2026-03-29T08:01:37Z</time></trkpt><trkpt lat="38.13448244209248" lon="13.22138666248723"><ele>198.0</ele><time>2026-03-29T08:01:41Z</time></trkpt><trkpt lat="38.13441008814474" lon="13.221242019786162"><ele>198.0</ele><time>2026-03-29T08:01:42Z</time></trkpt><trkpt lat="38.13435393033196" lon="13.221085599056984"><ele>198.0</ele><time>2026-03-29T08:01:43Z</time></trkpt><trkpt lat="38.1342957224865" lon="13.220948551123806"><ele>198.0</ele><time>2026-03-29T08:01:44Z</time></trkpt><trkpt lat="38.134195567813265" lon="13.220711942307155"><ele>195.0</ele><time>2026-03-29T08:01:45Z</time></trkpt><trkpt lat="38.13408292384971" lon="13.220478007190637"><ele>192.0</ele><time>2026-03-29T08:01:46Z</time></trkpt><trkpt lat="38.13398391234251" lon="13.220207348812544"><ele>198.66666666666669</ele><time>2026-03-29T08:01:47Z</time></trkpt><trkpt lat="38.133889651943996" lon="13.219968051473295"><ele>205.33333333333334</ele><time>2026-03-29T08:01:48Z</time></trkpt><trkpt lat="38.13380370721171" lon="13.219761711556918"><ele>212.0</ele><time>2026-03-29T08:01:49Z</time></trkpt><trkpt lat="38.13374416612204" lon="13.219575164973108"><ele>212.66666666666669</ele><time>2026-03-29T08:01:50Z</time></trkpt><trkpt lat="38.13370249927205" lon="13.219377399960814"><ele>213.33333333333331</ele><time>2026-03-29T08:01:51Z</time></trkpt><trkpt lat="38.133698217839445" lon="13.219156389312785"><ele>214.0</ele><time>2026-03-29T08:01:52Z</time></trkpt><trkpt lat="38.13371690277235" lon="13.218913352709324"><ele>217.0</ele><time>2026-03-29T08:01:53Z</time></trkpt><trkpt lat="38.133758403881075" lon="13.218668400294142"><ele>220.0</ele><time>2026-03-29T08:01:54Z</time></trkpt><trkpt lat="38.133808317960415" lon="13.218442752165767"><ele>223.0</ele><time>2026-03-29T08:01:55Z</time></trkpt><trkpt lat="38.1338638619489" lon="13.218236612549507"><ele>225.8</ele><time>2026-03-29T08:01:56Z</time></trkpt><trkpt lat="38.13393040596254" lon="13.218064589808531"><ele>228.60000000000002</ele><time>2026-03-29T08:01:57Z</time></trkpt><trkpt lat="38.133983335946894" lon="13.217934201143361"><ele>231.39999999999998</ele><time>2026-03-29T08:01:58Z</time></trkpt><trkpt lat="38.134017416420626" lon="13.217827048266772"><ele>234.2</ele><time>2026-03-29T08:01:59Z</time></trkpt><trkpt lat="38.134017753280745" lon="13.2177426875511"><ele>237.0</ele><time>2026-03-29T08:02:00Z</time></trkpt><trkpt lat="38.133986517300784" lon="13.217671141196686"><ele>237.0</ele><time>2026-03-29T08:02:01Z</time></trkpt><trkpt lat="38.13393456386227" lon="13.217596700799252"><ele>237.0</ele><time>2026-03-29T08:02:02Z</time></trkpt><trkpt lat="38.13385361205032" lon="13.217559203189124"><ele>237.0</ele><time>2026-03-29T08:02:03Z</time></trkpt><trkpt lat="38.13375028885966" lon="13.217589014137415"><ele>237.0</ele><time>2026-03-29T08:02:04Z</time></trkpt><trkpt lat="38.133684790235655" lon="13.217651535824093"><ele>237.0</ele><time>2026-03-29T08:02:05Z</time></trkpt><trkpt lat="38.13363616415693" lon="13.21775935066615"><ele>237.0</ele><time>2026-03-29T08:02:06Z</time></trkpt><trkpt lat="38.1335998902322" lon="13.217915983326362"><ele>237.0</ele><time>2026-03-29T08:02:07Z</time></trkpt><trkpt lat="38.133566232034745" lon="13.218098913760702"><ele>237.0</ele><time>2026-03-29T08:02:08Z</time></trkpt><trkpt lat="38.13352203878378" lon="13.218295492016402"><ele>237.0</ele><time>2026-03-29T08:02:09Z</time></trkpt><trkpt lat="38.13345541938469" lon="13.218509020095233"><ele>238.66666666666669</ele><time>2026-03-29T08:02:10Z</time></trkpt><trkpt lat="38.13336699575842" lon="13.218748855619364"><ele>240.33333333333334</ele><time>2026-03-29T08:02:11Z</time></trkpt><trkpt lat="38.133268781557604" lon="13.218962620106838"><ele>242.0</ele><time>2026-03-29T08:02:12Z</time></trkpt><trkpt lat="38.13316332152009" lon="13.219160586973203"><ele>242.0</ele><time>2026-03-29T08:02:13Z</time></trkpt><trkpt lat="38.13307328614975" lon="13.219325027462082"><ele>242.0</ele><time>2026-03-29T08:02:14Z</time></trkpt><trkpt lat="38.13299908832604" lon="13.219467842265274"><ele>242.0</ele><time>2026-03-29T08:02:15Z</time></trkpt><trkpt lat="38.1329252928074" lon="13.219604048675768"><ele>242.0</ele><time>2026-03-29T08:02:16Z</time></trkpt><trkpt lat="38.13289821489218" lon="13.219765872700737"><ele>240.33333333333334</ele><time>2026-03-29T08:02:17Z</time></trkpt><trkpt lat="38.132907717986186" lon="13.219936870424524"><ele>238.66666666666669</ele><time>2026-03-29T08:02:18Z</time></trkpt><trkpt lat="38.13296983873873" lon="13.220123137765473"><ele>237.0</ele><time>2026-03-29T08:02:19Z</time></trkpt><trkpt lat="38.13304055233025" lon="13.220319300434264"><ele>237.0</ele><time>2026-03-29T08:02:19.999Z</time></trkpt><trkpt lat="38.133116561063886" lon="13.220520682799005"><ele>237.0</ele><time>2026-03-29T08:02:20.999Z</time></trkpt><trkpt lat="38.13318577463985" lon="13.220696738746783"><ele>237.0</ele><time>2026-03-29T08:02:21.999Z</time></trkpt><trkpt lat="38.13323477474141" lon="13.220812470805656"><ele>237.0</ele><time>2026-03-29T08:02:22.999Z</time></trkpt><trkpt lat="38.13328102015024" lon="13.22091164200952"><ele>234.8</ele><time>2026-03-29T08:02:23.999Z</time></trkpt><trkpt lat="38.13331880679998" lon="13.220990601373273"><ele>232.6</ele><time>2026-03-29T08:02:24.999Z</time></trkpt><trkpt lat="38.13335659289011" lon="13.221069560015094"><ele>230.40000000000003</ele><time>2026-03-29T08:02:25.999Z</time></trkpt><trkpt lat="38.133414112489824" lon="13.22118602942367"><ele>228.20000000000002</ele><time>2026-03-29T08:02:26.999Z</time></trkpt><trkpt lat="38.13347251612996" lon="13.221312807578638"><ele>226.0</ele><time>2026-03-29T08:02:27.999Z</time></trkpt><trkpt lat="38.133536622352395" lon="13.22145160774274"><ele>230.25</ele><time>2026-03-29T08:02:28.999Z</time></trkpt><trkpt lat="38.133590849630245" lon="13.221598633103149"><ele>234.5</ele><time>2026-03-29T08:02:29.999Z</time></trkpt><trkpt lat="38.13362404652157" lon="13.221754511452069"><ele>238.75</ele><time>2026-03-29T08:02:30.999Z</time></trkpt><trkpt lat="38.1336362085813" lon="13.221921619826285"><ele>243.0</ele><time>2026-03-29T08:02:31.999Z</time></trkpt><trkpt lat="38.13364040340284" lon="13.22211854957138"><ele>243.0</ele><time>2026-03-29T08:02:32.999Z</time></trkpt><trkpt lat="38.13364616576629" lon="13.222303469096305"><ele>243.0</ele><time>2026-03-29T08:02:33.999Z</time></trkpt><trkpt lat="38.133637598657174" lon="13.222491891512771"><ele>243.0</ele><time>2026-03-29T08:02:34.999Z</time></trkpt><trkpt lat="38.133621116160576" lon="13.222690234132369"><ele>246.33333333333331</ele><time>2026-03-29T08:02:35.999Z</time></trkpt><trkpt lat="38.133602340904154" lon="13.222893427074553"><ele>249.66666666666666</ele><time>2026-03-29T08:02:36.999Z</time></trkpt><trkpt lat="38.133577394886395" lon="13.223094475766644"><ele>253.0</ele><time>2026-03-29T08:02:37.999Z</time></trkpt><trkpt lat="38.13354385217989" lon="13.223296935182887"><ele>253.0</ele><time>2026-03-29T08:02:39Z</time></trkpt><trkpt lat="38.133508602247865" lon="13.223505318252165"><ele>253.0</ele><time>2026-03-29T08:02:40Z</time></trkpt><trkpt lat="38.133473537511975" lon="13.223709574186646"><ele>253.0</ele><time>2026-03-29T08:02:41Z</time></trkpt><trkpt lat="38.13343195360617" lon="13.223912998626407"><ele>250.66666666666666</ele><time>2026-03-29T08:02:42Z</time></trkpt><trkpt lat="38.13337783163611" lon="13.224116153452947"><ele>248.33333333333331</ele><time>2026-03-29T08:02:43Z</time></trkpt><trkpt lat="38.1333214209769" lon="13.22431403826689"><ele>246.0</ele><time>2026-03-29T08:02:44Z</time></trkpt><trkpt lat="38.13326346245056" lon="13.224510720277232"><ele>253.0</ele><time>2026-03-29T08:02:45Z</time></trkpt><trkpt lat="38.13320272538866" lon="13.224702944038134"><ele>260.0</ele><time>2026-03-29T08:02:46Z</time></trkpt><trkpt lat="38.133146797220284" lon="13.224876248221348"><ele>267.0</ele><time>2026-03-29T08:02:47Z</time></trkpt><trkpt lat="38.133096967603535" lon="13.22502952795677"><ele>274.0</ele><time>2026-03-29T08:02:48Z</time></trkpt><trkpt lat="38.133046121001314" lon="13.225161705916575"><ele>274.0</ele><time>2026-03-29T08:02:49Z</time></trkpt><trkpt lat="38.13298144739679" lon="13.22528641911971"><ele>274.0</ele><time>2026-03-29T08:02:50Z</time></trkpt><trkpt lat="38.13289345877732" lon="13.225407301969849"><ele>274.0</ele><time>2026-03-29T08:02:51Z</time></trkpt><trkpt lat="38.13278841449554" lon="13.225528274346171"><ele>274.0</ele><time>2026-03-29T08:02:52Z</time></trkpt><trkpt lat="38.13267839228905" lon="13.225657154574074"><ele>272.4</ele><time>2026-03-29T08:02:53Z</time></trkpt><trkpt lat="38.13260946013201" lon="13.225799294296449"><ele>270.79999999999995</ele><time>2026-03-29T08:02:54Z</time></trkpt><trkpt lat="38.1325359864163" lon="13.225898793303271"><ele>269.20000000000005</ele><time>2026-03-29T08:02:55Z</time></trkpt><trkpt lat="38.13248805248898" lon="13.225989026569186"><ele>267.6</ele><time>2026-03-29T08:02:56Z</time></trkpt><trkpt lat="38.13247724252297" lon="13.226096687902459"><ele>266.0</ele><time>2026-03-29T08:02:57Z</time></trkpt><trkpt lat="38.13247816385572" lon="13.226210553164814"><ele>266.0</ele><time>2026-03-29T08:02:58Z</time></trkpt><trkpt lat="38.13254723102683" lon="13.226348971666258"><ele>266.0</ele><time>2026-03-29T08:02:59Z</time></trkpt><trkpt lat="38.132625798513054" lon="13.226478428581018"><ele>266.0</ele><time>2026-03-29T08:03:00Z</time></trkpt><trkpt lat="38.13269173645437" lon="13.22664921466809"><ele>266.0</ele><time>2026-03-29T08:03:01Z</time></trkpt><trkpt lat="38.13273009936822" lon="13.226769610539325"><ele>266.0</ele><time>2026-03-29T08:03:02Z</time></trkpt><trkpt lat="38.13274952280061" lon="13.226868117498412"><ele>266.0</ele><time>2026-03-29T08:03:03Z</time></trkpt><trkpt lat="38.1327213738159" lon="13.226946622070342"><ele>266.0</ele><time>2026-03-29T08:03:04Z</time></trkpt><trkpt lat="38.13269281095035" lon="13.227052794258375"><ele>266.0</ele><time>2026-03-29T08:03:05Z</time></trkpt><trkpt lat="38.13264036620832" lon="13.22717416501813"><ele>266.0</ele><time>2026-03-29T08:03:06Z</time></trkpt><trkpt lat="38.13257051709547" lon="13.22731551802139"><ele>265.75</ele><time>2026-03-29T08:03:07Z</time></trkpt><trkpt lat="38.13249397270437" lon="13.227466329464855"><ele>265.5</ele><time>2026-03-29T08:03:08Z</time></trkpt><trkpt lat="38.132420300718906" lon="13.2275857772601"><ele>265.25</ele><time>2026-03-29T08:03:09Z</time></trkpt><trkpt lat="38.13234105240425" lon="13.227696075852446"><ele>265.0</ele><time>2026-03-29T08:03:10Z</time></trkpt><trkpt lat="38.132259851956604" lon="13.227806959290076"><ele>269.75</ele><time>2026-03-29T08:03:11Z</time></trkpt><trkpt lat="38.13217897800138" lon="13.227927426057045"><ele>274.5</ele><time>2026-03-29T08:03:12Z</time></trkpt><trkpt lat="38.132109472343544" lon="13.228044969372359"><ele>279.25</ele><time>2026-03-29T08:03:13Z</time></trkpt><trkpt lat="38.13205043883485" lon="13.228164092341368"><ele>284.0</ele><time>2026-03-29T08:03:14Z</time></trkpt><trkpt lat="38.13200089143519" lon="13.228290308412419"><ele>284.0</ele><time>2026-03-29T08:03:15Z</time></trkpt><trkpt lat="38.131956953265" lon="13.228418574014427"><ele>284.0</ele><time>2026-03-29T08:03:16Z</time></trkpt><trkpt lat="38.131911059144734" lon="13.228553882870372"><ele>284.0</ele><time>2026-03-29T08:03:17Z</time></trkpt><trkpt lat="38.131869711901466" lon="13.22868353178462"><ele>284.0</ele><time>2026-03-29T08:03:18Z</time></trkpt><trkpt lat="38.13182808861824" lon="13.228813806136811"><ele>284.0</ele><time>2026-03-29T08:03:19Z</time></trkpt><trkpt lat="38.1317858147184" lon="13.228942719247017"><ele>283.2</ele><time>2026-03-29T08:03:20Z</time></trkpt><trkpt lat="38.131743833450685" lon="13.229070740033585"><ele>282.4</ele><time>2026-03-29T08:03:21Z</time></trkpt><trkpt lat="38.13170270137363" lon="13.229202539925195"><ele>281.6</ele><time>2026-03-29T08:03:22Z</time></trkpt><trkpt lat="38.13165926702364" lon="13.229342724225146"><ele>280.8</ele><time>2026-03-29T08:03:23Z</time></trkpt><trkpt lat="38.13161532269375" lon="13.229461285301568"><ele>280.0</ele><time>2026-03-29T08:03:24Z</time></trkpt><trkpt lat="38.1315616830482" lon="13.229577294002768"><ele>283.6</ele><time>2026-03-29T08:03:25Z</time></trkpt><trkpt lat="38.13150298306606" lon="13.229676929590546"><ele>287.2</ele><time>2026-03-29T08:03:26Z</time></trkpt><trkpt lat="38.13142769705282" lon="13.229758676288816"><ele>290.8</ele><time>2026-03-29T08:03:27Z</time></trkpt><trkpt lat="38.13133387354182" lon="13.229832414998368"><ele>294.4</ele><time>2026-03-29T08:03:28Z</time></trkpt><trkpt lat="38.1312421668125" lon="13.229912963042574"><ele>298.0</ele><time>2026-03-29T08:03:29Z</time></trkpt><trkpt lat="38.13114198957426" lon="13.229959839067366"><ele>298.0</ele><time>2026-03-29T08:03:30Z</time></trkpt><trkpt lat="38.13104948643043" lon="13.230064916925697"><ele>298.0</ele><time>2026-03-29T08:03:31Z</time></trkpt><trkpt lat="38.1309844953119" lon="13.23017111479191"><ele>298.0</ele><time>2026-03-29T08:03:32Z</time></trkpt><trkpt lat="38.13092964604918" lon="13.230291632346946"><ele>298.0</ele><time>2026-03-29T08:03:33Z</time></trkpt><trkpt lat="38.13089432062792" lon="13.230421632439386"><ele>298.0</ele><time>2026-03-29T08:03:34Z</time></trkpt><trkpt lat="38.13086583848646" lon="13.230538888118474"><ele>296.25</ele><time>2026-03-29T08:03:35Z</time></trkpt><trkpt lat="38.13086276761192" lon="13.230680169149286"><ele>294.5</ele><time>2026-03-29T08:03:36Z</time></trkpt><trkpt lat="38.13087713205683" lon="13.2308239171263"><ele>292.75</ele><time>2026-03-29T08:03:37Z</time></trkpt><trkpt lat="38.130919032004655" lon="13.230969067668513"><ele>291.0</ele><time>2026-03-29T08:03:38Z</time></trkpt><trkpt lat="38.13096107799464" lon="13.231108063589069"><ele>291.0</ele><time>2026-03-29T08:03:39Z</time></trkpt><trkpt lat="38.13101027033894" lon="13.231246608792185"><ele>291.0</ele><time>2026-03-29T08:03:40Z</time></trkpt><trkpt lat="38.131052945936275" lon="13.231379967937583"><ele>291.0</ele><time>2026-03-29T08:03:41Z</time></trkpt><trkpt lat="38.13109119607786" lon="13.231515288458473"><ele>291.0</ele><time>2026-03-29T08:03:42Z</time></trkpt><trkpt lat="38.131133140532484" lon="13.231656802746006"><ele>292.2</ele><time>2026-03-29T08:03:43Z</time></trkpt><trkpt lat="38.13117728039442" lon="13.231781834010883"><ele>293.40000000000003</ele><time>2026-03-29T08:03:44Z</time></trkpt><trkpt lat="38.13122278704872" lon="13.231886012948378"><ele>294.6</ele><time>2026-03-29T08:03:45Z</time></trkpt><trkpt lat="38.131213567440696" lon="13.231976075457386"><ele>295.8</ele><time>2026-03-29T08:03:46Z</time></trkpt><trkpt lat="38.13117183804892" lon="13.232135162643011"><ele>297.0</ele><time>2026-03-29T08:03:48Z</time></trkpt><trkpt lat="38.131220846751404" lon="13.23228909797869"><ele>298.2</ele><time>2026-03-29T08:03:50Z</time></trkpt><trkpt lat="38.131243284411376" lon="13.232392549459842"><ele>299.4</ele><time>2026-03-29T08:03:51Z</time></trkpt><trkpt lat="38.13122993665614" lon="13.232509237856103"><ele>300.6</ele><time>2026-03-29T08:03:52Z</time></trkpt><trkpt lat="38.131203438458115" lon="13.23266915463792"><ele>301.8</ele><time>2026-03-29T08:03:53Z</time></trkpt><trkpt lat="38.13118285712665" lon="13.23280393073476"><ele>303.0</ele><time>2026-03-29T08:03:54Z</time></trkpt><trkpt lat="38.13116954132013" lon="13.23289720508671"><ele>303.0</ele><time>2026-03-29T08:03:55Z</time></trkpt><trkpt lat="38.131164740853556" lon="13.23299070717199"><ele>303.0</ele><time>2026-03-29T08:03:57Z</time></trkpt><trkpt lat="38.13117371128689" lon="13.233124063575058"><ele>303.0</ele><time>2026-03-29T08:04:04Z</time></trkpt><trkpt lat="38.131197758203676" lon="13.233219966443468"><ele>303.0</ele><time>2026-03-29T08:04:07Z</time></trkpt><trkpt lat="38.13120815157679" lon="13.233326367989333"><ele>303.0</ele><time>2026-03-29T08:04:11Z</time></trkpt><trkpt lat="38.1312236761054" lon="13.233416085507885"><ele>303.0</ele><time>2026-03-29T08:04:13Z</time></trkpt><trkpt lat="38.13121873393511" lon="13.233499751924672"><ele>302.8333333333333</ele><time>2026-03-29T08:04:15Z</time></trkpt><trkpt lat="38.1311946658165" lon="13.233582385760883"><ele>302.6666666666667</ele><time>2026-03-29T08:04:19Z</time></trkpt><trkpt lat="38.1310996494175" lon="13.233561766198656"><ele>302.5</ele><time>2026-03-29T08:04:22Z</time></trkpt><trkpt lat="38.13106788868099" lon="13.233464863895016"><ele>302.33333333333337</ele><time>2026-03-29T08:04:23Z</time></trkpt><trkpt lat="38.130983436017814" lon="13.233438898429675"><ele>302.1666666666667</ele><time>2026-03-29T08:04:25Z</time></trkpt><trkpt lat="38.13091149058736" lon="13.233416340746885"><ele>302.0</ele><time>2026-03-29T08:04:26.999Z</time></trkpt><trkpt lat="38.130848133634366" lon="13.233477618968422"><ele>302.0</ele><time>2026-03-29T08:04:28.999Z</time></trkpt><trkpt lat="38.13076852025522" lon="13.233451944514965"><ele>302.0</ele><time>2026-03-29T08:04:32.999Z</time></trkpt><trkpt lat="38.13064981143812" lon="13.233410365868636"><ele>302.0</ele><time>2026-03-29T08:04:34.999Z</time></trkpt><trkpt lat="38.130536662991084" lon="13.233364401439903"><ele>302.0</ele><time>2026-03-29T08:04:35.999Z</time></trkpt><trkpt lat="38.130459447863856" lon="13.233330973191741"><ele>302.0</ele><time>2026-03-29T08:04:37.999Z</time></trkpt><trkpt lat="38.13034420304359" lon="13.233454492047636"><ele>304.33333333333337</ele><time>2026-03-29T08:04:40.999Z</time></trkpt><trkpt lat="38.13031757867263" lon="13.233538475840632"><ele>306.6666666666667</ele><time>2026-03-29T08:04:41.999Z</time></trkpt><trkpt lat="38.130287085565556" lon="13.233632154102398"><ele>309.0</ele><time>2026-03-29T08:04:42.999Z</time></trkpt><trkpt lat="38.13024203348196" lon="13.233775253689846"><ele>311.3333333333333</ele><time>2026-03-29T08:04:44.999Z</time></trkpt><trkpt lat="38.13021639373755" lon="13.233894916680358"><ele>313.66666666666663</ele><time>2026-03-29T08:04:46.999Z</time></trkpt><trkpt lat="38.13015934563856" lon="13.233935377308686"><ele>316.0</ele><time>2026-03-29T08:04:51Z</time></trkpt><trkpt lat="38.130031981187756" lon="13.233874840527557"><ele>316.0</ele><time>2026-03-29T08:04:52Z</time></trkpt><trkpt lat="38.13005717187456" lon="13.233735705402763"><ele>316.0</ele><time>2026-03-29T08:04:55Z</time></trkpt><trkpt lat="38.13007694223515" lon="13.23364903330886"><ele>316.0</ele><time>2026-03-29T08:04:56Z</time></trkpt><trkpt lat="38.130083533093945" lon="13.233564125951405"><ele>316.0</ele><time>2026-03-29T08:04:58Z</time></trkpt><trkpt lat="38.13002260463852" lon="13.23352379447953"><ele>316.0</ele><time>2026-03-29T08:04:59Z</time></trkpt><trkpt lat="38.12990373020878" lon="13.233494841903797"><ele>316.0</ele><time>2026-03-29T08:05:01Z</time></trkpt><trkpt lat="38.129811356283064" lon="13.233515168649493"><ele>317.0</ele><time>2026-03-29T08:05:03Z</time></trkpt><trkpt lat="38.12973398292843" lon="13.233818621421072"><ele>318.0</ele><time>2026-03-29T08:05:06Z</time></trkpt><trkpt lat="38.12967639714238" lon="13.233910363651836"><ele>319.0</ele><time>2026-03-29T08:05:07Z</time></trkpt><trkpt lat="38.12965803493628" lon="13.234061187435808"><ele>319.0</ele><time>2026-03-29T08:05:09Z</time></trkpt><trkpt lat="38.12962158190423" lon="13.234185894637662"><ele>319.0</ele><time>2026-03-29T08:05:11Z</time></trkpt><trkpt lat="38.12957224496662" lon="13.234312494643463"><ele>319.0</ele><time>2026-03-29T08:05:13Z</time></trkpt><trkpt lat="38.12950156410157" lon="13.234374032249761"><ele>319.0</ele><time>2026-03-29T08:05:14Z</time></trkpt><trkpt lat="38.12945958769435" lon="13.234480733446274"><ele>319.0</ele><time>2026-03-29T08:05:15Z</time></trkpt><trkpt lat="38.129391015494576" lon="13.234565268880338"><ele>319.0</ele><time>2026-03-29T08:05:16Z</time></trkpt><trkpt lat="38.12928808201912" lon="13.234646840492196"><ele>319.0</ele><time>2026-03-29T08:05:18Z</time></trkpt><trkpt lat="38.12917192536981" lon="13.23464825014851"><ele>319.0</ele><time>2026-03-29T08:05:19Z</time></trkpt><trkpt lat="38.129085667095595" lon="13.234720042236942"><ele>319.0</ele><time>2026-03-29T08:05:20Z</time></trkpt><trkpt lat="38.12893998127196" lon="13.234785718315548"><ele>319.0</ele><time>2026-03-29T08:05:21Z</time></trkpt><trkpt lat="38.12883515837013" lon="13.234847858334994"><ele>319.0</ele><time>2026-03-29T08:05:22Z</time></trkpt><trkpt lat="38.12871994432487" lon="13.234905632609092"><ele>319.0</ele><time>2026-03-29T08:05:23Z</time></trkpt><trkpt lat="38.12861360435388" lon="13.234962892789804"><ele>319.0</ele><time>2026-03-29T08:05:24Z</time></trkpt><trkpt lat="38.12851237453266" lon="13.235017657241048"><ele>319.0</ele><time>2026-03-29T08:05:25Z</time></trkpt><trkpt lat="38.12840018601897" lon="13.23507826908413"><ele>319.0</ele><time>2026-03-29T08:05:26Z</time></trkpt><trkpt lat="38.12830251310674" lon="13.235159899044145"><ele>319.0</ele><time>2026-03-29T08:05:27Z</time></trkpt><trkpt lat="38.128198813282836" lon="13.235210820658658"><ele>319.0</ele><time>2026-03-29T08:05:28Z</time></trkpt><trkpt lat="38.12811242934849" lon="13.235291159992673"><ele>319.75</ele><time>2026-03-29T08:05:29Z</time></trkpt><trkpt lat="38.12801490142568" lon="13.235360846640251"><ele>320.5</ele><time>2026-03-29T08:05:30Z</time></trkpt><trkpt lat="38.12792197040737" lon="13.235463706276406"><ele>321.25</ele><time>2026-03-29T08:05:31Z</time></trkpt><trkpt lat="38.1278263563391" lon="13.235568784009244"><ele>322.0</ele><time>2026-03-29T08:05:32Z</time></trkpt><trkpt lat="38.12772471944213" lon="13.235663554500098"><ele>322.0</ele><time>2026-03-29T08:05:33Z</time></trkpt><trkpt lat="38.12763742772549" lon="13.235739738435775"><ele>322.0</ele><time>2026-03-29T08:05:34Z</time></trkpt><trkpt lat="38.12758605422497" lon="13.235817886847888"><ele>322.0</ele><time>2026-03-29T08:05:35Z</time></trkpt><trkpt lat="38.12748156318556" lon="13.235891835330515"><ele>322.0</ele><time>2026-03-29T08:05:37Z</time></trkpt><trkpt lat="38.12743871616283" lon="13.235952563058527"><ele>322.0</ele><time>2026-03-29T08:05:38Z</time></trkpt><trkpt lat="38.12736032610769" lon="13.236032303964944"><ele>332.25</ele><time>2026-03-29T08:05:39Z</time></trkpt><trkpt lat="38.127310176841355" lon="13.236083776722106"><ele>342.5</ele><time>2026-03-29T08:05:40Z</time></trkpt><trkpt lat="38.12722324313532" lon="13.236174148753594"><ele>352.75</ele><time>2026-03-29T08:05:41Z</time></trkpt><trkpt lat="38.1271242115767" lon="13.236288724842693"><ele>363.0</ele><time>2026-03-29T08:05:42Z</time></trkpt><trkpt lat="38.1270262067667" lon="13.236441888588253"><ele>354.0</ele><time>2026-03-29T08:05:43Z</time></trkpt><trkpt lat="38.12692723275669" lon="13.236623203255219"><ele>345.0</ele><time>2026-03-29T08:05:44Z</time></trkpt><trkpt lat="38.12682779520398" lon="13.236805439818296"><ele>336.0</ele><time>2026-03-29T08:05:45Z</time></trkpt><trkpt lat="38.12673200882266" lon="13.2370004003201"><ele>336.0</ele><time>2026-03-29T08:05:46Z</time></trkpt><trkpt lat="38.12659905176924" lon="13.237226519220732"><ele>336.0</ele><time>2026-03-29T08:05:47Z</time></trkpt><trkpt lat="38.12644634262604" lon="13.237450613603366"><ele>344.3333333333333</ele><time>2026-03-29T08:05:48Z</time></trkpt><trkpt lat="38.12627565978826" lon="13.23768560755055"><ele>352.66666666666663</ele><time>2026-03-29T08:05:49Z</time></trkpt><trkpt lat="38.12614558542203" lon="13.237869906193994"><ele>361.0</ele><time>2026-03-29T08:05:50Z</time></trkpt><trkpt lat="38.12603098833123" lon="13.238041668445074"><ele>352.3333333333333</ele><time>2026-03-29T08:05:51Z</time></trkpt><trkpt lat="38.125944073659745" lon="13.238225517927761"><ele>343.6666666666667</ele><time>2026-03-29T08:05:52Z</time></trkpt><trkpt lat="38.12587673362063" lon="13.238410656468691"><ele>335.0</ele><time>2026-03-29T08:05:53Z</time></trkpt><trkpt lat="38.12581246367303" lon="13.238571906723957"><ele>344.25</ele><time>2026-03-29T08:05:54Z</time></trkpt><trkpt lat="38.12571908741233" lon="13.238695204120349"><ele>353.5</ele><time>2026-03-29T08:05:55Z</time></trkpt><trkpt lat="38.12562125112124" lon="13.238785425810297"><ele>362.75</ele><time>2026-03-29T08:05:56Z</time></trkpt><trkpt lat="38.1254966999225" lon="13.238895380916775"><ele>372.0</ele><time>2026-03-29T08:05:57Z</time></trkpt><trkpt lat="38.12534885446003" lon="13.238960823534713"><ele>373.0</ele><time>2026-03-29T08:05:58Z</time></trkpt><trkpt lat="38.12521002522979" lon="13.238996950915705"><ele>374.0</ele><time>2026-03-29T08:05:59Z</time></trkpt><trkpt lat="38.1250733874356" lon="13.239008690424388"><ele>375.0</ele><time>2026-03-29T08:06:00Z</time></trkpt><trkpt lat="38.12493585572041" lon="13.238994100048721"><ele>376.0</ele><time>2026-03-29T08:06:01Z</time></trkpt><trkpt lat="38.124781963642015" lon="13.238965940337582"><ele>376.0</ele><time>2026-03-29T08:06:02Z</time></trkpt><trkpt lat="38.12464025311276" lon="13.238929796605376"><ele>376.0</ele><time>2026-03-29T08:06:03Z</time></trkpt><trkpt lat="38.12448445299977" lon="13.238886574724686"><ele>376.0</ele><time>2026-03-29T08:06:04Z</time></trkpt><trkpt lat="38.12432118112656" lon="13.238882018311244"><ele>376.0</ele><time>2026-03-29T08:06:05Z</time></trkpt><trkpt lat="38.124165784788836" lon="13.238857348163851"><ele>376.0</ele><time>2026-03-29T08:06:06Z</time></trkpt><trkpt lat="38.12399704973652" lon="13.238849836472744"><ele>376.0</ele><time>2026-03-29T08:06:07Z</time></trkpt><trkpt lat="38.123833162819885" lon="13.238842993497602"><ele>374.66666666666663</ele><time>2026-03-29T08:06:08Z</time></trkpt><trkpt lat="38.1236719571171" lon="13.238825604166147"><ele>373.3333333333333</ele><time>2026-03-29T08:06:09Z</time></trkpt><trkpt lat="38.12349460617692" lon="13.238797241118705"><ele>372.0</ele><time>2026-03-29T08:06:10Z</time></trkpt><trkpt lat="38.123318154896246" lon="13.238752242201942"><ele>372.6666666666667</ele><time>2026-03-29T08:06:11Z</time></trkpt><trkpt lat="38.12315278437887" lon="13.238714035909839"><ele>373.33333333333337</ele><time>2026-03-29T08:06:12Z</time></trkpt><trkpt lat="38.122996913726304" lon="13.238690331545373"><ele>374.0</ele><time>2026-03-29T08:06:13Z</time></trkpt><trkpt lat="38.1228536469411" lon="13.23866269414739"><ele>374.0</ele><time>2026-03-29T08:06:14Z</time></trkpt><trkpt lat="38.12270329910149" lon="13.238647023513007"><ele>374.0</ele><time>2026-03-29T08:06:15Z</time></trkpt><trkpt lat="38.12253529185374" lon="13.23863843232232"><ele>374.0</ele><time>2026-03-29T08:06:16Z</time></trkpt><trkpt lat="38.12236125877861" lon="13.23864727298932"><ele>376.6666666666667</ele><time>2026-03-29T08:06:17Z</time></trkpt><trkpt lat="38.12217448843112" lon="13.238696672258502"><ele>379.3333333333333</ele><time>2026-03-29T08:06:18Z</time></trkpt><trkpt lat="38.121977325954745" lon="13.238742773617597"><ele>382.0</ele><time>2026-03-29T08:06:19Z</time></trkpt><trkpt lat="38.12177985473939" lon="13.238786223144158"><ele>382.0</ele><time>2026-03-29T08:06:20Z</time></trkpt><trkpt lat="38.1215885343817" lon="13.238814986510976"><ele>382.0</ele><time>2026-03-29T08:06:21Z</time></trkpt><trkpt lat="38.121398387886636" lon="13.238845253327483"><ele>382.0</ele><time>2026-03-29T08:06:22Z</time></trkpt><trkpt lat="38.121219065289196" lon="13.238883265127319"><ele>377.0</ele><time>2026-03-29T08:06:23Z</time></trkpt><trkpt lat="38.12106140108328" lon="13.238917788424342"><ele>372.0</ele><time>2026-03-29T08:06:24Z</time></trkpt><trkpt lat="38.120902849122515" lon="13.238988355307587"><ele>367.0</ele><time>2026-03-29T08:06:25Z</time></trkpt><trkpt lat="38.12074425066089" lon="13.239092750310078"><ele>372.3333333333333</ele><time>2026-03-29T08:06:26Z</time></trkpt><trkpt lat="38.1206046716358" lon="13.239179380507494"><ele>377.6666666666667</ele><time>2026-03-29T08:06:27Z</time></trkpt><trkpt lat="38.12045648690404" lon="13.239226626732835"><ele>383.0</ele><time>2026-03-29T08:06:28Z</time></trkpt><trkpt lat="38.12027906601241" lon="13.2392564630695"><ele>383.0</ele><time>2026-03-29T08:06:29Z</time></trkpt><trkpt lat="38.12010204777992" lon="13.239274914879053"><ele>383.0</ele><time>2026-03-29T08:06:30Z</time></trkpt><trkpt lat="38.11994167990569" lon="13.239296209182202"><ele>383.0</ele><time>2026-03-29T08:06:31Z</time></trkpt><trkpt lat="38.119792444991184" lon="13.239294358256013"><ele>386.0</ele><time>2026-03-29T08:06:31.999Z</time></trkpt><trkpt lat="38.11964659346389" lon="13.239311248081057"><ele>389.0</ele><time>2026-03-29T08:06:32.999Z</time></trkpt><trkpt lat="38.11949774898413" lon="13.239291506788652"><ele>392.0</ele><time>2026-03-29T08:06:33.999Z</time></trkpt><trkpt lat="38.11936184413918" lon="13.239271100595797"><ele>395.0</ele><time>2026-03-29T08:06:34.999Z</time></trkpt><trkpt lat="38.11925375133447" lon="13.23924970017877"><ele>395.0</ele><time>2026-03-29T08:06:35.999Z</time></trkpt><trkpt lat="38.11917477653232" lon="13.23922927740829"><ele>395.0</ele><time>2026-03-29T08:06:36.999Z</time></trkpt><trkpt lat="38.11910184311007" lon="13.239245306393794"><ele>395.0</ele><time>2026-03-29T08:06:37.999Z</time></trkpt><trkpt lat="38.11903943358478" lon="13.23929041292829"><ele>395.0</ele><time>2026-03-29T08:06:38.999Z</time></trkpt><trkpt lat="38.11901759493521" lon="13.239371302208593"><ele>395.0</ele><time>2026-03-29T08:06:39.999Z</time></trkpt><trkpt lat="38.119022064040266" lon="13.23947821592029"><ele>395.0</ele><time>2026-03-29T08:06:40.999Z</time></trkpt><trkpt lat="38.11903325048697" lon="13.239564838400455"><ele>395.0</ele><time>2026-03-29T08:06:41.999Z</time></trkpt><trkpt lat="38.11909893183045" lon="13.239642683004917"><ele>395.0</ele><time>2026-03-29T08:06:42.999Z</time></trkpt><trkpt lat="38.119218350519425" lon="13.239660180784046"><ele>395.0</ele><time>2026-03-29T08:06:43.999Z</time></trkpt><trkpt lat="38.11932887119751" lon="13.239717907450803"><ele>395.0</ele><time>2026-03-29T08:06:45Z</time></trkpt><trkpt lat="38.11944288092746" lon="13.239757070224092"><ele>395.0</ele><time>2026-03-29T08:06:46Z</time></trkpt><trkpt lat="38.11951120580596" lon="13.23978529504935"><ele>395.0</ele><time>2026-03-29T08:06:47Z</time></trkpt><trkpt lat="38.11956320478638" lon="13.2398384803955"><ele>395.0</ele><time>2026-03-29T08:06:49Z</time></trkpt><trkpt lat="38.11945720972745" lon="13.239888890513894"><ele>395.0</ele><time>2026-03-29T08:06:52Z</time></trkpt><trkpt lat="38.11936125241524" lon="13.239829936886608"><ele>395.0</ele><time>2026-03-29T08:06:53Z</time></trkpt><trkpt lat="38.11923386518571" lon="13.239780764018372"><ele>395.0</ele><time>2026-03-29T08:06:54Z</time></trkpt><trkpt lat="38.11907026176842" lon="13.23973110984357"><ele>396.0</ele><time>2026-03-29T08:06:55Z</time></trkpt><trkpt lat="38.11889173982135" lon="13.239685009728786"><ele>397.0</ele><time>2026-03-29T08:06:56Z</time></trkpt><trkpt lat="38.11868178410999" lon="13.239634768652685"><ele>398.0</ele><time>2026-03-29T08:06:57Z</time></trkpt><trkpt lat="38.118462373676145" lon="13.239559878754344"><ele>398.0</ele><time>2026-03-29T08:06:58Z</time></trkpt><trkpt lat="38.118257751515344" lon="13.239469260981874"><ele>398.0</ele><time>2026-03-29T08:06:59Z</time></trkpt><trkpt lat="38.11808592992452" lon="13.239382438306768"><ele>398.0</ele><time>2026-03-29T08:07:00Z</time></trkpt><trkpt lat="38.11795044496209" lon="13.239295570525128"><ele>401.5</ele><time>2026-03-29T08:07:01Z</time></trkpt><trkpt lat="38.11786096075177" lon="13.239196069381174"><ele>405.0</ele><time>2026-03-29T08:07:02Z</time></trkpt><trkpt lat="38.11777972957251" lon="13.239083240587702"><ele>408.5</ele><time>2026-03-29T08:07:03Z</time></trkpt><trkpt lat="38.11771067985475" lon="13.238961161534426"><ele>412.0</ele><time>2026-03-29T08:07:04Z</time></trkpt><trkpt lat="38.11764374260045" lon="13.238854755849157"><ele>412.8</ele><time>2026-03-29T08:07:05Z</time></trkpt><trkpt lat="38.11760427268227" lon="13.238751672982856"><ele>413.6</ele><time>2026-03-29T08:07:06Z</time></trkpt><trkpt lat="38.11752079219759" lon="13.238667454327597"><ele>414.40000000000003</ele><time>2026-03-29T08:07:08Z</time></trkpt><trkpt lat="38.11744043900752" lon="13.2387536374422"><ele>415.20000000000005</ele><time>2026-03-29T08:07:10Z</time></trkpt><trkpt lat="38.11744517427924" lon="13.23884183032825"><ele>416.0</ele><time>2026-03-29T08:07:11Z</time></trkpt><trkpt lat="38.11749891500693" lon="13.238961760426312"><ele>415.0</ele><time>2026-03-29T08:07:12Z</time></trkpt><trkpt lat="38.11757637228299" lon="13.239119640678421"><ele>414.0</ele><time>2026-03-29T08:07:13Z</time></trkpt><trkpt lat="38.117699025731675" lon="13.23926932904508"><ele>413.0</ele><time>2026-03-29T08:07:14Z</time></trkpt><trkpt lat="38.11777236076781" lon="13.239382543488317"><ele>412.0</ele><time>2026-03-29T08:07:15Z</time></trkpt><trkpt lat="38.1178416403178" lon="13.239464864381826"><ele>412.0</ele><time>2026-03-29T08:07:16Z</time></trkpt><trkpt lat="38.11789736530443" lon="13.239551271572271"><ele>412.0</ele><time>2026-03-29T08:07:18Z</time></trkpt><trkpt lat="38.11790426502239" lon="13.239635377901278"><ele>412.0</ele><time>2026-03-29T08:07:20Z</time></trkpt><trkpt lat="38.117805918909895" lon="13.239628238627954"><ele>412.0</ele><time>2026-03-29T08:07:22Z</time></trkpt><trkpt lat="38.11774291270571" lon="13.239566410230081"><ele>412.0</ele><time>2026-03-29T08:07:23Z</time></trkpt><trkpt lat="38.1176347863931" lon="13.239498344364536"><ele>412.0</ele><time>2026-03-29T08:07:24Z</time></trkpt><trkpt lat="38.11752110524709" lon="13.23937739431782"><ele>412.0</ele><time>2026-03-29T08:07:25Z</time></trkpt><trkpt lat="38.11742446037172" lon="13.239291357319825"><ele>412.0</ele><time>2026-03-29T08:07:26Z</time></trkpt><trkpt lat="38.117385907019916" lon="13.23914600458293"><ele>412.0</ele><time>2026-03-29T08:07:27Z</time></trkpt><trkpt lat="38.117304728556334" lon="13.23897860997042"><ele>414.33333333333337</ele><time>2026-03-29T08:07:28Z</time></trkpt><trkpt lat="38.11721081633142" lon="13.23877689813844"><ele>416.66666666666663</ele><time>2026-03-29T08:07:29Z</time></trkpt><trkpt lat="38.117103783799365" lon="13.23863213186024"><ele>419.0</ele><time>2026-03-29T08:07:30Z</time></trkpt><trkpt lat="38.11701869340958" lon="13.238542919695321"><ele>419.0</ele><time>2026-03-29T08:07:31Z</time></trkpt><trkpt lat="38.11696001239355" lon="13.238498395960386"><ele>419.0</ele><time>2026-03-29T08:07:32Z</time></trkpt><trkpt lat="38.11685823040858" lon="13.238543536648637"><ele>419.0</ele><time>2026-03-29T08:07:34Z</time></trkpt><trkpt lat="38.11682875389601" lon="13.238623128695115"><ele>419.0</ele><time>2026-03-29T08:07:35Z</time></trkpt><trkpt lat="38.11689261817589" lon="13.238860468960722"><ele>419.0</ele><time>2026-03-29T08:07:37Z</time></trkpt><trkpt lat="38.11693859833961" lon="13.2390547450981"><ele>424.3333333333333</ele><time>2026-03-29T08:07:38Z</time></trkpt><trkpt lat="38.117005874798565" lon="13.23926969813893"><ele>429.66666666666663</ele><time>2026-03-29T08:07:39Z</time></trkpt><trkpt lat="38.11708366440403" lon="13.239473847458985"><ele>435.0</ele><time>2026-03-29T08:07:40Z</time></trkpt><trkpt lat="38.11719246792773" lon="13.239604782346024"><ele>435.0</ele><time>2026-03-29T08:07:41Z</time></trkpt><trkpt lat="38.11731031406641" lon="13.239713146656959"><ele>435.0</ele><time>2026-03-29T08:07:42Z</time></trkpt><trkpt lat="38.117470660071014" lon="13.239827336396397"><ele>435.0</ele><time>2026-03-29T08:07:43Z</time></trkpt><trkpt lat="38.117631541609136" lon="13.23996028532495"><ele>436.66666666666663</ele><time>2026-03-29T08:07:44Z</time></trkpt><trkpt lat="38.11775948499879" lon="13.240074435137016"><ele>438.3333333333333</ele><time>2026-03-29T08:07:45Z</time></trkpt><trkpt lat="38.11789689165259" lon="13.240218185858577"><ele>440.0</ele><time>2026-03-29T08:07:46Z</time></trkpt><trkpt lat="38.11805333741282" lon="13.240382228437975"><ele>440.0</ele><time>2026-03-29T08:07:47Z</time></trkpt><trkpt lat="38.11820469937786" lon="13.24052633576728"><ele>440.0</ele><time>2026-03-29T08:07:48Z</time></trkpt><trkpt lat="38.118347579568955" lon="13.240633066672773"><ele>440.0</ele><time>2026-03-29T08:07:49Z</time></trkpt><trkpt lat="38.118518225587735" lon="13.240689989747708"><ele>446.0</ele><time>2026-03-29T08:07:50Z</time></trkpt><trkpt lat="38.11870871491341" lon="13.24074817155376"><ele>452.0</ele><time>2026-03-29T08:07:51Z</time></trkpt><trkpt lat="38.11889292125378" lon="13.240826828432278"><ele>458.0</ele><time>2026-03-29T08:07:52Z</time></trkpt><trkpt lat="38.11905124210501" lon="13.240889221521138"><ele>451.0</ele><time>2026-03-29T08:07:53Z</time></trkpt><trkpt lat="38.11921000152906" lon="13.240980753967087"><ele>444.0</ele><time>2026-03-29T08:07:54Z</time></trkpt><trkpt lat="38.119387640010636" lon="13.24110371458183"><ele>437.0</ele><time>2026-03-29T08:07:55Z</time></trkpt><trkpt lat="38.119550289282984" lon="13.241199349792327"><ele>437.0</ele><time>2026-03-29T08:07:56Z</time></trkpt><trkpt lat="38.1197406432147" lon="13.241258786743888"><ele>437.0</ele><time>2026-03-29T08:07:57Z</time></trkpt><trkpt lat="38.11991397223158" lon="13.241314089677099"><ele>437.0</ele><time>2026-03-29T08:07:58Z</time></trkpt><trkpt lat="38.12008170992314" lon="13.241362883609282"><ele>431.0</ele><time>2026-03-29T08:07:59Z</time></trkpt><trkpt lat="38.120255132669236" lon="13.24142033255548"><ele>425.0</ele><time>2026-03-29T08:08:00Z</time></trkpt><trkpt lat="38.12044315100633" lon="13.241525533178706"><ele>419.0</ele><time>2026-03-29T08:08:01Z</time></trkpt><trkpt lat="38.12063446535678" lon="13.24163072114903"><ele>430.0</ele><time>2026-03-29T08:08:02Z</time></trkpt><trkpt lat="38.12080371691152" lon="13.241721914612457"><ele>441.0</ele><time>2026-03-29T08:08:03Z</time></trkpt><trkpt lat="38.12095239111499" lon="13.2417968141905"><ele>452.0</ele><time>2026-03-29T08:08:04Z</time></trkpt><trkpt lat="38.12106664027908" lon="13.241885446967197"><ele>452.0</ele><time>2026-03-29T08:08:05Z</time></trkpt><trkpt lat="38.12117350093203" lon="13.24201962835604"><ele>452.0</ele><time>2026-03-29T08:08:06Z</time></trkpt><trkpt lat="38.12129130035136" lon="13.242183447573352"><ele>452.0</ele><time>2026-03-29T08:08:07Z</time></trkpt><trkpt lat="38.12141360317924" lon="13.242363582864877"><ele>452.66666666666663</ele><time>2026-03-29T08:08:08Z</time></trkpt><trkpt lat="38.121536227141625" lon="13.242547560012454"><ele>453.33333333333337</ele><time>2026-03-29T08:08:09Z</time></trkpt><trkpt lat="38.121649960348975" lon="13.24272355894803"><ele>454.0</ele><time>2026-03-29T08:08:10Z</time></trkpt><trkpt lat="38.12173906960497" lon="13.2429101678041"><ele>454.0</ele><time>2026-03-29T08:08:11Z</time></trkpt><trkpt lat="38.12181909403166" lon="13.243115197218517"><ele>454.0</ele><time>2026-03-29T08:08:12Z</time></trkpt><trkpt lat="38.12188063704176" lon="13.243289623537324"><ele>454.0</ele><time>2026-03-29T08:08:13Z</time></trkpt><trkpt lat="38.121936499775515" lon="13.24342485140441"><ele>460.4</ele><time>2026-03-29T08:08:14Z</time></trkpt><trkpt lat="38.12198844269033" lon="13.24353547098732"><ele>466.79999999999995</ele><time>2026-03-29T08:08:15Z</time></trkpt><trkpt lat="38.122036740687015" lon="13.243626593518572"><ele>473.20000000000005</ele><time>2026-03-29T08:08:16Z</time></trkpt><trkpt lat="38.12207458224961" lon="13.243691807212464"><ele>479.6</ele><time>2026-03-29T08:08:17Z</time></trkpt><trkpt lat="38.12195655152336" lon="13.243632981324412"><ele>486.0</ele><time>2026-03-29T08:08:22Z</time></trkpt><trkpt lat="38.12189631189799" lon="13.243478663793686"><ele>486.0</ele><time>2026-03-29T08:08:23Z</time></trkpt><trkpt lat="38.1217803522189" lon="13.243297186717008"><ele>486.0</ele><time>2026-03-29T08:08:24Z</time></trkpt><trkpt lat="38.121674432708325" lon="13.243132875134947"><ele>486.0</ele><time>2026-03-29T08:08:25Z</time></trkpt><trkpt lat="38.121518563305756" lon="13.242946397694757"><ele>489.5</ele><time>2026-03-29T08:08:26Z</time></trkpt><trkpt lat="38.1213440259611" lon="13.242762691056644"><ele>493.0</ele><time>2026-03-29T08:08:27Z</time></trkpt><trkpt lat="38.12117928042706" lon="13.242546193932014"><ele>493.0</ele><time>2026-03-29T08:08:28Z</time></trkpt><trkpt lat="38.121050809280995" lon="13.242388201740914"><ele>493.0</ele><time>2026-03-29T08:08:29Z</time></trkpt><trkpt lat="38.12096586696045" lon="13.242271887501971"><ele>493.0</ele><time>2026-03-29T08:08:30Z</time></trkpt><trkpt lat="38.120928752878875" lon="13.24219593751841"><ele>493.0</ele><time>2026-03-29T08:08:31Z</time></trkpt><trkpt lat="38.12085633848952" lon="13.242143442623455"><ele>493.0</ele><time>2026-03-29T08:08:33Z</time></trkpt><trkpt lat="38.120779602365964" lon="13.242265149663478"><ele>493.0</ele><time>2026-03-29T08:08:35Z</time></trkpt><trkpt lat="38.120802466095455" lon="13.242380997891702"><ele>493.0</ele><time>2026-03-29T08:08:36Z</time></trkpt><trkpt lat="38.120896920765226" lon="13.242486575543673"><ele>493.0</ele><time>2026-03-29T08:08:37Z</time></trkpt><trkpt lat="38.12100851245478" lon="13.24264326662746"><ele>493.0</ele><time>2026-03-29T08:08:38Z</time></trkpt><trkpt lat="38.1211163344433" lon="13.24281013155048"><ele>493.0</ele><time>2026-03-29T08:08:39Z</time></trkpt><trkpt lat="38.12123728765408" lon="13.243020399080354"><ele>493.0</ele><time>2026-03-29T08:08:40Z</time></trkpt><trkpt lat="38.12135106265918" lon="13.243264116249115"><ele>489.5</ele><time>2026-03-29T08:08:41Z</time></trkpt><trkpt lat="38.121467604376164" lon="13.243523958213387"><ele>486.0</ele><time>2026-03-29T08:08:42Z</time></trkpt><trkpt lat="38.12159157533373" lon="13.243785769064718"><ele>496.0</ele><time>2026-03-29T08:08:43Z</time></trkpt><trkpt lat="38.12172142044174" lon="13.243967177161426"><ele>506.0</ele><time>2026-03-29T08:08:44Z</time></trkpt><trkpt lat="38.12187580998481" lon="13.244140231919005"><ele>516.0</ele><time>2026-03-29T08:08:45Z</time></trkpt><trkpt lat="38.12204043276787" lon="13.244339593990738"><ele>516.0</ele><time>2026-03-29T08:08:46Z</time></trkpt><trkpt lat="38.12225884592436" lon="13.244541492519843"><ele>516.0</ele><time>2026-03-29T08:08:47Z</time></trkpt><trkpt lat="38.12248719543232" lon="13.244726024528534"><ele>518.0</ele><time>2026-03-29T08:08:48Z</time></trkpt><trkpt lat="38.12272221319993" lon="13.244911278293037"><ele>520.0</ele><time>2026-03-29T08:08:49Z</time></trkpt><trkpt lat="38.12294442770967" lon="13.245043067627115"><ele>520.0</ele><time>2026-03-29T08:08:50Z</time></trkpt><trkpt lat="38.123185454671905" lon="13.245186855886129"><ele>520.0</ele><time>2026-03-29T08:08:51Z</time></trkpt><trkpt lat="38.12341870480398" lon="13.245309326458582"><ele>512.6666666666667</ele><time>2026-03-29T08:08:52Z</time></trkpt><trkpt lat="38.123629462353364" lon="13.245425612928551"><ele>505.33333333333337</ele><time>2026-03-29T08:08:53Z</time></trkpt><trkpt lat="38.123801464237324" lon="13.245558688626977"><ele>498.0</ele><time>2026-03-29T08:08:54Z</time></trkpt><trkpt lat="38.12398296065284" lon="13.245728849512554"><ele>511.0</ele><time>2026-03-29T08:08:55Z</time></trkpt><trkpt lat="38.12419145111329" lon="13.245877596515873"><ele>524.0</ele><time>2026-03-29T08:08:56Z</time></trkpt><trkpt lat="38.124426180409976" lon="13.246022766305632"><ele>524.0</ele><time>2026-03-29T08:08:57Z</time></trkpt><trkpt lat="38.12468345606929" lon="13.246173660873149"><ele>524.0</ele><time>2026-03-29T08:08:58Z</time></trkpt><trkpt lat="38.12494502783797" lon="13.246315467584632"><ele>513.0</ele><time>2026-03-29T08:08:59Z</time></trkpt><trkpt lat="38.12516538593086" lon="13.246438689926258"><ele>502.0</ele><time>2026-03-29T08:09:00Z</time></trkpt><trkpt lat="38.12535999104844" lon="13.246542050862613"><ele>519.0</ele><time>2026-03-29T08:09:01Z</time></trkpt><trkpt lat="38.12557432738276" lon="13.24661026016498"><ele>536.0</ele><time>2026-03-29T08:09:02Z</time></trkpt><trkpt lat="38.12581209064201" lon="13.246663985531061"><ele>536.0</ele><time>2026-03-29T08:09:03Z</time></trkpt><trkpt lat="38.1260735984017" lon="13.246717979084062"><ele>536.0</ele><time>2026-03-29T08:09:04Z</time></trkpt><trkpt lat="38.12633494468491" lon="13.246750040675964"><ele>533.0</ele><time>2026-03-29T08:09:05Z</time></trkpt><trkpt lat="38.126563963323235" lon="13.246816145395822"><ele>530.0</ele><time>2026-03-29T08:09:06Z</time></trkpt><trkpt lat="38.126767544120014" lon="13.246859304467135"><ele>527.0</ele><time>2026-03-29T08:09:07Z</time></trkpt><trkpt lat="38.12696700911323" lon="13.246915839088464"><ele>527.0</ele><time>2026-03-29T08:09:08Z</time></trkpt><trkpt lat="38.12714764972379" lon="13.246983834111523"><ele>527.0</ele><time>2026-03-29T08:09:09Z</time></trkpt><trkpt lat="38.12732509388768" lon="13.247069613149813"><ele>527.0</ele><time>2026-03-29T08:09:10Z</time></trkpt><trkpt lat="38.1275085987923" lon="13.247163354879596"><ele>524.6666666666666</ele><time>2026-03-29T08:09:11Z</time></trkpt><trkpt lat="38.12767921019619" lon="13.247259083266425"><ele>522.3333333333334</ele><time>2026-03-29T08:09:12Z</time></trkpt><trkpt lat="38.12783649772214" lon="13.247358797900018"><ele>520.0</ele><time>2026-03-29T08:09:13Z</time></trkpt><trkpt lat="38.127992958164384" lon="13.247469257802576"><ele>528.3333333333334</ele><time>2026-03-29T08:09:14Z</time></trkpt><trkpt lat="38.128143574547806" lon="13.24758148310357"><ele>536.6666666666666</ele><time>2026-03-29T08:09:15Z</time></trkpt><trkpt lat="38.12829063442103" lon="13.247697166764418"><ele>545.0</ele><time>2026-03-29T08:09:16Z</time></trkpt><trkpt lat="38.12844643771745" lon="13.247826778187195"><ele>545.0</ele><time>2026-03-29T08:09:17Z</time></trkpt><trkpt lat="38.12859206931294" lon="13.247967487641471"><ele>545.0</ele><time>2026-03-29T08:09:18Z</time></trkpt><trkpt lat="38.12874024264155" lon="13.248126225434323"><ele>545.0</ele><time>2026-03-29T08:09:19Z</time></trkpt><trkpt lat="38.1288803790098" lon="13.248279164466176"><ele>548.5</ele><time>2026-03-29T08:09:20Z</time></trkpt><trkpt lat="38.12900015120428" lon="13.24842177181553"><ele>552.0</ele><time>2026-03-29T08:09:21Z</time></trkpt><trkpt lat="38.129092586398116" lon="13.24853977514956"><ele>555.5</ele><time>2026-03-29T08:09:22Z</time></trkpt><trkpt lat="38.129163626521105" lon="13.24863916215467"><ele>559.0</ele><time>2026-03-29T08:09:23Z</time></trkpt><trkpt lat="38.12920935103842" lon="13.248706205170874"><ele>559.0</ele><time>2026-03-29T08:09:24Z</time></trkpt><trkpt lat="38.129268760288355" lon="13.248797393951685"><ele>559.0</ele><time>2026-03-29T08:09:26Z</time></trkpt><trkpt lat="38.12941701558701" lon="13.24869904986333"><ele>559.0</ele><time>2026-03-29T08:09:28Z</time></trkpt><trkpt lat="38.12948087838612" lon="13.248676719608596"><ele>559.0</ele><time>2026-03-29T08:09:30Z</time></trkpt></trkseg><trkseg><trkpt lat="38.12952110143893" lon="13.248630828624416"><ele>559.0</ele><time>2026-03-29T08:29:42Z</time></trkpt><trkpt lat="38.129576628464406" lon="13.248542900104015"><ele>559.0</ele><time>2026-03-29T08:29:44Z</time></trkpt><trkpt lat="38.129644198600424" lon="13.248444733760415"><ele>559.0</ele><time>2026-03-29T08:29:46Z</time></trkpt><trkpt lat="38.129683071656004" lon="13.248301506263285"><ele>559.0</ele><time>2026-03-29T08:29:48Z</time></trkpt><trkpt lat="38.12970165587672" lon="13.248158906937832"><ele>559.0</ele><time>2026-03-29T08:29:49Z</time></trkpt><trkpt lat="38.129787198699816" lon="13.248011213269224"><ele>557.4</ele><time>2026-03-29T08:29:50Z</time></trkpt><trkpt lat="38.12982593408178" lon="13.247828361891196"><ele>555.8</ele><time>2026-03-29T08:29:51Z</time></trkpt><trkpt lat="38.12985661786021" lon="13.247674771648665"><ele>554.2</ele><time>2026-03-29T08:29:52Z</time></trkpt><trkpt lat="38.129878195522004" lon="13.247558792344265"><ele>552.6</ele><time>2026-03-29T08:29:53.001Z</time></trkpt><trkpt lat="38.12989610095676" lon="13.24746071545016"><ele>551.0</ele><time>2026-03-29T08:29:54.001Z</time></trkpt><trkpt lat="38.12988792820697" lon="13.24736341725253"><ele>551.5</ele><time>2026-03-29T08:29:55.001Z</time></trkpt><trkpt lat="38.12991909848054" lon="13.247283643505574"><ele>552.0</ele><time>2026-03-29T08:29:56.001Z</time></trkpt><trkpt lat="38.129939320719046" lon="13.247193458743524"><ele>552.5</ele><time>2026-03-29T08:29:57.001Z</time></trkpt><trkpt lat="38.12998568414218" lon="13.247077124663072"><ele>553.0</ele><time>2026-03-29T08:29:58.001Z</time></trkpt><trkpt lat="38.13003319650544" lon="13.246963738216934"><ele>553.5</ele><time>2026-03-29T08:29:59.001Z</time></trkpt><trkpt lat="38.130088334414495" lon="13.246870142965268"><ele>554.0</ele><time>2026-03-29T08:30:00.001Z</time></trkpt><trkpt lat="38.13015811579028" lon="13.246798158814885"><ele>554.0</ele><time>2026-03-29T08:30:01.001Z</time></trkpt><trkpt lat="38.13021612223138" lon="13.246733433318985"><ele>554.0</ele><time>2026-03-29T08:30:02.001Z</time></trkpt><trkpt lat="38.13029176948883" lon="13.246699071142746"><ele>554.0</ele><time>2026-03-29T08:30:03.001Z</time></trkpt><trkpt lat="38.13036365579244" lon="13.246643388308952"><ele>554.0</ele><time>2026-03-29T08:30:04.001Z</time></trkpt><trkpt lat="38.130429762111405" lon="13.24658832982474"><ele>554.0</ele><time>2026-03-29T08:30:05.001Z</time></trkpt><trkpt lat="38.13055197825032" lon="13.246515809158218"><ele>551.8</ele><time>2026-03-29T08:30:06.001Z</time></trkpt><trkpt lat="38.13064005637427" lon="13.246455715953056"><ele>549.5999999999999</ele><time>2026-03-29T08:30:07.001Z</time></trkpt><trkpt lat="38.13072441781777" lon="13.246390239807068"><ele>547.4</ele><time>2026-03-29T08:30:08.001Z</time></trkpt><trkpt lat="38.13080960478475" lon="13.246332781217843"><ele>545.1999999999999</ele><time>2026-03-29T08:30:09.001Z</time></trkpt><trkpt lat="38.130947902083" lon="13.246255716762493"><ele>543.0</ele><time>2026-03-29T08:30:10.001Z</time></trkpt><trkpt lat="38.13106689550555" lon="13.246190710635743"><ele>543.0</ele><time>2026-03-29T08:30:11.001Z</time></trkpt><trkpt lat="38.13120056898661" lon="13.246147237543717"><ele>543.0</ele><time>2026-03-29T08:30:12.001Z</time></trkpt><trkpt lat="38.1313407209524" lon="13.24610574435814"><ele>543.0</ele><time>2026-03-29T08:30:13.001Z</time></trkpt><trkpt lat="38.131461343077596" lon="13.246070250278862"><ele>543.0</ele><time>2026-03-29T08:30:14.001Z</time></trkpt><trkpt lat="38.13157545153547" lon="13.246040056418343"><ele>546.5</ele><time>2026-03-29T08:30:15.001Z</time></trkpt><trkpt lat="38.131692062913245" lon="13.246004185710762"><ele>550.0</ele><time>2026-03-29T08:30:16.001Z</time></trkpt><trkpt lat="38.131819040674316" lon="13.245949686718589"><ele>553.5</ele><time>2026-03-29T08:30:17.001Z</time></trkpt><trkpt lat="38.131957046910145" lon="13.245908638628057"><ele>557.0</ele><time>2026-03-29T08:30:18.001Z</time></trkpt><trkpt lat="38.13208526588237" lon="13.245844261877128"><ele>557.0</ele><time>2026-03-29T08:30:19.001Z</time></trkpt><trkpt lat="38.13220057265984" lon="13.245782682980032"><ele>557.0</ele><time>2026-03-29T08:30:20.001Z</time></trkpt><trkpt lat="38.13231051889204" lon="13.245721914199754"><ele>557.0</ele><time>2026-03-29T08:30:21.001Z</time></trkpt><trkpt lat="38.132409126230236" lon="13.245670231451989"><ele>557.0</ele><time>2026-03-29T08:30:22.001Z</time></trkpt><trkpt lat="38.13252127436389" lon="13.245613789890427"><ele>552.4</ele><time>2026-03-29T08:30:23.001Z</time></trkpt><trkpt lat="38.13261967512965" lon="13.245583633792817"><ele>547.8000000000001</ele><time>2026-03-29T08:30:24.001Z</time></trkpt><trkpt lat="38.13271080449966" lon="13.24554205592065"><ele>543.2</ele><time>2026-03-29T08:30:25.001Z</time></trkpt><trkpt lat="38.13280258956014" lon="13.24553032490675"><ele>538.6</ele><time>2026-03-29T08:30:26.001Z</time></trkpt><trkpt lat="38.13289803203598" lon="13.245522408070338"><ele>534.0</ele><time>2026-03-29T08:30:27.001Z</time></trkpt><trkpt lat="38.13300318351185" lon="13.24553360915732"><ele>534.0</ele><time>2026-03-29T08:30:28Z</time></trkpt><trkpt lat="38.13309146285998" lon="13.245553265545954"><ele>534.0</ele><time>2026-03-29T08:30:29Z</time></trkpt><trkpt lat="38.13318384472935" lon="13.24560202855311"><ele>534.0</ele><time>2026-03-29T08:30:30Z</time></trkpt><trkpt lat="38.1333377427534" lon="13.24563693713376"><ele>534.0</ele><time>2026-03-29T08:30:31Z</time></trkpt><trkpt lat="38.13349356695008" lon="13.245677200800968"><ele>543.5</ele><time>2026-03-29T08:30:32Z</time></trkpt><trkpt lat="38.13362977738535" lon="13.245694410594526"><ele>553.0</ele><time>2026-03-29T08:30:33Z</time></trkpt><trkpt lat="38.133764883737115" lon="13.24572500419393"><ele>562.5</ele><time>2026-03-29T08:30:34Z</time></trkpt><trkpt lat="38.13389891637703" lon="13.245729250604226"><ele>572.0</ele><time>2026-03-29T08:30:35Z</time></trkpt><trkpt lat="38.13403756425625" lon="13.245708333050457"><ele>571.5</ele><time>2026-03-29T08:30:36Z</time></trkpt><trkpt lat="38.134195194233925" lon="13.245703066287213"><ele>571.0</ele><time>2026-03-29T08:30:37Z</time></trkpt><trkpt lat="38.134346642091" lon="13.245681011470742"><ele>570.5</ele><time>2026-03-29T08:30:38Z</time></trkpt><trkpt lat="38.134467300686076" lon="13.245666369368205"><ele>570.0</ele><time>2026-03-29T08:30:39Z</time></trkpt><trkpt lat="38.13458352468218" lon="13.24565183420125"><ele>570.0</ele><time>2026-03-29T08:30:40Z</time></trkpt><trkpt lat="38.13469537107263" lon="13.24563782869777"><ele>570.0</ele><time>2026-03-29T08:30:41Z</time></trkpt><trkpt lat="38.134829167036166" lon="13.245625664183816"><ele>570.0</ele><time>2026-03-29T08:30:42Z</time></trkpt><trkpt lat="38.134978286793846" lon="13.245593965505785"><ele>570.0</ele><time>2026-03-29T08:30:43Z</time></trkpt><trkpt lat="38.13514715800007" lon="13.24555574382331"><ele>556.6666666666666</ele><time>2026-03-29T08:30:44Z</time></trkpt><trkpt lat="38.135310943589964" lon="13.245513036964846"><ele>543.3333333333333</ele><time>2026-03-29T08:30:45Z</time></trkpt><trkpt lat="38.13545182327426" lon="13.245486244054204"><ele>530.0</ele><time>2026-03-29T08:30:46Z</time></trkpt><trkpt lat="38.13559751706772" lon="13.24546201082562"><ele>530.75</ele><time>2026-03-29T08:30:47Z</time></trkpt><trkpt lat="38.135729709333106" lon="13.245439364799697"><ele>531.5</ele><time>2026-03-29T08:30:48Z</time></trkpt><trkpt lat="38.13586583811943" lon="13.245421211878742"><ele>532.25</ele><time>2026-03-29T08:30:49Z</time></trkpt><trkpt lat="38.13599978253929" lon="13.24539739296582"><ele>533.0</ele><time>2026-03-29T08:30:50Z</time></trkpt><trkpt lat="38.13612724115163" lon="13.245384771952004"><ele>533.0</ele><time>2026-03-29T08:30:51Z</time></trkpt><trkpt lat="38.136236537889616" lon="13.245383299017195"><ele>533.0</ele><time>2026-03-29T08:30:52Z</time></trkpt><trkpt lat="38.136341519939734" lon="13.24538654648079"><ele>533.0</ele><time>2026-03-29T08:30:53Z</time></trkpt><trkpt lat="38.13644801724244" lon="13.245425504761766"><ele>533.0</ele><time>2026-03-29T08:30:54Z</time></trkpt><trkpt lat="38.136555967115356" lon="13.245436015718537"><ele>533.0</ele><time>2026-03-29T08:30:55Z</time></trkpt><trkpt lat="38.13668338544788" lon="13.245488036120246"><ele>533.0</ele><time>2026-03-29T08:30:56Z</time></trkpt><trkpt lat="38.1368232936552" lon="13.245579654541336"><ele>533.0</ele><time>2026-03-29T08:30:57Z</time></trkpt><trkpt lat="38.136946029148454" lon="13.245651985934016"><ele>533.0</ele><time>2026-03-29T08:30:58Z</time></trkpt><trkpt lat="38.1370612469954" lon="13.245732071754382"><ele>533.0</ele><time>2026-03-29T08:30:59Z</time></trkpt><trkpt lat="38.13717251600573" lon="13.24581944912741"><ele>537.5</ele><time>2026-03-29T08:31:00Z</time></trkpt><trkpt lat="38.137289566155495" lon="13.245898191863269"><ele>542.0</ele><time>2026-03-29T08:31:01Z</time></trkpt><trkpt lat="38.13739077134784" lon="13.245988984881091"><ele>546.5</ele><time>2026-03-29T08:31:02Z</time></trkpt><trkpt lat="38.13749579798069" lon="13.246107835721219"><ele>551.0</ele><time>2026-03-29T08:31:03Z</time></trkpt><trkpt lat="38.13760694076577" lon="13.246223165618861"><ele>551.0</ele><time>2026-03-29T08:31:04Z</time></trkpt><trkpt lat="38.137725255792404" lon="13.246349646975968"><ele>551.0</ele><time>2026-03-29T08:31:05Z</time></trkpt><trkpt lat="38.13785957373233" lon="13.246516811125115"><ele>551.0</ele><time>2026-03-29T08:31:06Z</time></trkpt><trkpt lat="38.13801126655566" lon="13.24670930179457"><ele>548.6666666666666</ele><time>2026-03-29T08:31:07Z</time></trkpt><trkpt lat="38.138145986853466" lon="13.246913377416345"><ele>546.3333333333334</ele><time>2026-03-29T08:31:08Z</time></trkpt><trkpt lat="38.13826634212422" lon="13.247081468152745"><ele>544.0</ele><time>2026-03-29T08:31:09Z</time></trkpt><trkpt lat="38.13837482275082" lon="13.247234343200766"><ele>553.6666666666667</ele><time>2026-03-29T08:31:10Z</time></trkpt><trkpt lat="38.13849017579454" lon="13.247396904020611"><ele>563.3333333333334</ele><time>2026-03-29T08:31:11Z</time></trkpt><trkpt lat="38.1386130412331" lon="13.247572073952982"><ele>573.0</ele><time>2026-03-29T08:31:12Z</time></trkpt><trkpt lat="38.13870887700716" lon="13.247710472111914"><ele>573.0</ele><time>2026-03-29T08:31:13Z</time></trkpt><trkpt lat="38.138803001846775" lon="13.247848306058845"><ele>573.0</ele><time>2026-03-29T08:31:14Z</time></trkpt><trkpt lat="38.13891654048198" lon="13.247982830199206"><ele>573.0</ele><time>2026-03-29T08:31:15Z</time></trkpt><trkpt lat="38.13902263146394" lon="13.248143773202393"><ele>568.6666666666666</ele><time>2026-03-29T08:31:16Z</time></trkpt><trkpt lat="38.13912647094312" lon="13.248298502669865"><ele>564.3333333333333</ele><time>2026-03-29T08:31:17Z</time></trkpt><trkpt lat="38.139243031217966" lon="13.248480549123956"><ele>560.0</ele><time>2026-03-29T08:31:18Z</time></trkpt><trkpt lat="38.139349225432355" lon="13.248639535564813"><ele>560.0</ele><time>2026-03-29T08:31:19Z</time></trkpt><trkpt lat="38.13944785598581" lon="13.24878473639974"><ele>560.0</ele><time>2026-03-29T08:31:20Z</time></trkpt><trkpt lat="38.13955364154849" lon="13.248928384510455"><ele>560.0</ele><time>2026-03-29T08:31:21Z</time></trkpt><trkpt lat="38.13965429725882" lon="13.249086685748665"><ele>555.0</ele><time>2026-03-29T08:31:22Z</time></trkpt><trkpt lat="38.13973111421392" lon="13.249240636800394"><ele>550.0</ele><time>2026-03-29T08:31:23Z</time></trkpt><trkpt lat="38.1398411348111" lon="13.249387700897632"><ele>545.0</ele><time>2026-03-29T08:31:24Z</time></trkpt><trkpt lat="38.13994171274409" lon="13.249550499489144"><ele>545.0</ele><time>2026-03-29T08:31:25Z</time></trkpt><trkpt lat="38.1400385877078" lon="13.249708072070506"><ele>545.0</ele><time>2026-03-29T08:31:26Z</time></trkpt><trkpt lat="38.14013949793936" lon="13.24987725594501"><ele>545.0</ele><time>2026-03-29T08:31:27Z</time></trkpt><trkpt lat="38.14024000468625" lon="13.250034387288267"><ele>554.0</ele><time>2026-03-29T08:31:28Z</time></trkpt><trkpt lat="38.140330298660096" lon="13.25017547862469"><ele>563.0</ele><time>2026-03-29T08:31:29Z</time></trkpt><trkpt lat="38.14041454285522" lon="13.25029201898897"><ele>572.0</ele><time>2026-03-29T08:31:30Z</time></trkpt><trkpt lat="38.14049263577394" lon="13.250452958739391"><ele>581.0</ele><time>2026-03-29T08:31:31Z</time></trkpt><trkpt lat="38.1405676202864" lon="13.25058784115996"><ele>576.25</ele><time>2026-03-29T08:31:32Z</time></trkpt><trkpt lat="38.14063867023394" lon="13.250735462921591"><ele>571.5</ele><time>2026-03-29T08:31:33Z</time></trkpt><trkpt lat="38.140723834574864" lon="13.250884436252337"><ele>566.75</ele><time>2026-03-29T08:31:34Z</time></trkpt><trkpt lat="38.14078125333987" lon="13.251009078336132"><ele>562.0</ele><time>2026-03-29T08:31:35Z</time></trkpt><trkpt lat="38.140831569897024" lon="13.25115887826114"><ele>562.0</ele><time>2026-03-29T08:31:36Z</time></trkpt><trkpt lat="38.14090052835846" lon="13.251314219882158"><ele>562.0</ele><time>2026-03-29T08:31:37Z</time></trkpt><trkpt lat="38.14097170800044" lon="13.251460895604534"><ele>562.0</ele><time>2026-03-29T08:31:38Z</time></trkpt><trkpt lat="38.14103763481854" lon="13.251607791702074"><ele>562.0</ele><time>2026-03-29T08:31:39Z</time></trkpt><trkpt lat="38.14109478715468" lon="13.251780734560198"><ele>569.25</ele><time>2026-03-29T08:31:40Z</time></trkpt><trkpt lat="38.141158723032724" lon="13.251934417579449"><ele>576.5</ele><time>2026-03-29T08:31:41Z</time></trkpt><trkpt lat="38.14122500375864" lon="13.25209373688005"><ele>583.75</ele><time>2026-03-29T08:31:42Z</time></trkpt><trkpt lat="38.141291637570106" lon="13.252251747753943"><ele>591.0</ele><time>2026-03-29T08:31:43Z</time></trkpt><trkpt lat="38.141377226326725" lon="13.252408101750124"><ele>583.0</ele><time>2026-03-29T08:31:44Z</time></trkpt><trkpt lat="38.14143445486298" lon="13.252560696283053"><ele>575.0</ele><time>2026-03-29T08:31:45Z</time></trkpt><trkpt lat="38.141504413882245" lon="13.25270589167254"><ele>567.0</ele><time>2026-03-29T08:31:46Z</time></trkpt><trkpt lat="38.14157836927898" lon="13.252868411603156"><ele>559.0</ele><time>2026-03-29T08:31:47Z</time></trkpt><trkpt lat="38.14165636402824" lon="13.253037142724725"><ele>569.0</ele><time>2026-03-29T08:31:48Z</time></trkpt><trkpt lat="38.14172594080365" lon="13.253209869459628"><ele>579.0</ele><time>2026-03-29T08:31:49Z</time></trkpt><trkpt lat="38.14179079325534" lon="13.253387182180395"><ele>589.0</ele><time>2026-03-29T08:31:50Z</time></trkpt><trkpt lat="38.141860849379036" lon="13.253577352519528"><ele>589.0</ele><time>2026-03-29T08:31:51Z</time></trkpt><trkpt lat="38.1419374428137" lon="13.253769890239692"><ele>589.0</ele><time>2026-03-29T08:31:52Z</time></trkpt><trkpt lat="38.142023809517454" lon="13.254002804007978"><ele>589.0</ele><time>2026-03-29T08:31:53Z</time></trkpt><trkpt lat="38.14211068300862" lon="13.254210441643089"><ele>596.3333333333334</ele><time>2026-03-29T08:31:54Z</time></trkpt><trkpt lat="38.142174641908866" lon="13.254387755190155"><ele>603.6666666666666</ele><time>2026-03-29T08:31:55Z</time></trkpt><trkpt lat="38.14224014632927" lon="13.25457879048076"><ele>611.0</ele><time>2026-03-29T08:31:56Z</time></trkpt><trkpt lat="38.14231864353999" lon="13.25480864934749"><ele>599.3333333333333</ele><time>2026-03-29T08:31:57Z</time></trkpt><trkpt lat="38.142396052539524" lon="13.255009969213427"><ele>587.6666666666666</ele><time>2026-03-29T08:31:58Z</time></trkpt><trkpt lat="38.142477490321454" lon="13.255191281902087"><ele>576.0</ele><time>2026-03-29T08:31:59Z</time></trkpt><trkpt lat="38.14255317375121" lon="13.255376842706836"><ele>576.0</ele><time>2026-03-29T08:32:00Z</time></trkpt><trkpt lat="38.14266266327902" lon="13.25551495941171"><ele>576.0</ele><time>2026-03-29T08:32:01Z</time></trkpt><trkpt lat="38.142767722951284" lon="13.255703268269988"><ele>576.0</ele><time>2026-03-29T08:32:02Z</time></trkpt><trkpt lat="38.142859007411374" lon="13.255874649621076"><ele>582.25</ele><time>2026-03-29T08:32:03Z</time></trkpt><trkpt lat="38.14292605609226" lon="13.25602376258787"><ele>588.5</ele><time>2026-03-29T08:32:04Z</time></trkpt><trkpt lat="38.14296137998074" lon="13.256181084565805"><ele>594.75</ele><time>2026-03-29T08:32:05Z</time></trkpt><trkpt lat="38.14300948205967" lon="13.256336100154634"><ele>601.0</ele><time>2026-03-29T08:32:06Z</time></trkpt><trkpt lat="38.143059745462146" lon="13.256510767291081"><ele>603.0</ele><time>2026-03-29T08:32:07Z</time></trkpt><trkpt lat="38.14310526306675" lon="13.256690203716317"><ele>605.0</ele><time>2026-03-29T08:32:08Z</time></trkpt><trkpt lat="38.1431460565835" lon="13.256865206805127"><ele>607.0</ele><time>2026-03-29T08:32:09Z</time></trkpt><trkpt lat="38.14320443971519" lon="13.257021390647429"><ele>609.0</ele><time>2026-03-29T08:32:10Z</time></trkpt><trkpt lat="38.14324758748289" lon="13.257161931306635"><ele>604.25</ele><time>2026-03-29T08:32:11Z</time></trkpt><trkpt lat="38.14329110139365" lon="13.257281339615803"><ele>599.5</ele><time>2026-03-29T08:32:12Z</time></trkpt><trkpt lat="38.14334747839661" lon="13.257397095072646"><ele>594.75</ele><time>2026-03-29T08:32:13Z</time></trkpt><trkpt lat="38.1434260983247" lon="13.257500181504849"><ele>590.0</ele><time>2026-03-29T08:32:14Z</time></trkpt><trkpt lat="38.143518299203194" lon="13.25763956239734"><ele>590.0</ele><time>2026-03-29T08:32:15Z</time></trkpt><trkpt lat="38.14364074579931" lon="13.257733774254087"><ele>590.0</ele><time>2026-03-29T08:32:16Z</time></trkpt><trkpt lat="38.14371344130056" lon="13.257836385828075"><ele>590.0</ele><time>2026-03-29T08:32:17Z</time></trkpt><trkpt lat="38.143798685075694" lon="13.257922180384258"><ele>590.0</ele><time>2026-03-29T08:32:18Z</time></trkpt><trkpt lat="38.143873851807406" lon="13.258039244947815"><ele>589.5</ele><time>2026-03-29T08:32:19Z</time></trkpt><trkpt lat="38.143965403317935" lon="13.258179748337469"><ele>589.0</ele><time>2026-03-29T08:32:20Z</time></trkpt><trkpt lat="38.14404987283452" lon="13.258291953560441"><ele>588.5</ele><time>2026-03-29T08:32:21Z</time></trkpt><trkpt lat="38.14411512479591" lon="13.258393259889933"><ele>588.0</ele><time>2026-03-29T08:32:22Z</time></trkpt><trkpt lat="38.1441732378895" lon="13.258533686702414"><ele>588.0</ele><time>2026-03-29T08:32:23Z</time></trkpt><trkpt lat="38.14422732072308" lon="13.258691968845111"><ele>588.0</ele><time>2026-03-29T08:32:24Z</time></trkpt><trkpt lat="38.1442817156259" lon="13.258830514063236"><ele>588.0</ele><time>2026-03-29T08:32:25Z</time></trkpt><trkpt lat="38.14435072460515" lon="13.258971659844818"><ele>588.0</ele><time>2026-03-29T08:32:26Z</time></trkpt><trkpt lat="38.14443277593794" lon="13.259105664217373"><ele>594.0</ele><time>2026-03-29T08:32:27Z</time></trkpt><trkpt lat="38.14451970714925" lon="13.259234832304251"><ele>600.0</ele><time>2026-03-29T08:32:28Z</time></trkpt><trkpt lat="38.144611103158944" lon="13.259364420729879"><ele>606.0</ele><time>2026-03-29T08:32:29Z</time></trkpt><trkpt lat="38.144697892347644" lon="13.259501553209219"><ele>612.0</ele><time>2026-03-29T08:32:30Z</time></trkpt><trkpt lat="38.14478900444688" lon="13.259627460918917"><ele>612.0</ele><time>2026-03-29T08:32:31Z</time></trkpt><trkpt lat="38.14485828508887" lon="13.259738884954347"><ele>612.0</ele><time>2026-03-29T08:32:32Z</time></trkpt><trkpt lat="38.14493482325542" lon="13.259844595217382"><ele>612.0</ele><time>2026-03-29T08:32:33Z</time></trkpt><trkpt lat="38.14501462078129" lon="13.259956995455624"><ele>612.0</ele><time>2026-03-29T08:32:34Z</time></trkpt><trkpt lat="38.145091344145705" lon="13.260071421785035"><ele>610.25</ele><time>2026-03-29T08:32:35Z</time></trkpt><trkpt lat="38.14518101012868" lon="13.260163304373332"><ele>608.5</ele><time>2026-03-29T08:32:36Z</time></trkpt><trkpt lat="38.14527242538074" lon="13.260268695826655"><ele>606.75</ele><time>2026-03-29T08:32:37Z</time></trkpt><trkpt lat="38.14537272639003" lon="13.260368041317417"><ele>605.0</ele><time>2026-03-29T08:32:38Z</time></trkpt><trkpt lat="38.145462978260866" lon="13.260456236472429"><ele>605.0</ele><time>2026-03-29T08:32:39Z</time></trkpt><trkpt lat="38.14555936942391" lon="13.260537239261716"><ele>605.0</ele><time>2026-03-29T08:32:40Z</time></trkpt><trkpt lat="38.14565464997098" lon="13.260608991942018"><ele>605.0</ele><time>2026-03-29T08:32:41Z</time></trkpt><trkpt lat="38.14572008045024" lon="13.260690043244212"><ele>605.0</ele><time>2026-03-29T08:32:42Z</time></trkpt><trkpt lat="38.14578940117615" lon="13.260768672856635"><ele>605.0</ele><time>2026-03-29T08:32:43Z</time></trkpt><trkpt lat="38.14586443009067" lon="13.26083516136292"><ele>605.5</ele><time>2026-03-29T08:32:44Z</time></trkpt><trkpt lat="38.14589120807305" lon="13.260924200257987"><ele>606.0</ele><time>2026-03-29T08:32:45Z</time></trkpt><trkpt lat="38.14594357428702" lon="13.260977104932074"><ele>606.5</ele><time>2026-03-29T08:32:46Z</time></trkpt><trkpt lat="38.14599154228366" lon="13.261034018542547"><ele>607.0</ele><time>2026-03-29T08:32:49Z</time></trkpt><trkpt lat="38.14694684019124" lon="13.261864803673303"><ele>606.8000000000001</ele><time>2026-03-29T08:33:51Z</time></trkpt><trkpt lat="38.14699740019925" lon="13.261922168298728"><ele>606.6</ele><time>2026-03-29T08:33:52Z</time></trkpt><trkpt lat="38.147107856023375" lon="13.262033978892525"><ele>606.4000000000001</ele><time>2026-03-29T08:33:54Z</time></trkpt><trkpt lat="38.14718657772031" lon="13.262117424593113"><ele>606.2</ele><time>2026-03-29T08:33:55Z</time></trkpt><trkpt lat="38.14729303895043" lon="13.262227801980016"><ele>606.0</ele><time>2026-03-29T08:33:56Z</time></trkpt><trkpt lat="38.147415361984805" lon="13.262361506127565"><ele>606.0</ele><time>2026-03-29T08:33:57Z</time></trkpt><trkpt lat="38.14752947511012" lon="13.26247901155884"><ele>606.0</ele><time>2026-03-29T08:33:58Z</time></trkpt><trkpt lat="38.1476380708527" lon="13.262600766595948"><ele>606.0</ele><time>2026-03-29T08:33:59Z</time></trkpt><trkpt lat="38.147755347064674" lon="13.262720442231636"><ele>606.0</ele><time>2026-03-29T08:34:00Z</time></trkpt><trkpt lat="38.14787240956062" lon="13.262837934666447"><ele>606.0</ele><time>2026-03-29T08:34:01Z</time></trkpt><trkpt lat="38.14798402933469" lon="13.2629591252008"><ele>606.0</ele><time>2026-03-29T08:34:02Z</time></trkpt><trkpt lat="38.14806555680705" lon="13.263099747166452"><ele>606.0</ele><time>2026-03-29T08:34:03Z</time></trkpt><trkpt lat="38.148158411769444" lon="13.263231997961684"><ele>606.0</ele><time>2026-03-29T08:34:04Z</time></trkpt><trkpt lat="38.14825160667382" lon="13.26335813571687"><ele>604.0</ele><time>2026-03-29T08:34:05Z</time></trkpt><trkpt lat="38.1483643735172" lon="13.263473528895839"><ele>602.0</ele><time>2026-03-29T08:34:06Z</time></trkpt><trkpt lat="38.1484739382083" lon="13.263601773671564"><ele>600.0</ele><time>2026-03-29T08:34:07Z</time></trkpt><trkpt lat="38.14857922524299" lon="13.263722291011034"><ele>598.0</ele><time>2026-03-29T08:34:08Z</time></trkpt><trkpt lat="38.14868286516973" lon="13.263840744997628"><ele>597.5</ele><time>2026-03-29T08:34:09Z</time></trkpt><trkpt lat="38.14878959749176" lon="13.263959574357562"><ele>597.0</ele><time>2026-03-29T08:34:10Z</time></trkpt><trkpt lat="38.1488815935956" lon="13.264060771911666"><ele>596.5</ele><time>2026-03-29T08:34:11Z</time></trkpt><trkpt lat="38.1489637768402" lon="13.264168230234057"><ele>596.0</ele><time>2026-03-29T08:34:12Z</time></trkpt><trkpt lat="38.149065641851905" lon="13.26425129249092"><ele>596.0</ele><time>2026-03-29T08:34:13Z</time></trkpt><trkpt lat="38.149193021341716" lon="13.264288642281644"><ele>596.0</ele><time>2026-03-29T08:34:14Z</time></trkpt><trkpt lat="38.14931755299332" lon="13.264342423231192"><ele>596.0</ele><time>2026-03-29T08:34:15Z</time></trkpt><trkpt lat="38.14943971390225" lon="13.264394831967495"><ele>596.0</ele><time>2026-03-29T08:34:16Z</time></trkpt><trkpt lat="38.149560450638305" lon="13.264435845211887"><ele>596.0</ele><time>2026-03-29T08:34:17Z</time></trkpt><trkpt lat="38.14968247068345" lon="13.264498592477704"><ele>596.0</ele><time>2026-03-29T08:34:18Z</time></trkpt><trkpt lat="38.14978327467046" lon="13.264562866831364"><ele>596.0</ele><time>2026-03-29T08:34:19Z</time></trkpt><trkpt lat="38.149864492862925" lon="13.26464801062935"><ele>596.0</ele><time>2026-03-29T08:34:20Z</time></trkpt><trkpt lat="38.14995055604905" lon="13.264727009811688"><ele>599.2</ele><time>2026-03-29T08:34:21Z</time></trkpt><trkpt lat="38.150026021740416" lon="13.264828179855414"><ele>602.4000000000001</ele><time>2026-03-29T08:34:22Z</time></trkpt><trkpt lat="38.150097531934556" lon="13.264914337007351"><ele>605.6</ele><time>2026-03-29T08:34:23Z</time></trkpt><trkpt lat="38.15015580085125" lon="13.264990291853122"><ele>608.8000000000001</ele><time>2026-03-29T08:34:24Z</time></trkpt><trkpt lat="38.150224755431246" lon="13.265043325425554"><ele>612.0</ele><time>2026-03-29T08:34:25Z</time></trkpt><trkpt lat="38.150377494271964" lon="13.26504940807428"><ele>612.0</ele><time>2026-03-29T08:34:27Z</time></trkpt><trkpt lat="38.150468830803725" lon="13.265015630927286"><ele>612.0</ele><time>2026-03-29T08:34:28Z</time></trkpt><trkpt lat="38.15055903665711" lon="13.26496310417601"><ele>612.0</ele><time>2026-03-29T08:34:29Z</time></trkpt><trkpt lat="38.15065443773942" lon="13.264903924745637"><ele>612.0</ele><time>2026-03-29T08:34:30Z</time></trkpt><trkpt lat="38.15074799409912" lon="13.264845678872977"><ele>612.0</ele><time>2026-03-29T08:34:31Z</time></trkpt><trkpt lat="38.15083423642573" lon="13.264816236537925"><ele>611.0</ele><time>2026-03-29T08:34:32Z</time></trkpt><trkpt lat="38.150902531437666" lon="13.264806612887158"><ele>610.0</ele><time>2026-03-29T08:34:33Z</time></trkpt><trkpt lat="38.150974026470564" lon="13.264818452967287"><ele>609.0</ele><time>2026-03-29T08:34:34Z</time></trkpt><trkpt lat="38.151093004335834" lon="13.264920914514159"><ele>608.0</ele><time>2026-03-29T08:34:36Z</time></trkpt><trkpt lat="38.15121179092358" lon="13.265007183316085"><ele>607.0</ele><time>2026-03-29T08:34:37Z</time></trkpt><trkpt lat="38.15134972650401" lon="13.265099810622722"><ele>607.0</ele><time>2026-03-29T08:34:38Z</time></trkpt><trkpt lat="38.15148288479116" lon="13.265173316020638"><ele>607.0</ele><time>2026-03-29T08:34:39Z</time></trkpt><trkpt lat="38.15162980239771" lon="13.265232408554134"><ele>607.0</ele><time>2026-03-29T08:34:40Z</time></trkpt><trkpt lat="38.15176398266575" lon="13.26533612465911"><ele>606.75</ele><time>2026-03-29T08:34:41Z</time></trkpt><trkpt lat="38.15186169527142" lon="13.26541633216628"><ele>606.5</ele><time>2026-03-29T08:34:42Z</time></trkpt><trkpt lat="38.151941098199565" lon="13.265487493978707"><ele>606.25</ele><time>2026-03-29T08:34:43Z</time></trkpt><trkpt lat="38.15202287581296" lon="13.265565960178208"><ele>606.0</ele><time>2026-03-29T08:34:44Z</time></trkpt><trkpt lat="38.15212989724825" lon="13.265671366306666"><ele>610.0</ele><time>2026-03-29T08:34:45Z</time></trkpt><trkpt lat="38.15223062343491" lon="13.265785417477527"><ele>614.0</ele><time>2026-03-29T08:34:46Z</time></trkpt><trkpt lat="38.15232533306315" lon="13.265869121314008"><ele>618.0</ele><time>2026-03-29T08:34:47Z</time></trkpt><trkpt lat="38.15239097246331" lon="13.265943201071565"><ele>622.0</ele><time>2026-03-29T08:34:48Z</time></trkpt><trkpt lat="38.15246551969307" lon="13.26602487313966"><ele>626.0</ele><time>2026-03-29T08:34:49Z</time></trkpt><trkpt lat="38.15252933986452" lon="13.266080486724602"><ele>626.0</ele><time>2026-03-29T08:34:50Z</time></trkpt><trkpt lat="38.15264017388344" lon="13.266161210139945"><ele>626.0</ele><time>2026-03-29T08:34:51Z</time></trkpt><trkpt lat="38.15274780500663" lon="13.266227952485234"><ele>626.0</ele><time>2026-03-29T08:34:52Z</time></trkpt><trkpt lat="38.15283839157809" lon="13.26628950979762"><ele>626.0</ele><time>2026-03-29T08:34:53Z</time></trkpt><trkpt lat="38.152909893521525" lon="13.266273173834525"><ele>626.0</ele><time>2026-03-29T08:34:54Z</time></trkpt><trkpt lat="38.15298467382686" lon="13.266261219079704"><ele>626.0</ele><time>2026-03-29T08:34:55Z</time></trkpt><trkpt lat="38.153058951826836" lon="13.266246844538225"><ele>626.0</ele><time>2026-03-29T08:34:56Z</time></trkpt><trkpt lat="38.15316257957654" lon="13.266254061114584"><ele>626.0</ele><time>2026-03-29T08:34:57Z</time></trkpt><trkpt lat="38.1532667175581" lon="13.266223256339503"><ele>626.0</ele><time>2026-03-29T08:34:59Z</time></trkpt><trkpt lat="38.15334818749641" lon="13.266145426995243"><ele>626.0</ele><time>2026-03-29T08:35:01Z</time></trkpt><trkpt lat="38.153357575889814" lon="13.265980313732618"><ele>629.0</ele><time>2026-03-29T08:35:03Z</time></trkpt><trkpt lat="38.15334514265138" lon="13.265815991832154"><ele>632.0</ele><time>2026-03-29T08:35:05Z</time></trkpt><trkpt lat="38.15330759928046" lon="13.265648277311634"><ele>635.0</ele><time>2026-03-29T08:35:06Z</time></trkpt><trkpt lat="38.15327539852717" lon="13.265500239572253"><ele>638.0</ele><time>2026-03-29T08:35:07Z</time></trkpt><trkpt lat="38.15326541226964" lon="13.265418732343672"><ele>639.5</ele><time>2026-03-29T08:35:08Z</time></trkpt><trkpt lat="38.15320619119787" lon="13.265288401515658"><ele>641.0</ele><time>2026-03-29T08:35:09Z</time></trkpt><trkpt lat="38.1531725311419" lon="13.265140001505912"><ele>642.5</ele><time>2026-03-29T08:35:10Z</time></trkpt><trkpt lat="38.15310778035164" lon="13.26496431031728"><ele>644.0</ele><time>2026-03-29T08:35:11Z</time></trkpt><trkpt lat="38.15302647825796" lon="13.264771865763699"><ele>639.75</ele><time>2026-03-29T08:35:12Z</time></trkpt><trkpt lat="38.15296406036985" lon="13.26457761905609"><ele>635.5</ele><time>2026-03-29T08:35:13Z</time></trkpt><trkpt lat="38.152887774771585" lon="13.264417971945857"><ele>631.25</ele><time>2026-03-29T08:35:14Z</time></trkpt><trkpt lat="38.15284983949582" lon="13.264267712872794"><ele>627.0</ele><time>2026-03-29T08:35:15Z</time></trkpt><trkpt lat="38.152783770302385" lon="13.264129039430344"><ele>627.0</ele><time>2026-03-29T08:35:16Z</time></trkpt><trkpt lat="38.15274241975697" lon="13.263961138638736"><ele>627.0</ele><time>2026-03-29T08:35:17Z</time></trkpt><trkpt lat="38.152707065914" lon="13.26384231962594"><ele>627.0</ele><time>2026-03-29T08:35:18Z</time></trkpt><trkpt lat="38.15268311733349" lon="13.263747296439695"><ele>627.0</ele><time>2026-03-29T08:35:19Z</time></trkpt><trkpt lat="38.15264881167692" lon="13.263609425134398"><ele>627.0</ele><time>2026-03-29T08:35:20Z</time></trkpt><trkpt lat="38.1526216216638" lon="13.263471336386218"><ele>628.0</ele><time>2026-03-29T08:35:21Z</time></trkpt><trkpt lat="38.152592697059475" lon="13.263330722471586"><ele>629.0</ele><time>2026-03-29T08:35:22Z</time></trkpt><trkpt lat="38.152585549096365" lon="13.263209623844158"><ele>630.0</ele><time>2026-03-29T08:35:23Z</time></trkpt><trkpt lat="38.15259866511335" lon="13.263114415461478"><ele>631.0</ele><time>2026-03-29T08:35:24Z</time></trkpt><trkpt lat="38.152603696458435" lon="13.263005132826086"><ele>632.0</ele><time>2026-03-29T08:35:25Z</time></trkpt><trkpt lat="38.15261327648821" lon="13.262866740188448"><ele>632.0</ele><time>2026-03-29T08:35:26Z</time></trkpt><trkpt lat="38.15262949745485" lon="13.262708378295372"><ele>632.0</ele><time>2026-03-29T08:35:27Z</time></trkpt><trkpt lat="38.1526342113994" lon="13.262563192406875"><ele>632.0</ele><time>2026-03-29T08:35:28Z</time></trkpt><trkpt lat="38.152672662916906" lon="13.262439319943878"><ele>632.0</ele><time>2026-03-29T08:35:29Z</time></trkpt><trkpt lat="38.1527026198924" lon="13.262309639093676"><ele>629.5</ele><time>2026-03-29T08:35:30Z</time></trkpt><trkpt lat="38.15273769841949" lon="13.262179641180055"><ele>627.0</ele><time>2026-03-29T08:35:31Z</time></trkpt><trkpt lat="38.15277999397364" lon="13.262048791784022"><ele>624.5</ele><time>2026-03-29T08:35:32Z</time></trkpt><trkpt lat="38.15284592097217" lon="13.261896309920331"><ele>622.0</ele><time>2026-03-29T08:35:33Z</time></trkpt><trkpt lat="38.15291175537669" lon="13.261766494515633"><ele>622.0</ele><time>2026-03-29T08:35:34Z</time></trkpt><trkpt lat="38.15297744106999" lon="13.261667455477697"><ele>622.0</ele><time>2026-03-29T08:35:35Z</time></trkpt><trkpt lat="38.15305622547839" lon="13.261577009473966"><ele>622.0</ele><time>2026-03-29T08:35:36Z</time></trkpt><trkpt lat="38.15312317704271" lon="13.26149969255773"><ele>622.0</ele><time>2026-03-29T08:35:37Z</time></trkpt><trkpt lat="38.153224557270114" lon="13.261352079954044"><ele>623.5</ele><time>2026-03-29T08:35:38Z</time></trkpt><trkpt lat="38.15333921747384" lon="13.261242681145523"><ele>625.0</ele><time>2026-03-29T08:35:39Z</time></trkpt><trkpt lat="38.153434030475225" lon="13.261132279249113"><ele>626.5</ele><time>2026-03-29T08:35:40Z</time></trkpt><trkpt lat="38.1535153720581" lon="13.261021219068205"><ele>628.0</ele><time>2026-03-29T08:35:41Z</time></trkpt><trkpt lat="38.15360401733415" lon="13.260916992481912"><ele>628.0</ele><time>2026-03-29T08:35:42Z</time></trkpt><trkpt lat="38.15368449943412" lon="13.260844236191181"><ele>628.0</ele><time>2026-03-29T08:35:43Z</time></trkpt><trkpt lat="38.153760617073914" lon="13.260742573546297"><ele>628.0</ele><time>2026-03-29T08:35:44Z</time></trkpt><trkpt lat="38.15386684678279" lon="13.26062347773826"><ele>628.0</ele><time>2026-03-29T08:35:45Z</time></trkpt><trkpt lat="38.15397911976401" lon="13.26052196542346"><ele>630.5</ele><time>2026-03-29T08:35:46Z</time></trkpt><trkpt lat="38.15406245095536" lon="13.260427844643942"><ele>633.0</ele><time>2026-03-29T08:35:47Z</time></trkpt><trkpt lat="38.154137662024056" lon="13.260307127795972"><ele>635.5</ele><time>2026-03-29T08:35:48Z</time></trkpt><trkpt lat="38.15422560349146" lon="13.260174905578644"><ele>638.0</ele><time>2026-03-29T08:35:49Z</time></trkpt><trkpt lat="38.15431214261131" lon="13.260035248935113"><ele>638.0</ele><time>2026-03-29T08:35:50Z</time></trkpt><trkpt lat="38.15440344191313" lon="13.25988870249065"><ele>638.0</ele><time>2026-03-29T08:35:51Z</time></trkpt><trkpt lat="38.154483709454546" lon="13.259761723220198"><ele>638.0</ele><time>2026-03-29T08:35:52Z</time></trkpt><trkpt lat="38.15456858300411" lon="13.259622836770912"><ele>638.0</ele><time>2026-03-29T08:35:53Z</time></trkpt><trkpt lat="38.154649815815496" lon="13.25948345827866"><ele>640.0</ele><time>2026-03-29T08:35:54Z</time></trkpt><trkpt lat="38.15471869838748" lon="13.2593416040402"><ele>642.0</ele><time>2026-03-29T08:35:55Z</time></trkpt><trkpt lat="38.15478851745165" lon="13.259187496642145"><ele>644.0</ele><time>2026-03-29T08:35:56Z</time></trkpt><trkpt lat="38.15484934508545" lon="13.259050380184622"><ele>646.0</ele><time>2026-03-29T08:35:57Z</time></trkpt><trkpt lat="38.15490295330181" lon="13.2589310640377"><ele>646.0</ele><time>2026-03-29T08:35:58Z</time></trkpt><trkpt lat="38.15496137571272" lon="13.258826204278439"><ele>646.0</ele><time>2026-03-29T08:35:59Z</time></trkpt><trkpt lat="38.155012783240025" lon="13.25872358861948"><ele>646.0</ele><time>2026-03-29T08:36:00Z</time></trkpt><trkpt lat="38.15503753507521" lon="13.258626077956254"><ele>646.0</ele><time>2026-03-29T08:36:01Z</time></trkpt><trkpt lat="38.1550846949542" lon="13.258513473128556"><ele>646.0</ele><time>2026-03-29T08:36:02Z</time></trkpt><trkpt lat="38.15513546934143" lon="13.258422624217879"><ele>646.0</ele><time>2026-03-29T08:36:03Z</time></trkpt><trkpt lat="38.15519907718663" lon="13.258329615214857"><ele>646.0</ele><time>2026-03-29T08:36:04Z</time></trkpt><trkpt lat="38.15526913652158" lon="13.258226136587561"><ele>646.0</ele><time>2026-03-29T08:36:05Z</time></trkpt><trkpt lat="38.155318561817786" lon="13.258111042054125"><ele>646.0</ele><time>2026-03-29T08:36:06Z</time></trkpt><trkpt lat="38.15537293494919" lon="13.258006234719415"><ele>646.0</ele><time>2026-03-29T08:36:07Z</time></trkpt><trkpt lat="38.155436522782246" lon="13.257901945202587"><ele>647.4</ele><time>2026-03-29T08:36:08Z</time></trkpt><trkpt lat="38.15550687048573" lon="13.257803487935117"><ele>648.8</ele><time>2026-03-29T08:36:09Z</time></trkpt><trkpt lat="38.155554131482575" lon="13.257673786725963"><ele>650.1999999999999</ele><time>2026-03-29T08:36:10Z</time></trkpt><trkpt lat="38.155591879626414" lon="13.257588458832409"><ele>651.5999999999999</ele><time>2026-03-29T08:36:11Z</time></trkpt><trkpt lat="38.155645934684344" lon="13.257492118956263"><ele>653.0</ele><time>2026-03-29T08:36:12Z</time></trkpt><trkpt lat="38.15570752599963" lon="13.25740315975188"><ele>653.8</ele><time>2026-03-29T08:36:13Z</time></trkpt><trkpt lat="38.155778406519936" lon="13.257290190252323"><ele>654.5999999999999</ele><time>2026-03-29T08:36:14Z</time></trkpt><trkpt lat="38.15585026320673" lon="13.257206260802496"><ele>655.4000000000001</ele><time>2026-03-29T08:36:15Z</time></trkpt><trkpt lat="38.15592216927966" lon="13.25711723947066"><ele>656.2</ele><time>2026-03-29T08:36:16Z</time></trkpt><trkpt lat="38.155993840990206" lon="13.257027009086208"><ele>657.0</ele><time>2026-03-29T08:36:17Z</time></trkpt><trkpt lat="38.156067249760305" lon="13.256925020323353"><ele>657.8333333333334</ele><time>2026-03-29T08:36:18Z</time></trkpt><trkpt lat="38.15615775004231" lon="13.256869074622486"><ele>658.6666666666666</ele><time>2026-03-29T08:36:19Z</time></trkpt><trkpt lat="38.156222784069755" lon="13.256799792669785"><ele>659.5</ele><time>2026-03-29T08:36:20Z</time></trkpt><trkpt lat="38.156284010014204" lon="13.256737922281438"><ele>660.3333333333333</ele><time>2026-03-29T08:36:21Z</time></trkpt><trkpt lat="38.156357862968484" lon="13.256642946950459"><ele>661.1666666666666</ele><time>2026-03-29T08:36:22Z</time></trkpt><trkpt lat="38.15642293441257" lon="13.256588607867258"><ele>662.0</ele><time>2026-03-29T08:36:23Z</time></trkpt><trkpt lat="38.15648329056267" lon="13.256527506839237"><ele>661.4000000000001</ele><time>2026-03-29T08:36:24Z</time></trkpt><trkpt lat="38.15656114436531" lon="13.25644784852457"><ele>660.8000000000001</ele><time>2026-03-29T08:36:25Z</time></trkpt><trkpt lat="38.156632427362204" lon="13.256373945397891"><ele>660.2</ele><time>2026-03-29T08:36:26Z</time></trkpt><trkpt lat="38.156713056185076" lon="13.256284852796568"><ele>659.6</ele><time>2026-03-29T08:36:27Z</time></trkpt><trkpt lat="38.15680860174074" lon="13.256208930151521"><ele>659.0</ele><time>2026-03-29T08:36:28Z</time></trkpt><trkpt lat="38.156887509514576" lon="13.256124746555415"><ele>659.0</ele><time>2026-03-29T08:36:29Z</time></trkpt><trkpt lat="38.156948732254925" lon="13.25604793297641"><ele>659.0</ele><time>2026-03-29T08:36:30Z</time></trkpt><trkpt lat="38.1570294636654" lon="13.255946977536253"><ele>659.0</ele><time>2026-03-29T08:36:31Z</time></trkpt><trkpt lat="38.157102557371786" lon="13.255852770336197"><ele>659.0</ele><time>2026-03-29T08:36:32Z</time></trkpt><trkpt lat="38.157163291055966" lon="13.255775287819482"><ele>659.0</ele><time>2026-03-29T08:36:33Z</time></trkpt><trkpt lat="38.15724658829544" lon="13.255710952390084"><ele>659.0</ele><time>2026-03-29T08:36:34Z</time></trkpt><trkpt lat="38.15733001698984" lon="13.25565911232756"><ele>659.0</ele><time>2026-03-29T08:36:35Z</time></trkpt><trkpt lat="38.15740283555532" lon="13.255631683750757"><ele>659.0</ele><time>2026-03-29T08:36:36Z</time></trkpt><trkpt lat="38.15750800870374" lon="13.255601196947394"><ele>659.0</ele><time>2026-03-29T08:36:38Z</time></trkpt><trkpt lat="38.15757321899081" lon="13.255581899268304"><ele>659.0</ele><time>2026-03-29T08:36:39Z</time></trkpt><trkpt lat="38.157639705804286" lon="13.255554346180801"><ele>659.0</ele><time>2026-03-29T08:36:40Z</time></trkpt><trkpt lat="38.15770505729749" lon="13.25553216149093"><ele>658.0</ele><time>2026-03-29T08:36:41Z</time></trkpt><trkpt lat="38.157773644204575" lon="13.255520192069593"><ele>657.0</ele><time>2026-03-29T08:36:42Z</time></trkpt><trkpt lat="38.15784001360072" lon="13.25551108385104"><ele>656.0</ele><time>2026-03-29T08:36:43Z</time></trkpt><trkpt lat="38.15792982721321" lon="13.255495247520502"><ele>655.0</ele><time>2026-03-29T08:36:44Z</time></trkpt><trkpt lat="38.15802728836213" lon="13.255480931721467"><ele>654.0</ele><time>2026-03-29T08:36:45Z</time></trkpt><trkpt lat="38.15816365942871" lon="13.255457797362874"><ele>652.75</ele><time>2026-03-29T08:36:46Z</time></trkpt><trkpt lat="38.158307645817224" lon="13.255435839937027"><ele>651.5</ele><time>2026-03-29T08:36:47Z</time></trkpt><trkpt lat="38.158447475502065" lon="13.255405708749313"><ele>650.25</ele><time>2026-03-29T08:36:48Z</time></trkpt><trkpt lat="38.15855423425499" lon="13.255401734760225"><ele>649.0</ele><time>2026-03-29T08:36:49Z</time></trkpt><trkpt lat="38.15867327243245" lon="13.25536017794402"><ele>649.0</ele><time>2026-03-29T08:36:50Z</time></trkpt><trkpt lat="38.158794314364464" lon="13.255344542523313"><ele>649.0</ele><time>2026-03-29T08:36:51Z</time></trkpt><trkpt lat="38.15890064110895" lon="13.25532382271014"><ele>649.0</ele><time>2026-03-29T08:36:52Z</time></trkpt><trkpt lat="38.15905898928881" lon="13.255310341076653"><ele>649.0</ele><time>2026-03-29T08:36:53Z</time></trkpt><trkpt lat="38.159221077955905" lon="13.255269847713153"><ele>647.0</ele><time>2026-03-29T08:36:54Z</time></trkpt><trkpt lat="38.15937561807948" lon="13.25524709292649"><ele>645.0</ele><time>2026-03-29T08:36:55Z</time></trkpt><trkpt lat="38.15951189237206" lon="13.255226267147613"><ele>643.0</ele><time>2026-03-29T08:36:56Z</time></trkpt><trkpt lat="38.159647011532506" lon="13.255200154148007"><ele>641.0</ele><time>2026-03-29T08:36:57Z</time></trkpt><trkpt lat="38.15976910042571" lon="13.255161548033708"><ele>640.5</ele><time>2026-03-29T08:36:58Z</time></trkpt><trkpt lat="38.15989664311657" lon="13.255113094059265"><ele>640.0</ele><time>2026-03-29T08:36:59Z</time></trkpt><trkpt lat="38.160000096882946" lon="13.255037319451315"><ele>639.5</ele><time>2026-03-29T08:37:00Z</time></trkpt><trkpt lat="38.160130703005024" lon="13.25493420484146"><ele>639.0</ele><time>2026-03-29T08:37:01Z</time></trkpt><trkpt lat="38.160246351996584" lon="13.254862887549466"><ele>639.0</ele><time>2026-03-29T08:37:02Z</time></trkpt><trkpt lat="38.160331085319896" lon="13.254824170117535"><ele>639.0</ele><time>2026-03-29T08:37:03Z</time></trkpt><trkpt lat="38.16044619546154" lon="13.254746105633576"><ele>639.0</ele><time>2026-03-29T08:37:05Z</time></trkpt><trkpt lat="38.16050826177851" lon="13.254682461420336"><ele>639.0</ele><time>2026-03-29T08:37:07Z</time></trkpt><trkpt lat="38.16057261313543" lon="13.254661674079347"><ele>639.0</ele><time>2026-03-29T08:37:45Z</time></trkpt><trkpt lat="38.16064749881743" lon="13.254601893524791"><ele>635.4</ele><time>2026-03-29T08:37:54Z</time></trkpt><trkpt lat="38.160715269271165" lon="13.254572891047312"><ele>631.8</ele><time>2026-03-29T08:39:55Z</time></trkpt><trkpt lat="38.16082762291821" lon="13.254495776688552"><ele>628.2</ele><time>2026-03-29T08:39:57Z</time></trkpt><trkpt lat="38.16091859792364" lon="13.254436443048549"><ele>624.6</ele><time>2026-03-29T08:39:58Z</time></trkpt><trkpt lat="38.16099032009434" lon="13.25439227010795"><ele>621.0</ele><time>2026-03-29T08:39:59Z</time></trkpt><trkpt lat="38.16107385669213" lon="13.254365918441378"><ele>621.0</ele><time>2026-03-29T08:40:00Z</time></trkpt><trkpt lat="38.16113780243886" lon="13.254309651627858"><ele>621.0</ele><time>2026-03-29T08:40:01Z</time></trkpt><trkpt lat="38.16120868839091" lon="13.254267598983125"><ele>621.0</ele><time>2026-03-29T08:40:02Z</time></trkpt><trkpt lat="38.161270416670206" lon="13.254240010280478"><ele>621.0</ele><time>2026-03-29T08:40:03Z</time></trkpt><trkpt lat="38.1613837239238" lon="13.254185829676373"><ele>621.0</ele><time>2026-03-29T08:40:04Z</time></trkpt><trkpt lat="38.16145911563572" lon="13.254160544667705"><ele>621.0</ele><time>2026-03-29T08:40:05Z</time></trkpt><trkpt lat="38.16152459481795" lon="13.254140637406518"><ele>623.8</ele><time>2026-03-29T08:40:06Z</time></trkpt><trkpt lat="38.161603519951946" lon="13.254158779887572"><ele>626.6</ele><time>2026-03-29T08:40:07Z</time></trkpt><trkpt lat="38.1617013505192" lon="13.25413277465841"><ele>629.4</ele><time>2026-03-29T08:40:08Z</time></trkpt><trkpt lat="38.16178808101561" lon="13.254099829154589"><ele>632.2</ele><time>2026-03-29T08:40:09Z</time></trkpt><trkpt lat="38.161876004389676" lon="13.254056753584017"><ele>635.0</ele><time>2026-03-29T08:40:10Z</time></trkpt><trkpt lat="38.16198621697437" lon="13.253994331217772"><ele>627.0</ele><time>2026-03-29T08:40:11Z</time></trkpt><trkpt lat="38.16207923251808" lon="13.253926307923285"><ele>619.0</ele><time>2026-03-29T08:40:12Z</time></trkpt><trkpt lat="38.16218122453342" lon="13.253869098212434"><ele>611.0</ele><time>2026-03-29T08:40:13Z</time></trkpt><trkpt lat="38.16230070339266" lon="13.253809478640504"><ele>603.0</ele><time>2026-03-29T08:40:14Z</time></trkpt><trkpt lat="38.16241704576167" lon="13.253783213328981"><ele>603.0</ele><time>2026-03-29T08:40:15Z</time></trkpt><trkpt lat="38.16255280949442" lon="13.253739635316329"><ele>603.0</ele><time>2026-03-29T08:40:16Z</time></trkpt><trkpt lat="38.16271830711958" lon="13.253675030292442"><ele>603.0</ele><time>2026-03-29T08:40:17Z</time></trkpt><trkpt lat="38.162873148923616" lon="13.253650762247238"><ele>603.0</ele><time>2026-03-29T08:40:18Z</time></trkpt><trkpt lat="38.16303377374455" lon="13.253611474429709"><ele>603.0</ele><time>2026-03-29T08:40:19Z</time></trkpt><trkpt lat="38.16316635010998" lon="13.253543584300324"><ele>603.0</ele><time>2026-03-29T08:40:20Z</time></trkpt><trkpt lat="38.16328582481995" lon="13.25351099089057"><ele>603.0</ele><time>2026-03-29T08:40:21Z</time></trkpt><trkpt lat="38.163388084187815" lon="13.253489740296796"><ele>604.75</ele><time>2026-03-29T08:40:22Z</time></trkpt><trkpt lat="38.16348633958348" lon="13.253479300385752"><ele>606.5</ele><time>2026-03-29T08:40:23Z</time></trkpt><trkpt lat="38.16360812078539" lon="13.253460434285659"><ele>608.25</ele><time>2026-03-29T08:40:24Z</time></trkpt><trkpt lat="38.163754989979445" lon="13.253436619321002"><ele>610.0</ele><time>2026-03-29T08:40:25Z</time></trkpt><trkpt lat="38.16388870212545" lon="13.25341290664379"><ele>610.0</ele><time>2026-03-29T08:40:26Z</time></trkpt><trkpt lat="38.16399709565145" lon="13.253388580369204"><ele>610.0</ele><time>2026-03-29T08:40:27Z</time></trkpt><trkpt lat="38.164097222242006" lon="13.253366840556343"><ele>610.0</ele><time>2026-03-29T08:40:28Z</time></trkpt><trkpt lat="38.164198192317436" lon="13.253348793296077"><ele>610.0</ele><time>2026-03-29T08:40:29Z</time></trkpt><trkpt lat="38.16429301116031" lon="13.253340492458474"><ele>610.0</ele><time>2026-03-29T08:40:30Z</time></trkpt><trkpt lat="38.16439794770147" lon="13.25331000137337"><ele>611.8</ele><time>2026-03-29T08:40:31Z</time></trkpt><trkpt lat="38.16450848235234" lon="13.253292383103265"><ele>613.6</ele><time>2026-03-29T08:40:32Z</time></trkpt><trkpt lat="38.16460490380773" lon="13.253255889078709"><ele>615.4</ele><time>2026-03-29T08:40:33Z</time></trkpt><trkpt lat="38.164701345457864" lon="13.253218404345962"><ele>617.2</ele><time>2026-03-29T08:40:34Z</time></trkpt><trkpt lat="38.16479164286082" lon="13.253182552088886"><ele>619.0</ele><time>2026-03-29T08:40:35Z</time></trkpt><trkpt lat="38.16489345018778" lon="13.253154472697176"><ele>611.25</ele><time>2026-03-29T08:40:36Z</time></trkpt><trkpt lat="38.16499612880422" lon="13.25309756611877"><ele>603.5</ele><time>2026-03-29T08:40:37Z</time></trkpt><trkpt lat="38.165118730820645" lon="13.253077022988153"><ele>595.75</ele><time>2026-03-29T08:40:38Z</time></trkpt><trkpt lat="38.16523414242682" lon="13.253005810975866"><ele>588.0</ele><time>2026-03-29T08:40:39Z</time></trkpt><trkpt lat="38.165318225759925" lon="13.252948216922702"><ele>588.0</ele><time>2026-03-29T08:40:40Z</time></trkpt><trkpt lat="38.16539307450915" lon="13.252891311219292"><ele>588.0</ele><time>2026-03-29T08:40:41Z</time></trkpt><trkpt lat="38.16546045986942" lon="13.252822605120997"><ele>588.0</ele><time>2026-03-29T08:40:42Z</time></trkpt><trkpt lat="38.16552801076586" lon="13.25278845919581"><ele>588.0</ele><time>2026-03-29T08:40:43Z</time></trkpt><trkpt lat="38.16559058678262" lon="13.252734755899352"><ele>588.0</ele><time>2026-03-29T08:40:44Z</time></trkpt><trkpt lat="38.16566643734631" lon="13.252664275348488"><ele>588.0</ele><time>2026-03-29T08:40:45.001Z</time></trkpt><trkpt lat="38.165743255539866" lon="13.252587164472203"><ele>587.8</ele><time>2026-03-29T08:40:46.001Z</time></trkpt><trkpt lat="38.165804338714715" lon="13.252516861866802"><ele>587.5999999999999</ele><time>2026-03-29T08:40:47.001Z</time></trkpt><trkpt lat="38.165874068522115" lon="13.252425573736847"><ele>587.4000000000001</ele><time>2026-03-29T08:40:48.001Z</time></trkpt><trkpt lat="38.1659324195184" lon="13.252330047327536"><ele>587.2</ele><time>2026-03-29T08:40:49.001Z</time></trkpt><trkpt lat="38.16598428672773" lon="13.252230030377042"><ele>587.0</ele><time>2026-03-29T08:40:50.001Z</time></trkpt><trkpt lat="38.166034823982436" lon="13.252108017766137"><ele>587.0</ele><time>2026-03-29T08:40:51Z</time></trkpt><trkpt lat="38.16607885172031" lon="13.251992643370256"><ele>587.0</ele><time>2026-03-29T08:40:52Z</time></trkpt><trkpt lat="38.166125988381985" lon="13.251873336759147"><ele>587.0</ele><time>2026-03-29T08:40:53Z</time></trkpt><trkpt lat="38.16616964286133" lon="13.2517638789916"><ele>587.0</ele><time>2026-03-29T08:40:54Z</time></trkpt><trkpt lat="38.166204394497555" lon="13.251667664740621"><ele>587.0</ele><time>2026-03-29T08:40:55Z</time></trkpt><trkpt lat="38.16623810040421" lon="13.251553914828513"><ele>583.2</ele><time>2026-03-29T08:40:56Z</time></trkpt><trkpt lat="38.1662837275076" lon="13.251437595048312"><ele>579.4000000000001</ele><time>2026-03-29T08:40:57Z</time></trkpt><trkpt lat="38.16633933988559" lon="13.251290494113707"><ele>575.5999999999999</ele><time>2026-03-29T08:40:58Z</time></trkpt><trkpt lat="38.16638564671398" lon="13.251181098321132"><ele>571.8</ele><time>2026-03-29T08:40:59Z</time></trkpt><trkpt lat="38.16642042602753" lon="13.251108050503479"><ele>568.0</ele><time>2026-03-29T08:41:00Z</time></trkpt><trkpt lat="38.166455264838234" lon="13.25102220682399"><ele>568.0</ele><time>2026-03-29T08:41:01Z</time></trkpt><trkpt lat="38.16649485868978" lon="13.250951531173815"><ele>568.0</ele><time>2026-03-29T08:41:02Z</time></trkpt><trkpt lat="38.16656093471939" lon="13.250890976106595"><ele>568.0</ele><time>2026-03-29T08:41:03Z</time></trkpt><trkpt lat="38.166622397153446" lon="13.250837163529567"><ele>568.0</ele><time>2026-03-29T08:41:04Z</time></trkpt><trkpt lat="38.16668570763843" lon="13.250788455316481"><ele>568.0</ele><time>2026-03-29T08:41:05Z</time></trkpt><trkpt lat="38.16675120183821" lon="13.250745040812834"><ele>568.0</ele><time>2026-03-29T08:41:06Z</time></trkpt><trkpt lat="38.1668163573288" lon="13.250717031703829"><ele>568.0</ele><time>2026-03-29T08:41:07Z</time></trkpt><trkpt lat="38.16694147291712" lon="13.250677693148344"><ele>574.75</ele><time>2026-03-29T08:41:09Z</time></trkpt><trkpt lat="38.16708436347347" lon="13.250679014680939"><ele>581.5</ele><time>2026-03-29T08:41:11Z</time></trkpt><trkpt lat="38.167187756141104" lon="13.250690422320767"><ele>588.25</ele><time>2026-03-29T08:41:12Z</time></trkpt><trkpt lat="38.16730040806889" lon="13.250712341392449"><ele>595.0</ele><time>2026-03-29T08:41:13Z</time></trkpt><trkpt lat="38.16740268527924" lon="13.250744962545015"><ele>595.4</ele><time>2026-03-29T08:41:14Z</time></trkpt><trkpt lat="38.1674836188323" lon="13.2507726942939"><ele>595.8</ele><time>2026-03-29T08:41:15Z</time></trkpt><trkpt lat="38.16755584177329" lon="13.250809135503594"><ele>596.2</ele><time>2026-03-29T08:41:16Z</time></trkpt><trkpt lat="38.16765673883663" lon="13.250864114999109"><ele>596.6</ele><time>2026-03-29T08:41:17Z</time></trkpt><trkpt lat="38.16777228543399" lon="13.250930270839131"><ele>597.0</ele><time>2026-03-29T08:41:18Z</time></trkpt><trkpt lat="38.16787793031402" lon="13.250994023326855"><ele>597.0</ele><time>2026-03-29T08:41:19Z</time></trkpt><trkpt lat="38.16797992361962" lon="13.251059064415935"><ele>597.0</ele><time>2026-03-29T08:41:20Z</time></trkpt><trkpt lat="38.1681057009792" lon="13.251140357620487"><ele>597.0</ele><time>2026-03-29T08:41:21Z</time></trkpt><trkpt lat="38.16821774681297" lon="13.251213491918762"><ele>597.0</ele><time>2026-03-29T08:41:22Z</time></trkpt><trkpt lat="38.168304353021476" lon="13.251272110608223"><ele>600.2</ele><time>2026-03-29T08:41:23Z</time></trkpt><trkpt lat="38.16839860997237" lon="13.251316065831569"><ele>603.4000000000001</ele><time>2026-03-29T08:41:24Z</time></trkpt><trkpt lat="38.16848436861409" lon="13.251381478527685"><ele>606.5999999999999</ele><time>2026-03-29T08:41:25Z</time></trkpt><trkpt lat="38.168572886556" lon="13.25143557240096"><ele>609.8</ele><time>2026-03-29T08:41:26Z</time></trkpt><trkpt lat="38.16866360531689" lon="13.251499104428135"><ele>613.0</ele><time>2026-03-29T08:41:27Z</time></trkpt><trkpt lat="38.16873914607508" lon="13.251534382693814"><ele>613.0</ele><time>2026-03-29T08:41:28Z</time></trkpt><trkpt lat="38.168808190541164" lon="13.251576718930066"><ele>613.0</ele><time>2026-03-29T08:41:29Z</time></trkpt><trkpt lat="38.16889234258466" lon="13.25160096846059"><ele>613.0</ele><time>2026-03-29T08:41:30Z</time></trkpt><trkpt lat="38.169028649013036" lon="13.251621494994566"><ele>613.0</ele><time>2026-03-29T08:41:31Z</time></trkpt><trkpt lat="38.16916964136268" lon="13.25163268920023"><ele>613.0</ele><time>2026-03-29T08:41:32Z</time></trkpt><trkpt lat="38.16927859727812" lon="13.251617734032637"><ele>610.1999999999999</ele><time>2026-03-29T08:41:33Z</time></trkpt><trkpt lat="38.169376555952105" lon="13.251616606258812"><ele>607.4</ele><time>2026-03-29T08:41:34Z</time></trkpt><trkpt lat="38.16948342486022" lon="13.25161033445539"><ele>604.5999999999999</ele><time>2026-03-29T08:41:35Z</time></trkpt><trkpt lat="38.1695844634624" lon="13.251592158004811"><ele>601.8</ele><time>2026-03-29T08:41:36Z</time></trkpt><trkpt lat="38.16967161319003" lon="13.251581880562233"><ele>599.0</ele><time>2026-03-29T08:41:37Z</time></trkpt><trkpt lat="38.169771337439826" lon="13.251562011206351"><ele>597.0</ele><time>2026-03-29T08:41:38Z</time></trkpt><trkpt lat="38.16987860968565" lon="13.251554198331714"><ele>595.0</ele><time>2026-03-29T08:41:39Z</time></trkpt><trkpt lat="38.16995215107452" lon="13.251531034685593"><ele>593.0</ele><time>2026-03-29T08:41:40Z</time></trkpt><trkpt lat="38.170049972315034" lon="13.251524888648092"><ele>591.0</ele><time>2026-03-29T08:41:41Z</time></trkpt><trkpt lat="38.170143073357224" lon="13.251502489295245"><ele>589.0</ele><time>2026-03-29T08:41:42Z</time></trkpt><trkpt lat="38.170217361992485" lon="13.251503160601274"><ele>589.0</ele><time>2026-03-29T08:41:43Z</time></trkpt><trkpt lat="38.1703699552602" lon="13.251492512245362"><ele>589.0</ele><time>2026-03-29T08:41:45Z</time></trkpt><trkpt lat="38.1704511400854" lon="13.251483240762495"><ele>589.0</ele><time>2026-03-29T08:41:46Z</time></trkpt><trkpt lat="38.170536543954086" lon="13.251475385440672"><ele>589.0</ele><time>2026-03-29T08:41:47Z</time></trkpt><trkpt lat="38.17062813851774" lon="13.251467567831588"><ele>589.0</ele><time>2026-03-29T08:41:48Z</time></trkpt><trkpt lat="38.17073377583468" lon="13.251487087915788"><ele>587.5</ele><time>2026-03-29T08:41:49Z</time></trkpt><trkpt lat="38.170799166144924" lon="13.251493986751349"><ele>586.0</ele><time>2026-03-29T08:41:50Z</time></trkpt><trkpt lat="38.17086679969759" lon="13.25150441221793"><ele>584.5</ele><time>2026-03-29T08:41:51Z</time></trkpt><trkpt lat="38.170929601626" lon="13.251516762848292"><ele>583.0</ele><time>2026-03-29T08:41:52Z</time></trkpt><trkpt lat="38.17100459654863" lon="13.251538656186414"><ele>581.5</ele><time>2026-03-29T08:41:53Z</time></trkpt><trkpt lat="38.17111157595376" lon="13.25157564704441"><ele>580.0</ele><time>2026-03-29T08:41:55Z</time></trkpt><trkpt lat="38.17118218645291" lon="13.251604505737593"><ele>580.0</ele><time>2026-03-29T08:41:56Z</time></trkpt><trkpt lat="38.17125311766661" lon="13.251593297665625"><ele>580.0</ele><time>2026-03-29T08:41:57Z</time></trkpt><trkpt lat="38.17137633467322" lon="13.251660507423708"><ele>580.0</ele><time>2026-03-29T08:41:59Z</time></trkpt><trkpt lat="38.17147772747059" lon="13.2517233559898"><ele>580.0</ele><time>2026-03-29T08:42:01Z</time></trkpt><trkpt lat="38.171575893886704" lon="13.251767776471137"><ele>580.0</ele><time>2026-03-29T08:42:03Z</time></trkpt><trkpt lat="38.17164094180412" lon="13.251809587035698"><ele>574.5</ele><time>2026-03-29T08:42:04Z</time></trkpt><trkpt lat="38.17175263274777" lon="13.251883838187814"><ele>569.0</ele><time>2026-03-29T08:42:06Z</time></trkpt><trkpt lat="38.171856575456026" lon="13.251963415240589"><ele>563.5</ele><time>2026-03-29T08:42:08Z</time></trkpt><trkpt lat="38.17195936475464" lon="13.252045729526456"><ele>558.0</ele><time>2026-03-29T08:42:10Z</time></trkpt><trkpt lat="38.17206316003329" lon="13.25213050482478"><ele>558.0</ele><time>2026-03-29T08:42:12Z</time></trkpt><trkpt lat="38.17216209818499" lon="13.25221760573819"><ele>558.0</ele><time>2026-03-29T08:42:14Z</time></trkpt><trkpt lat="38.17220989309487" lon="13.25227227848179"><ele>558.0</ele><time>2026-03-29T08:42:15Z</time></trkpt><trkpt lat="38.1723258685474" lon="13.25235025869273"><ele>558.0</ele><time>2026-03-29T08:42:17Z</time></trkpt><trkpt lat="38.1723908212987" lon="13.252407851238456"><ele>558.0</ele><time>2026-03-29T08:42:18Z</time></trkpt><trkpt lat="38.17253419622143" lon="13.252502395055673"><ele>558.0</ele><time>2026-03-29T08:42:20Z</time></trkpt><trkpt lat="38.172607123808156" lon="13.252604962222224"><ele>558.0</ele><time>2026-03-29T08:42:22Z</time></trkpt><trkpt lat="38.1726673700298" lon="13.25265174422406"><ele>558.0</ele><time>2026-03-29T08:42:23Z</time></trkpt><trkpt lat="38.17272125095506" lon="13.25270157253135"><ele>558.0</ele><time>2026-03-29T08:42:24Z</time></trkpt><trkpt lat="38.17277777137421" lon="13.252736965671126"><ele>558.0</ele><time>2026-03-29T08:42:25Z</time></trkpt><trkpt lat="38.17287832526478" lon="13.252813860051596"><ele>558.0</ele><time>2026-03-29T08:42:27Z</time></trkpt><trkpt lat="38.172924666675584" lon="13.252877038861387"><ele>558.0</ele><time>2026-03-29T08:42:28Z</time></trkpt><trkpt lat="38.173006628159" lon="13.252912482762694"><ele>558.0</ele><time>2026-03-29T08:42:30Z</time></trkpt><trkpt lat="38.173075684122715" lon="13.252930277776915"><ele>558.0</ele><time>2026-03-29T08:42:59Z</time></trkpt><trkpt lat="38.173154569997095" lon="13.252948765940065"><ele>558.0</ele><time>2026-03-29T08:43:01Z</time></trkpt><trkpt lat="38.173261324882084" lon="13.25297717093618"><ele>558.0</ele><time>2026-03-29T08:43:03Z</time></trkpt><trkpt lat="38.173327065675565" lon="13.252994063190865"><ele>558.0</ele><time>2026-03-29T08:43:04Z</time></trkpt><trkpt lat="38.1733896101269" lon="13.253012993508285"><ele>559.0</ele><time>2026-03-29T08:43:05Z</time></trkpt><trkpt lat="38.17346507208979" lon="13.25303929159282"><ele>560.0</ele><time>2026-03-29T08:43:06Z</time></trkpt><trkpt lat="38.17356900982223" lon="13.2530864899563"><ele>561.0</ele><time>2026-03-29T08:43:08Z</time></trkpt><trkpt lat="38.173635341091405" lon="13.253118528290365"><ele>562.0</ele><time>2026-03-29T08:43:10Z</time></trkpt><trkpt lat="38.17372203288665" lon="13.253160400820487"><ele>563.0</ele><time>2026-03-29T08:43:12Z</time></trkpt><trkpt lat="38.173821645441265" lon="13.253207375398093"><ele>563.0</ele><time>2026-03-29T08:43:14Z</time></trkpt><trkpt lat="38.17391940474976" lon="13.253258861738125"><ele>563.0</ele><time>2026-03-29T08:43:16Z</time></trkpt><trkpt lat="38.174013843779406" lon="13.25330953277798"><ele>563.0</ele><time>2026-03-29T08:43:18Z</time></trkpt><trkpt lat="38.174107181383384" lon="13.253375669649515"><ele>563.0</ele><time>2026-03-29T08:43:20Z</time></trkpt><trkpt lat="38.17416003943683" lon="13.25342606341678"><ele>563.0</ele><time>2026-03-29T08:43:21Z</time></trkpt><trkpt lat="38.174238282373196" lon="13.253495992308913"><ele>563.5</ele><time>2026-03-29T08:43:22Z</time></trkpt><trkpt lat="38.17429618753081" lon="13.253558685351237"><ele>564.0</ele><time>2026-03-29T08:43:23Z</time></trkpt><trkpt lat="38.174092681860365" lon="13.254199743630961"><ele>564.0</ele><time>2026-03-29T08:43:25Z</time></trkpt><trkpt lat="38.1741404851744" lon="13.254286832379975"><ele>564.0</ele><time>2026-03-29T08:43:27Z</time></trkpt><trkpt lat="38.17416873378387" lon="13.254387703947357"><ele>564.0</ele><time>2026-03-29T08:43:29Z</time></trkpt><trkpt lat="38.174189653039136" lon="13.25456070297544"><ele>564.0</ele><time>2026-03-29T08:43:31Z</time></trkpt><trkpt lat="38.174214766495915" lon="13.254679797682037"><ele>564.0</ele><time>2026-03-29T08:43:32Z</time></trkpt><trkpt lat="38.17423468128804" lon="13.254776011621058"><ele>566.6</ele><time>2026-03-29T08:43:33Z</time></trkpt><trkpt lat="38.17425232210449" lon="13.254858452563452"><ele>569.2</ele><time>2026-03-29T08:43:34Z</time></trkpt><trkpt lat="38.17427050191362" lon="13.254973581092598"><ele>571.8000000000001</ele><time>2026-03-29T08:43:36Z</time></trkpt><trkpt lat="38.174296984975314" lon="13.255111825786372"><ele>574.4</ele><time>2026-03-29T08:43:38Z</time></trkpt><trkpt lat="38.1742950973857" lon="13.255227663945076"><ele>577.0</ele><time>2026-03-29T08:43:40Z</time></trkpt><trkpt lat="38.1743029775595" lon="13.25534169621461"><ele>577.0</ele><time>2026-03-29T08:43:42Z</time></trkpt><trkpt lat="38.17430534360734" lon="13.25543805618707"><ele>577.0</ele><time>2026-03-29T08:43:44Z</time></trkpt><trkpt lat="38.174296847742525" lon="13.255559506899093"><ele>577.0</ele><time>2026-03-29T08:43:46Z</time></trkpt><trkpt lat="38.17428911948303" lon="13.25564297649414"><ele>577.0</ele><time>2026-03-29T08:43:47Z</time></trkpt><trkpt lat="38.17428115951842" lon="13.255755493887115"><ele>577.0</ele><time>2026-03-29T08:43:48Z</time></trkpt><trkpt lat="38.17426983247468" lon="13.255868266954343"><ele>577.0</ele><time>2026-03-29T08:43:49Z</time></trkpt><trkpt lat="38.17426036931124" lon="13.256021756323001"><ele>577.2</ele><time>2026-03-29T08:43:51Z</time></trkpt><trkpt lat="38.17424402891648" lon="13.25613753685315"><ele>577.4000000000001</ele><time>2026-03-29T08:43:53Z</time></trkpt><trkpt lat="38.17421779417055" lon="13.256258789302612"><ele>577.5999999999999</ele><time>2026-03-29T08:43:55Z</time></trkpt><trkpt lat="38.17415210359612" lon="13.25638583173518"><ele>577.8</ele><time>2026-03-29T08:43:57Z</time></trkpt><trkpt lat="38.17410466160603" lon="13.256459139987612"><ele>578.0</ele><time>2026-03-29T08:43:58Z</time></trkpt><trkpt lat="38.17405607534272" lon="13.25652543378977"><ele>581.8333333333333</ele><time>2026-03-29T08:43:59Z</time></trkpt><trkpt lat="38.1739684424566" lon="13.256633836071659"><ele>585.6666666666666</ele><time>2026-03-29T08:44:01Z</time></trkpt><trkpt lat="38.17391673959265" lon="13.256704722120663"><ele>589.5</ele><time>2026-03-29T08:44:02Z</time></trkpt><trkpt lat="38.17385941018254" lon="13.256769205285467"><ele>593.3333333333334</ele><time>2026-03-29T08:44:03Z</time></trkpt><trkpt lat="38.173807701692795" lon="13.25683296276801"><ele>597.1666666666667</ele><time>2026-03-29T08:44:04Z</time></trkpt><trkpt lat="38.17375933905513" lon="13.256894197763032"><ele>601.0</ele><time>2026-03-29T08:44:05Z</time></trkpt><trkpt lat="38.17365129013532" lon="13.257004042168491"><ele>601.0</ele><time>2026-03-29T08:44:07Z</time></trkpt><trkpt lat="38.17359686035009" lon="13.257061796847896"><ele>601.0</ele><time>2026-03-29T08:44:08Z</time></trkpt><trkpt lat="38.17349631932403" lon="13.257128099490837"><ele>601.0</ele><time>2026-03-29T08:44:10Z</time></trkpt><trkpt lat="38.17339392037527" lon="13.257217549283569"><ele>601.0</ele><time>2026-03-29T08:44:12Z</time></trkpt><trkpt lat="38.17334401150414" lon="13.257269736157891"><ele>601.0</ele><time>2026-03-29T08:44:13Z</time></trkpt><trkpt lat="38.17329592385216" lon="13.25733256064397"><ele>601.0</ele><time>2026-03-29T08:44:14Z</time></trkpt><trkpt lat="38.17323244249867" lon="13.25738432266385"><ele>605.4</ele><time>2026-03-29T08:44:15Z</time></trkpt><trkpt lat="38.173160907774175" lon="13.25744078713433"><ele>609.8</ele><time>2026-03-29T08:44:16Z</time></trkpt><trkpt lat="38.17305345215368" lon="13.257525033941487"><ele>614.1999999999999</ele><time>2026-03-29T08:44:18Z</time></trkpt><trkpt lat="38.173018816895095" lon="13.257610862925603"><ele>618.6</ele><time>2026-03-29T08:44:19Z</time></trkpt><trkpt lat="38.17291508497684" lon="13.257707743674374"><ele>623.0</ele><time>2026-03-29T08:44:21Z</time></trkpt><trkpt lat="38.17286226170159" lon="13.2577918016522"><ele>623.0</ele><time>2026-03-29T08:44:22Z</time></trkpt><trkpt lat="38.17281801984399" lon="13.257877646355347"><ele>623.0</ele><time>2026-03-29T08:44:23Z</time></trkpt><trkpt lat="38.17278150307091" lon="13.257993018032442"><ele>623.0</ele><time>2026-03-29T08:44:24Z</time></trkpt><trkpt lat="38.172766922662376" lon="13.258125245244164"><ele>623.0</ele><time>2026-03-29T08:44:25Z</time></trkpt><trkpt lat="38.17274803177593" lon="13.258271884504992"><ele>623.0</ele><time>2026-03-29T08:44:26Z</time></trkpt><trkpt lat="38.172716651920005" lon="13.258399591413097"><ele>621.3333333333333</ele><time>2026-03-29T08:44:27Z</time></trkpt><trkpt lat="38.17268483992164" lon="13.258491702308929"><ele>619.6666666666666</ele><time>2026-03-29T08:44:28Z</time></trkpt><trkpt lat="38.1726475688825" lon="13.258653890761533"><ele>618.0</ele><time>2026-03-29T08:44:30Z</time></trkpt><trkpt lat="38.17262605760698" lon="13.258741753463973"><ele>616.3333333333334</ele><time>2026-03-29T08:44:31Z</time></trkpt><trkpt lat="38.172598024695624" lon="13.258837340437546"><ele>614.6666666666667</ele><time>2026-03-29T08:44:32Z</time></trkpt><trkpt lat="38.1725612431411" lon="13.258920143888313"><ele>613.0</ele><time>2026-03-29T08:44:33Z</time></trkpt><trkpt lat="38.172529199569716" lon="13.259015321568258"><ele>611.7142857142858</ele><time>2026-03-29T08:44:34Z</time></trkpt><trkpt lat="38.17250751096321" lon="13.259109269285107"><ele>610.4285714285714</ele><time>2026-03-29T08:44:35Z</time></trkpt><trkpt lat="38.17246582438706" lon="13.259170283027478"><ele>609.1428571428571</ele><time>2026-03-29T08:44:36Z</time></trkpt><trkpt lat="38.172425122464695" lon="13.259248558163163"><ele>607.8571428571429</ele><time>2026-03-29T08:44:37Z</time></trkpt><trkpt lat="38.17238432799421" lon="13.259322490558306"><ele>606.5714285714286</ele><time>2026-03-29T08:44:38Z</time></trkpt><trkpt lat="38.17234172011707" lon="13.259405021660008"><ele>605.2857142857143</ele><time>2026-03-29T08:44:39Z</time></trkpt><trkpt lat="38.1723007894313" lon="13.259480337022644"><ele>604.0</ele><time>2026-03-29T08:44:40Z</time></trkpt><trkpt lat="38.17226400259632" lon="13.259551555338364"><ele>610.1666666666667</ele><time>2026-03-29T08:44:41Z</time></trkpt><trkpt lat="38.172226976678914" lon="13.259622845676859"><ele>616.3333333333334</ele><time>2026-03-29T08:44:42Z</time></trkpt><trkpt lat="38.17216884388855" lon="13.25975043206085"><ele>622.5</ele><time>2026-03-29T08:44:44Z</time></trkpt><trkpt lat="38.17215426445211" lon="13.259872958199185"><ele>628.6666666666666</ele><time>2026-03-29T08:44:45Z</time></trkpt><trkpt lat="38.17213738030252" lon="13.259968570945967"><ele>634.8333333333333</ele><time>2026-03-29T08:44:46Z</time></trkpt><trkpt lat="38.17214802795134" lon="13.260073355803282"><ele>641.0</ele><time>2026-03-29T08:44:47Z</time></trkpt><trkpt lat="38.17213927303099" lon="13.26016677409484"><ele>641.0</ele><time>2026-03-29T08:44:48Z</time></trkpt><trkpt lat="38.172126164019076" lon="13.26025683236806"><ele>641.0</ele><time>2026-03-29T08:44:49Z</time></trkpt><trkpt lat="38.17209894125234" lon="13.260353108353527"><ele>641.0</ele><time>2026-03-29T08:44:50Z</time></trkpt><trkpt lat="38.17208009178027" lon="13.2604418430498"><ele>641.0</ele><time>2026-03-29T08:44:51Z</time></trkpt><trkpt lat="38.17204668184001" lon="13.26053412758999"><ele>641.0</ele><time>2026-03-29T08:44:52Z</time></trkpt><trkpt lat="38.172028003049284" lon="13.260630958595783"><ele>641.0</ele><time>2026-03-29T08:44:53Z</time></trkpt><trkpt lat="38.17203189242522" lon="13.26073156432144"><ele>640.3333333333333</ele><time>2026-03-29T08:44:54Z</time></trkpt><trkpt lat="38.172012663232465" lon="13.260809912829476"><ele>639.6666666666666</ele><time>2026-03-29T08:44:55Z</time></trkpt><trkpt lat="38.17199746612484" lon="13.260900604682206"><ele>639.0</ele><time>2026-03-29T08:44:56Z</time></trkpt><trkpt lat="38.17200460598389" lon="13.260987663449203"><ele>638.3333333333334</ele><time>2026-03-29T08:44:57Z</time></trkpt><trkpt lat="38.17199198545568" lon="13.261074495491332"><ele>637.6666666666667</ele><time>2026-03-29T08:44:58Z</time></trkpt><trkpt lat="38.17199605579788" lon="13.261157951288641"><ele>637.0</ele><time>2026-03-29T08:44:59Z</time></trkpt><trkpt lat="38.17208497677405" lon="13.261278370096125"><ele>637.0</ele><time>2026-03-29T08:45:01Z</time></trkpt><trkpt lat="38.17217903668857" lon="13.26138826986036"><ele>637.0</ele><time>2026-03-29T08:45:03Z</time></trkpt><trkpt lat="38.17225318467773" lon="13.261474032188191"><ele>637.0</ele><time>2026-03-29T08:45:04Z</time></trkpt><trkpt lat="38.17228833543847" lon="13.261545620668478"><ele>637.0</ele><time>2026-03-29T08:45:05Z</time></trkpt><trkpt lat="38.17234493877689" lon="13.261607225547163"><ele>637.0</ele><time>2026-03-29T08:45:06Z</time></trkpt><trkpt lat="38.17239355884517" lon="13.261664220377718"><ele>637.0</ele><time>2026-03-29T08:45:07Z</time></trkpt><trkpt lat="38.17246018567321" lon="13.261738640206417"><ele>638.0</ele><time>2026-03-29T08:45:08Z</time></trkpt><trkpt lat="38.17251275610515" lon="13.261797569034709"><ele>639.0</ele><time>2026-03-29T08:45:09Z</time></trkpt><trkpt lat="38.172563539784214" lon="13.26190901740727"><ele>640.0</ele><time>2026-03-29T08:45:11Z</time></trkpt><trkpt lat="38.17261512412522" lon="13.261996132904285"><ele>641.0</ele><time>2026-03-29T08:45:13Z</time></trkpt><trkpt lat="38.17268256297259" lon="13.262121243907524"><ele>642.0</ele><time>2026-03-29T08:45:15Z</time></trkpt><trkpt lat="38.17271992589192" lon="13.262188389482532"><ele>643.0</ele><time>2026-03-29T08:45:16Z</time></trkpt><trkpt lat="38.172776653173024" lon="13.262305139523562"><ele>643.0</ele><time>2026-03-29T08:45:19Z</time></trkpt><trkpt lat="38.17282672458759" lon="13.262365492952108"><ele>643.0</ele><time>2026-03-29T08:45:20Z</time></trkpt><trkpt lat="38.17288439211371" lon="13.262442438110993"><ele>643.0</ele><time>2026-03-29T08:45:21Z</time></trkpt><trkpt lat="38.17293088202413" lon="13.262529190082429"><ele>643.0</ele><time>2026-03-29T08:45:22Z</time></trkpt><trkpt lat="38.17300556858309" lon="13.26262341245336"><ele>643.0</ele><time>2026-03-29T08:45:23Z</time></trkpt><trkpt lat="38.173079029474714" lon="13.262744885199186"><ele>643.0</ele><time>2026-03-29T08:45:24Z</time></trkpt><trkpt lat="38.173158418133056" lon="13.262844350325658"><ele>643.0</ele><time>2026-03-29T08:45:25Z</time></trkpt><trkpt lat="38.17317813188084" lon="13.262924370208916"><ele>643.0</ele><time>2026-03-29T08:45:26Z</time></trkpt><trkpt lat="38.1732149817949" lon="13.263002424273132"><ele>643.0</ele><time>2026-03-29T08:45:27Z</time></trkpt><trkpt lat="38.17326922192806" lon="13.263083554344608"><ele>643.0</ele><time>2026-03-29T08:45:28Z</time></trkpt><trkpt lat="38.17331143418183" lon="13.263156875025926"><ele>643.0</ele><time>2026-03-29T08:45:29Z</time></trkpt><trkpt lat="38.17334812977296" lon="13.263241294607031"><ele>640.6666666666667</ele><time>2026-03-29T08:45:30Z</time></trkpt><trkpt lat="38.17338616889433" lon="13.263340838100161"><ele>638.3333333333334</ele><time>2026-03-29T08:45:31Z</time></trkpt><trkpt lat="38.173440682965705" lon="13.263421534668382"><ele>636.0</ele><time>2026-03-29T08:45:32Z</time></trkpt><trkpt lat="38.17348905293531" lon="13.26353267871666"><ele>633.6666666666666</ele><time>2026-03-29T08:45:33Z</time></trkpt><trkpt lat="38.173524380092665" lon="13.26361905401914"><ele>631.3333333333333</ele><time>2026-03-29T08:45:34Z</time></trkpt><trkpt lat="38.17355308018214" lon="13.263694757063893"><ele>629.0</ele><time>2026-03-29T08:45:35Z</time></trkpt><trkpt lat="38.1736039333191" lon="13.263798642818957"><ele>629.0</ele><time>2026-03-29T08:45:36Z</time></trkpt><trkpt lat="38.1736594208996" lon="13.263909036708096"><ele>629.0</ele><time>2026-03-29T08:45:37Z</time></trkpt><trkpt lat="38.173696200084144" lon="13.26399175899816"><ele>629.0</ele><time>2026-03-29T08:45:38Z</time></trkpt><trkpt lat="38.17370988260359" lon="13.264082588224236"><ele>629.0</ele><time>2026-03-29T08:45:39Z</time></trkpt><trkpt lat="38.173740819254064" lon="13.264160228273193"><ele>629.0</ele><time>2026-03-29T08:45:40Z</time></trkpt><trkpt lat="38.173802367448424" lon="13.264238255540413"><ele>629.0</ele><time>2026-03-29T08:45:41Z</time></trkpt><trkpt lat="38.17384503525449" lon="13.264368644476537"><ele>629.8</ele><time>2026-03-29T08:45:42Z</time></trkpt><trkpt lat="38.17390468979343" lon="13.264461137942348"><ele>630.5999999999999</ele><time>2026-03-29T08:45:43Z</time></trkpt><trkpt lat="38.1739588632296" lon="13.264527979656838"><ele>631.4</ele><time>2026-03-29T08:45:44Z</time></trkpt><trkpt lat="38.17401751745888" lon="13.264635825198894"><ele>632.1999999999999</ele><time>2026-03-29T08:45:46Z</time></trkpt><trkpt lat="38.174090054609664" lon="13.264771801655465"><ele>633.0</ele><time>2026-03-29T08:45:48Z</time></trkpt><trkpt lat="38.17415775595499" lon="13.264890317318484"><ele>633.0</ele><time>2026-03-29T08:45:50Z</time></trkpt><trkpt lat="38.17422031509499" lon="13.26495286086212"><ele>633.0</ele><time>2026-03-29T08:45:51Z</time></trkpt><trkpt lat="38.174226918290195" lon="13.265097200808155"><ele>633.0</ele><time>2026-03-29T08:45:53Z</time></trkpt><trkpt lat="38.17425058771212" lon="13.265203327252017"><ele>633.0</ele><time>2026-03-29T08:45:55Z</time></trkpt><trkpt lat="38.17428015954706" lon="13.26533394654686"><ele>633.0</ele><time>2026-03-29T08:45:57Z</time></trkpt><trkpt lat="38.174301615360456" lon="13.265438059877606"><ele>633.0</ele><time>2026-03-29T08:45:59Z</time></trkpt><trkpt lat="38.1742829487158" lon="13.26537803358265"><ele>633.0</ele><time>2026-03-29T08:53:00Z</time></trkpt><trkpt lat="38.1742473816338" lon="13.265270646104321"><ele>633.0</ele><time>2026-03-29T08:53:03Z</time></trkpt><trkpt lat="38.17421466195994" lon="13.265184301779925"><ele>633.0</ele><time>2026-03-29T08:53:05Z</time></trkpt><trkpt lat="38.174186118338795" lon="13.265098503715434"><ele>633.0</ele><time>2026-03-29T08:53:07Z</time></trkpt><trkpt lat="38.17415639725018" lon="13.26502037446017"><ele>633.0</ele><time>2026-03-29T08:53:09Z</time></trkpt><trkpt lat="38.174120163142284" lon="13.264945210667417"><ele>633.0</ele><time>2026-03-29T08:53:11Z</time></trkpt><trkpt lat="38.174057594495494" lon="13.26487734112938"><ele>636.0</ele><time>2026-03-29T08:53:13Z</time></trkpt><trkpt lat="38.17401766050849" lon="13.264780419618207"><ele>639.0</ele><time>2026-03-29T08:53:15Z</time></trkpt><trkpt lat="38.173984308645984" lon="13.264665839283126"><ele>642.0</ele><time>2026-03-29T08:53:17Z</time></trkpt><trkpt lat="38.17393020743665" lon="13.264610600243731"><ele>645.0</ele><time>2026-03-29T08:53:20Z</time></trkpt><trkpt lat="38.173891294278995" lon="13.264511588155969"><ele>648.0</ele><time>2026-03-29T08:53:22Z</time></trkpt><trkpt lat="38.17383985830273" lon="13.26441724533664"><ele>651.0</ele><time>2026-03-29T08:53:24Z</time></trkpt><trkpt lat="38.17378938417174" lon="13.264313181856258"><ele>651.0</ele><time>2026-03-29T08:53:26Z</time></trkpt><trkpt lat="38.173710829223864" lon="13.264168193828173"><ele>651.0</ele><time>2026-03-29T08:53:28Z</time></trkpt><trkpt lat="38.173679785853636" lon="13.264053205112395"><ele>651.0</ele><time>2026-03-29T08:53:30Z</time></trkpt><trkpt lat="38.17361974395321" lon="13.263988469960633"><ele>651.0</ele><time>2026-03-29T08:53:32Z</time></trkpt><trkpt lat="38.1735953232865" lon="13.26390815139796"><ele>651.0</ele><time>2026-03-29T08:53:33Z</time></trkpt><trkpt lat="38.1735394716504" lon="13.263826080497108"><ele>647.3333333333334</ele><time>2026-03-29T08:53:34Z</time></trkpt><trkpt lat="38.17350861876749" lon="13.263740594860451"><ele>643.6666666666666</ele><time>2026-03-29T08:53:35Z</time></trkpt><trkpt lat="38.173456968814925" lon="13.263619148076733"><ele>640.0</ele><time>2026-03-29T08:53:37Z</time></trkpt><trkpt lat="38.1734299584888" lon="13.263540562545503"><ele>636.3333333333333</ele><time>2026-03-29T08:53:38Z</time></trkpt><trkpt lat="38.17339243760985" lon="13.263466324827604"><ele>632.6666666666666</ele><time>2026-03-29T08:53:39Z</time></trkpt><trkpt lat="38.17335054640148" lon="13.263323892584907"><ele>629.0</ele><time>2026-03-29T08:53:41Z</time></trkpt><trkpt lat="38.173301281868724" lon="13.26321704390244"><ele>629.0</ele><time>2026-03-29T08:53:43Z</time></trkpt><trkpt lat="38.173255306819364" lon="13.263149329795583"><ele>629.0</ele><time>2026-03-29T08:53:44Z</time></trkpt><trkpt lat="38.17318693134202" lon="13.26303732895899"><ele>629.0</ele><time>2026-03-29T08:53:46Z</time></trkpt><trkpt lat="38.17314268600028" lon="13.262938078722415"><ele>629.0</ele><time>2026-03-29T08:53:48Z</time></trkpt><trkpt lat="38.173100546533064" lon="13.262853977305745"><ele>629.0</ele><time>2026-03-29T08:53:49Z</time></trkpt><trkpt lat="38.17305816544636" lon="13.262787021359046"><ele>629.0</ele><time>2026-03-29T08:53:50Z</time></trkpt><trkpt lat="38.172999614203995" lon="13.26267838483406"><ele>626.4</ele><time>2026-03-29T08:53:52Z</time></trkpt><trkpt lat="38.172916881864495" lon="13.262632480278821"><ele>623.8</ele><time>2026-03-29T08:53:54Z</time></trkpt><trkpt lat="38.1728720565359" lon="13.262567481182122"><ele>621.2</ele><time>2026-03-29T08:53:55Z</time></trkpt><trkpt lat="38.17283046882486" lon="13.262416890578729"><ele>618.6</ele><time>2026-03-29T08:53:57Z</time></trkpt><trkpt lat="38.17276340725288" lon="13.262322423028769"><ele>616.0</ele><time>2026-03-29T08:53:59Z</time></trkpt><trkpt lat="38.172711625724276" lon="13.262234654498945"><ele>616.0</ele><time>2026-03-29T08:54:01Z</time></trkpt><trkpt lat="38.172675373793595" lon="13.262144583418559"><ele>616.0</ele><time>2026-03-29T08:54:03Z</time></trkpt><trkpt lat="38.172621677236314" lon="13.262082630716526"><ele>616.0</ele><time>2026-03-29T08:54:04Z</time></trkpt><trkpt lat="38.17255917239886" lon="13.261989014198733"><ele>616.0</ele><time>2026-03-29T08:54:06Z</time></trkpt><trkpt lat="38.1725282036659" lon="13.261891116798955"><ele>616.0</ele><time>2026-03-29T08:54:08Z</time></trkpt><trkpt lat="38.17247066037344" lon="13.26183742272874"><ele>616.0</ele><time>2026-03-29T08:54:09Z</time></trkpt><trkpt lat="38.17239560600337" lon="13.261741482395825"><ele>616.0</ele><time>2026-03-29T08:54:11Z</time></trkpt><trkpt lat="38.17236026570956" lon="13.261648766987316"><ele>616.0</ele><time>2026-03-29T08:54:13Z</time></trkpt><trkpt lat="38.17226968766938" lon="13.261563754393325"><ele>616.0</ele><time>2026-03-29T08:54:15Z</time></trkpt><trkpt lat="38.17218154966312" lon="13.261467208162347"><ele>616.0</ele><time>2026-03-29T08:54:17Z</time></trkpt><trkpt lat="38.17213010039922" lon="13.261413264189388"><ele>616.0</ele><time>2026-03-29T08:54:18Z</time></trkpt><trkpt lat="38.17207811606462" lon="13.261360074755974"><ele>616.0</ele><time>2026-03-29T08:54:19Z</time></trkpt><trkpt lat="38.17200761902888" lon="13.261243461241044"><ele>619.0</ele><time>2026-03-29T08:54:21Z</time></trkpt><trkpt lat="38.17195414663174" lon="13.261156851517057"><ele>622.0</ele><time>2026-03-29T08:54:22Z</time></trkpt><trkpt lat="38.17194507383286" lon="13.261075062910178"><ele>625.0</ele><time>2026-03-29T08:54:23Z</time></trkpt><trkpt lat="38.171943199286275" lon="13.2609895888854"><ele>628.0</ele><time>2026-03-29T08:54:24Z</time></trkpt><trkpt lat="38.171952963025824" lon="13.260906199880013"><ele>631.0</ele><time>2026-03-29T08:54:25Z</time></trkpt><trkpt lat="38.17197055153105" lon="13.260824536911876"><ele>634.0</ele><time>2026-03-29T08:54:26Z</time></trkpt><trkpt lat="38.17198530769912" lon="13.26073571605288"><ele>637.0</ele><time>2026-03-29T08:54:27Z</time></trkpt><trkpt lat="38.17201623290328" lon="13.260601159944548"><ele>637.6666666666667</ele><time>2026-03-29T08:54:29Z</time></trkpt><trkpt lat="38.17204240974076" lon="13.260517831825362"><ele>638.3333333333334</ele><time>2026-03-29T08:54:30Z</time></trkpt><trkpt lat="38.17206137256712" lon="13.260417028950364"><ele>639.0</ele><time>2026-03-29T08:54:31Z</time></trkpt><trkpt lat="38.17208435711272" lon="13.260338529490268"><ele>639.6666666666666</ele><time>2026-03-29T08:54:32Z</time></trkpt><trkpt lat="38.172093616009114" lon="13.26023371519644"><ele>640.3333333333333</ele><time>2026-03-29T08:54:34Z</time></trkpt><trkpt lat="38.17211752643197" lon="13.260135864920397"><ele>641.0</ele><time>2026-03-29T08:54:36Z</time></trkpt><trkpt lat="38.17213683287638" lon="13.260004988178938"><ele>641.0</ele><time>2026-03-29T08:54:38Z</time></trkpt><trkpt lat="38.17215238701298" lon="13.259918566402522"><ele>641.0</ele><time>2026-03-29T08:54:39Z</time></trkpt><trkpt lat="38.17215720285973" lon="13.25977520966937"><ele>641.0</ele><time>2026-03-29T08:54:41Z</time></trkpt><trkpt lat="38.172205520180846" lon="13.259673261327556"><ele>641.0</ele><time>2026-03-29T08:54:42Z</time></trkpt><trkpt lat="38.172226603510325" lon="13.25957250754127"><ele>641.0</ele><time>2026-03-29T08:54:43Z</time></trkpt><trkpt lat="38.17227399457684" lon="13.25951645988497"><ele>641.0</ele><time>2026-03-29T08:54:44Z</time></trkpt><trkpt lat="38.17232474920826" lon="13.25943852630185"><ele>636.3333333333333</ele><time>2026-03-29T08:54:45Z</time></trkpt><trkpt lat="38.17237348790418" lon="13.259347650013257"><ele>631.6666666666666</ele><time>2026-03-29T08:54:46Z</time></trkpt><trkpt lat="38.17240261570433" lon="13.25926318120443"><ele>627.0</ele><time>2026-03-29T08:54:47Z</time></trkpt><trkpt lat="38.172435457210874" lon="13.259180069037841"><ele>622.3333333333334</ele><time>2026-03-29T08:54:48Z</time></trkpt><trkpt lat="38.17247411678658" lon="13.259089787981026"><ele>617.6666666666667</ele><time>2026-03-29T08:54:49Z</time></trkpt><trkpt lat="38.17251127257001" lon="13.258999379746975"><ele>613.0</ele><time>2026-03-29T08:54:50Z</time></trkpt><trkpt lat="38.172557912446926" lon="13.258880187246858"><ele>613.0</ele><time>2026-03-29T08:54:51Z</time></trkpt><trkpt lat="38.17258195750017" lon="13.258766250279047"><ele>613.0</ele><time>2026-03-29T08:54:52Z</time></trkpt><trkpt lat="38.17262060510006" lon="13.258658724506214"><ele>613.0</ele><time>2026-03-29T08:54:53Z</time></trkpt><trkpt lat="38.172668674751925" lon="13.25856023797158"><ele>613.0</ele><time>2026-03-29T08:54:54Z</time></trkpt><trkpt lat="38.17268076734204" lon="13.258476066486216"><ele>613.0</ele><time>2026-03-29T08:54:55Z</time></trkpt><trkpt lat="38.17269317878737" lon="13.258357183648418"><ele>613.0</ele><time>2026-03-29T08:54:56Z</time></trkpt><trkpt lat="38.172714014302386" lon="13.258258041239111"><ele>613.0</ele><time>2026-03-29T08:54:57Z</time></trkpt><trkpt lat="38.172731833043564" lon="13.25814903319533"><ele>613.0</ele><time>2026-03-29T08:54:58Z</time></trkpt><trkpt lat="38.17275402448527" lon="13.258060097607988"><ele>613.0</ele><time>2026-03-29T08:54:59Z</time></trkpt><trkpt lat="38.172769580123735" lon="13.25795580613792"><ele>613.0</ele><time>2026-03-29T08:55:00Z</time></trkpt><trkpt lat="38.172806478192086" lon="13.257860661604235"><ele>613.0</ele><time>2026-03-29T08:55:01Z</time></trkpt><trkpt lat="38.172838747705356" lon="13.257778767133948"><ele>613.0</ele><time>2026-03-29T08:55:02Z</time></trkpt><trkpt lat="38.17288533441817" lon="13.257697192169516"><ele>614.6666666666667</ele><time>2026-03-29T08:55:03Z</time></trkpt><trkpt lat="38.17292665479391" lon="13.257611399436147"><ele>616.3333333333334</ele><time>2026-03-29T08:55:04Z</time></trkpt><trkpt lat="38.17299946933649" lon="13.257544171777303"><ele>618.0</ele><time>2026-03-29T08:55:05Z</time></trkpt><trkpt lat="38.17307323858925" lon="13.25749077730037"><ele>619.6666666666666</ele><time>2026-03-29T08:55:06Z</time></trkpt><trkpt lat="38.17313379704496" lon="13.257437873326849"><ele>621.3333333333333</ele><time>2026-03-29T08:55:07Z</time></trkpt><trkpt lat="38.17318534181928" lon="13.257381481424321"><ele>623.0</ele><time>2026-03-29T08:55:08Z</time></trkpt><trkpt lat="38.17326516563568" lon="13.257320460510957"><ele>619.3333333333333</ele><time>2026-03-29T08:55:09Z</time></trkpt><trkpt lat="38.17334892708875" lon="13.257244405957017"><ele>615.6666666666666</ele><time>2026-03-29T08:55:10Z</time></trkpt><trkpt lat="38.17343413562999" lon="13.257151027826508"><ele>612.0</ele><time>2026-03-29T08:55:11Z</time></trkpt><trkpt lat="38.173508356021905" lon="13.257105472878237"><ele>608.3333333333334</ele><time>2026-03-29T08:55:12Z</time></trkpt><trkpt lat="38.17356270575866" lon="13.257061747544599"><ele>604.6666666666667</ele><time>2026-03-29T08:55:13Z</time></trkpt><trkpt lat="38.173629356964504" lon="13.257009388897782"><ele>601.0</ele><time>2026-03-29T08:55:14Z</time></trkpt><trkpt lat="38.173688288143204" lon="13.25695944146719"><ele>601.0</ele><time>2026-03-29T08:55:15Z</time></trkpt><trkpt lat="38.173740145588695" lon="13.25690257845785"><ele>601.0</ele><time>2026-03-29T08:55:16Z</time></trkpt><trkpt lat="38.17380168351928" lon="13.256838346056485"><ele>601.0</ele><time>2026-03-29T08:55:17Z</time></trkpt><trkpt lat="38.17386770649812" lon="13.256753253945023"><ele>601.0</ele><time>2026-03-29T08:55:18Z</time></trkpt><trkpt lat="38.1739522182853" lon="13.256643303172686"><ele>601.0</ele><time>2026-03-29T08:55:19Z</time></trkpt><trkpt lat="38.174033385520545" lon="13.25654273125001"><ele>597.5</ele><time>2026-03-29T08:55:20Z</time></trkpt><trkpt lat="38.17408711687547" lon="13.256472174971313"><ele>594.0</ele><time>2026-03-29T08:55:21Z</time></trkpt><trkpt lat="38.17413500174232" lon="13.256404258601352"><ele>590.5</ele><time>2026-03-29T08:55:22Z</time></trkpt><trkpt lat="38.17418016736423" lon="13.256331313224566"><ele>587.0</ele><time>2026-03-29T08:55:23Z</time></trkpt><trkpt lat="38.17422902593478" lon="13.256209481106652"><ele>583.5</ele><time>2026-03-29T08:55:25Z</time></trkpt><trkpt lat="38.17424995122291" lon="13.256113902811114"><ele>580.0</ele><time>2026-03-29T08:55:26.999Z</time></trkpt><trkpt lat="38.174258986621446" lon="13.25599054587931"><ele>580.0</ele><time>2026-03-29T08:55:28.999Z</time></trkpt><trkpt lat="38.174255591103055" lon="13.255878143198679"><ele>580.0</ele><time>2026-03-29T08:55:30.999Z</time></trkpt><trkpt lat="38.17426184304115" lon="13.255748003182854"><ele>580.0</ele><time>2026-03-29T08:55:32.999Z</time></trkpt><trkpt lat="38.1742824125487" lon="13.255619557038345"><ele>580.0</ele><time>2026-03-29T08:55:35Z</time></trkpt><trkpt lat="38.17428433337082" lon="13.255515152664747"><ele>580.0</ele><time>2026-03-29T08:55:37Z</time></trkpt><trkpt lat="38.17428916222287" lon="13.255428550450405"><ele>580.0</ele><time>2026-03-29T08:55:40Z</time></trkpt><trkpt lat="38.17429862379178" lon="13.25531147384957"><ele>579.5</ele><time>2026-03-29T08:55:44Z</time></trkpt><trkpt lat="38.174295527797945" lon="13.255201309264843"><ele>579.0</ele><time>2026-03-29T08:55:46Z</time></trkpt><trkpt lat="38.17428596738787" lon="13.25508663429489"><ele>578.5</ele><time>2026-03-29T08:55:48Z</time></trkpt><trkpt lat="38.17426847367446" lon="13.254946656950823"><ele>578.0</ele><time>2026-03-29T08:55:50Z</time></trkpt><trkpt lat="38.1742513532148" lon="13.254854255176925"><ele>577.5</ele><time>2026-03-29T08:55:52Z</time></trkpt><trkpt lat="38.17422776206261" lon="13.254769721508891"><ele>577.0</ele><time>2026-03-29T08:55:54Z</time></trkpt><trkpt lat="38.17419541973757" lon="13.254658659350502"><ele>574.4</ele><time>2026-03-29T08:55:57Z</time></trkpt><trkpt lat="38.1741784139408" lon="13.254555484513723"><ele>571.8000000000001</ele><time>2026-03-29T08:57:14Z</time></trkpt><trkpt lat="38.174146165336325" lon="13.254420710430079"><ele>569.2</ele><time>2026-03-29T08:57:17Z</time></trkpt><trkpt lat="38.174114128142506" lon="13.254316615661926"><ele>566.6</ele><time>2026-03-29T08:57:19Z</time></trkpt><trkpt lat="38.17409330100668" lon="13.254208949741638"><ele>564.0</ele><time>2026-03-29T08:57:21Z</time></trkpt><trkpt lat="38.17404144927033" lon="13.254113415278185"><ele>563.8</ele><time>2026-03-29T08:57:24Z</time></trkpt><trkpt lat="38.17399777670974" lon="13.254026570933435"><ele>563.5999999999999</ele><time>2026-03-29T08:57:26Z</time></trkpt><trkpt lat="38.17394740865731" lon="13.253921994270897"><ele>563.4</ele><time>2026-03-29T08:57:28Z</time></trkpt><trkpt lat="38.17388892487918" lon="13.25380387364351"><ele>563.1999999999999</ele><time>2026-03-29T08:57:30Z</time></trkpt><trkpt lat="38.173828514205624" lon="13.253716511399736"><ele>563.0</ele><time>2026-03-29T08:57:32Z</time></trkpt><trkpt lat="38.17376622472581" lon="13.25361868479336"><ele>563.0</ele><time>2026-03-29T08:57:33.998Z</time></trkpt><trkpt lat="38.173694128230345" lon="13.253529049510764"><ele>563.0</ele><time>2026-03-29T08:57:35.998Z</time></trkpt><trkpt lat="38.17362215905939" lon="13.253449948422059"><ele>563.0</ele><time>2026-03-29T08:57:37.998Z</time></trkpt><trkpt lat="38.17357145327507" lon="13.253394260975785"><ele>563.0</ele><time>2026-03-29T08:57:39.998Z</time></trkpt><trkpt lat="38.17351182700416" lon="13.253323110792175"><ele>563.0</ele><time>2026-03-29T08:57:42.998Z</time></trkpt><trkpt lat="38.17344253245401" lon="13.253249972317974"><ele>563.0</ele><time>2026-03-29T08:57:45.998Z</time></trkpt><trkpt lat="38.17338802027068" lon="13.25319159479451"><ele>563.0</ele><time>2026-03-29T08:57:47.999Z</time></trkpt><trkpt lat="38.17332288930628" lon="13.253148946055795"><ele>563.0</ele><time>2026-03-29T08:57:49.999Z</time></trkpt><trkpt lat="38.173271501543255" lon="13.253099675236644"><ele>563.0</ele><time>2026-03-29T08:57:51.999Z</time></trkpt><trkpt lat="38.17319271343911" lon="13.253047864521733"><ele>563.0</ele><time>2026-03-29T08:57:54.999Z</time></trkpt><trkpt lat="38.17312231661292" lon="13.25302758376619"><ele>563.0</ele><time>2026-03-29T08:57:57.999Z</time></trkpt><trkpt lat="38.17311359485768" lon="13.252943208686355"><ele>563.0</ele><time>2026-03-29T08:58:09.999Z</time></trkpt><trkpt lat="38.17320564782483" lon="13.252955212325118"><ele>563.0</ele><time>2026-03-29T08:58:12.999Z</time></trkpt><trkpt lat="38.17330833119177" lon="13.253018122663738"><ele>563.0</ele><time>2026-03-29T08:58:14.999Z</time></trkpt><trkpt lat="38.17337883304335" lon="13.253041824943994"><ele>563.0</ele><time>2026-03-29T08:58:15.999Z</time></trkpt><trkpt lat="38.17345419764585" lon="13.253051828736687"><ele>563.0</ele><time>2026-03-29T08:58:16.999Z</time></trkpt><trkpt lat="38.173548743452145" lon="13.253075585747276"><ele>563.0</ele><time>2026-03-29T08:58:17.999Z</time></trkpt><trkpt lat="38.173622286665264" lon="13.253118306658585"><ele>563.0</ele><time>2026-03-29T08:58:18.999Z</time></trkpt><trkpt lat="38.173703327099126" lon="13.253150534650779"><ele>563.0</ele><time>2026-03-29T08:58:19.999Z</time></trkpt><trkpt lat="38.173776951210726" lon="13.253180817721523"><ele>563.0</ele><time>2026-03-29T08:58:20.999Z</time></trkpt><trkpt lat="38.17386020095562" lon="13.253205643944463"><ele>563.0</ele><time>2026-03-29T08:58:21.999Z</time></trkpt><trkpt lat="38.173937440193846" lon="13.253255259507801"><ele>563.0</ele><time>2026-03-29T08:58:22.999Z</time></trkpt><trkpt lat="38.17401934607788" lon="13.253295901406824"><ele>563.0</ele><time>2026-03-29T08:58:23.999Z</time></trkpt><trkpt lat="38.174103627266625" lon="13.253347151510365"><ele>563.0</ele><time>2026-03-29T08:58:24.999Z</time></trkpt><trkpt lat="38.174172648317864" lon="13.253382149721055"><ele>559.0</ele><time>2026-03-29T08:58:25.999Z</time></trkpt><trkpt lat="38.174240256751595" lon="13.253428512517582"><ele>555.0</ele><time>2026-03-29T08:58:26.999Z</time></trkpt><trkpt lat="38.174305397931676" lon="13.253468124445455"><ele>551.0</ele><time>2026-03-29T08:58:27.999Z</time></trkpt><trkpt lat="38.17437543045592" lon="13.253518285090998"><ele>547.0</ele><time>2026-03-29T08:58:28.999Z</time></trkpt><trkpt lat="38.174435160875795" lon="13.253570679002756"><ele>543.0</ele><time>2026-03-29T08:58:29.999Z</time></trkpt><trkpt lat="38.17450740037754" lon="13.253630549655329"><ele>539.0</ele><time>2026-03-29T08:58:30.999Z</time></trkpt><trkpt lat="38.17457606066649" lon="13.253692998310282"><ele>539.0</ele><time>2026-03-29T08:58:31.999Z</time></trkpt><trkpt lat="38.17462931907054" lon="13.253763280295553"><ele>539.0</ele><time>2026-03-29T08:58:32.999Z</time></trkpt><trkpt lat="38.174680433649385" lon="13.253814511820345"><ele>539.0</ele><time>2026-03-29T08:58:33.999Z</time></trkpt><trkpt lat="38.174737197726586" lon="13.253851573081695"><ele>539.0</ele><time>2026-03-29T08:58:34.999Z</time></trkpt><trkpt lat="38.17477742346191" lon="13.25392568723872"><ele>539.0</ele><time>2026-03-29T08:58:35.999Z</time></trkpt><trkpt lat="38.17482758564672" lon="13.253992413880821"><ele>539.0</ele><time>2026-03-29T08:58:36.999Z</time></trkpt><trkpt lat="38.17488584599414" lon="13.254058889574175"><ele>539.0</ele><time>2026-03-29T08:58:37.999Z</time></trkpt><trkpt lat="38.17493557632637" lon="13.254138034039245"><ele>537.0</ele><time>2026-03-29T08:58:38.999Z</time></trkpt><trkpt lat="38.17497399157616" lon="13.254226719649624"><ele>535.0</ele><time>2026-03-29T08:58:39.999Z</time></trkpt><trkpt lat="38.17501779091288" lon="13.254308903830408"><ele>533.0</ele><time>2026-03-29T08:58:40.999Z</time></trkpt><trkpt lat="38.17507229713051" lon="13.25441640189288"><ele>531.0</ele><time>2026-03-29T08:58:41.999Z</time></trkpt><trkpt lat="38.175128866953365" lon="13.254543501832888"><ele>529.0</ele><time>2026-03-29T08:58:42.999Z</time></trkpt><trkpt lat="38.17517484546251" lon="13.25464909773412"><ele>529.0</ele><time>2026-03-29T08:58:43.999Z</time></trkpt><trkpt lat="38.17521674567867" lon="13.254749486866881"><ele>529.0</ele><time>2026-03-29T08:58:44.999Z</time></trkpt><trkpt lat="38.17524838851525" lon="13.254826706966968"><ele>529.0</ele><time>2026-03-29T08:58:45.999Z</time></trkpt><trkpt lat="38.175290011531324" lon="13.254932931997054"><ele>529.0</ele><time>2026-03-29T08:58:46.999Z</time></trkpt><trkpt lat="38.17532295390553" lon="13.255017465123005"><ele>529.0</ele><time>2026-03-29T08:58:47.999Z</time></trkpt><trkpt lat="38.175363598227506" lon="13.255128946158358"><ele>529.0</ele><time>2026-03-29T08:58:48.999Z</time></trkpt><trkpt lat="38.17539977779481" lon="13.255227384582682"><ele>531.75</ele><time>2026-03-29T08:58:49.999Z</time></trkpt><trkpt lat="38.17544672711086" lon="13.255358999204848"><ele>534.5</ele><time>2026-03-29T08:58:50.999Z</time></trkpt><trkpt lat="38.17550286568555" lon="13.255485754411964"><ele>537.25</ele><time>2026-03-29T08:58:51.999Z</time></trkpt><trkpt lat="38.17554382086594" lon="13.255639267688435"><ele>540.0</ele><time>2026-03-29T08:58:52.999Z</time></trkpt><trkpt lat="38.17560288456273" lon="13.255789434347886"><ele>542.25</ele><time>2026-03-29T08:58:53.999Z</time></trkpt><trkpt lat="38.175640762595684" lon="13.255936288499843"><ele>544.5</ele><time>2026-03-29T08:58:54.999Z</time></trkpt><trkpt lat="38.17566616707842" lon="13.256078796907229"><ele>546.75</ele><time>2026-03-29T08:58:55.999Z</time></trkpt><trkpt lat="38.1757088785676" lon="13.256271282431758"><ele>549.0</ele><time>2026-03-29T08:58:57.999Z</time></trkpt><trkpt lat="38.17573180695862" lon="13.256410355047043"><ele>543.6</ele><time>2026-03-29T08:58:58.999Z</time></trkpt><trkpt lat="38.175743401145695" lon="13.256514323677681"><ele>538.2</ele><time>2026-03-29T08:58:59.999Z</time></trkpt><trkpt lat="38.17575033459072" lon="13.256610172190253"><ele>532.8000000000001</ele><time>2026-03-29T08:59:01Z</time></trkpt><trkpt lat="38.17575218596595" lon="13.25670185052486"><ele>527.4</ele><time>2026-03-29T08:59:02Z</time></trkpt><trkpt lat="38.17576452766883" lon="13.256847071142646"><ele>522.0</ele><time>2026-03-29T08:59:03Z</time></trkpt><trkpt lat="38.17575669845396" lon="13.257026296229803"><ele>522.0</ele><time>2026-03-29T08:59:04Z</time></trkpt><trkpt lat="38.17574183814302" lon="13.25721364399076"><ele>522.0</ele><time>2026-03-29T08:59:05Z</time></trkpt><trkpt lat="38.17570846279688" lon="13.257337092105901"><ele>522.0</ele><time>2026-03-29T08:59:06Z</time></trkpt><trkpt lat="38.1756919071344" lon="13.257430081877306"><ele>522.0</ele><time>2026-03-29T08:59:07Z</time></trkpt><trkpt lat="38.17567261641481" lon="13.257527273686096"><ele>522.0</ele><time>2026-03-29T08:59:08Z</time></trkpt><trkpt lat="38.175649929517704" lon="13.257620248924141"><ele>523.0</ele><time>2026-03-29T08:59:09Z</time></trkpt><trkpt lat="38.17562359718577" lon="13.257711710876412"><ele>524.0</ele><time>2026-03-29T08:59:10Z</time></trkpt><trkpt lat="38.17559193320456" lon="13.257806870505963"><ele>525.0</ele><time>2026-03-29T08:59:11Z</time></trkpt><trkpt lat="38.175559211573" lon="13.25789771621349"><ele>526.0</ele><time>2026-03-29T08:59:12Z</time></trkpt><trkpt lat="38.17551237856601" lon="13.25799985996761"><ele>527.0</ele><time>2026-03-29T08:59:13Z</time></trkpt><trkpt lat="38.175434029637906" lon="13.258139106857293"><ele>527.0</ele><time>2026-03-29T08:59:14Z</time></trkpt><trkpt lat="38.175328512721286" lon="13.258299540049247"><ele>527.0</ele><time>2026-03-29T08:59:15Z</time></trkpt><trkpt lat="38.17524157559126" lon="13.258423312465395"><ele>527.0</ele><time>2026-03-29T08:59:16Z</time></trkpt><trkpt lat="38.17516274872304" lon="13.258529219797502"><ele>527.0</ele><time>2026-03-29T08:59:17Z</time></trkpt><trkpt lat="38.175095100968974" lon="13.25864880559369"><ele>527.0</ele><time>2026-03-29T08:59:18Z</time></trkpt><trkpt lat="38.17501624464746" lon="13.25873963099728"><ele>527.0</ele><time>2026-03-29T08:59:19Z</time></trkpt><trkpt lat="38.17494882999117" lon="13.258826704855208"><ele>527.0</ele><time>2026-03-29T08:59:20Z</time></trkpt><trkpt lat="38.17489531476127" lon="13.258911635517823"><ele>527.0</ele><time>2026-03-29T08:59:21Z</time></trkpt><trkpt lat="38.17484551754658" lon="13.259012601393593"><ele>527.0</ele><time>2026-03-29T08:59:22Z</time></trkpt><trkpt lat="38.17474490893778" lon="13.259139747698582"><ele>529.5</ele><time>2026-03-29T08:59:23Z</time></trkpt><trkpt lat="38.17465170195684" lon="13.259301458991883"><ele>532.0</ele><time>2026-03-29T08:59:24Z</time></trkpt><trkpt lat="38.174595468343014" lon="13.259450105598935"><ele>534.5</ele><time>2026-03-29T08:59:25Z</time></trkpt><trkpt lat="38.17456858611226" lon="13.259557030269654"><ele>537.0</ele><time>2026-03-29T08:59:26Z</time></trkpt><trkpt lat="38.17455865858913" lon="13.25966312653242"><ele>536.0</ele><time>2026-03-29T08:59:27Z</time></trkpt><trkpt lat="38.174551872177275" lon="13.259784350970273"><ele>535.0</ele><time>2026-03-29T08:59:28Z</time></trkpt><trkpt lat="38.17455323464502" lon="13.259910668721998"><ele>534.0</ele><time>2026-03-29T08:59:29Z</time></trkpt><trkpt lat="38.174567106960104" lon="13.260006814326038"><ele>533.0</ele><time>2026-03-29T08:59:30Z</time></trkpt><trkpt lat="38.17456694065996" lon="13.260118370714087"><ele>532.0</ele><time>2026-03-29T08:59:31Z</time></trkpt><trkpt lat="38.174583996639804" lon="13.260239334639541"><ele>532.0</ele><time>2026-03-29T08:59:32Z</time></trkpt><trkpt lat="38.174586625341504" lon="13.260354504157029"><ele>532.0</ele><time>2026-03-29T08:59:33Z</time></trkpt><trkpt lat="38.17461733117074" lon="13.260454337384353"><ele>532.0</ele><time>2026-03-29T08:59:34Z</time></trkpt><trkpt lat="38.17464450018375" lon="13.26056252138106"><ele>532.0</ele><time>2026-03-29T08:59:36Z</time></trkpt><trkpt lat="38.17472017615963" lon="13.260491164764026"><ele>532.0</ele><time>2026-03-29T08:59:38Z</time></trkpt><trkpt lat="38.17468051039598" lon="13.260416512002582"><ele>532.0</ele><time>2026-03-29T08:59:39.999Z</time></trkpt><trkpt lat="38.1747173175396" lon="13.260298644158256"><ele>532.0</ele><time>2026-03-29T08:59:41.999Z</time></trkpt><trkpt lat="38.174741284199094" lon="13.260193676508147"><ele>532.0</ele><time>2026-03-29T08:59:42.999Z</time></trkpt><trkpt lat="38.17477749628935" lon="13.260119722660491"><ele>532.0</ele><time>2026-03-29T08:59:43.999Z</time></trkpt><trkpt lat="38.17481416665962" lon="13.260011987664129"><ele>532.0</ele><time>2026-03-29T08:59:44.999Z</time></trkpt><trkpt lat="38.17488170165019" lon="13.25988808514136"><ele>532.0</ele><time>2026-03-29T08:59:46.999Z</time></trkpt><trkpt lat="38.17493680181547" lon="13.259809291670704"><ele>532.0</ele><time>2026-03-29T08:59:47.999Z</time></trkpt><trkpt lat="38.174992393913755" lon="13.25972997791549"><ele>527.5</ele><time>2026-03-29T08:59:48.999Z</time></trkpt><trkpt lat="38.1750486373294" lon="13.259650460971885"><ele>523.0</ele><time>2026-03-29T08:59:49.999Z</time></trkpt><trkpt lat="38.17512233111429" lon="13.259551179053188"><ele>518.5</ele><time>2026-03-29T08:59:50.999Z</time></trkpt><trkpt lat="38.175206386211684" lon="13.259440481327639"><ele>514.0</ele><time>2026-03-29T08:59:51.999Z</time></trkpt><trkpt lat="38.1753123040073" lon="13.259307870460391"><ele>514.0</ele><time>2026-03-29T08:59:52.999Z</time></trkpt><trkpt lat="38.17540351901301" lon="13.259153358908163"><ele>514.0</ele><time>2026-03-29T08:59:53.999Z</time></trkpt><trkpt lat="38.17549621196894" lon="13.259069267308206"><ele>514.0</ele><time>2026-03-29T08:59:54.999Z</time></trkpt><trkpt lat="38.17560033412222" lon="13.258956604495788"><ele>514.0</ele><time>2026-03-29T08:59:55.999Z</time></trkpt><trkpt lat="38.175694708493936" lon="13.258853353700994"><ele>512.8</ele><time>2026-03-29T08:59:56.999Z</time></trkpt><trkpt lat="38.17577333596985" lon="13.258777914679689"><ele>511.59999999999997</ele><time>2026-03-29T08:59:57.999Z</time></trkpt><trkpt lat="38.175834881754525" lon="13.258711917254413"><ele>510.4</ele><time>2026-03-29T08:59:58.999Z</time></trkpt><trkpt lat="38.175903022173216" lon="13.258637291611125"><ele>509.2</ele><time>2026-03-29T08:59:59.999Z</time></trkpt><trkpt lat="38.175993853283984" lon="13.25853823566563"><ele>508.0</ele><time>2026-03-29T09:00:00.999Z</time></trkpt><trkpt lat="38.17607888409509" lon="13.258439774834208"><ele>508.00000000000006</ele><time>2026-03-29T09:00:01.999Z</time></trkpt><trkpt lat="38.176165253258056" lon="13.258358622378836"><ele>508.0</ele><time>2026-03-29T09:00:03Z</time></trkpt><trkpt lat="38.17624450501677" lon="13.258274413146582"><ele>508.0</ele><time>2026-03-29T09:00:04Z</time></trkpt><trkpt lat="38.17630795528246" lon="13.258212661937145"><ele>508.0</ele><time>2026-03-29T09:00:05Z</time></trkpt><trkpt lat="38.17637255263058" lon="13.258153313928878"><ele>508.00000000000006</ele><time>2026-03-29T09:00:06Z</time></trkpt><trkpt lat="38.17643349872726" lon="13.258095435921431"><ele>508.0</ele><time>2026-03-29T09:00:07Z</time></trkpt><trkpt lat="38.176502358297995" lon="13.258018545284326"><ele>505.1666666666667</ele><time>2026-03-29T09:00:08Z</time></trkpt><trkpt lat="38.17656423827161" lon="13.257941133337727"><ele>502.33333333333337</ele><time>2026-03-29T09:00:09Z</time></trkpt><trkpt lat="38.17661481604578" lon="13.257866123253585"><ele>499.5</ele><time>2026-03-29T09:00:10Z</time></trkpt><trkpt lat="38.17665202863166" lon="13.257799446433355"><ele>496.66666666666663</ele><time>2026-03-29T09:00:11Z</time></trkpt><trkpt lat="38.176690052748725" lon="13.257712410920956"><ele>493.8333333333333</ele><time>2026-03-29T09:00:12Z</time></trkpt><trkpt lat="38.17673790413238" lon="13.257609840514673"><ele>491.0</ele><time>2026-03-29T09:00:13Z</time></trkpt><trkpt lat="38.17677059284089" lon="13.257519904042937"><ele>491.0</ele><time>2026-03-29T09:00:14Z</time></trkpt><trkpt lat="38.176822525848074" lon="13.257433016219364"><ele>491.0</ele><time>2026-03-29T09:00:15Z</time></trkpt><trkpt lat="38.1768445045695" lon="13.257319721399409"><ele>491.0</ele><time>2026-03-29T09:00:16Z</time></trkpt><trkpt lat="38.176854214532554" lon="13.257208351579537"><ele>491.0</ele><time>2026-03-29T09:00:17Z</time></trkpt><trkpt lat="38.17687561624757" lon="13.257061660238291"><ele>491.0</ele><time>2026-03-29T09:00:18Z</time></trkpt><trkpt lat="38.1768926440496" lon="13.256933268160989"><ele>491.16666666666663</ele><time>2026-03-29T09:00:19Z</time></trkpt><trkpt lat="38.176908172077745" lon="13.25681298192161"><ele>491.3333333333333</ele><time>2026-03-29T09:00:20Z</time></trkpt><trkpt lat="38.176920607534726" lon="13.256713157852667"><ele>491.5</ele><time>2026-03-29T09:00:21Z</time></trkpt><trkpt lat="38.17693437663517" lon="13.25663304639948"><ele>491.66666666666663</ele><time>2026-03-29T09:00:22Z</time></trkpt><trkpt lat="38.176955241203416" lon="13.25650336402717"><ele>491.8333333333333</ele><time>2026-03-29T09:00:24Z</time></trkpt><trkpt lat="38.176979666849135" lon="13.2563947365334"><ele>492.0</ele><time>2026-03-29T09:00:26Z</time></trkpt><trkpt lat="38.17701542014362" lon="13.256303951878207"><ele>492.0</ele><time>2026-03-29T09:00:28Z</time></trkpt><trkpt lat="38.1770633182201" lon="13.25624106771541"><ele>492.0</ele><time>2026-03-29T09:00:30Z</time></trkpt><trkpt lat="38.17718392483713" lon="13.256470109659306"><ele>492.0</ele><time>2026-03-29T09:02:12Z</time></trkpt><trkpt lat="38.17723499547544" lon="13.25658701553196"><ele>492.0</ele><time>2026-03-29T09:02:13Z</time></trkpt><trkpt lat="38.17726801493306" lon="13.25668880737825"><ele>492.0</ele><time>2026-03-29T09:02:14Z</time></trkpt><trkpt lat="38.177314839833386" lon="13.256764473183443"><ele>492.0</ele><time>2026-03-29T09:02:15Z</time></trkpt><trkpt lat="38.17734528641355" lon="13.256840621950207"><ele>492.0</ele><time>2026-03-29T09:02:16Z</time></trkpt><trkpt lat="38.17737872265996" lon="13.256914808701524"><ele>492.0</ele><time>2026-03-29T09:02:17Z</time></trkpt><trkpt lat="38.17740909921849" lon="13.256997821262788"><ele>492.0</ele><time>2026-03-29T09:02:18Z</time></trkpt><trkpt lat="38.17745761793767" lon="13.257138062339866"><ele>492.0</ele><time>2026-03-29T09:02:20Z</time></trkpt><trkpt lat="38.177469680131395" lon="13.257220612283637"><ele>489.28571428571433</ele><time>2026-03-29T09:02:21Z</time></trkpt><trkpt lat="38.17749677831228" lon="13.257309371805068"><ele>486.57142857142856</ele><time>2026-03-29T09:02:22Z</time></trkpt><trkpt lat="38.17751458857166" lon="13.25738712669556"><ele>483.8571428571429</ele><time>2026-03-29T09:02:23Z</time></trkpt><trkpt lat="38.177516005110725" lon="13.257485579275611"><ele>481.14285714285717</ele><time>2026-03-29T09:02:24Z</time></trkpt><trkpt lat="38.17753485775955" lon="13.25756928782578"><ele>478.42857142857144</ele><time>2026-03-29T09:02:25Z</time></trkpt><trkpt lat="38.177573288137566" lon="13.257645231938318"><ele>475.7142857142857</ele><time>2026-03-29T09:02:26Z</time></trkpt><trkpt lat="38.177603512991915" lon="13.257737993286092"><ele>473.0</ele><time>2026-03-29T09:02:27Z</time></trkpt><trkpt lat="38.177620052808365" lon="13.257825668142178"><ele>472.99999999999994</ele><time>2026-03-29T09:02:28Z</time></trkpt><trkpt lat="38.17765134936971" lon="13.257905044229943"><ele>473.0</ele><time>2026-03-29T09:02:29Z</time></trkpt><trkpt lat="38.1776915026023" lon="13.257989270172253"><ele>473.0</ele><time>2026-03-29T09:02:30Z</time></trkpt><trkpt lat="38.17774593165051" lon="13.258080687505895"><ele>473.0</ele><time>2026-03-29T09:02:31Z</time></trkpt><trkpt lat="38.1778084345914" lon="13.258154205741272"><ele>472.99999999999994</ele><time>2026-03-29T09:02:32Z</time></trkpt><trkpt lat="38.17785161019687" lon="13.258233825946785"><ele>473.0</ele><time>2026-03-29T09:02:33Z</time></trkpt><trkpt lat="38.177905840488016" lon="13.258308752672368"><ele>472.4</ele><time>2026-03-29T09:02:34Z</time></trkpt><trkpt lat="38.17797728731005" lon="13.258376429593163"><ele>471.79999999999995</ele><time>2026-03-29T09:02:35Z</time></trkpt><trkpt lat="38.17802827866349" lon="13.25847271968338"><ele>471.2</ele><time>2026-03-29T09:02:36Z</time></trkpt><trkpt lat="38.17810988125302" lon="13.258576939905101"><ele>470.6</ele><time>2026-03-29T09:02:37Z</time></trkpt><trkpt lat="38.178207755892245" lon="13.2586710756849"><ele>470.0</ele><time>2026-03-29T09:02:38Z</time></trkpt><trkpt lat="38.178273222540575" lon="13.258756783582495"><ele>469.99999999999994</ele><time>2026-03-29T09:02:39Z</time></trkpt><trkpt lat="38.17834259266093" lon="13.258841236962404"><ele>470.0</ele><time>2026-03-29T09:02:40Z</time></trkpt><trkpt lat="38.17841159486645" lon="13.258913577153915"><ele>470.0</ele><time>2026-03-29T09:02:41Z</time></trkpt><trkpt lat="38.178479507463706" lon="13.258977534530244"><ele>470.0</ele><time>2026-03-29T09:02:42Z</time></trkpt><trkpt lat="38.178537235851685" lon="13.259029401536429"><ele>469.99999999999994</ele><time>2026-03-29T09:02:43Z</time></trkpt><trkpt lat="38.17859257845099" lon="13.259078406778325"><ele>470.0</ele><time>2026-03-29T09:02:44Z</time></trkpt><trkpt lat="38.17865423078105" lon="13.259126800125637"><ele>468.2</ele><time>2026-03-29T09:02:45Z</time></trkpt><trkpt lat="38.178717812841505" lon="13.25919445560136"><ele>466.4</ele><time>2026-03-29T09:02:46Z</time></trkpt><trkpt lat="38.17879271975822" lon="13.259252801618251"><ele>464.6</ele><time>2026-03-29T09:02:47Z</time></trkpt><trkpt lat="38.17886457960708" lon="13.259332535452744"><ele>462.8</ele><time>2026-03-29T09:02:48Z</time></trkpt><trkpt lat="38.17892657775754" lon="13.259408355051992"><ele>461.0</ele><time>2026-03-29T09:02:49Z</time></trkpt><trkpt lat="38.179022547652444" lon="13.259502279337624"><ele>460.99999999999994</ele><time>2026-03-29T09:02:50Z</time></trkpt><trkpt lat="38.17910499643887" lon="13.259558182563575"><ele>461.0</ele><time>2026-03-29T09:02:51Z</time></trkpt><trkpt lat="38.17918281529486" lon="13.259618670332902"><ele>461.0</ele><time>2026-03-29T09:02:52Z</time></trkpt><trkpt lat="38.179247082886675" lon="13.259678165342702"><ele>461.0</ele><time>2026-03-29T09:02:53Z</time></trkpt><trkpt lat="38.179310409972445" lon="13.259738010168356"><ele>460.99999999999994</ele><time>2026-03-29T09:02:54Z</time></trkpt><trkpt lat="38.179364078784744" lon="13.259782122776578"><ele>461.0</ele><time>2026-03-29T09:02:55Z</time></trkpt><trkpt lat="38.179431631216175" lon="13.259827798689633"><ele>458.5714285714286</ele><time>2026-03-29T09:02:56Z</time></trkpt><trkpt lat="38.17949849084465" lon="13.259857594810626"><ele>456.1428571428572</ele><time>2026-03-29T09:02:57Z</time></trkpt><trkpt lat="38.179563376923255" lon="13.25989149744303"><ele>453.7142857142857</ele><time>2026-03-29T09:02:58Z</time></trkpt><trkpt lat="38.17962804267964" lon="13.25992351268919"><ele>451.28571428571433</ele><time>2026-03-29T09:02:59Z</time></trkpt><trkpt lat="38.1796971190378" lon="13.259959345685076"><ele>448.8571428571429</ele><time>2026-03-29T09:03:00Z</time></trkpt><trkpt lat="38.179761172874265" lon="13.260007614124719"><ele>446.42857142857144</ele><time>2026-03-29T09:03:01Z</time></trkpt><trkpt lat="38.17982767154456" lon="13.260054758226703"><ele>444.0</ele><time>2026-03-29T09:03:02Z</time></trkpt><trkpt lat="38.1798862724399" lon="13.260098905753358"><ele>443.8333333333333</ele><time>2026-03-29T09:03:03Z</time></trkpt><trkpt lat="38.17997118588163" lon="13.260158588675361"><ele>443.66666666666663</ele><time>2026-03-29T09:03:05Z</time></trkpt><trkpt lat="38.18004125769975" lon="13.260185648638268"><ele>443.5</ele><time>2026-03-29T09:03:08.001Z</time></trkpt><trkpt lat="38.18012344915232" lon="13.260203808611683"><ele>443.3333333333333</ele><time>2026-03-29T09:03:20.001Z</time></trkpt><trkpt lat="38.18021337705698" lon="13.260216911633377"><ele>443.16666666666663</ele><time>2026-03-29T09:03:22.001Z</time></trkpt><trkpt lat="38.18029292305355" lon="13.260234220105122"><ele>443.0</ele><time>2026-03-29T09:03:24.001Z</time></trkpt><trkpt lat="38.180356616986465" lon="13.260264739683807"><ele>443.0</ele><time>2026-03-29T09:03:27.001Z</time></trkpt><trkpt lat="38.1802170928084" lon="13.260343153039035"><ele>442.99999999999994</ele><time>2026-03-29T09:03:33.001Z</time></trkpt><trkpt lat="38.18012558533962" lon="13.26034353729671"><ele>442.99999999999994</ele><time>2026-03-29T09:03:34.001Z</time></trkpt><trkpt lat="38.180037607658484" lon="13.260346661910193"><ele>443.0</ele><time>2026-03-29T09:03:35.001Z</time></trkpt><trkpt lat="38.17996029459433" lon="13.260366649551019"><ele>443.0</ele><time>2026-03-29T09:03:36.001Z</time></trkpt><trkpt lat="38.17988703418786" lon="13.26038273301589"><ele>443.2</ele><time>2026-03-29T09:03:37.001Z</time></trkpt><trkpt lat="38.17982197308211" lon="13.26039266222058"><ele>443.4</ele><time>2026-03-29T09:03:38.001Z</time></trkpt><trkpt lat="38.17970728408104" lon="13.260411910438075"><ele>443.59999999999997</ele><time>2026-03-29T09:03:40.001Z</time></trkpt><trkpt lat="38.17958126666004" lon="13.260421801411749"><ele>443.79999999999995</ele><time>2026-03-29T09:03:42.001Z</time></trkpt><trkpt lat="38.17949840621377" lon="13.260431906614237"><ele>444.0</ele><time>2026-03-29T09:03:43.001Z</time></trkpt><trkpt lat="38.179425516056135" lon="13.260441485156708"><ele>444.0</ele><time>2026-03-29T09:03:44.001Z</time></trkpt><trkpt lat="38.17935886102196" lon="13.260468663688526"><ele>444.0</ele><time>2026-03-29T09:03:45.001Z</time></trkpt><trkpt lat="38.17926883821002" lon="13.260533615639725"><ele>444.0</ele><time>2026-03-29T09:03:47.001Z</time></trkpt><trkpt lat="38.179177013640235" lon="13.260607110438956"><ele>444.0</ele><time>2026-03-29T09:03:49.001Z</time></trkpt><trkpt lat="38.17912278984754" lon="13.260654295005912"><ele>444.0</ele><time>2026-03-29T09:03:50.001Z</time></trkpt><trkpt lat="38.17909666086559" lon="13.26072880327926"><ele>444.0</ele><time>2026-03-29T09:03:51Z</time></trkpt><trkpt lat="38.17906521043069" lon="13.260893635271898"><ele>444.1666666666667</ele><time>2026-03-29T09:03:53Z</time></trkpt><trkpt lat="38.179028488813564" lon="13.26096660999363"><ele>444.33333333333337</ele><time>2026-03-29T09:03:54Z</time></trkpt><trkpt lat="38.1790008242837" lon="13.261053501474578"><ele>444.5</ele><time>2026-03-29T09:03:55Z</time></trkpt><trkpt lat="38.17901890108196" lon="13.261154843092786"><ele>444.6666666666667</ele><time>2026-03-29T09:03:56Z</time></trkpt><trkpt lat="38.17898551275935" lon="13.26124482696356"><ele>444.83333333333337</ele><time>2026-03-29T09:03:57Z</time></trkpt><trkpt lat="38.178956470369194" lon="13.261321410854231"><ele>445.0</ele><time>2026-03-29T09:03:58Z</time></trkpt><trkpt lat="38.17888752772449" lon="13.26146340829357"><ele>444.6666666666667</ele><time>2026-03-29T09:04:00Z</time></trkpt><trkpt lat="38.17885137989186" lon="13.261536403760768"><ele>444.33333333333337</ele><time>2026-03-29T09:04:01Z</time></trkpt><trkpt lat="38.17879609141457" lon="13.261658057864377"><ele>444.0</ele><time>2026-03-29T09:04:03Z</time></trkpt><trkpt lat="38.178787737646374" lon="13.261789840226738"><ele>443.66666666666663</ele><time>2026-03-29T09:04:05Z</time></trkpt><trkpt lat="38.17879120308548" lon="13.261878741085935"><ele>443.3333333333333</ele><time>2026-03-29T09:04:06Z</time></trkpt><trkpt lat="38.17882143976361" lon="13.261961602674065"><ele>443.0</ele><time>2026-03-29T09:04:07Z</time></trkpt><trkpt lat="38.17886186045884" lon="13.262048240355215"><ele>443.0</ele><time>2026-03-29T09:04:08Z</time></trkpt><trkpt lat="38.17891491934952" lon="13.262145597642865"><ele>442.99999999999994</ele><time>2026-03-29T09:04:09Z</time></trkpt><trkpt lat="38.178997443147416" lon="13.26225473476362"><ele>442.99999999999994</ele><time>2026-03-29T09:04:10Z</time></trkpt><trkpt lat="38.17905221309014" lon="13.262346876356222"><ele>443.0</ele><time>2026-03-29T09:04:11Z</time></trkpt><trkpt lat="38.17915239673063" lon="13.262441046270927"><ele>443.0</ele><time>2026-03-29T09:04:12Z</time></trkpt><trkpt lat="38.179197316968924" lon="13.262528110817046"><ele>440.59999999999997</ele><time>2026-03-29T09:04:13Z</time></trkpt><trkpt lat="38.17924237269135" lon="13.262603034234438"><ele>438.19999999999993</ele><time>2026-03-29T09:04:14Z</time></trkpt><trkpt lat="38.1792834525023" lon="13.262710894721288"><ele>435.8</ele><time>2026-03-29T09:04:15Z</time></trkpt><trkpt lat="38.17932608524107" lon="13.262788889992665"><ele>433.4</ele><time>2026-03-29T09:04:16Z</time></trkpt><trkpt lat="38.17941513907088" lon="13.262916515694954"><ele>431.0</ele><time>2026-03-29T09:04:18Z</time></trkpt><trkpt lat="38.17947037245299" lon="13.262990004812885"><ele>430.99999999999994</ele><time>2026-03-29T09:04:19Z</time></trkpt><trkpt lat="38.17952673335667" lon="13.263079549317396"><ele>431.0</ele><time>2026-03-29T09:04:20Z</time></trkpt><trkpt lat="38.1795860022646" lon="13.263165558524388"><ele>431.0</ele><time>2026-03-29T09:04:21Z</time></trkpt><trkpt lat="38.17964639735931" lon="13.263252202270184"><ele>431.0</ele><time>2026-03-29T09:04:22Z</time></trkpt><trkpt lat="38.17967795774327" lon="13.263332101956376"><ele>430.99999999999994</ele><time>2026-03-29T09:04:23Z</time></trkpt><trkpt lat="38.17974811769372" lon="13.263410847036386"><ele>431.0</ele><time>2026-03-29T09:04:24Z</time></trkpt><trkpt lat="38.17979946073663" lon="13.263487240862153"><ele>431.66666666666663</ele><time>2026-03-29T09:04:25Z</time></trkpt><trkpt lat="38.179839829244266" lon="13.263575649604098"><ele>432.3333333333333</ele><time>2026-03-29T09:04:26Z</time></trkpt><trkpt lat="38.17989036420955" lon="13.263628964590708"><ele>433.0</ele><time>2026-03-29T09:04:27Z</time></trkpt><trkpt lat="38.17997047558466" lon="13.263744441803581"><ele>433.66666666666663</ele><time>2026-03-29T09:04:29Z</time></trkpt><trkpt lat="38.18001800416563" lon="13.263807088722466"><ele>434.3333333333333</ele><time>2026-03-29T09:04:30Z</time></trkpt><trkpt lat="38.180073875757955" lon="13.263874175362218"><ele>435.0</ele><time>2026-03-29T09:04:31Z</time></trkpt><trkpt lat="38.18012364779228" lon="13.263945255605043"><ele>433.25</ele><time>2026-03-29T09:04:32Z</time></trkpt><trkpt lat="38.180177016386075" lon="13.264010437828297"><ele>431.5</ele><time>2026-03-29T09:04:33Z</time></trkpt><trkpt lat="38.18026316433099" lon="13.26408514440369"><ele>429.75</ele><time>2026-03-29T09:04:34Z</time></trkpt><trkpt lat="38.18037365031736" lon="13.264165949265761"><ele>428.0</ele><time>2026-03-29T09:04:35Z</time></trkpt><trkpt lat="38.180535848996534" lon="13.264244810655498"><ele>428.0</ele><time>2026-03-29T09:04:36Z</time></trkpt><trkpt lat="38.18066556845059" lon="13.264313127446497"><ele>428.0</ele><time>2026-03-29T09:04:37Z</time></trkpt><trkpt lat="38.18077430429905" lon="13.264412226546563"><ele>428.0</ele><time>2026-03-29T09:04:38Z</time></trkpt><trkpt lat="38.18085499143465" lon="13.264482748289561"><ele>428.0</ele><time>2026-03-29T09:04:39Z</time></trkpt><trkpt lat="38.18092114339978" lon="13.264542868534665"><ele>425.0</ele><time>2026-03-29T09:04:40Z</time></trkpt><trkpt lat="38.18104022142222" lon="13.264579828824793"><ele>422.0</ele><time>2026-03-29T09:04:41Z</time></trkpt><trkpt lat="38.18114694787993" lon="13.26463579707335"><ele>419.0</ele><time>2026-03-29T09:04:42Z</time></trkpt><trkpt lat="38.18127567961135" lon="13.26470017484235"><ele>416.0</ele><time>2026-03-29T09:04:43Z</time></trkpt><trkpt lat="38.18136770648298" lon="13.2647416648032"><ele>417.0</ele><time>2026-03-29T09:04:44Z</time></trkpt><trkpt lat="38.18147486538512" lon="13.264791566823384"><ele>418.0</ele><time>2026-03-29T09:04:45Z</time></trkpt><trkpt lat="38.181594208810104" lon="13.26485358317739"><ele>419.0</ele><time>2026-03-29T09:04:46Z</time></trkpt><trkpt lat="38.1817094377693" lon="13.26492166479094"><ele>420.0</ele><time>2026-03-29T09:04:47Z</time></trkpt><trkpt lat="38.1817968701312" lon="13.264980640345971"><ele>420.0</ele><time>2026-03-29T09:04:48Z</time></trkpt><trkpt lat="38.18191684332652" lon="13.26505588763162"><ele>420.0</ele><time>2026-03-29T09:04:49Z</time></trkpt><trkpt lat="38.18203642522925" lon="13.265117810455926"><ele>420.0</ele><time>2026-03-29T09:04:50Z</time></trkpt><trkpt lat="38.1821543130631" lon="13.265190511418918"><ele>420.0</ele><time>2026-03-29T09:04:51Z</time></trkpt><trkpt lat="38.18223628575524" lon="13.265243080777427"><ele>420.0</ele><time>2026-03-29T09:04:52Z</time></trkpt><trkpt lat="38.18233037742202" lon="13.265275892033939"><ele>420.0</ele><time>2026-03-29T09:04:53Z</time></trkpt><trkpt lat="38.182428869894885" lon="13.265303070217927"><ele>420.0</ele><time>2026-03-29T09:04:54Z</time></trkpt><trkpt lat="38.18250982189016" lon="13.26529514527132"><ele>420.0</ele><time>2026-03-29T09:04:55Z</time></trkpt><trkpt lat="38.18259180582959" lon="13.265359494016382"><ele>420.0</ele><time>2026-03-29T09:04:56Z</time></trkpt><trkpt lat="38.18266603763042" lon="13.265397745566956"><ele>416.75</ele><time>2026-03-29T09:04:57Z</time></trkpt><trkpt lat="38.18272124700395" lon="13.26544550522096"><ele>413.5</ele><time>2026-03-29T09:04:58Z</time></trkpt><trkpt lat="38.182838052209554" lon="13.265544824743193"><ele>410.25</ele><time>2026-03-29T09:04:59Z</time></trkpt><trkpt lat="38.18297922459046" lon="13.265660741408782"><ele>407.0</ele><time>2026-03-29T09:05:00Z</time></trkpt><trkpt lat="38.183123660010075" lon="13.265777047970264"><ele>408.8</ele><time>2026-03-29T09:05:01Z</time></trkpt><trkpt lat="38.183256660752164" lon="13.265861461797355"><ele>410.6</ele><time>2026-03-29T09:05:02Z</time></trkpt><trkpt lat="38.1833562273861" lon="13.265928645542694"><ele>412.40000000000003</ele><time>2026-03-29T09:05:03Z</time></trkpt><trkpt lat="38.18344857360938" lon="13.265972611108849"><ele>414.20000000000005</ele><time>2026-03-29T09:05:04Z</time></trkpt><trkpt lat="38.18352819815346" lon="13.266014137550533"><ele>416.0</ele><time>2026-03-29T09:05:05Z</time></trkpt><trkpt lat="38.18361017536794" lon="13.266073949448487"><ele>416.0</ele><time>2026-03-29T09:05:06Z</time></trkpt><trkpt lat="38.18371348888163" lon="13.266149314735019"><ele>416.0</ele><time>2026-03-29T09:05:07Z</time></trkpt><trkpt lat="38.18379622581029" lon="13.266226050249887"><ele>416.0</ele><time>2026-03-29T09:05:08Z</time></trkpt><trkpt lat="38.18387332156436" lon="13.266289209999783"><ele>416.0</ele><time>2026-03-29T09:05:09Z</time></trkpt><trkpt lat="38.18396436619403" lon="13.266332017193674"><ele>416.0</ele><time>2026-03-29T09:05:10Z</time></trkpt><trkpt lat="38.18404086225326" lon="13.266357522956628"><ele>418.16666666666663</ele><time>2026-03-29T09:05:11Z</time></trkpt><trkpt lat="38.184122010920106" lon="13.26639313063335"><ele>420.3333333333333</ele><time>2026-03-29T09:05:12Z</time></trkpt><trkpt lat="38.184197528322095" lon="13.26643845176821"><ele>422.5</ele><time>2026-03-29T09:05:13Z</time></trkpt><trkpt lat="38.18427437569939" lon="13.266502953817353"><ele>424.66666666666663</ele><time>2026-03-29T09:05:14Z</time></trkpt><trkpt lat="38.18432445236275" lon="13.266576739952843"><ele>426.8333333333333</ele><time>2026-03-29T09:05:15Z</time></trkpt><trkpt lat="38.18437130860552" lon="13.266647168144209"><ele>429.0</ele><time>2026-03-29T09:05:16Z</time></trkpt><trkpt lat="38.184448182732424" lon="13.266710893750568"><ele>429.0</ele><time>2026-03-29T09:05:17Z</time></trkpt><trkpt lat="38.184519353715" lon="13.266782110775862"><ele>429.0</ele><time>2026-03-29T09:05:18Z</time></trkpt><trkpt lat="38.18458602237044" lon="13.26685136481134"><ele>429.0</ele><time>2026-03-29T09:05:19Z</time></trkpt><trkpt lat="38.184635633658154" lon="13.266908533261867"><ele>429.0</ele><time>2026-03-29T09:05:20Z</time></trkpt><trkpt lat="38.184692251523934" lon="13.266978708903645"><ele>429.0</ele><time>2026-03-29T09:05:21Z</time></trkpt><trkpt lat="38.18474044132079" lon="13.267076792550792"><ele>429.0</ele><time>2026-03-29T09:05:22Z</time></trkpt><trkpt lat="38.18479722326289" lon="13.26713702582361"><ele>428.0</ele><time>2026-03-29T09:05:23Z</time></trkpt><trkpt lat="38.184857521301424" lon="13.267198372979479"><ele>427.0</ele><time>2026-03-29T09:05:24Z</time></trkpt><trkpt lat="38.18491784349694" lon="13.267242366338458"><ele>426.0</ele><time>2026-03-29T09:05:25Z</time></trkpt><trkpt lat="38.18498104489798" lon="13.26730114932762"><ele>425.0</ele><time>2026-03-29T09:05:26Z</time></trkpt><trkpt lat="38.185040571826214" lon="13.267356989609507"><ele>424.0</ele><time>2026-03-29T09:05:27Z</time></trkpt><trkpt lat="38.18511519157578" lon="13.267428692255729"><ele>423.0</ele><time>2026-03-29T09:05:29Z</time></trkpt><trkpt lat="38.185176328082925" lon="13.26748552486724"><ele>423.0</ele><time>2026-03-29T09:05:31Z</time></trkpt><trkpt lat="38.18524600164834" lon="13.267546833096155"><ele>423.0</ele><time>2026-03-29T09:05:33.001Z</time></trkpt><trkpt lat="38.18529964591707" lon="13.267632265563947"><ele>423.0</ele><time>2026-03-29T09:05:35.001Z</time></trkpt><trkpt lat="38.18532374587858" lon="13.267773945884638"><ele>423.0</ele><time>2026-03-29T09:05:37.001Z</time></trkpt><trkpt lat="38.18530772339427" lon="13.267896614466203"><ele>423.0</ele><time>2026-03-29T09:05:39.001Z</time></trkpt><trkpt lat="38.18532000864225" lon="13.267994244693154"><ele>423.0</ele><time>2026-03-29T09:05:41.001Z</time></trkpt><trkpt lat="38.185366225547675" lon="13.268104170799182"><ele>423.0</ele><time>2026-03-29T09:05:43.001Z</time></trkpt><trkpt lat="38.18539237008285" lon="13.2682098069412"><ele>423.0</ele><time>2026-03-29T09:05:44.001Z</time></trkpt><trkpt lat="38.18544169259109" lon="13.268290586239432"><ele>423.0</ele><time>2026-03-29T09:05:45.001Z</time></trkpt><trkpt lat="38.18546929110266" lon="13.268373200140553"><ele>423.0</ele><time>2026-03-29T09:05:46.001Z</time></trkpt><trkpt lat="38.185512599820306" lon="13.26844168407168"><ele>423.0</ele><time>2026-03-29T09:05:47.001Z</time></trkpt><trkpt lat="38.185571820783366" lon="13.268502931817556"><ele>419.3333333333333</ele><time>2026-03-29T09:05:48.001Z</time></trkpt><trkpt lat="38.185624662709074" lon="13.268567145713318"><ele>415.66666666666663</ele><time>2026-03-29T09:05:49.001Z</time></trkpt><trkpt lat="38.18567770952566" lon="13.268649234954454"><ele>412.0</ele><time>2026-03-29T09:05:51.001Z</time></trkpt><trkpt lat="38.18572679569363" lon="13.268710797880379"><ele>408.3333333333333</ele><time>2026-03-29T09:06:03Z</time></trkpt><trkpt lat="38.18579471366082" lon="13.268770696942081"><ele>404.66666666666663</ele><time>2026-03-29T09:06:07Z</time></trkpt><trkpt lat="38.185863150163826" lon="13.26880893599325"><ele>401.0</ele><time>2026-03-29T09:06:38Z</time></trkpt><trkpt lat="38.18593423391106" lon="13.2688505811732"><ele>400.99999999999994</ele><time>2026-03-29T09:06:40Z</time></trkpt><trkpt lat="38.185990544084156" lon="13.268906632402846"><ele>401.0</ele><time>2026-03-29T09:06:43Z</time></trkpt><trkpt lat="38.18596665613256" lon="13.268996408662208"><ele>401.0</ele><time>2026-03-29T09:06:46Z</time></trkpt><trkpt lat="38.185927597401225" lon="13.26906619791504"><ele>401.0</ele><time>2026-03-29T09:06:49Z</time></trkpt><trkpt lat="38.18589721714375" lon="13.269147076485185"><ele>400.99999999999994</ele><time>2026-03-29T09:06:52Z</time></trkpt><trkpt lat="38.18584750182407" lon="13.269248845598202"><ele>401.0</ele><time>2026-03-29T09:06:55Z</time></trkpt><trkpt lat="38.185792141758355" lon="13.2693486245022"><ele>403.8</ele><time>2026-03-29T09:06:58Z</time></trkpt><trkpt lat="38.185736683366876" lon="13.269442880705588"><ele>406.6</ele><time>2026-03-29T09:07:00Z</time></trkpt><trkpt lat="38.18566867922726" lon="13.269547822843274"><ele>409.4</ele><time>2026-03-29T09:07:02Z</time></trkpt><trkpt lat="38.18560637450744" lon="13.26964175074197"><ele>412.2</ele><time>2026-03-29T09:07:04Z</time></trkpt><trkpt lat="38.185536510963935" lon="13.269738298236813"><ele>415.0</ele><time>2026-03-29T09:07:06Z</time></trkpt><trkpt lat="38.185474328856344" lon="13.269822159120563"><ele>419.2</ele><time>2026-03-29T09:07:08Z</time></trkpt><trkpt lat="38.18541205934692" lon="13.269895472100448"><ele>423.4</ele><time>2026-03-29T09:07:10Z</time></trkpt><trkpt lat="38.18536025520434" lon="13.269965264115552"><ele>427.6</ele><time>2026-03-29T09:07:13Z</time></trkpt><trkpt lat="38.18531266008575" lon="13.27002768176339"><ele>431.8</ele><time>2026-03-29T09:07:16Z</time></trkpt><trkpt lat="38.18523852217382" lon="13.27012154256428"><ele>436.0</ele><time>2026-03-29T09:07:18Z</time></trkpt><trkpt lat="38.18514501522222" lon="13.270229458252949"><ele>436.00000000000006</ele><time>2026-03-29T09:07:20Z</time></trkpt><trkpt lat="38.18505668965259" lon="13.270336356722314"><ele>436.0</ele><time>2026-03-29T09:07:22.001Z</time></trkpt><trkpt lat="38.18500152563457" lon="13.27038230985776"><ele>436.0</ele><time>2026-03-29T09:07:23.001Z</time></trkpt><trkpt lat="38.18496654673703" lon="13.270455951254212"><ele>436.0</ele><time>2026-03-29T09:07:24.001Z</time></trkpt><trkpt lat="38.184918689901885" lon="13.270515310261636"><ele>436.00000000000006</ele><time>2026-03-29T09:07:25.001Z</time></trkpt><trkpt lat="38.18487461421642" lon="13.270579396641473"><ele>436.0</ele><time>2026-03-29T09:07:26.001Z</time></trkpt><trkpt lat="38.18482615093896" lon="13.270639897100596"><ele>438.33333333333337</ele><time>2026-03-29T09:07:27.001Z</time></trkpt><trkpt lat="38.18476984071367" lon="13.270695129383483"><ele>440.6666666666667</ele><time>2026-03-29T09:07:28.001Z</time></trkpt><trkpt lat="38.18473069594209" lon="13.270781873830952"><ele>443.0</ele><time>2026-03-29T09:07:29.001Z</time></trkpt><trkpt lat="38.184670211609834" lon="13.270840643131883"><ele>445.33333333333337</ele><time>2026-03-29T09:07:30.001Z</time></trkpt><trkpt lat="38.18461223862174" lon="13.270926146041885"><ele>447.6666666666667</ele><time>2026-03-29T09:07:31.001Z</time></trkpt><trkpt lat="38.184579993853134" lon="13.270999170204675"><ele>450.0</ele><time>2026-03-29T09:07:32.001Z</time></trkpt><trkpt lat="38.18453055205012" lon="13.271064433363081"><ele>450.00000000000006</ele><time>2026-03-29T09:07:33.001Z</time></trkpt><trkpt lat="38.18448495499843" lon="13.271148002726315"><ele>450.0</ele><time>2026-03-29T09:07:34.001Z</time></trkpt><trkpt lat="38.18444111706245" lon="13.271219890687995"><ele>450.00000000000006</ele><time>2026-03-29T09:07:35.001Z</time></trkpt><trkpt lat="38.184395135719626" lon="13.271301546198197"><ele>450.00000000000006</ele><time>2026-03-29T09:07:36.001Z</time></trkpt><trkpt lat="38.18435456349644" lon="13.27137790729209"><ele>450.0</ele><time>2026-03-29T09:07:37.001Z</time></trkpt><trkpt lat="38.18432263746428" lon="13.27145683566166"><ele>450.00000000000006</ele><time>2026-03-29T09:07:38.001Z</time></trkpt><trkpt lat="38.184291559828935" lon="13.271528495385406"><ele>450.00000000000006</ele><time>2026-03-29T09:07:39.001Z</time></trkpt><trkpt lat="38.184240958779085" lon="13.27166621787437"><ele>445.6</ele><time>2026-03-29T09:07:41.001Z</time></trkpt><trkpt lat="38.18420149365738" lon="13.271819406966193"><ele>441.2</ele><time>2026-03-29T09:07:43.001Z</time></trkpt><trkpt lat="38.18419958217084" lon="13.271909297687012"><ele>436.79999999999995</ele><time>2026-03-29T09:07:44.001Z</time></trkpt><trkpt lat="38.18420909891719" lon="13.271997640446815"><ele>432.4</ele><time>2026-03-29T09:07:45.001Z</time></trkpt><trkpt lat="38.18420371903873" lon="13.272143667925981"><ele>428.0</ele><time>2026-03-29T09:07:47.001Z</time></trkpt><trkpt lat="38.18414969326173" lon="13.272289018947943"><ele>425.49999999999994</ele><time>2026-03-29T09:07:49.001Z</time></trkpt><trkpt lat="38.18411169911286" lon="13.272379508958215"><ele>423.0</ele><time>2026-03-29T09:07:50.001Z</time></trkpt><trkpt lat="38.18407693224365" lon="13.272491956392697"><ele>420.5</ele><time>2026-03-29T09:07:51.001Z</time></trkpt><trkpt lat="38.184060662775956" lon="13.272576213296444"><ele>418.0</ele><time>2026-03-29T09:07:52.001Z</time></trkpt><trkpt lat="38.18404950643929" lon="13.272681676718095"><ele>415.49999999999994</ele><time>2026-03-29T09:07:54.001Z</time></trkpt><trkpt lat="38.18402857461051" lon="13.272788277684015"><ele>413.0</ele><time>2026-03-29T09:08:22Z</time></trkpt><trkpt lat="38.184014314552236" lon="13.27288832250064"><ele>415.49999999999994</ele><time>2026-03-29T09:08:25Z</time></trkpt><trkpt lat="38.184003332743906" lon="13.272989082117247"><ele>418.0</ele><time>2026-03-29T09:08:27Z</time></trkpt><trkpt lat="38.18394103411752" lon="13.273085118142841"><ele>420.5</ele><time>2026-03-29T09:08:29Z</time></trkpt><trkpt lat="38.183895226047255" lon="13.273149464445018"><ele>423.0</ele><time>2026-03-29T09:08:30Z</time></trkpt><trkpt lat="38.183855059928895" lon="13.273218509031405"><ele>425.49999999999994</ele><time>2026-03-29T09:08:31Z</time></trkpt><trkpt lat="38.18375695375046" lon="13.273310580391078"><ele>428.0</ele><time>2026-03-29T09:08:33Z</time></trkpt><trkpt lat="38.183708132964924" lon="13.27337069738111"><ele>427.99999999999994</ele><time>2026-03-29T09:08:34Z</time></trkpt><trkpt lat="38.18365714929964" lon="13.273440520743568"><ele>428.0</ele><time>2026-03-29T09:08:35Z</time></trkpt><trkpt lat="38.1836084388847" lon="13.27349948312322"><ele>428.0</ele><time>2026-03-29T09:08:36Z</time></trkpt><trkpt lat="38.183556498375545" lon="13.273564090766289"><ele>428.0</ele><time>2026-03-29T09:08:37Z</time></trkpt><trkpt lat="38.183470428595825" lon="13.273671150975106"><ele>427.99999999999994</ele><time>2026-03-29T09:08:39Z</time></trkpt><trkpt lat="38.183420190389754" lon="13.273739353271552"><ele>428.0</ele><time>2026-03-29T09:08:40Z</time></trkpt><trkpt lat="38.1833785433622" lon="13.273803473862927"><ele>428.00000000000006</ele><time>2026-03-29T09:08:41Z</time></trkpt><trkpt lat="38.183328378235394" lon="13.273862996765324"><ele>428.0</ele><time>2026-03-29T09:08:42Z</time></trkpt><trkpt lat="38.183275087069475" lon="13.273924852846106"><ele>428.0</ele><time>2026-03-29T09:08:43Z</time></trkpt><trkpt lat="38.183217221481584" lon="13.273988848816401"><ele>428.0</ele><time>2026-03-29T09:08:44Z</time></trkpt><trkpt lat="38.18315669392524" lon="13.274052369713742"><ele>428.0</ele><time>2026-03-29T09:08:45Z</time></trkpt><trkpt lat="38.1831059108518" lon="13.274113858194681"><ele>428.00000000000006</ele><time>2026-03-29T09:08:46Z</time></trkpt><trkpt lat="38.1830550552565" lon="13.27418355888517"><ele>428.0</ele><time>2026-03-29T09:08:47Z</time></trkpt><trkpt lat="38.18297029590124" lon="13.274284896571546"><ele>426.99999999999994</ele><time>2026-03-29T09:08:49Z</time></trkpt><trkpt lat="38.182913878013245" lon="13.274336576633905"><ele>426.0</ele><time>2026-03-29T09:08:50Z</time></trkpt><trkpt lat="38.18282591051166" lon="13.274439819491693"><ele>425.0</ele><time>2026-03-29T09:08:52Z</time></trkpt><trkpt lat="38.18277647440819" lon="13.27449876131079"><ele>424.0</ele><time>2026-03-29T09:08:53Z</time></trkpt><trkpt lat="38.18271467744943" lon="13.274571549278969"><ele>422.99999999999994</ele><time>2026-03-29T09:08:54Z</time></trkpt><trkpt lat="38.18266962254326" lon="13.27464176252839"><ele>422.0</ele><time>2026-03-29T09:08:55Z</time></trkpt><trkpt lat="38.182620121846895" lon="13.274729485989926"><ele>422.49999999999994</ele><time>2026-03-29T09:08:56Z</time></trkpt><trkpt lat="38.182570071435585" lon="13.274811444856555"><ele>423.0</ele><time>2026-03-29T09:08:57Z</time></trkpt><trkpt lat="38.18250642847274" lon="13.274900118272232"><ele>423.5</ele><time>2026-03-29T09:08:58Z</time></trkpt><trkpt lat="38.18245158703347" lon="13.274969391668769"><ele>424.0</ele><time>2026-03-29T09:08:59Z</time></trkpt><trkpt lat="38.1824050459307" lon="13.275044216340438"><ele>424.49999999999994</ele><time>2026-03-29T09:09:00Z</time></trkpt><trkpt lat="38.18235381148028" lon="13.275094267752685"><ele>425.0</ele><time>2026-03-29T09:09:01Z</time></trkpt><trkpt lat="38.18229933554055" lon="13.275184860107466"><ele>425.0</ele><time>2026-03-29T09:09:02Z</time></trkpt><trkpt lat="38.18223471814667" lon="13.275274057068323"><ele>425.0</ele><time>2026-03-29T09:09:03Z</time></trkpt><trkpt lat="38.18217065516732" lon="13.275363264990753"><ele>425.0</ele><time>2026-03-29T09:09:04Z</time></trkpt><trkpt lat="38.182116456561054" lon="13.275431452523353"><ele>425.0</ele><time>2026-03-29T09:09:05Z</time></trkpt><trkpt lat="38.18201553419217" lon="13.275551630169398"><ele>425.0</ele><time>2026-03-29T09:09:07.001Z</time></trkpt><trkpt lat="38.18196090865675" lon="13.27562509711862"><ele>420.3333333333333</ele><time>2026-03-29T09:09:08.001Z</time></trkpt><trkpt lat="38.181909479100455" lon="13.275707050022483"><ele>415.66666666666663</ele><time>2026-03-29T09:09:09.001Z</time></trkpt><trkpt lat="38.181858246065175" lon="13.275787237175223"><ele>411.0</ele><time>2026-03-29T09:09:10.001Z</time></trkpt><trkpt lat="38.18180487779765" lon="13.27586492148169"><ele>406.33333333333337</ele><time>2026-03-29T09:09:11.001Z</time></trkpt><trkpt lat="38.18174779582972" lon="13.275951323628098"><ele>401.6666666666667</ele><time>2026-03-29T09:09:12.001Z</time></trkpt><trkpt lat="38.18169495852196" lon="13.276045523729277"><ele>397.0</ele><time>2026-03-29T09:09:13.001Z</time></trkpt><trkpt lat="38.18163235044508" lon="13.27613899571005"><ele>397.00000000000006</ele><time>2026-03-29T09:09:14.001Z</time></trkpt><trkpt lat="38.181574382040516" lon="13.276227525818651"><ele>397.0</ele><time>2026-03-29T09:09:15.001Z</time></trkpt><trkpt lat="38.18152908210609" lon="13.276288751487572"><ele>397.0</ele><time>2026-03-29T09:09:16.001Z</time></trkpt><trkpt lat="38.1814759935765" lon="13.276349277950093"><ele>397.0</ele><time>2026-03-29T09:09:17.001Z</time></trkpt><trkpt lat="38.18141747545837" lon="13.276421973825476"><ele>397.00000000000006</ele><time>2026-03-29T09:09:18.001Z</time></trkpt><trkpt lat="38.18136217715292" lon="13.276508721199608"><ele>397.0</ele><time>2026-03-29T09:09:19.001Z</time></trkpt><trkpt lat="38.18130802788634" lon="13.276591449337186"><ele>398.40000000000003</ele><time>2026-03-29T09:09:20.001Z</time></trkpt><trkpt lat="38.181253696452394" lon="13.27667654978776"><ele>399.8</ele><time>2026-03-29T09:09:21.001Z</time></trkpt><trkpt lat="38.18120033383209" lon="13.276776713122036"><ele>401.2</ele><time>2026-03-29T09:09:22.001Z</time></trkpt><trkpt lat="38.18115169260472" lon="13.2768983364044"><ele>402.6</ele><time>2026-03-29T09:09:23.001Z</time></trkpt><trkpt lat="38.18111191535193" lon="13.277007928200128"><ele>404.0</ele><time>2026-03-29T09:09:24.001Z</time></trkpt><trkpt lat="38.18107253758933" lon="13.277132885930275"><ele>403.99999999999994</ele><time>2026-03-29T09:09:25.001Z</time></trkpt><trkpt lat="38.18104420652957" lon="13.277250490997963"><ele>404.0</ele><time>2026-03-29T09:09:26.001Z</time></trkpt><trkpt lat="38.18101046969289" lon="13.277380672388293"><ele>404.0</ele><time>2026-03-29T09:09:27.001Z</time></trkpt><trkpt lat="38.180989856701565" lon="13.27748989746497"><ele>404.0</ele><time>2026-03-29T09:09:28.001Z</time></trkpt><trkpt lat="38.18097647740209" lon="13.277582978286015"><ele>403.99999999999994</ele><time>2026-03-29T09:09:29.001Z</time></trkpt><trkpt lat="38.18095942625796" lon="13.277680202898493"><ele>404.0</ele><time>2026-03-29T09:09:30.001Z</time></trkpt><trkpt lat="38.18094293754986" lon="13.277776034930762"><ele>401.8333333333333</ele><time>2026-03-29T09:09:31.001Z</time></trkpt><trkpt lat="38.18092005162175" lon="13.277898870835186"><ele>399.66666666666663</ele><time>2026-03-29T09:09:33.001Z</time></trkpt><trkpt lat="38.18098300964075" lon="13.277901294947569"><ele>397.5</ele><time>2026-03-29T09:09:59.001Z</time></trkpt><trkpt lat="38.18100969881037" lon="13.27779611220438"><ele>395.33333333333337</ele><time>2026-03-29T09:10:03.001Z</time></trkpt><trkpt lat="38.181028703219766" lon="13.277648270250154"><ele>393.1666666666667</ele><time>2026-03-29T09:10:05.001Z</time></trkpt><trkpt lat="38.18104967798667" lon="13.27757160265511"><ele>391.0</ele><time>2026-03-29T09:10:06.001Z</time></trkpt><trkpt lat="38.18118044654672" lon="13.277506649957461"><ele>391.00000000000006</ele><time>2026-03-29T09:10:08.001Z</time></trkpt><trkpt lat="38.18121842699722" lon="13.27743210429941"><ele>391.0</ele><time>2026-03-29T09:10:09Z</time></trkpt><trkpt lat="38.18128171796422" lon="13.277312551941888"><ele>391.0</ele><time>2026-03-29T09:10:11Z</time></trkpt><trkpt lat="38.18132135830925" lon="13.277248047066381"><ele>391.0</ele><time>2026-03-29T09:10:12Z</time></trkpt><trkpt lat="38.18136692242804" lon="13.27718143037216"><ele>391.00000000000006</ele><time>2026-03-29T09:10:13Z</time></trkpt><trkpt lat="38.18142734672694" lon="13.277110871053864"><ele>391.0</ele><time>2026-03-29T09:10:14Z</time></trkpt><trkpt lat="38.18151863318788" lon="13.277018854062549"><ele>386.75</ele><time>2026-03-29T09:10:15Z</time></trkpt><trkpt lat="38.181614596506975" lon="13.276925855709267"><ele>382.5</ele><time>2026-03-29T09:10:16Z</time></trkpt><trkpt lat="38.18171197779119" lon="13.276830044285553"><ele>378.25</ele><time>2026-03-29T09:10:17Z</time></trkpt><trkpt lat="38.181820198754885" lon="13.276714605035735"><ele>374.0</ele><time>2026-03-29T09:10:18Z</time></trkpt><trkpt lat="38.181919844778264" lon="13.276610292292432"><ele>374.0</ele><time>2026-03-29T09:10:19Z</time></trkpt><trkpt lat="38.18201012649975" lon="13.276524706541132"><ele>374.0</ele><time>2026-03-29T09:10:20Z</time></trkpt><trkpt lat="38.18209539323699" lon="13.276450813431302"><ele>374.0</ele><time>2026-03-29T09:10:21Z</time></trkpt><trkpt lat="38.182160299105206" lon="13.276364482380883"><ele>374.0</ele><time>2026-03-29T09:10:22Z</time></trkpt><trkpt lat="38.182230722078415" lon="13.276306973339027"><ele>374.0</ele><time>2026-03-29T09:10:23Z</time></trkpt><trkpt lat="38.18230815416842" lon="13.276248979201036"><ele>374.0</ele><time>2026-03-29T09:10:24Z</time></trkpt><trkpt lat="38.18237446259323" lon="13.276198681872394"><ele>374.0</ele><time>2026-03-29T09:10:25Z</time></trkpt><trkpt lat="38.18243658919752" lon="13.276159254150894"><ele>374.0</ele><time>2026-03-29T09:10:26Z</time></trkpt><trkpt lat="38.18251399655904" lon="13.276096212081086"><ele>374.0</ele><time>2026-03-29T09:10:27Z</time></trkpt><trkpt lat="38.18257456570186" lon="13.276055809246266"><ele>374.0</ele><time>2026-03-29T09:10:28Z</time></trkpt><trkpt lat="38.18263994190945" lon="13.27601817445336"><ele>374.0</ele><time>2026-03-29T09:10:29Z</time></trkpt><trkpt lat="38.18275480352949" lon="13.275923305068996"><ele>374.0</ele><time>2026-03-29T09:10:31Z</time></trkpt><trkpt lat="38.18283247957681" lon="13.275858891126283"><ele>374.0</ele><time>2026-03-29T09:10:32Z</time></trkpt><trkpt lat="38.1829163483694" lon="13.275799661860624"><ele>374.0</ele><time>2026-03-29T09:10:33Z</time></trkpt><trkpt lat="38.18300792283115" lon="13.275749923755269"><ele>374.0</ele><time>2026-03-29T09:10:34Z</time></trkpt><trkpt lat="38.183099614346936" lon="13.275704198755172"><ele>374.0</ele><time>2026-03-29T09:10:35Z</time></trkpt><trkpt lat="38.18317958365246" lon="13.27566012815504"><ele>373.79999999999995</ele><time>2026-03-29T09:10:36Z</time></trkpt><trkpt lat="38.1832625221001" lon="13.275614462067887"><ele>373.59999999999997</ele><time>2026-03-29T09:10:37Z</time></trkpt><trkpt lat="38.18333633938058" lon="13.275568085836419"><ele>373.4</ele><time>2026-03-29T09:10:38Z</time></trkpt><trkpt lat="38.18340613017749" lon="13.275544260084617"><ele>373.2</ele><time>2026-03-29T09:10:39Z</time></trkpt><trkpt lat="38.18350467262844" lon="13.275499312679939"><ele>373.0</ele><time>2026-03-29T09:10:40Z</time></trkpt><trkpt lat="38.18361334985604" lon="13.2754528674537"><ele>373.0</ele><time>2026-03-29T09:10:41Z</time></trkpt><trkpt lat="38.183695516614776" lon="13.275413809802918"><ele>373.0</ele><time>2026-03-29T09:10:42Z</time></trkpt><trkpt lat="38.183771795951536" lon="13.275370959431843"><ele>373.0</ele><time>2026-03-29T09:10:43Z</time></trkpt><trkpt lat="38.1838601326104" lon="13.275324631436797"><ele>373.0</ele><time>2026-03-29T09:10:44Z</time></trkpt><trkpt lat="38.18393859898445" lon="13.275286499357161"><ele>373.0</ele><time>2026-03-29T09:10:45Z</time></trkpt><trkpt lat="38.18401138972518" lon="13.27525098462145"><ele>373.0</ele><time>2026-03-29T09:10:46Z</time></trkpt><trkpt lat="38.18407543838481" lon="13.275221515592397"><ele>369.5</ele><time>2026-03-29T09:10:47Z</time></trkpt><trkpt lat="38.184141390760935" lon="13.275187614552442"><ele>366.0</ele><time>2026-03-29T09:10:48Z</time></trkpt><trkpt lat="38.18421384659245" lon="13.275136574081339"><ele>362.5</ele><time>2026-03-29T09:10:49Z</time></trkpt><trkpt lat="38.18429875233145" lon="13.275060182567506"><ele>359.0</ele><time>2026-03-29T09:10:51Z</time></trkpt><trkpt lat="38.18435484619325" lon="13.275098260341725"><ele>355.5</ele><time>2026-03-29T09:10:55Z</time></trkpt><trkpt lat="38.18432946679077" lon="13.275187940038041"><ele>352.0</ele><time>2026-03-29T09:11:00Z</time></trkpt><trkpt lat="38.184239059252846" lon="13.27524181549757"><ele>352.0</ele><time>2026-03-29T09:11:02.001Z</time></trkpt><trkpt lat="38.1841503085854" lon="13.275340063789026"><ele>352.0</ele><time>2026-03-29T09:11:04.001Z</time></trkpt><trkpt lat="38.184101802764516" lon="13.275397072994584"><ele>352.0</ele><time>2026-03-29T09:11:05.001Z</time></trkpt><trkpt lat="38.18400485248553" lon="13.275497682846503"><ele>352.0</ele><time>2026-03-29T09:11:07.001Z</time></trkpt><trkpt lat="38.18393689724077" lon="13.27557019092953"><ele>352.0</ele><time>2026-03-29T09:11:08.001Z</time></trkpt><trkpt lat="38.18386313470401" lon="13.275645462038584"><ele>351.5</ele><time>2026-03-29T09:11:09.001Z</time></trkpt><trkpt lat="38.18379700401705" lon="13.275709898787944"><ele>351.0</ele><time>2026-03-29T09:11:10.001Z</time></trkpt><trkpt lat="38.183726143131885" lon="13.275783718642757"><ele>350.5</ele><time>2026-03-29T09:11:11.001Z</time></trkpt><trkpt lat="38.183678192415364" lon="13.27584528132931"><ele>350.0</ele><time>2026-03-29T09:11:12.001Z</time></trkpt><trkpt lat="38.183622215420534" lon="13.27590785776246"><ele>349.5</ele><time>2026-03-29T09:11:13.001Z</time></trkpt><trkpt lat="38.18356420056128" lon="13.275973426258382"><ele>349.0</ele><time>2026-03-29T09:11:14.001Z</time></trkpt><trkpt lat="38.183508892358105" lon="13.276045560669514"><ele>349.0</ele><time>2026-03-29T09:11:15.001Z</time></trkpt><trkpt lat="38.18345495655899" lon="13.276117987753585"><ele>349.0</ele><time>2026-03-29T09:11:16.001Z</time></trkpt><trkpt lat="38.18338639453346" lon="13.276210521862355"><ele>349.0</ele><time>2026-03-29T09:11:17.001Z</time></trkpt><trkpt lat="38.183319402599615" lon="13.276293408745754"><ele>349.0</ele><time>2026-03-29T09:11:18.001Z</time></trkpt><trkpt lat="38.183246122597915" lon="13.276391906561358"><ele>349.0</ele><time>2026-03-29T09:11:19.001Z</time></trkpt><trkpt lat="38.183179502313195" lon="13.276483759276719"><ele>349.0</ele><time>2026-03-29T09:11:20.001Z</time></trkpt><trkpt lat="38.18312816008754" lon="13.276564782931011"><ele>349.0</ele><time>2026-03-29T09:11:21.001Z</time></trkpt><trkpt lat="38.18306758492947" lon="13.276659324934531"><ele>349.0</ele><time>2026-03-29T09:11:22.001Z</time></trkpt><trkpt lat="38.18301304631854" lon="13.276749673449109"><ele>349.0</ele><time>2026-03-29T09:11:23.001Z</time></trkpt><trkpt lat="38.1829585972086" lon="13.27683265225412"><ele>349.0</ele><time>2026-03-29T09:11:24.001Z</time></trkpt><trkpt lat="38.18291017380487" lon="13.276904055548185"><ele>349.0</ele><time>2026-03-29T09:11:25.001Z</time></trkpt><trkpt lat="38.18286525010487" lon="13.27697960263237"><ele>349.0</ele><time>2026-03-29T09:11:26.001Z</time></trkpt><trkpt lat="38.182789126392244" lon="13.277085697278252"><ele>349.0</ele><time>2026-03-29T09:11:28.001Z</time></trkpt><trkpt lat="38.18274331866604" lon="13.27714819781809"><ele>349.0</ele><time>2026-03-29T09:11:29.001Z</time></trkpt><trkpt lat="38.18270236412478" lon="13.277212713790101"><ele>349.0</ele><time>2026-03-29T09:11:30.001Z</time></trkpt><trkpt lat="38.182654463101166" lon="13.27730604494062"><ele>349.0</ele><time>2026-03-29T09:11:32.001Z</time></trkpt><trkpt lat="38.18260226472134" lon="13.277410101170869"><ele>349.0</ele><time>2026-03-29T09:11:34.001Z</time></trkpt><trkpt lat="38.18255752865281" lon="13.27749260773291"><ele>350.3333333333333</ele><time>2026-03-29T09:11:35.001Z</time></trkpt><trkpt lat="38.18251234815366" lon="13.277571784237319"><ele>351.66666666666663</ele><time>2026-03-29T09:11:36.001Z</time></trkpt><trkpt lat="38.182465523696834" lon="13.277656426588972"><ele>353.0</ele><time>2026-03-29T09:11:37.001Z</time></trkpt><trkpt lat="38.182420833379474" lon="13.27776110532192"><ele>354.3333333333333</ele><time>2026-03-29T09:11:38.001Z</time></trkpt><trkpt lat="38.18238675226496" lon="13.27785246692775"><ele>355.6666666666667</ele><time>2026-03-29T09:11:39.001Z</time></trkpt><trkpt lat="38.18235102843244" lon="13.277929301914858"><ele>357.0</ele><time>2026-03-29T09:11:40.001Z</time></trkpt><trkpt lat="38.18229469379061" lon="13.278009212528408"><ele>357.0</ele><time>2026-03-29T09:11:42.001Z</time></trkpt><trkpt lat="38.182299356137634" lon="13.278099263163371"><ele>357.0</ele><time>2026-03-29T09:11:45.001Z</time></trkpt></trkseg><trkseg><trkpt lat="38.18231695308724" lon="13.278017006598226"><ele>353.3333333333333</ele><time>2026-03-29T09:31:29Z</time></trkpt><trkpt lat="38.18235119008971" lon="13.277922210268182"><ele>349.6666666666667</ele><time>2026-03-29T09:31:34Z</time></trkpt><trkpt lat="38.182406800110954" lon="13.277812342465513"><ele>346.0</ele><time>2026-03-29T09:31:36Z</time></trkpt><trkpt lat="38.18244091765585" lon="13.27774319631252"><ele>342.33333333333337</ele><time>2026-03-29T09:31:37Z</time></trkpt><trkpt lat="38.1824844501665" lon="13.277642812699074"><ele>338.6666666666667</ele><time>2026-03-29T09:31:39Z</time></trkpt><trkpt lat="38.18253815693974" lon="13.27754535116317"><ele>335.0</ele><time>2026-03-29T09:31:41Z</time></trkpt><trkpt lat="38.18259533900259" lon="13.27744004960254"><ele>335.0</ele><time>2026-03-29T09:31:43Z</time></trkpt><trkpt lat="38.182647999989385" lon="13.277351702766554"><ele>335.0</ele><time>2026-03-29T09:31:45Z</time></trkpt><trkpt lat="38.182709006862005" lon="13.277241747327778"><ele>335.0</ele><time>2026-03-29T09:31:47Z</time></trkpt><trkpt lat="38.18275215419925" lon="13.277177312689975"><ele>335.0</ele><time>2026-03-29T09:31:48Z</time></trkpt><trkpt lat="38.182823212311796" lon="13.277112904320767"><ele>335.0</ele><time>2026-03-29T09:31:49Z</time></trkpt><trkpt lat="38.182882836997244" lon="13.277019838307762"><ele>335.0</ele><time>2026-03-29T09:31:50Z</time></trkpt><trkpt lat="38.1829343915018" lon="13.276910417372903"><ele>333.6</ele><time>2026-03-29T09:31:51Z</time></trkpt><trkpt lat="38.182989624255704" lon="13.276857751941389"><ele>332.2</ele><time>2026-03-29T09:31:52Z</time></trkpt><trkpt lat="38.183066125680185" lon="13.27671945132262"><ele>330.79999999999995</ele><time>2026-03-29T09:31:54Z</time></trkpt><trkpt lat="38.18314242783465" lon="13.276638777520224"><ele>329.4</ele><time>2026-03-29T09:31:55Z</time></trkpt><trkpt lat="38.18321680351873" lon="13.27653443392344"><ele>328.0</ele><time>2026-03-29T09:31:56Z</time></trkpt><trkpt lat="38.18325496828887" lon="13.276435283252534"><ele>332.2</ele><time>2026-03-29T09:31:57Z</time></trkpt><trkpt lat="38.18331314231782" lon="13.276343870734426"><ele>336.4</ele><time>2026-03-29T09:31:58Z</time></trkpt><trkpt lat="38.1833895574772" lon="13.276240061947387"><ele>340.59999999999997</ele><time>2026-03-29T09:31:59Z</time></trkpt><trkpt lat="38.183468394934955" lon="13.276133698394805"><ele>344.79999999999995</ele><time>2026-03-29T09:32:00Z</time></trkpt><trkpt lat="38.18355035386563" lon="13.27602898190849"><ele>349.0</ele><time>2026-03-29T09:32:01Z</time></trkpt><trkpt lat="38.18360232428798" lon="13.275960256526341"><ele>349.0</ele><time>2026-03-29T09:32:02Z</time></trkpt><trkpt lat="38.18372337279426" lon="13.275819252549816"><ele>349.0</ele><time>2026-03-29T09:32:04Z</time></trkpt><trkpt lat="38.183798145953816" lon="13.275732852764444"><ele>349.0</ele><time>2026-03-29T09:32:05Z</time></trkpt><trkpt lat="38.183884257797764" lon="13.27563523991742"><ele>349.0</ele><time>2026-03-29T09:32:06Z</time></trkpt><trkpt lat="38.183960194980344" lon="13.275571472693859"><ele>349.6</ele><time>2026-03-29T09:32:07Z</time></trkpt><trkpt lat="38.18403173862819" lon="13.275502655174703"><ele>350.2</ele><time>2026-03-29T09:32:08Z</time></trkpt><trkpt lat="38.18411889063964" lon="13.275406486671088"><ele>350.8</ele><time>2026-03-29T09:32:09Z</time></trkpt><trkpt lat="38.18418356843176" lon="13.275339565058058"><ele>351.40000000000003</ele><time>2026-03-29T09:32:10Z</time></trkpt><trkpt lat="38.18425050781374" lon="13.27526864746107"><ele>352.0</ele><time>2026-03-29T09:32:11Z</time></trkpt><trkpt lat="38.18430548490678" lon="13.275203770101795"><ele>352.0</ele><time>2026-03-29T09:32:12Z</time></trkpt><trkpt lat="38.18438578905834" lon="13.27514278720134"><ele>352.0</ele><time>2026-03-29T09:32:14Z</time></trkpt><trkpt lat="38.184405735422835" lon="13.275049107869721"><ele>352.0</ele><time>2026-03-29T09:32:17Z</time></trkpt><trkpt lat="38.184340950081484" lon="13.27504626808782"><ele>352.0</ele><time>2026-03-29T09:32:20Z</time></trkpt><trkpt lat="38.184289812246135" lon="13.275099971765314"><ele>352.0</ele><time>2026-03-29T09:32:22Z</time></trkpt><trkpt lat="38.18423212399965" lon="13.275168645700575"><ele>352.0</ele><time>2026-03-29T09:32:24Z</time></trkpt><trkpt lat="38.18417119193602" lon="13.275209139446732"><ele>352.0</ele><time>2026-03-29T09:32:27Z</time></trkpt><trkpt lat="38.18413552473364" lon="13.275206227187837"><ele>352.0</ele><time>2026-03-29T09:35:29Z</time></trkpt><trkpt lat="38.184068625796755" lon="13.275237126713474"><ele>352.0</ele><time>2026-03-29T09:35:31Z</time></trkpt><trkpt lat="38.18399791093738" lon="13.275272085373848"><ele>352.0</ele><time>2026-03-29T09:35:32Z</time></trkpt><trkpt lat="38.18390234538453" lon="13.275324919671812"><ele>352.0</ele><time>2026-03-29T09:35:33Z</time></trkpt><trkpt lat="38.183802175244644" lon="13.275379170606877"><ele>352.0</ele><time>2026-03-29T09:35:34Z</time></trkpt><trkpt lat="38.1837000305867" lon="13.275431813065834"><ele>351.40000000000003</ele><time>2026-03-29T09:35:35Z</time></trkpt><trkpt lat="38.1836024207399" lon="13.275476817343044"><ele>350.8</ele><time>2026-03-29T09:35:36Z</time></trkpt><trkpt lat="38.18352715489601" lon="13.275514098403635"><ele>350.2</ele><time>2026-03-29T09:35:37Z</time></trkpt><trkpt lat="38.18343372956241" lon="13.275560309082007"><ele>349.6</ele><time>2026-03-29T09:35:38Z</time></trkpt><trkpt lat="38.18334243018753" lon="13.275602448243621"><ele>349.0</ele><time>2026-03-29T09:35:39Z</time></trkpt><trkpt lat="38.183260471192554" lon="13.275642851433057"><ele>349.0</ele><time>2026-03-29T09:35:40Z</time></trkpt><trkpt lat="38.183186241245174" lon="13.27568153878082"><ele>349.0</ele><time>2026-03-29T09:35:41Z</time></trkpt><trkpt lat="38.18309288258889" lon="13.275722363200753"><ele>349.0</ele><time>2026-03-29T09:35:42Z</time></trkpt><trkpt lat="38.183016479726106" lon="13.275768631506642"><ele>349.0</ele><time>2026-03-29T09:35:43Z</time></trkpt><trkpt lat="38.182914641409546" lon="13.275826816628594"><ele>349.0</ele><time>2026-03-29T09:35:44Z</time></trkpt><trkpt lat="38.18284592073079" lon="13.27586848460568"><ele>353.16666666666663</ele><time>2026-03-29T09:35:45Z</time></trkpt><trkpt lat="38.18277181831928" lon="13.275926589117612"><ele>357.3333333333333</ele><time>2026-03-29T09:35:46Z</time></trkpt><trkpt lat="38.182697396994854" lon="13.27597254146902"><ele>361.5</ele><time>2026-03-29T09:35:47Z</time></trkpt><trkpt lat="38.18261592575072" lon="13.276041922452224"><ele>365.6666666666667</ele><time>2026-03-29T09:35:48Z</time></trkpt><trkpt lat="38.182542387326954" lon="13.27609404441359"><ele>369.83333333333337</ele><time>2026-03-29T09:35:49Z</time></trkpt><trkpt lat="38.18247270214288" lon="13.276137332809048"><ele>374.0</ele><time>2026-03-29T09:35:50Z</time></trkpt><trkpt lat="38.18240377834999" lon="13.276193968294553"><ele>374.0</ele><time>2026-03-29T09:35:51Z</time></trkpt><trkpt lat="38.18233997505682" lon="13.276241764814012"><ele>374.0</ele><time>2026-03-29T09:35:52Z</time></trkpt><trkpt lat="38.18228142538903" lon="13.276287660331597"><ele>374.0</ele><time>2026-03-29T09:35:53Z</time></trkpt><trkpt lat="38.18220530127058" lon="13.27634138077395"><ele>374.0</ele><time>2026-03-29T09:35:54Z</time></trkpt><trkpt lat="38.18213144244295" lon="13.276406041423526"><ele>374.0</ele><time>2026-03-29T09:35:55Z</time></trkpt><trkpt lat="38.182060092786415" lon="13.276464040494506"><ele>374.0</ele><time>2026-03-29T09:35:56Z</time></trkpt><trkpt lat="38.181982183164784" lon="13.276521681272698"><ele>374.0</ele><time>2026-03-29T09:35:57Z</time></trkpt><trkpt lat="38.18190485800019" lon="13.276578507875287"><ele>374.0</ele><time>2026-03-29T09:35:58Z</time></trkpt><trkpt lat="38.18182719086475" lon="13.2766465073398"><ele>374.0</ele><time>2026-03-29T09:35:59Z</time></trkpt><trkpt lat="38.181755505060494" lon="13.276715105921193"><ele>374.0</ele><time>2026-03-29T09:36:00Z</time></trkpt><trkpt lat="38.18168348683182" lon="13.276781190048311"><ele>374.0</ele><time>2026-03-29T09:36:01Z</time></trkpt><trkpt lat="38.18161182288523" lon="13.276849099632393"><ele>374.0</ele><time>2026-03-29T09:36:02Z</time></trkpt><trkpt lat="38.181536517741065" lon="13.276922156402335"><ele>374.0</ele><time>2026-03-29T09:36:03Z</time></trkpt><trkpt lat="38.18148297742971" lon="13.27698398331314"><ele>374.0</ele><time>2026-03-29T09:36:04Z</time></trkpt><trkpt lat="38.181420150466145" lon="13.27705741688748"><ele>374.0</ele><time>2026-03-29T09:36:05Z</time></trkpt><trkpt lat="38.181354705563024" lon="13.27713233670583"><ele>374.0</ele><time>2026-03-29T09:36:06Z</time></trkpt><trkpt lat="38.181298078189556" lon="13.277212222673093"><ele>374.0</ele><time>2026-03-29T09:36:07Z</time></trkpt><trkpt lat="38.18124981914745" lon="13.27729400906207"><ele>376.83333333333337</ele><time>2026-03-29T09:36:08Z</time></trkpt><trkpt lat="38.18119596455334" lon="13.277363919355032"><ele>379.6666666666667</ele><time>2026-03-29T09:36:09Z</time></trkpt><trkpt lat="38.181158285218814" lon="13.277486764961344"><ele>382.5</ele><time>2026-03-29T09:36:10Z</time></trkpt><trkpt lat="38.18112272596016" lon="13.277565944396734"><ele>385.33333333333337</ele><time>2026-03-29T09:36:11Z</time></trkpt><trkpt lat="38.181079728210364" lon="13.277641465548514"><ele>388.1666666666667</ele><time>2026-03-29T09:36:12Z</time></trkpt><trkpt lat="38.18102806595864" lon="13.277737367668854"><ele>391.0</ele><time>2026-03-29T09:36:13Z</time></trkpt><trkpt lat="38.180984351633974" lon="13.277826160730118"><ele>391.00000000000006</ele><time>2026-03-29T09:36:14Z</time></trkpt><trkpt lat="38.18094099941615" lon="13.277914676401403"><ele>391.0</ele><time>2026-03-29T09:36:16Z</time></trkpt><trkpt lat="38.1809510215488" lon="13.277798085882884"><ele>391.0</ele><time>2026-03-29T09:36:19Z</time></trkpt><trkpt lat="38.180992627818505" lon="13.277693345899523"><ele>391.0</ele><time>2026-03-29T09:36:23Z</time></trkpt><trkpt lat="38.18098510355284" lon="13.277602605747104"><ele>391.00000000000006</ele><time>2026-03-29T09:36:24Z</time></trkpt><trkpt lat="38.18101159546102" lon="13.277500275176447"><ele>391.0</ele><time>2026-03-29T09:36:26Z</time></trkpt><trkpt lat="38.181034371313956" lon="13.277379802763068"><ele>391.00000000000006</ele><time>2026-03-29T09:36:28Z</time></trkpt><trkpt lat="38.18105669108942" lon="13.277285763444423"><ele>391.0</ele><time>2026-03-29T09:36:29Z</time></trkpt><trkpt lat="38.18108857982117" lon="13.277168676552341"><ele>391.0</ele><time>2026-03-29T09:36:30Z</time></trkpt><trkpt lat="38.1811166398071" lon="13.277046049508703"><ele>391.0</ele><time>2026-03-29T09:36:31Z</time></trkpt><trkpt lat="38.181169834520226" lon="13.276955637379874"><ele>391.00000000000006</ele><time>2026-03-29T09:36:32Z</time></trkpt><trkpt lat="38.181202177731116" lon="13.2768812412917"><ele>391.0</ele><time>2026-03-29T09:36:33Z</time></trkpt><trkpt lat="38.181239894628334" lon="13.276798461685813"><ele>392.00000000000006</ele><time>2026-03-29T09:36:34Z</time></trkpt><trkpt lat="38.18128371713747" lon="13.276707045641416"><ele>393.0</ele><time>2026-03-29T09:36:35Z</time></trkpt><trkpt lat="38.18132387401332" lon="13.276589338185355"><ele>394.0</ele><time>2026-03-29T09:36:36Z</time></trkpt><trkpt lat="38.181374361163876" lon="13.276515632598192"><ele>395.0</ele><time>2026-03-29T09:36:37Z</time></trkpt><trkpt lat="38.18143078171378" lon="13.276422310552052"><ele>396.00000000000006</ele><time>2026-03-29T09:36:38Z</time></trkpt><trkpt lat="38.18148796390716" lon="13.276333492639653"><ele>397.0</ele><time>2026-03-29T09:36:39Z</time></trkpt><trkpt lat="38.18154504901635" lon="13.276269368011015"><ele>397.00000000000006</ele><time>2026-03-29T09:36:40Z</time></trkpt><trkpt lat="38.1816006253821" lon="13.276197530444502"><ele>397.0</ele><time>2026-03-29T09:36:41Z</time></trkpt><trkpt lat="38.18164973620056" lon="13.276125593505641"><ele>397.0</ele><time>2026-03-29T09:36:42Z</time></trkpt><trkpt lat="38.18169007002238" lon="13.276051038298831"><ele>397.0</ele><time>2026-03-29T09:36:43Z</time></trkpt><trkpt lat="38.18174479978165" lon="13.27596569739906"><ele>397.00000000000006</ele><time>2026-03-29T09:36:44Z</time></trkpt><trkpt lat="38.181805814379274" lon="13.275865492541064"><ele>397.0</ele><time>2026-03-29T09:36:45Z</time></trkpt><trkpt lat="38.181861677606484" lon="13.275769530485325"><ele>397.0</ele><time>2026-03-29T09:36:46Z</time></trkpt><trkpt lat="38.18192803919603" lon="13.275677398045953"><ele>397.0</ele><time>2026-03-29T09:36:47Z</time></trkpt><trkpt lat="38.18199503646093" lon="13.275587729170635"><ele>397.0</ele><time>2026-03-29T09:36:48Z</time></trkpt><trkpt lat="38.1820720921221" lon="13.275496783466794"><ele>397.0</ele><time>2026-03-29T09:36:49Z</time></trkpt><trkpt lat="38.182130798584524" lon="13.27541031912818"><ele>397.0</ele><time>2026-03-29T09:36:50Z</time></trkpt><trkpt lat="38.182187708888634" lon="13.275337932359768"><ele>397.20000000000005</ele><time>2026-03-29T09:36:51Z</time></trkpt><trkpt lat="38.18225581197041" lon="13.27524227007355"><ele>397.4</ele><time>2026-03-29T09:36:52Z</time></trkpt><trkpt lat="38.18233722181769" lon="13.275148256775628"><ele>397.6</ele><time>2026-03-29T09:36:53Z</time></trkpt><trkpt lat="38.18242976848352" lon="13.275029097836814"><ele>397.79999999999995</ele><time>2026-03-29T09:36:55Z</time></trkpt><trkpt lat="38.18248734748596" lon="13.274957497800772"><ele>398.0</ele><time>2026-03-29T09:36:56.001Z</time></trkpt><trkpt lat="38.18253748532966" lon="13.27488209023329"><ele>397.99999999999994</ele><time>2026-03-29T09:36:57.001Z</time></trkpt><trkpt lat="38.18257599422945" lon="13.274806850480367"><ele>398.0</ele><time>2026-03-29T09:36:58.001Z</time></trkpt><trkpt lat="38.182616842669916" lon="13.27474165185575"><ele>398.0</ele><time>2026-03-29T09:36:59.001Z</time></trkpt><trkpt lat="38.18266371096819" lon="13.274679068340845"><ele>398.0</ele><time>2026-03-29T09:37:00.001Z</time></trkpt><trkpt lat="38.182716582709375" lon="13.274593893525553"><ele>397.99999999999994</ele><time>2026-03-29T09:37:01.001Z</time></trkpt><trkpt lat="38.18277674908226" lon="13.27449636371227"><ele>398.0</ele><time>2026-03-29T09:37:02.001Z</time></trkpt><trkpt lat="38.18285989328406" lon="13.274398763873569"><ele>398.16666666666663</ele><time>2026-03-29T09:37:03.001Z</time></trkpt><trkpt lat="38.18293217026762" lon="13.274317654258558"><ele>398.3333333333333</ele><time>2026-03-29T09:37:04.001Z</time></trkpt><trkpt lat="38.182996981785664" lon="13.274248558700425"><ele>398.5</ele><time>2026-03-29T09:37:05.001Z</time></trkpt><trkpt lat="38.18306357612285" lon="13.274172891410158"><ele>398.66666666666663</ele><time>2026-03-29T09:37:06.001Z</time></trkpt><trkpt lat="38.18313033238961" lon="13.274111742943363"><ele>398.8333333333333</ele><time>2026-03-29T09:37:07.001Z</time></trkpt><trkpt lat="38.18317761566639" lon="13.274029367723287"><ele>399.0</ele><time>2026-03-29T09:37:08.001Z</time></trkpt><trkpt lat="38.18323577333417" lon="13.273958338638362"><ele>404.79999999999995</ele><time>2026-03-29T09:37:09.001Z</time></trkpt><trkpt lat="38.18329795821967" lon="13.27388366570209"><ele>410.59999999999997</ele><time>2026-03-29T09:37:10.001Z</time></trkpt><trkpt lat="38.183363214234014" lon="13.273802498676535"><ele>416.4</ele><time>2026-03-29T09:37:11.001Z</time></trkpt><trkpt lat="38.18345925528771" lon="13.27371044504992"><ele>422.2</ele><time>2026-03-29T09:37:13.001Z</time></trkpt><trkpt lat="38.183512813747726" lon="13.273641144328622"><ele>428.0</ele><time>2026-03-29T09:37:14.001Z</time></trkpt><trkpt lat="38.18356307960654" lon="13.273567015755978"><ele>428.0</ele><time>2026-03-29T09:37:15.001Z</time></trkpt><trkpt lat="38.1836155464455" lon="13.27347995228433"><ele>427.99999999999994</ele><time>2026-03-29T09:37:16.001Z</time></trkpt><trkpt lat="38.18373666143293" lon="13.27334930695014"><ele>427.99999999999994</ele><time>2026-03-29T09:37:18.001Z</time></trkpt><trkpt lat="38.18379588122437" lon="13.273259276826069"><ele>428.0</ele><time>2026-03-29T09:37:19.001Z</time></trkpt><trkpt lat="38.183851390434334" lon="13.273195292456148"><ele>428.0</ele><time>2026-03-29T09:37:20.001Z</time></trkpt><trkpt lat="38.183931167593414" lon="13.27308681300351"><ele>425.49999999999994</ele><time>2026-03-29T09:37:22.001Z</time></trkpt><trkpt lat="38.18398267196391" lon="13.273012229208987"><ele>423.0</ele><time>2026-03-29T09:37:23.001Z</time></trkpt><trkpt lat="38.18403405459957" lon="13.272949706957506"><ele>420.5</ele><time>2026-03-29T09:37:24.001Z</time></trkpt><trkpt lat="38.18407632596446" lon="13.2728320119254"><ele>418.0</ele><time>2026-03-29T09:37:26.001Z</time></trkpt><trkpt lat="38.184081523779405" lon="13.272746595376946"><ele>415.49999999999994</ele><time>2026-03-29T09:37:28.001Z</time></trkpt><trkpt lat="38.18407311896574" lon="13.272653310927481"><ele>413.0</ele><time>2026-03-29T09:37:30.001Z</time></trkpt><trkpt lat="38.184078628709855" lon="13.272521058599791"><ele>413.0</ele><time>2026-03-29T09:37:32Z</time></trkpt><trkpt lat="38.184133774419124" lon="13.272349718395214"><ele>413.0</ele><time>2026-03-29T09:37:34Z</time></trkpt><trkpt lat="38.184169700487416" lon="13.272240913048108"><ele>413.0</ele><time>2026-03-29T09:37:35Z</time></trkpt><trkpt lat="38.184199989795935" lon="13.272156147207118"><ele>413.0</ele><time>2026-03-29T09:37:36Z</time></trkpt><trkpt lat="38.1842363999629" lon="13.27203507411029"><ele>413.0</ele><time>2026-03-29T09:37:38Z</time></trkpt><trkpt lat="38.18424048862032" lon="13.271954503532067"><ele>416.0</ele><time>2026-03-29T09:37:39Z</time></trkpt><trkpt lat="38.184231038095305" lon="13.271875291626937"><ele>419.0</ele><time>2026-03-29T09:37:40Z</time></trkpt><trkpt lat="38.18422230169371" lon="13.271771969079245"><ele>421.99999999999994</ele><time>2026-03-29T09:37:41Z</time></trkpt><trkpt lat="38.18426757216902" lon="13.271607630695415"><ele>425.0</ele><time>2026-03-29T09:37:43Z</time></trkpt><trkpt lat="38.184309428349195" lon="13.271506550675939"><ele>428.0</ele><time>2026-03-29T09:37:44Z</time></trkpt><trkpt lat="38.18434693352978" lon="13.271417035054663"><ele>432.4</ele><time>2026-03-29T09:37:45Z</time></trkpt><trkpt lat="38.184395207861456" lon="13.271312591318486"><ele>436.79999999999995</ele><time>2026-03-29T09:37:46Z</time></trkpt><trkpt lat="38.184443196835886" lon="13.271214372346181"><ele>441.2</ele><time>2026-03-29T09:37:47Z</time></trkpt><trkpt lat="38.18450867074559" lon="13.271106622028839"><ele>445.6</ele><time>2026-03-29T09:37:48Z</time></trkpt><trkpt lat="38.184574117619285" lon="13.271009458872799"><ele>450.0</ele><time>2026-03-29T09:37:49Z</time></trkpt><trkpt lat="38.1846440998262" lon="13.270913991016894"><ele>450.0</ele><time>2026-03-29T09:37:50Z</time></trkpt><trkpt lat="38.18470412746573" lon="13.270838484275178"><ele>450.0</ele><time>2026-03-29T09:37:51Z</time></trkpt><trkpt lat="38.18479391893598" lon="13.270699124011864"><ele>450.0</ele><time>2026-03-29T09:37:53Z</time></trkpt><trkpt lat="38.18484136866582" lon="13.27062802034515"><ele>450.0</ele><time>2026-03-29T09:37:54Z</time></trkpt><trkpt lat="38.18489018193016" lon="13.270554711119251"><ele>450.0</ele><time>2026-03-29T09:37:55Z</time></trkpt><trkpt lat="38.184960309261584" lon="13.270468402227703"><ele>447.2</ele><time>2026-03-29T09:37:56Z</time></trkpt><trkpt lat="38.185035903645286" lon="13.270366721605566"><ele>444.4</ele><time>2026-03-29T09:37:57Z</time></trkpt><trkpt lat="38.18509603370676" lon="13.270288561293222"><ele>441.6</ele><time>2026-03-29T09:37:58Z</time></trkpt><trkpt lat="38.18515890762132" lon="13.270208130495664"><ele>438.8</ele><time>2026-03-29T09:37:59Z</time></trkpt><trkpt lat="38.185229405423456" lon="13.270123997913888"><ele>436.0</ele><time>2026-03-29T09:38:00Z</time></trkpt><trkpt lat="38.18529024027961" lon="13.270052232554205"><ele>436.00000000000006</ele><time>2026-03-29T09:38:01Z</time></trkpt><trkpt lat="38.18533955158932" lon="13.269998013908413"><ele>436.0</ele><time>2026-03-29T09:38:02Z</time></trkpt><trkpt lat="38.18539481358656" lon="13.269947918775499"><ele>436.0</ele><time>2026-03-29T09:38:03Z</time></trkpt><trkpt lat="38.18545404023526" lon="13.269881070384251"><ele>436.0</ele><time>2026-03-29T09:38:04Z</time></trkpt><trkpt lat="38.18550622820894" lon="13.269807389402626"><ele>436.00000000000006</ele><time>2026-03-29T09:38:05Z</time></trkpt><trkpt lat="38.18555819583566" lon="13.269730243065608"><ele>436.0</ele><time>2026-03-29T09:38:06Z</time></trkpt><trkpt lat="38.18561777709396" lon="13.269641159784307"><ele>431.8</ele><time>2026-03-29T09:38:07Z</time></trkpt><trkpt lat="38.185660919361915" lon="13.269571893220089"><ele>427.6</ele><time>2026-03-29T09:38:08Z</time></trkpt><trkpt lat="38.18575134064226" lon="13.269432203424358"><ele>423.4</ele><time>2026-03-29T09:38:10Z</time></trkpt><trkpt lat="38.18580173625202" lon="13.269345658453895"><ele>419.2</ele><time>2026-03-29T09:38:11Z</time></trkpt><trkpt lat="38.18585555496109" lon="13.26924498978806"><ele>415.0</ele><time>2026-03-29T09:38:12Z</time></trkpt><trkpt lat="38.18589541756453" lon="13.26918065735096"><ele>415.00000000000006</ele><time>2026-03-29T09:38:13Z</time></trkpt><trkpt lat="38.18593709848737" lon="13.269104707909127"><ele>415.0</ele><time>2026-03-29T09:38:14Z</time></trkpt><trkpt lat="38.18599795241703" lon="13.26898781886336"><ele>415.0</ele><time>2026-03-29T09:38:16Z</time></trkpt><trkpt lat="38.18602825522574" lon="13.268908381525325"><ele>415.0</ele><time>2026-03-29T09:38:19Z</time></trkpt><trkpt lat="38.185959635625444" lon="13.268852635778678"><ele>415.00000000000006</ele><time>2026-03-29T09:41:48.998Z</time></trkpt><trkpt lat="38.185899324285415" lon="13.268825866626262"><ele>415.0</ele><time>2026-03-29T09:41:50.998Z</time></trkpt><trkpt lat="38.185824379889354" lon="13.26878055504205"><ele>412.6666666666667</ele><time>2026-03-29T09:41:52.998Z</time></trkpt><trkpt lat="38.1857411791338" lon="13.268707786064224"><ele>410.33333333333337</ele><time>2026-03-29T09:41:54.998Z</time></trkpt><trkpt lat="38.185673514226686" lon="13.268639575575682"><ele>408.0</ele><time>2026-03-29T09:41:56.998Z</time></trkpt><trkpt lat="38.18561469109099" lon="13.268552026239808"><ele>405.66666666666663</ele><time>2026-03-29T09:41:58.998Z</time></trkpt><trkpt lat="38.18557298403606" lon="13.26845655083709"><ele>403.3333333333333</ele><time>2026-03-29T09:42:00.999Z</time></trkpt><trkpt lat="38.185518478765985" lon="13.268376577759355"><ele>401.0</ele><time>2026-03-29T09:42:02.999Z</time></trkpt><trkpt lat="38.18545351731827" lon="13.268298959922037"><ele>404.66666666666663</ele><time>2026-03-29T09:42:05.999Z</time></trkpt><trkpt lat="38.18542119097341" lon="13.268196044469695"><ele>408.3333333333333</ele><time>2026-03-29T09:42:07.999Z</time></trkpt><trkpt lat="38.18540195865771" lon="13.2680881907441"><ele>412.0</ele><time>2026-03-29T09:42:09.999Z</time></trkpt><trkpt lat="38.18534342010584" lon="13.268009739060888"><ele>415.66666666666663</ele><time>2026-03-29T09:42:11.999Z</time></trkpt><trkpt lat="38.18534463631742" lon="13.267864240928038"><ele>419.3333333333333</ele><time>2026-03-29T09:42:15.999Z</time></trkpt><trkpt lat="38.18535891263959" lon="13.267785898536731"><ele>423.0</ele><time>2026-03-29T09:42:17.999Z</time></trkpt><trkpt lat="38.185351738038975" lon="13.267665160987361"><ele>423.0</ele><time>2026-03-29T09:42:19.999Z</time></trkpt><trkpt lat="38.18525684162857" lon="13.26755139071662"><ele>423.0</ele><time>2026-03-29T09:42:22Z</time></trkpt><trkpt lat="38.18520016880112" lon="13.267490944820011"><ele>423.0</ele><time>2026-03-29T09:42:23Z</time></trkpt><trkpt lat="38.18511933801947" lon="13.2674109351876"><ele>423.0</ele><time>2026-03-29T09:42:24Z</time></trkpt><trkpt lat="38.18503311182724" lon="13.267329265825758"><ele>423.0</ele><time>2026-03-29T09:42:25Z</time></trkpt><trkpt lat="38.18495588121962" lon="13.267261602253644"><ele>424.0</ele><time>2026-03-29T09:42:26Z</time></trkpt><trkpt lat="38.18490252459991" lon="13.267189837294184"><ele>425.0</ele><time>2026-03-29T09:42:27Z</time></trkpt><trkpt lat="38.184832645942784" lon="13.267137743792569"><ele>426.0</ele><time>2026-03-29T09:42:28Z</time></trkpt><trkpt lat="38.18476588256002" lon="13.267073593649028"><ele>427.0</ele><time>2026-03-29T09:42:29Z</time></trkpt><trkpt lat="38.184705573173844" lon="13.267006783924009"><ele>428.0</ele><time>2026-03-29T09:42:30Z</time></trkpt><trkpt lat="38.18465295013526" lon="13.266944384177348"><ele>429.0</ele><time>2026-03-29T09:42:31Z</time></trkpt><trkpt lat="38.18458502277155" lon="13.266876901178282"><ele>429.0</ele><time>2026-03-29T09:42:32Z</time></trkpt><trkpt lat="38.18453668216835" lon="13.266792314790234"><ele>429.0</ele><time>2026-03-29T09:42:33Z</time></trkpt><trkpt lat="38.18448641939156" lon="13.266722175811799"><ele>429.0</ele><time>2026-03-29T09:42:34Z</time></trkpt><trkpt lat="38.18442750143327" lon="13.266646787210684"><ele>429.0</ele><time>2026-03-29T09:42:35Z</time></trkpt><trkpt lat="38.18435374667988" lon="13.266588974050464"><ele>429.0</ele><time>2026-03-29T09:42:36Z</time></trkpt><trkpt lat="38.1843026139036" lon="13.266528010406187"><ele>429.0</ele><time>2026-03-29T09:42:37Z</time></trkpt><trkpt lat="38.18417387302712" lon="13.266472994915414"><ele>426.4</ele><time>2026-03-29T09:42:39Z</time></trkpt><trkpt lat="38.18408553358461" lon="13.266414889131644"><ele>423.79999999999995</ele><time>2026-03-29T09:42:40Z</time></trkpt><trkpt lat="38.184017886597715" lon="13.266377502593002"><ele>421.20000000000005</ele><time>2026-03-29T09:42:41Z</time></trkpt><trkpt lat="38.183956117710984" lon="13.266318371122669"><ele>418.6</ele><time>2026-03-29T09:42:42Z</time></trkpt><trkpt lat="38.18386547967562" lon="13.266267314433296"><ele>416.0</ele><time>2026-03-29T09:42:43Z</time></trkpt><trkpt lat="38.18376937059208" lon="13.266208825357463"><ele>416.0</ele><time>2026-03-29T09:42:44Z</time></trkpt><trkpt lat="38.183684137138016" lon="13.266120069429231"><ele>416.0</ele><time>2026-03-29T09:42:45Z</time></trkpt><trkpt lat="38.18357848279734" lon="13.266064868468263"><ele>416.0</ele><time>2026-03-29T09:42:46Z</time></trkpt><trkpt lat="38.183485733745385" lon="13.26599624661924"><ele>416.0</ele><time>2026-03-29T09:42:47Z</time></trkpt><trkpt lat="38.183397568630674" lon="13.265952484865883"><ele>416.0</ele><time>2026-03-29T09:42:48Z</time></trkpt><trkpt lat="38.183308552195605" lon="13.265905928346594"><ele>416.0</ele><time>2026-03-29T09:42:49Z</time></trkpt><trkpt lat="38.18321820433622" lon="13.265846382911846"><ele>416.0</ele><time>2026-03-29T09:42:50Z</time></trkpt><trkpt lat="38.183100507053325" lon="13.265744511033526"><ele>416.0</ele><time>2026-03-29T09:42:51Z</time></trkpt><trkpt lat="38.1829721716362" lon="13.26566383285534"><ele>416.0</ele><time>2026-03-29T09:42:52Z</time></trkpt><trkpt lat="38.182878960949644" lon="13.265565819325365"><ele>414.49999999999994</ele><time>2026-03-29T09:42:53Z</time></trkpt><trkpt lat="38.182781885001965" lon="13.265505783330077"><ele>413.0</ele><time>2026-03-29T09:42:54Z</time></trkpt><trkpt lat="38.18270198856707" lon="13.265446309156852"><ele>411.5</ele><time>2026-03-29T09:42:55Z</time></trkpt><trkpt lat="38.18263346182684" lon="13.26539490132432"><ele>410.0</ele><time>2026-03-29T09:42:56Z</time></trkpt><trkpt lat="38.182573648357" lon="13.265359692780235"><ele>408.49999999999994</ele><time>2026-03-29T09:42:57Z</time></trkpt><trkpt lat="38.18250559533556" lon="13.265347130545914"><ele>407.0</ele><time>2026-03-29T09:42:58Z</time></trkpt><trkpt lat="38.18241617100532" lon="13.265298907242753"><ele>409.16666666666663</ele><time>2026-03-29T09:42:59Z</time></trkpt><trkpt lat="38.18234213466792" lon="13.265279813961397"><ele>411.3333333333333</ele><time>2026-03-29T09:43:00Z</time></trkpt><trkpt lat="38.18225813898234" lon="13.265255292117892"><ele>413.5</ele><time>2026-03-29T09:43:01Z</time></trkpt><trkpt lat="38.18219370200612" lon="13.265225726838027"><ele>415.66666666666663</ele><time>2026-03-29T09:43:02Z</time></trkpt><trkpt lat="38.182112986346574" lon="13.26515776822788"><ele>417.8333333333333</ele><time>2026-03-29T09:43:03Z</time></trkpt><trkpt lat="38.18202462685161" lon="13.26511756290289"><ele>420.0</ele><time>2026-03-29T09:43:04.001Z</time></trkpt><trkpt lat="38.181955536325226" lon="13.265070868498542"><ele>420.0</ele><time>2026-03-29T09:43:05.001Z</time></trkpt><trkpt lat="38.18187163762425" lon="13.26501876015064"><ele>420.0</ele><time>2026-03-29T09:43:06.001Z</time></trkpt><trkpt lat="38.18179377132274" lon="13.264974667417126"><ele>420.0</ele><time>2026-03-29T09:43:07.001Z</time></trkpt><trkpt lat="38.18173889712536" lon="13.264929115549338"><ele>420.0</ele><time>2026-03-29T09:43:08.001Z</time></trkpt><trkpt lat="38.181670388340585" lon="13.264890398961409"><ele>420.0</ele><time>2026-03-29T09:43:09.001Z</time></trkpt><trkpt lat="38.18159117290777" lon="13.264867240265382"><ele>420.0</ele><time>2026-03-29T09:43:10.001Z</time></trkpt><trkpt lat="38.18151545063491" lon="13.264808584073998"><ele>419.3333333333333</ele><time>2026-03-29T09:43:11.001Z</time></trkpt><trkpt lat="38.18143476551035" lon="13.264766132478144"><ele>418.66666666666663</ele><time>2026-03-29T09:43:12.001Z</time></trkpt><trkpt lat="38.18134095558663" lon="13.264740416957267"><ele>418.0</ele><time>2026-03-29T09:43:13.001Z</time></trkpt><trkpt lat="38.18126801126919" lon="13.264709208177825"><ele>417.3333333333333</ele><time>2026-03-29T09:43:14.001Z</time></trkpt><trkpt lat="38.18119098687994" lon="13.264669386673495"><ele>416.66666666666663</ele><time>2026-03-29T09:43:15.001Z</time></trkpt><trkpt lat="38.18110096458033" lon="13.264635788146029"><ele>416.0</ele><time>2026-03-29T09:43:16.001Z</time></trkpt><trkpt lat="38.181020964253655" lon="13.264570206293046"><ele>415.99999999999994</ele><time>2026-03-29T09:43:17.001Z</time></trkpt><trkpt lat="38.180945193166906" lon="13.264512204505174"><ele>416.0</ele><time>2026-03-29T09:43:18.001Z</time></trkpt><trkpt lat="38.18088532796659" lon="13.26445826189739"><ele>416.0</ele><time>2026-03-29T09:43:19.001Z</time></trkpt><trkpt lat="38.18081185784868" lon="13.264391586902113"><ele>416.0</ele><time>2026-03-29T09:43:20.001Z</time></trkpt><trkpt lat="38.18075140895894" lon="13.264345462490292"><ele>415.99999999999994</ele><time>2026-03-29T09:43:21.001Z</time></trkpt><trkpt lat="38.1806505546326" lon="13.264281133067632"><ele>416.0</ele><time>2026-03-29T09:43:22.001Z</time></trkpt><trkpt lat="38.18055874665795" lon="13.264229450588132"><ele>416.66666666666663</ele><time>2026-03-29T09:43:23.001Z</time></trkpt><trkpt lat="38.18048024782471" lon="13.264184962062384"><ele>417.3333333333333</ele><time>2026-03-29T09:43:24.001Z</time></trkpt><trkpt lat="38.18041152437479" lon="13.26414304879855"><ele>418.0</ele><time>2026-03-29T09:43:25.001Z</time></trkpt><trkpt lat="38.18030887166496" lon="13.264070955389055"><ele>418.66666666666663</ele><time>2026-03-29T09:43:27.001Z</time></trkpt><trkpt lat="38.18024333396888" lon="13.264019261516692"><ele>419.3333333333333</ele><time>2026-03-29T09:43:29.001Z</time></trkpt><trkpt lat="38.180177476489746" lon="13.263956206429667"><ele>420.0</ele><time>2026-03-29T09:43:31.001Z</time></trkpt><trkpt lat="38.180108444717796" lon="13.26387867788039"><ele>420.0</ele><time>2026-03-29T09:43:33.001Z</time></trkpt><trkpt lat="38.18005549283168" lon="13.263830694856495"><ele>420.0</ele><time>2026-03-29T09:43:35.001Z</time></trkpt><trkpt lat="38.179963819257345" lon="13.263690058534"><ele>420.0</ele><time>2026-03-29T09:43:37.001Z</time></trkpt><trkpt lat="38.17989303868084" lon="13.263608148892589"><ele>420.0</ele><time>2026-03-29T09:43:39.001Z</time></trkpt><trkpt lat="38.17979465257669" lon="13.263468873980267"><ele>422.2</ele><time>2026-03-29T09:43:41.001Z</time></trkpt><trkpt lat="38.179756053812326" lon="13.26338775358856"><ele>424.4</ele><time>2026-03-29T09:43:42.001Z</time></trkpt><trkpt lat="38.179681303459446" lon="13.263269989587348"><ele>426.6</ele><time>2026-03-29T09:43:44.001Z</time></trkpt><trkpt lat="38.17961711005919" lon="13.263199187077447"><ele>428.8</ele><time>2026-03-29T09:43:45.001Z</time></trkpt><trkpt lat="38.17954367840221" lon="13.263085893579595"><ele>431.0</ele><time>2026-03-29T09:43:46.001Z</time></trkpt><trkpt lat="38.179469793257375" lon="13.262975329177856"><ele>430.99999999999994</ele><time>2026-03-29T09:43:47.001Z</time></trkpt><trkpt lat="38.179414227499635" lon="13.262868399271449"><ele>431.0</ele><time>2026-03-29T09:43:48.001Z</time></trkpt><trkpt lat="38.1793644729409" lon="13.262785020525483"><ele>431.0</ele><time>2026-03-29T09:43:48.999Z</time></trkpt><trkpt lat="38.1793087967311" lon="13.26272450865089"><ele>431.0</ele><time>2026-03-29T09:43:49.999Z</time></trkpt><trkpt lat="38.17927070447031" lon="13.262652212107968"><ele>430.99999999999994</ele><time>2026-03-29T09:43:50.999Z</time></trkpt><trkpt lat="38.17921534288167" lon="13.262588952024265"><ele>431.0</ele><time>2026-03-29T09:43:51.999Z</time></trkpt><trkpt lat="38.17914330376365" lon="13.262448642478736"><ele>431.0</ele><time>2026-03-29T09:43:52.999Z</time></trkpt><trkpt lat="38.17907547452972" lon="13.262333687725418"><ele>431.0</ele><time>2026-03-29T09:43:53.999Z</time></trkpt><trkpt lat="38.17903054558708" lon="13.262242976872693"><ele>431.0</ele><time>2026-03-29T09:43:54.999Z</time></trkpt><trkpt lat="38.17900563344369" lon="13.26216772354134"><ele>431.0</ele><time>2026-03-29T09:43:55.999Z</time></trkpt><trkpt lat="38.17893437300713" lon="13.262065889106104"><ele>431.0</ele><time>2026-03-29T09:43:56.999Z</time></trkpt><trkpt lat="38.178878252281805" lon="13.261970271438882"><ele>432.99999999999994</ele><time>2026-03-29T09:43:57.999Z</time></trkpt><trkpt lat="38.17885102536505" lon="13.261821431634926"><ele>435.0</ele><time>2026-03-29T09:43:59.999Z</time></trkpt><trkpt lat="38.17881577419075" lon="13.261718275074413"><ele>437.0</ele><time>2026-03-29T09:44:01.999Z</time></trkpt><trkpt lat="38.178831569055795" lon="13.261637466160053"><ele>439.0</ele><time>2026-03-29T09:44:02.999Z</time></trkpt><trkpt lat="38.17885741908124" lon="13.261560882058602"><ele>440.99999999999994</ele><time>2026-03-29T09:44:03.999Z</time></trkpt><trkpt lat="38.17890301378636" lon="13.261465027477474"><ele>443.0</ele><time>2026-03-29T09:44:04.999Z</time></trkpt><trkpt lat="38.17893762650335" lon="13.261377217488775"><ele>443.4</ele><time>2026-03-29T09:44:05.999Z</time></trkpt><trkpt lat="38.1789660360916" lon="13.261288212440492"><ele>443.79999999999995</ele><time>2026-03-29T09:44:06.999Z</time></trkpt><trkpt lat="38.17901534670751" lon="13.26111933555354"><ele>444.2</ele><time>2026-03-29T09:44:09Z</time></trkpt><trkpt lat="38.17904966264404" lon="13.261029303603769"><ele>444.6</ele><time>2026-03-29T09:44:10Z</time></trkpt><trkpt lat="38.179062522196936" lon="13.260921619671379"><ele>445.0</ele><time>2026-03-29T09:44:11Z</time></trkpt><trkpt lat="38.179120392225045" lon="13.260826423621486"><ele>444.8</ele><time>2026-03-29T09:44:12Z</time></trkpt><trkpt lat="38.17916200585976" lon="13.260740172920832"><ele>444.6</ele><time>2026-03-29T09:44:13Z</time></trkpt><trkpt lat="38.17923375851854" lon="13.260614376660648"><ele>444.4</ele><time>2026-03-29T09:44:15Z</time></trkpt><trkpt lat="38.179288374994144" lon="13.260557599701261"><ele>444.2</ele><time>2026-03-29T09:44:16Z</time></trkpt><trkpt lat="38.179366870316485" lon="13.260502709365209"><ele>444.0</ele><time>2026-03-29T09:44:17Z</time></trkpt><trkpt lat="38.17945558764878" lon="13.260473169814722"><ele>444.0</ele><time>2026-03-29T09:44:18Z</time></trkpt><trkpt lat="38.17955502718571" lon="13.260454544934873"><ele>444.0</ele><time>2026-03-29T09:44:19Z</time></trkpt><trkpt lat="38.17965078103577" lon="13.260441115022772"><ele>444.0</ele><time>2026-03-29T09:44:20Z</time></trkpt><trkpt lat="38.17972583486985" lon="13.26040160328578"><ele>444.0</ele><time>2026-03-29T09:44:21Z</time></trkpt><trkpt lat="38.17981673849204" lon="13.260399134847317"><ele>444.0</ele><time>2026-03-29T09:44:22Z</time></trkpt><trkpt lat="38.179893091749136" lon="13.260387504936123"><ele>444.0</ele><time>2026-03-29T09:44:23Z</time></trkpt><trkpt lat="38.18005799321242" lon="13.260362135215852"><ele>443.8333333333333</ele><time>2026-03-29T09:44:25Z</time></trkpt><trkpt lat="38.1801613286971" lon="13.26035900311627"><ele>443.66666666666663</ele><time>2026-03-29T09:44:26Z</time></trkpt><trkpt lat="38.18026168582371" lon="13.260341651703863"><ele>443.5</ele><time>2026-03-29T09:44:27Z</time></trkpt><trkpt lat="38.18033542958583" lon="13.260354795789997"><ele>443.3333333333333</ele><time>2026-03-29T09:44:29Z</time></trkpt><trkpt lat="38.180367621553486" lon="13.260252520448832"><ele>443.16666666666663</ele><time>2026-03-29T09:44:32Z</time></trkpt><trkpt lat="38.18030647922427" lon="13.260210416441005"><ele>443.0</ele><time>2026-03-29T09:44:34Z</time></trkpt><trkpt lat="38.1802052469108" lon="13.260207965136615"><ele>442.99999999999994</ele><time>2026-03-29T09:44:36Z</time></trkpt><trkpt lat="38.180073484052755" lon="13.260180716084555"><ele>443.0</ele><time>2026-03-29T09:44:38Z</time></trkpt><trkpt lat="38.17999975004044" lon="13.26014981557936"><ele>443.0</ele><time>2026-03-29T09:44:39Z</time></trkpt><trkpt lat="38.1799165057507" lon="13.260109224645232"><ele>443.0</ele><time>2026-03-29T09:44:40Z</time></trkpt><trkpt lat="38.17986235105961" lon="13.260053715861924"><ele>442.99999999999994</ele><time>2026-03-29T09:44:41Z</time></trkpt><trkpt lat="38.17979593824992" lon="13.260014326770897"><ele>443.0</ele><time>2026-03-29T09:44:42Z</time></trkpt><trkpt lat="38.17971197667331" lon="13.259967250537374"><ele>443.2</ele><time>2026-03-29T09:44:43.001Z</time></trkpt><trkpt lat="38.179618798220375" lon="13.2599228973335"><ele>443.4</ele><time>2026-03-29T09:44:44.001Z</time></trkpt><trkpt lat="38.179539943827514" lon="13.259888672594544"><ele>443.59999999999997</ele><time>2026-03-29T09:44:45.001Z</time></trkpt><trkpt lat="38.17944234872151" lon="13.259834373509289"><ele>443.79999999999995</ele><time>2026-03-29T09:44:46.001Z</time></trkpt><trkpt lat="38.17935954297097" lon="13.25976856063033"><ele>444.0</ele><time>2026-03-29T09:44:47.001Z</time></trkpt><trkpt lat="38.17928635482204" lon="13.259709578083523"><ele>447.4</ele><time>2026-03-29T09:44:48.001Z</time></trkpt><trkpt lat="38.17919778493929" lon="13.259632880432452"><ele>450.79999999999995</ele><time>2026-03-29T09:44:49.001Z</time></trkpt><trkpt lat="38.179110296264064" lon="13.259538067369466"><ele>454.20000000000005</ele><time>2026-03-29T09:44:50.001Z</time></trkpt><trkpt lat="38.1790365638439" lon="13.25946955362459"><ele>457.6</ele><time>2026-03-29T09:44:51.001Z</time></trkpt><trkpt lat="38.17896878780238" lon="13.259410164467214"><ele>461.0</ele><time>2026-03-29T09:44:52.001Z</time></trkpt><trkpt lat="38.17890557186262" lon="13.259355619818244"><ele>460.99999999999994</ele><time>2026-03-29T09:44:53.001Z</time></trkpt><trkpt lat="38.17884112606034" lon="13.25928300360565"><ele>461.0</ele><time>2026-03-29T09:44:54.001Z</time></trkpt><trkpt lat="38.178771027204036" lon="13.259219161768131"><ele>461.0</ele><time>2026-03-29T09:44:55.001Z</time></trkpt><trkpt lat="38.1787022107563" lon="13.259149644685964"><ele>461.0</ele><time>2026-03-29T09:44:56.001Z</time></trkpt><trkpt lat="38.17864267943907" lon="13.259097330411905"><ele>460.99999999999994</ele><time>2026-03-29T09:44:57.001Z</time></trkpt><trkpt lat="38.178549830807874" lon="13.25905518148521"><ele>461.0</ele><time>2026-03-29T09:44:58.001Z</time></trkpt><trkpt lat="38.17845789733427" lon="13.259007656462533"><ele>462.6</ele><time>2026-03-29T09:45:00.001Z</time></trkpt><trkpt lat="38.17840402570673" lon="13.2589158671453"><ele>464.20000000000005</ele><time>2026-03-29T09:45:01.001Z</time></trkpt><trkpt lat="38.17832901781192" lon="13.258833414420996"><ele>465.79999999999995</ele><time>2026-03-29T09:45:02.001Z</time></trkpt><trkpt lat="38.178252499012224" lon="13.258725904212211"><ele>467.4</ele><time>2026-03-29T09:45:03.001Z</time></trkpt><trkpt lat="38.17819977526252" lon="13.258626167923946"><ele>469.0</ele><time>2026-03-29T09:45:04.001Z</time></trkpt><trkpt lat="38.17813528643869" lon="13.258554607136649"><ele>469.0</ele><time>2026-03-29T09:45:05.001Z</time></trkpt><trkpt lat="38.178070779276446" lon="13.258475211037299"><ele>469.0</ele><time>2026-03-29T09:45:06.001Z</time></trkpt><trkpt lat="38.17799989935726" lon="13.25839489123783"><ele>469.0</ele><time>2026-03-29T09:45:08.001Z</time></trkpt><trkpt lat="38.17794470821377" lon="13.258337057787315"><ele>469.0</ele><time>2026-03-29T09:45:10.001Z</time></trkpt><trkpt lat="38.177867468135034" lon="13.258242589466732"><ele>469.0</ele><time>2026-03-29T09:45:12.001Z</time></trkpt><trkpt lat="38.177801341904434" lon="13.258168415677043"><ele>469.6666666666667</ele><time>2026-03-29T09:45:13.001Z</time></trkpt><trkpt lat="38.17774072639824" lon="13.258066318044227"><ele>470.33333333333337</ele><time>2026-03-29T09:45:14.001Z</time></trkpt><trkpt lat="38.17766584674431" lon="13.25794810967399"><ele>471.0</ele><time>2026-03-29T09:45:16.001Z</time></trkpt><trkpt lat="38.17762113140301" lon="13.257871641162884"><ele>471.66666666666663</ele><time>2026-03-29T09:45:17.001Z</time></trkpt><trkpt lat="38.17759625236386" lon="13.257794521267929"><ele>472.3333333333333</ele><time>2026-03-29T09:45:18.001Z</time></trkpt><trkpt lat="38.17757869700985" lon="13.257716117253764"><ele>473.0</ele><time>2026-03-29T09:45:19.001Z</time></trkpt><trkpt lat="38.17754767876514" lon="13.257580989289282"><ele>473.0</ele><time>2026-03-29T09:45:21.001Z</time></trkpt><trkpt lat="38.17752351220879" lon="13.257448677164877"><ele>473.0</ele><time>2026-03-29T09:45:23.001Z</time></trkpt><trkpt lat="38.17750342265137" lon="13.25729276043752"><ele>473.0</ele><time>2026-03-29T09:45:25.001Z</time></trkpt><trkpt lat="38.17748241564217" lon="13.257148284140278"><ele>473.0</ele><time>2026-03-29T09:45:27.002Z</time></trkpt><trkpt lat="38.177432237149496" lon="13.257002154196687"><ele>474.0</ele><time>2026-03-29T09:45:29.002Z</time></trkpt><trkpt lat="38.17738671198758" lon="13.256926543429664"><ele>474.99999999999994</ele><time>2026-03-29T09:45:30.002Z</time></trkpt><trkpt lat="38.177354226008525" lon="13.256833093378582"><ele>475.99999999999994</ele><time>2026-03-29T09:45:31.002Z</time></trkpt><trkpt lat="38.17729102678345" lon="13.256675488026383"><ele>477.0</ele><time>2026-03-29T09:45:32.002Z</time></trkpt><trkpt lat="38.17724156029562" lon="13.256573400817452"><ele>478.0</ele><time>2026-03-29T09:45:33.002Z</time></trkpt><trkpt lat="38.17721247604707" lon="13.256495361456471"><ele>479.50000000000006</ele><time>2026-03-29T09:45:34.002Z</time></trkpt><trkpt lat="38.17717766256195" lon="13.256418730184325"><ele>481.0</ele><time>2026-03-29T09:45:35.002Z</time></trkpt><trkpt lat="38.177126183600386" lon="13.256322293589866"><ele>482.5</ele><time>2026-03-29T09:45:37.002Z</time></trkpt><trkpt lat="38.17707456023078" lon="13.25626798239812"><ele>484.0</ele><time>2026-03-29T09:45:39.002Z</time></trkpt><trkpt lat="38.17698870462414" lon="13.256284962374325"><ele>485.50000000000006</ele><time>2026-03-29T09:45:41.002Z</time></trkpt><trkpt lat="38.176949784511926" lon="13.256349933944396"><ele>487.0</ele><time>2026-03-29T09:45:42.002Z</time></trkpt><trkpt lat="38.176950723125046" lon="13.256448249028882"><ele>488.0</ele><time>2026-03-29T09:45:43.002Z</time></trkpt><trkpt lat="38.176918443720965" lon="13.256591487902876"><ele>489.00000000000006</ele><time>2026-03-29T09:45:45.002Z</time></trkpt><trkpt lat="38.17690802976398" lon="13.256736653951839"><ele>490.00000000000006</ele><time>2026-03-29T09:45:47.002Z</time></trkpt><trkpt lat="38.176892982091594" lon="13.256861192296753"><ele>491.0</ele><time>2026-03-29T09:45:49.002Z</time></trkpt><trkpt lat="38.17687892428386" lon="13.256961753620427"><ele>492.0</ele><time>2026-03-29T09:45:51.002Z</time></trkpt><trkpt lat="38.17686788208236" lon="13.2570816738377"><ele>492.0</ele><time>2026-03-29T09:45:53.002Z</time></trkpt><trkpt lat="38.17684456297324" lon="13.25720637609685"><ele>492.00000000000006</ele><time>2026-03-29T09:45:55Z</time></trkpt><trkpt lat="38.17680564101993" lon="13.257341423380113"><ele>492.00000000000006</ele><time>2026-03-29T09:45:57Z</time></trkpt><trkpt lat="38.17677917022434" lon="13.25746118898204"><ele>492.0</ele><time>2026-03-29T09:45:59Z</time></trkpt><trkpt lat="38.176741767440724" lon="13.257572286822068"><ele>492.0</ele><time>2026-03-29T09:46:01Z</time></trkpt><trkpt lat="38.176691502417256" lon="13.257689358939729"><ele>491.8</ele><time>2026-03-29T09:46:03Z</time></trkpt><trkpt lat="38.17665069257275" lon="13.257796359989278"><ele>491.6</ele><time>2026-03-29T09:46:05Z</time></trkpt><trkpt lat="38.17658473937173" lon="13.257907675157988"><ele>491.40000000000003</ele><time>2026-03-29T09:46:07Z</time></trkpt><trkpt lat="38.17650195134884" lon="13.258031231662505"><ele>491.20000000000005</ele><time>2026-03-29T09:46:09Z</time></trkpt><trkpt lat="38.17645325358398" lon="13.258090786363683"><ele>491.0</ele><time>2026-03-29T09:46:10Z</time></trkpt><trkpt lat="38.176379348844435" lon="13.2581774496274"><ele>494.4</ele><time>2026-03-29T09:46:12Z</time></trkpt><trkpt lat="38.176297371870525" lon="13.258272461098617"><ele>497.8</ele><time>2026-03-29T09:46:14Z</time></trkpt><trkpt lat="38.176229898153466" lon="13.258352799247135"><ele>501.19999999999993</ele><time>2026-03-29T09:46:16Z</time></trkpt><trkpt lat="38.176161750435355" lon="13.258433160174922"><ele>504.59999999999997</ele><time>2026-03-29T09:46:18Z</time></trkpt><trkpt lat="38.17608532278908" lon="13.258513398592836"><ele>508.0</ele><time>2026-03-29T09:46:20Z</time></trkpt><trkpt lat="38.17602690672728" lon="13.258569308952337"><ele>508.0</ele><time>2026-03-29T09:46:22Z</time></trkpt><trkpt lat="38.17594134212276" lon="13.258626084929446"><ele>507.99999999999994</ele><time>2026-03-29T09:46:24.001Z</time></trkpt><trkpt lat="38.17585974623058" lon="13.258698570108796"><ele>507.99999999999994</ele><time>2026-03-29T09:46:26.001Z</time></trkpt><trkpt lat="38.17579366808386" lon="13.258756994664575"><ele>508.0</ele><time>2026-03-29T09:46:28.001Z</time></trkpt><trkpt lat="38.1757313241786" lon="13.258812117508489"><ele>508.0</ele><time>2026-03-29T09:46:30.001Z</time></trkpt><trkpt lat="38.17564196295481" lon="13.258894011552764"><ele>509.2</ele><time>2026-03-29T09:46:32.001Z</time></trkpt><trkpt lat="38.17558204030699" lon="13.258974540558453"><ele>510.4</ele><time>2026-03-29T09:46:33.001Z</time></trkpt><trkpt lat="38.17549678612511" lon="13.259059394109858"><ele>511.59999999999997</ele><time>2026-03-29T09:46:34.001Z</time></trkpt><trkpt lat="38.175412500623466" lon="13.259154258764116"><ele>512.8</ele><time>2026-03-29T09:46:35.001Z</time></trkpt><trkpt lat="38.175327212962756" lon="13.259243847972668"><ele>514.0</ele><time>2026-03-29T09:46:36.001Z</time></trkpt><trkpt lat="38.1752364966866" lon="13.259355213513064"><ele>514.0</ele><time>2026-03-29T09:46:37.001Z</time></trkpt><trkpt lat="38.17515773830139" lon="13.259447723205033"><ele>514.0</ele><time>2026-03-29T09:46:38.001Z</time></trkpt><trkpt lat="38.17508674383806" lon="13.259545948288038"><ele>514.0</ele><time>2026-03-29T09:46:39.001Z</time></trkpt><trkpt lat="38.175023079435775" lon="13.259640353522265"><ele>514.0</ele><time>2026-03-29T09:46:40.001Z</time></trkpt><trkpt lat="38.174977264329925" lon="13.259704888400012"><ele>514.0</ele><time>2026-03-29T09:46:41.001Z</time></trkpt><trkpt lat="38.17492108450751" lon="13.259771334108294"><ele>513.1666666666667</ele><time>2026-03-29T09:46:43.001Z</time></trkpt><trkpt lat="38.17486033248195" lon="13.25985878288372"><ele>512.3333333333334</ele><time>2026-03-29T09:46:45.001Z</time></trkpt><trkpt lat="38.17481548913364" lon="13.259940698603568"><ele>511.5</ele><time>2026-03-29T09:46:46.001Z</time></trkpt><trkpt lat="38.17477265295857" lon="13.26003421932768"><ele>510.66666666666663</ele><time>2026-03-29T09:46:47.001Z</time></trkpt><trkpt lat="38.17473615335592" lon="13.260133393213254"><ele>509.8333333333333</ele><time>2026-03-29T09:46:48.001Z</time></trkpt><trkpt lat="38.174705130742915" lon="13.26023239896081"><ele>509.0</ele><time>2026-03-29T09:46:49.001Z</time></trkpt><trkpt lat="38.17467336940094" lon="13.260333762381835"><ele>513.6</ele><time>2026-03-29T09:46:50.001Z</time></trkpt><trkpt lat="38.17462880128922" lon="13.260457905442802"><ele>518.2</ele><time>2026-03-29T09:46:52.001Z</time></trkpt><trkpt lat="38.17462204690989" lon="13.26036310186031"><ele>522.8000000000001</ele><time>2026-03-29T09:46:59.001Z</time></trkpt><trkpt lat="38.17460670990529" lon="13.26025875840232"><ele>527.4</ele><time>2026-03-29T09:47:00.001Z</time></trkpt><trkpt lat="38.17457942032796" lon="13.260118470121855"><ele>532.0</ele><time>2026-03-29T09:47:01.001Z</time></trkpt><trkpt lat="38.17459453585695" lon="13.259987809890612"><ele>532.0</ele><time>2026-03-29T09:47:02.001Z</time></trkpt><trkpt lat="38.1745953945096" lon="13.25988439454281"><ele>532.0</ele><time>2026-03-29T09:47:03.001Z</time></trkpt><trkpt lat="38.17459929775533" lon="13.259787242633411"><ele>532.0</ele><time>2026-03-29T09:47:04.001Z</time></trkpt><trkpt lat="38.17459921817594" lon="13.25969700695496"><ele>532.0</ele><time>2026-03-29T09:47:05.001Z</time></trkpt><trkpt lat="38.1746062443972" lon="13.259592710784853"><ele>532.0</ele><time>2026-03-29T09:47:06.001Z</time></trkpt><trkpt lat="38.17463810911529" lon="13.259434057472243"><ele>532.0</ele><time>2026-03-29T09:47:08.001Z</time></trkpt><trkpt lat="38.174681302822414" lon="13.25933744636407"><ele>532.8333333333334</ele><time>2026-03-29T09:47:09.001Z</time></trkpt><trkpt lat="38.17472092443321" lon="13.259226362840637"><ele>533.6666666666667</ele><time>2026-03-29T09:47:10.001Z</time></trkpt><trkpt lat="38.174776329028006" lon="13.259154411680893"><ele>534.5</ele><time>2026-03-29T09:47:11.002Z</time></trkpt><trkpt lat="38.17482045782044" lon="13.259090567299799"><ele>535.3333333333334</ele><time>2026-03-29T09:47:12.002Z</time></trkpt><trkpt lat="38.17485587842758" lon="13.25899769696897"><ele>536.1666666666666</ele><time>2026-03-29T09:47:13.002Z</time></trkpt><trkpt lat="38.174906727822254" lon="13.258913921984568"><ele>537.0</ele><time>2026-03-29T09:47:14.002Z</time></trkpt><trkpt lat="38.17496368766331" lon="13.258835508405726"><ele>535.3333333333334</ele><time>2026-03-29T09:47:15.002Z</time></trkpt><trkpt lat="38.17502265258939" lon="13.258762091325531"><ele>533.6666666666666</ele><time>2026-03-29T09:47:16.002Z</time></trkpt><trkpt lat="38.17508639871821" lon="13.258699678839521"><ele>532.0</ele><time>2026-03-29T09:47:17.002Z</time></trkpt><trkpt lat="38.175148413771794" lon="13.258620671463277"><ele>530.3333333333333</ele><time>2026-03-29T09:47:18.002Z</time></trkpt><trkpt lat="38.17521160784214" lon="13.258533429113065"><ele>528.6666666666666</ele><time>2026-03-29T09:47:19.002Z</time></trkpt><trkpt lat="38.17527291424726" lon="13.258442190918291"><ele>527.0</ele><time>2026-03-29T09:47:20.002Z</time></trkpt><trkpt lat="38.1753251208478" lon="13.258350666288072"><ele>527.0</ele><time>2026-03-29T09:47:21.002Z</time></trkpt><trkpt lat="38.17538883058843" lon="13.25825305868348"><ele>527.0</ele><time>2026-03-29T09:47:22.002Z</time></trkpt><trkpt lat="38.17544537999086" lon="13.258160805130746"><ele>527.0</ele><time>2026-03-29T09:47:23.002Z</time></trkpt><trkpt lat="38.17549167307406" lon="13.258085799610328"><ele>527.0</ele><time>2026-03-29T09:47:24.002Z</time></trkpt><trkpt lat="38.17553798579346" lon="13.258027790691774"><ele>527.0</ele><time>2026-03-29T09:47:25.002Z</time></trkpt><trkpt lat="38.175574641512" lon="13.257933074577153"><ele>527.0</ele><time>2026-03-29T09:47:26.002Z</time></trkpt><trkpt lat="38.17561219769832" lon="13.257854144798785"><ele>526.1666666666666</ele><time>2026-03-29T09:47:27.002Z</time></trkpt><trkpt lat="38.175632476868614" lon="13.257765604034473"><ele>525.3333333333333</ele><time>2026-03-29T09:47:28.002Z</time></trkpt><trkpt lat="38.175660552430905" lon="13.257685697907297"><ele>524.5</ele><time>2026-03-29T09:47:29.002Z</time></trkpt><trkpt lat="38.17569330899208" lon="13.257528037139483"><ele>523.6666666666666</ele><time>2026-03-29T09:47:31.002Z</time></trkpt><trkpt lat="38.17572503009594" lon="13.25743604383773"><ele>522.8333333333334</ele><time>2026-03-29T09:47:32.002Z</time></trkpt><trkpt lat="38.17573078357155" lon="13.257351169090674"><ele>522.0</ele><time>2026-03-29T09:47:33.002Z</time></trkpt><trkpt lat="38.175738867709384" lon="13.257247927464805"><ele>522.0</ele><time>2026-03-29T09:47:34.002Z</time></trkpt><trkpt lat="38.17576597903672" lon="13.257148097986851"><ele>522.0</ele><time>2026-03-29T09:47:35.002Z</time></trkpt><trkpt lat="38.17575868259351" lon="13.25706106235356"><ele>522.0</ele><time>2026-03-29T09:47:36.002Z</time></trkpt><trkpt lat="38.17577212767707" lon="13.256954155853524"><ele>522.0</ele><time>2026-03-29T09:47:37.002Z</time></trkpt><trkpt lat="38.175781558090044" lon="13.256851367622648"><ele>522.0</ele><time>2026-03-29T09:47:38.002Z</time></trkpt><trkpt lat="38.17579137483095" lon="13.256738548193635"><ele>522.0</ele><time>2026-03-29T09:47:39.002Z</time></trkpt><trkpt lat="38.175793524096704" lon="13.256653931048287"><ele>522.0</ele><time>2026-03-29T09:47:40.002Z</time></trkpt><trkpt lat="38.17578746445158" lon="13.25655398670913"><ele>522.0</ele><time>2026-03-29T09:47:41.002Z</time></trkpt><trkpt lat="38.175770298663295" lon="13.256405200221742"><ele>522.0</ele><time>2026-03-29T09:47:43.002Z</time></trkpt><trkpt lat="38.175718692495764" lon="13.256229212441164"><ele>522.0</ele><time>2026-03-29T09:47:45.002Z</time></trkpt><trkpt lat="38.175702794020914" lon="13.256132368906856"><ele>522.0</ele><time>2026-03-29T09:47:46.002Z</time></trkpt><trkpt lat="38.17568212226351" lon="13.256052217837624"><ele>525.0</ele><time>2026-03-29T09:47:47.002Z</time></trkpt><trkpt lat="38.175653735175615" lon="13.255958720911691"><ele>528.0</ele><time>2026-03-29T09:47:48.002Z</time></trkpt><trkpt lat="38.17563242106986" lon="13.25582664554783"><ele>531.0</ele><time>2026-03-29T09:47:49.002Z</time></trkpt><trkpt lat="38.175586227249916" lon="13.255717418994331"><ele>534.0</ele><time>2026-03-29T09:47:50.002Z</time></trkpt><trkpt lat="38.17555345640105" lon="13.255610168238452"><ele>537.0</ele><time>2026-03-29T09:47:51.002Z</time></trkpt><trkpt lat="38.175528971203185" lon="13.255520352178388"><ele>540.0</ele><time>2026-03-29T09:47:52.002Z</time></trkpt><trkpt lat="38.175495808884754" lon="13.255426290318459"><ele>540.0</ele><time>2026-03-29T09:47:53.002Z</time></trkpt><trkpt lat="38.17546346784305" lon="13.25532607101861"><ele>540.0</ele><time>2026-03-29T09:47:54.003Z</time></trkpt><trkpt lat="38.17543273452252" lon="13.25523682774808"><ele>540.0</ele><time>2026-03-29T09:47:55.002Z</time></trkpt><trkpt lat="38.175396044265824" lon="13.255150323505672"><ele>540.0</ele><time>2026-03-29T09:47:56.003Z</time></trkpt><trkpt lat="38.17536842184301" lon="13.255075817703856"><ele>540.0</ele><time>2026-03-29T09:47:57.003Z</time></trkpt><trkpt lat="38.17530993804699" lon="13.254923545922422"><ele>540.0</ele><time>2026-03-29T09:47:59.003Z</time></trkpt><trkpt lat="38.175253726361355" lon="13.254748088300257"><ele>538.1666666666666</ele><time>2026-03-29T09:48:01.001Z</time></trkpt><trkpt lat="38.17522008326932" lon="13.254665571409664"><ele>536.3333333333334</ele><time>2026-03-29T09:48:02.001Z</time></trkpt><trkpt lat="38.17517988785564" lon="13.254573257246074"><ele>534.5</ele><time>2026-03-29T09:48:03.001Z</time></trkpt><trkpt lat="38.17513099742354" lon="13.254503133362462"><ele>532.6666666666667</ele><time>2026-03-29T09:48:04.001Z</time></trkpt><trkpt lat="38.1750962435693" lon="13.25438550203879"><ele>530.8333333333334</ele><time>2026-03-29T09:48:05.001Z</time></trkpt><trkpt lat="38.17504947664283" lon="13.254293267477001"><ele>529.0</ele><time>2026-03-29T09:48:06.001Z</time></trkpt><trkpt lat="38.175007136277884" lon="13.254213036934148"><ele>529.0</ele><time>2026-03-29T09:48:07.001Z</time></trkpt><trkpt lat="38.17496562402102" lon="13.254138171770661"><ele>529.0</ele><time>2026-03-29T09:48:08.001Z</time></trkpt><trkpt lat="38.17492464715379" lon="13.254071921463396"><ele>529.0</ele><time>2026-03-29T09:48:09.001Z</time></trkpt><trkpt lat="38.17485122038522" lon="13.25396263238581"><ele>529.0</ele><time>2026-03-29T09:48:11.001Z</time></trkpt><trkpt lat="38.1747928943508" lon="13.253885629088966"><ele>529.0</ele><time>2026-03-29T09:48:12.001Z</time></trkpt><trkpt lat="38.17473827196414" lon="13.253820545814092"><ele>529.0</ele><time>2026-03-29T09:48:13.001Z</time></trkpt><trkpt lat="38.17467481670725" lon="13.253753580172598"><ele>530.6666666666667</ele><time>2026-03-29T09:48:14.001Z</time></trkpt><trkpt lat="38.17461547634741" lon="13.253694836093318"><ele>532.3333333333334</ele><time>2026-03-29T09:48:15.001Z</time></trkpt><trkpt lat="38.17456111019126" lon="13.25364542002411"><ele>534.0</ele><time>2026-03-29T09:48:16.001Z</time></trkpt><trkpt lat="38.17449212703106" lon="13.253585015777585"><ele>535.6666666666666</ele><time>2026-03-29T09:48:17.001Z</time></trkpt><trkpt lat="38.174417127845416" lon="13.25352373239995"><ele>537.3333333333333</ele><time>2026-03-29T09:48:18.001Z</time></trkpt><trkpt lat="38.17435599339036" lon="13.253476369359275"><ele>539.0</ele><time>2026-03-29T09:48:19.001Z</time></trkpt><trkpt lat="38.17429212850381" lon="13.253430953268504"><ele>539.0</ele><time>2026-03-29T09:48:20.001Z</time></trkpt><trkpt lat="38.174179933805355" lon="13.253358991418311"><ele>539.0</ele><time>2026-03-29T09:48:22.001Z</time></trkpt><trkpt lat="38.17404959904496" lon="13.253283308454998"><ele>539.0</ele><time>2026-03-29T09:48:24.001Z</time></trkpt><trkpt lat="38.17397815779492" lon="13.253244078351624"><ele>539.0</ele><time>2026-03-29T09:48:25.001Z</time></trkpt><trkpt lat="38.17391431475859" lon="13.253210455663408"><ele>539.0</ele><time>2026-03-29T09:48:26.001Z</time></trkpt><trkpt lat="38.173822729000115" lon="13.253163850834744"><ele>538.0</ele><time>2026-03-29T09:48:27.001Z</time></trkpt><trkpt lat="38.173738216578926" lon="13.253123030928379"><ele>537.0</ele><time>2026-03-29T09:48:28.001Z</time></trkpt><trkpt lat="38.173645820427446" lon="13.25307840316971"><ele>536.0</ele><time>2026-03-29T09:48:29.001Z</time></trkpt><trkpt lat="38.173532248860646" lon="13.253024670143153"><ele>535.0</ele><time>2026-03-29T09:48:30.001Z</time></trkpt><trkpt lat="38.1734043810256" lon="13.252974445763092"><ele>534.0</ele><time>2026-03-29T09:48:31.001Z</time></trkpt><trkpt lat="38.17326607194242" lon="13.25293528345391"><ele>538.8</ele><time>2026-03-29T09:48:32.001Z</time></trkpt><trkpt lat="38.17314348320693" lon="13.252901102616326"><ele>543.5999999999999</ele><time>2026-03-29T09:48:33.001Z</time></trkpt><trkpt lat="38.17305984986128" lon="13.2528716338579"><ele>548.4</ele><time>2026-03-29T09:48:34.001Z</time></trkpt><trkpt lat="38.17296628231621" lon="13.252826751529698"><ele>553.1999999999999</ele><time>2026-03-29T09:48:35.001Z</time></trkpt><trkpt lat="38.1728798610594" lon="13.252773547236986"><ele>558.0</ele><time>2026-03-29T09:48:36.001Z</time></trkpt><trkpt lat="38.17278540960977" lon="13.25269805702947"><ele>558.0</ele><time>2026-03-29T09:48:37.001Z</time></trkpt><trkpt lat="38.17269458230995" lon="13.252613718132888"><ele>558.0</ele><time>2026-03-29T09:48:38.001Z</time></trkpt><trkpt lat="38.17258434009424" lon="13.25253871728369"><ele>558.0</ele><time>2026-03-29T09:48:39.001Z</time></trkpt><trkpt lat="38.17249998775012" lon="13.252462464634629"><ele>558.0</ele><time>2026-03-29T09:48:40.001Z</time></trkpt><trkpt lat="38.172430515997306" lon="13.252409703170507"><ele>558.0</ele><time>2026-03-29T09:48:41.001Z</time></trkpt><trkpt lat="38.172339631749004" lon="13.25234535708866"><ele>558.0</ele><time>2026-03-29T09:48:42.001Z</time></trkpt><trkpt lat="38.172243282163045" lon="13.252265786016135"><ele>558.0</ele><time>2026-03-29T09:48:43.001Z</time></trkpt><trkpt lat="38.172143248655544" lon="13.252180664583783"><ele>558.0</ele><time>2026-03-29T09:48:44.001Z</time></trkpt><trkpt lat="38.17203511172285" lon="13.252089437138203"><ele>558.0</ele><time>2026-03-29T09:48:45.001Z</time></trkpt><trkpt lat="38.17192537025523" lon="13.251996337130604"><ele>558.0</ele><time>2026-03-29T09:48:46.001Z</time></trkpt><trkpt lat="38.1718456870005" lon="13.251941400970555"><ele>558.0</ele><time>2026-03-29T09:48:47.001Z</time></trkpt><trkpt lat="38.17175276680536" lon="13.251888566149102"><ele>558.0</ele><time>2026-03-29T09:48:48.001Z</time></trkpt><trkpt lat="38.17167080241094" lon="13.251826176904407"><ele>558.0</ele><time>2026-03-29T09:48:49.001Z</time></trkpt><trkpt lat="38.171605952324576" lon="13.251784647542946"><ele>558.0</ele><time>2026-03-29T09:48:50.001Z</time></trkpt><trkpt lat="38.17153409735339" lon="13.251740361944242"><ele>558.0</ele><time>2026-03-29T09:48:51.001Z</time></trkpt><trkpt lat="38.17145869660001" lon="13.251709011779043"><ele>562.4</ele><time>2026-03-29T09:48:52.001Z</time></trkpt><trkpt lat="38.17135690439654" lon="13.251657363785892"><ele>566.8</ele><time>2026-03-29T09:48:53.001Z</time></trkpt><trkpt lat="38.17124856696032" lon="13.25160414756976"><ele>571.2</ele><time>2026-03-29T09:48:54.001Z</time></trkpt><trkpt lat="38.17114645990349" lon="13.251568556614988"><ele>575.6</ele><time>2026-03-29T09:48:55.001Z</time></trkpt><trkpt lat="38.17106064280899" lon="13.251541654393742"><ele>580.0</ele><time>2026-03-29T09:48:56.001Z</time></trkpt><trkpt lat="38.17091047110753" lon="13.251506870232774"><ele>580.0</ele><time>2026-03-29T09:48:58.001Z</time></trkpt><trkpt lat="38.17081197045854" lon="13.251497029354185"><ele>580.0</ele><time>2026-03-29T09:48:59.001Z</time></trkpt><trkpt lat="38.17070961357592" lon="13.251486622956005"><ele>580.0</ele><time>2026-03-29T09:49:00.001Z</time></trkpt><trkpt lat="38.17061795908937" lon="13.25148882992269"><ele>580.0</ele><time>2026-03-29T09:49:01.001Z</time></trkpt><trkpt lat="38.170528762328225" lon="13.251508641141909"><ele>580.0</ele><time>2026-03-29T09:49:02.001Z</time></trkpt><trkpt lat="38.17044532119096" lon="13.251512515091267"><ele>581.5</ele><time>2026-03-29T09:49:03.001Z</time></trkpt><trkpt lat="38.17037106567822" lon="13.251536898234118"><ele>583.0</ele><time>2026-03-29T09:49:04.001Z</time></trkpt><trkpt lat="38.17027006274477" lon="13.25155327354201"><ele>584.5</ele><time>2026-03-29T09:49:06.001Z</time></trkpt><trkpt lat="38.17019326246653" lon="13.251537636017714"><ele>586.0</ele><time>2026-03-29T09:49:07.001Z</time></trkpt><trkpt lat="38.1701300276456" lon="13.251513646257916"><ele>587.5</ele><time>2026-03-29T09:49:08.001Z</time></trkpt><trkpt lat="38.170067137778645" lon="13.25149830162847"><ele>589.0</ele><time>2026-03-29T09:49:09.001Z</time></trkpt><trkpt lat="38.169950449490536" lon="13.251486284846498"><ele>590.6666666666667</ele><time>2026-03-29T09:49:11.002Z</time></trkpt><trkpt lat="38.169832202751856" lon="13.251509533793774"><ele>592.3333333333334</ele><time>2026-03-29T09:49:13.002Z</time></trkpt><trkpt lat="38.169756903254296" lon="13.251500247136331"><ele>594.0</ele><time>2026-03-29T09:49:14.002Z</time></trkpt><trkpt lat="38.16967280050226" lon="13.251531318924549"><ele>595.6666666666666</ele><time>2026-03-29T09:49:15.002Z</time></trkpt><trkpt lat="38.16959189132232" lon="13.25155949132332"><ele>597.3333333333333</ele><time>2026-03-29T09:49:16.002Z</time></trkpt><trkpt lat="38.169523408950575" lon="13.251584126202808"><ele>599.0</ele><time>2026-03-29T09:49:17.002Z</time></trkpt><trkpt lat="38.169461219315835" lon="13.251608400161972"><ele>599.0</ele><time>2026-03-29T09:49:18.002Z</time></trkpt><trkpt lat="38.16936941667093" lon="13.251599056710468"><ele>599.0</ele><time>2026-03-29T09:49:19.002Z</time></trkpt><trkpt lat="38.16929590808895" lon="13.251575203604897"><ele>599.0</ele><time>2026-03-29T09:49:20.002Z</time></trkpt><trkpt lat="38.16921595410576" lon="13.251569842107033"><ele>599.0</ele><time>2026-03-29T09:49:21.002Z</time></trkpt><trkpt lat="38.16915209334463" lon="13.251543579069004"><ele>599.0</ele><time>2026-03-29T09:49:22.002Z</time></trkpt><trkpt lat="38.16908190108857" lon="13.2515487579122"><ele>599.0</ele><time>2026-03-29T09:49:23.002Z</time></trkpt><trkpt lat="38.169014635544144" lon="13.251536756243146"><ele>601.3333333333333</ele><time>2026-03-29T09:49:24.002Z</time></trkpt><trkpt lat="38.168931720066084" lon="13.251528701387821"><ele>603.6666666666666</ele><time>2026-03-29T09:49:25.002Z</time></trkpt><trkpt lat="38.16884746582328" lon="13.251546860023149"><ele>606.0</ele><time>2026-03-29T09:49:26.002Z</time></trkpt><trkpt lat="38.16877062552457" lon="13.25151610604492"><ele>608.3333333333334</ele><time>2026-03-29T09:49:27.002Z</time></trkpt><trkpt lat="38.168685067340434" lon="13.251473004186218"><ele>610.6666666666667</ele><time>2026-03-29T09:49:28.002Z</time></trkpt><trkpt lat="38.16862304396709" lon="13.251434675776776"><ele>613.0</ele><time>2026-03-29T09:49:29.002Z</time></trkpt><trkpt lat="38.16851920620184" lon="13.251369165562293"><ele>609.8</ele><time>2026-03-29T09:49:31.002Z</time></trkpt><trkpt lat="38.16845413036298" lon="13.25133979015032"><ele>606.5999999999999</ele><time>2026-03-29T09:49:32.002Z</time></trkpt><trkpt lat="38.168325913460336" lon="13.251254680330646"><ele>603.4000000000001</ele><time>2026-03-29T09:49:34.002Z</time></trkpt><trkpt lat="38.168239995882544" lon="13.251198492885804"><ele>600.2</ele><time>2026-03-29T09:49:35.002Z</time></trkpt><trkpt lat="38.168155845316754" lon="13.251125370427445"><ele>597.0</ele><time>2026-03-29T09:49:36.002Z</time></trkpt><trkpt lat="38.168077338190784" lon="13.251074629128514"><ele>597.0</ele><time>2026-03-29T09:49:37.002Z</time></trkpt><trkpt lat="38.16799539584627" lon="13.251039770409577"><ele>597.0</ele><time>2026-03-29T09:49:38.002Z</time></trkpt><trkpt lat="38.16791880977806" lon="13.250980119991699"><ele>597.0</ele><time>2026-03-29T09:49:39.002Z</time></trkpt><trkpt lat="38.167846883351885" lon="13.250940581238654"><ele>597.0</ele><time>2026-03-29T09:49:40.002Z</time></trkpt><trkpt lat="38.167775406075584" lon="13.250885390425564"><ele>597.0</ele><time>2026-03-29T09:49:41.002Z</time></trkpt><trkpt lat="38.16766571026434" lon="13.250822971428146"><ele>597.0</ele><time>2026-03-29T09:49:43.002Z</time></trkpt><trkpt lat="38.16760010246055" lon="13.250809133316048"><ele>597.0</ele><time>2026-03-29T09:49:44.002Z</time></trkpt><trkpt lat="38.16754342035874" lon="13.250770701859729"><ele>597.0</ele><time>2026-03-29T09:49:45.002Z</time></trkpt><trkpt lat="38.16746114519347" lon="13.250721259227802"><ele>597.0</ele><time>2026-03-29T09:49:47.002Z</time></trkpt><trkpt lat="38.16738750718854" lon="13.250684921454635"><ele>597.0</ele><time>2026-03-29T09:49:51.002Z</time></trkpt><trkpt lat="38.16731646933745" lon="13.25068109035806"><ele>597.0</ele><time>2026-03-29T09:50:15.001Z</time></trkpt><trkpt lat="38.16717886240537" lon="13.25064693973674"><ele>596.6666666666666</ele><time>2026-03-29T09:50:17.001Z</time></trkpt><trkpt lat="38.1670931802358" lon="13.25063659212204"><ele>596.3333333333334</ele><time>2026-03-29T09:50:18.001Z</time></trkpt><trkpt lat="38.16700185250322" lon="13.25063585907996"><ele>596.0</ele><time>2026-03-29T09:50:19.001Z</time></trkpt><trkpt lat="38.16692434865739" lon="13.250643187665508"><ele>595.6666666666667</ele><time>2026-03-29T09:50:20.001Z</time></trkpt><trkpt lat="38.166854050952466" lon="13.250659411738138"><ele>595.3333333333334</ele><time>2026-03-29T09:50:21.001Z</time></trkpt><trkpt lat="38.166788344474426" lon="13.250684732348896"><ele>595.0</ele><time>2026-03-29T09:50:22.001Z</time></trkpt><trkpt lat="38.1667028971441" lon="13.250750444039394"><ele>595.0</ele><time>2026-03-29T09:50:24.001Z</time></trkpt><trkpt lat="38.16663881507699" lon="13.250798005126535"><ele>595.0</ele><time>2026-03-29T09:50:25.001Z</time></trkpt><trkpt lat="38.16657508252186" lon="13.250826514454165"><ele>595.0</ele><time>2026-03-29T09:50:26.001Z</time></trkpt><trkpt lat="38.16649158479802" lon="13.250933014177164"><ele>595.0</ele><time>2026-03-29T09:50:28.001Z</time></trkpt><trkpt lat="38.16643994718694" lon="13.251011985290697"><ele>595.0</ele><time>2026-03-29T09:50:29.001Z</time></trkpt><trkpt lat="38.166396551578494" lon="13.25108693718919"><ele>595.0</ele><time>2026-03-29T09:50:30.001Z</time></trkpt><trkpt lat="38.16635190064322" lon="13.25122245578504"><ele>593.0</ele><time>2026-03-29T09:50:32.001Z</time></trkpt><trkpt lat="38.16627902057245" lon="13.251404535875594"><ele>591.0</ele><time>2026-03-29T09:50:34.001Z</time></trkpt><trkpt lat="38.16622653494467" lon="13.251546793298324"><ele>589.0</ele><time>2026-03-29T09:50:35.001Z</time></trkpt><trkpt lat="38.16616955818526" lon="13.251689154240772"><ele>587.0</ele><time>2026-03-29T09:50:36.001Z</time></trkpt><trkpt lat="38.166138130035755" lon="13.251790025902116"><ele>587.0</ele><time>2026-03-29T09:50:37.001Z</time></trkpt><trkpt lat="38.166093748480925" lon="13.251897702223944"><ele>587.0</ele><time>2026-03-29T09:50:39.001Z</time></trkpt><trkpt lat="38.16604358742729" lon="13.252036258410676"><ele>587.0</ele><time>2026-03-29T09:50:41.001Z</time></trkpt><trkpt lat="38.16600716452272" lon="13.252112040639396"><ele>587.0</ele><time>2026-03-29T09:50:42.001Z</time></trkpt><trkpt lat="38.165949969725176" lon="13.25221754560526"><ele>587.0</ele><time>2026-03-29T09:50:44.001Z</time></trkpt><trkpt lat="38.165891269909636" lon="13.252329727385682"><ele>587.1666666666666</ele><time>2026-03-29T09:50:46.001Z</time></trkpt><trkpt lat="38.16587327163511" lon="13.252428931672531"><ele>587.3333333333333</ele><time>2026-03-29T09:50:47.001Z</time></trkpt><trkpt lat="38.165815951174594" lon="13.25248220039958"><ele>587.5</ele><time>2026-03-29T09:50:48.001Z</time></trkpt><trkpt lat="38.1657483659609" lon="13.252537794365963"><ele>587.6666666666666</ele><time>2026-03-29T09:50:49.001Z</time></trkpt><trkpt lat="38.165683237033434" lon="13.252602370169056"><ele>587.8333333333334</ele><time>2026-03-29T09:50:50.001Z</time></trkpt><trkpt lat="38.165612339219955" lon="13.252663612457171"><ele>588.0</ele><time>2026-03-29T09:50:51.001Z</time></trkpt><trkpt lat="38.165523105167054" lon="13.25273632707512"><ele>588.0</ele><time>2026-03-29T09:50:52.001Z</time></trkpt><trkpt lat="38.16547024125282" lon="13.252834285926745"><ele>588.0</ele><time>2026-03-29T09:50:53.001Z</time></trkpt><trkpt lat="38.1653927084035" lon="13.252845119235293"><ele>588.0</ele><time>2026-03-29T09:50:54.001Z</time></trkpt><trkpt lat="38.16535436045424" lon="13.25294037739232"><ele>588.0</ele><time>2026-03-29T09:50:55.001Z</time></trkpt><trkpt lat="38.165250810197215" lon="13.252984827810664"><ele>588.0</ele><time>2026-03-29T09:50:56.001Z</time></trkpt><trkpt lat="38.16515682777698" lon="13.253037462881911"><ele>588.0</ele><time>2026-03-29T09:50:57.001Z</time></trkpt><trkpt lat="38.1650677327311" lon="13.253074365873744"><ele>588.0</ele><time>2026-03-29T09:50:58.001Z</time></trkpt><trkpt lat="38.164983057558025" lon="13.253136562160051"><ele>588.0</ele><time>2026-03-29T09:50:59.001Z</time></trkpt><trkpt lat="38.16487342136855" lon="13.253168225152725"><ele>588.0</ele><time>2026-03-29T09:51:00.001Z</time></trkpt><trkpt lat="38.164772867452065" lon="13.253203893047477"><ele>588.0</ele><time>2026-03-29T09:51:01.001Z</time></trkpt><trkpt lat="38.16466956595441" lon="13.253244770301555"><ele>595.75</ele><time>2026-03-29T09:51:02.001Z</time></trkpt><trkpt lat="38.1645554198987" lon="13.253275274143013"><ele>603.5</ele><time>2026-03-29T09:51:03.001Z</time></trkpt><trkpt lat="38.16445796375813" lon="13.253314158927747"><ele>611.25</ele><time>2026-03-29T09:51:04.001Z</time></trkpt><trkpt lat="38.16433857413455" lon="13.253330177739791"><ele>619.0</ele><time>2026-03-29T09:51:05.001Z</time></trkpt><trkpt lat="38.16420764984597" lon="13.253344171686027"><ele>619.0</ele><time>2026-03-29T09:51:06.001Z</time></trkpt><trkpt lat="38.16409200412371" lon="13.25337628066558"><ele>619.0</ele><time>2026-03-29T09:51:07.001Z</time></trkpt><trkpt lat="38.164012883538746" lon="13.25340596866861"><ele>619.0</ele><time>2026-03-29T09:51:08.001Z</time></trkpt><trkpt lat="38.16393818536695" lon="13.25340947080217"><ele>619.0</ele><time>2026-03-29T09:51:09.001Z</time></trkpt><trkpt lat="38.16382984944092" lon="13.253430477694037"><ele>619.0</ele><time>2026-03-29T09:51:10.001Z</time></trkpt><trkpt lat="38.16373839519177" lon="13.25344247323274"><ele>617.2</ele><time>2026-03-29T09:51:11.001Z</time></trkpt><trkpt lat="38.16364137973176" lon="13.253446941977815"><ele>615.4</ele><time>2026-03-29T09:51:12.001Z</time></trkpt><trkpt lat="38.16354518859389" lon="13.253471754448599"><ele>613.6</ele><time>2026-03-29T09:51:13.001Z</time></trkpt><trkpt lat="38.16345063510601" lon="13.253491831422995"><ele>611.8</ele><time>2026-03-29T09:51:14.001Z</time></trkpt><trkpt lat="38.16331982718558" lon="13.253512129826259"><ele>610.0</ele><time>2026-03-29T09:51:15.001Z</time></trkpt><trkpt lat="38.16324616588244" lon="13.253524716737465"><ele>608.6</ele><time>2026-03-29T09:51:16.001Z</time></trkpt><trkpt lat="38.16314450883852" lon="13.253530131361867"><ele>607.2</ele><time>2026-03-29T09:51:17.001Z</time></trkpt><trkpt lat="38.1630587301662" lon="13.253571417184318"><ele>605.8</ele><time>2026-03-29T09:51:18.001Z</time></trkpt><trkpt lat="38.16295452504594" lon="13.25361297646694"><ele>604.4</ele><time>2026-03-29T09:51:19.001Z</time></trkpt><trkpt lat="38.16285444334854" lon="13.253665586070923"><ele>603.0</ele><time>2026-03-29T09:51:20.001Z</time></trkpt><trkpt lat="38.16274227506701" lon="13.253672392966283"><ele>603.0</ele><time>2026-03-29T09:51:21.001Z</time></trkpt><trkpt lat="38.162638539401144" lon="13.253712714212938"><ele>603.0</ele><time>2026-03-29T09:51:22.001Z</time></trkpt><trkpt lat="38.162530939681396" lon="13.25375760474427"><ele>603.0</ele><time>2026-03-29T09:51:23.002Z</time></trkpt><trkpt lat="38.162415131916866" lon="13.2537766017203"><ele>603.0</ele><time>2026-03-29T09:51:24.002Z</time></trkpt><trkpt lat="38.16229701869214" lon="13.253816148463518"><ele>599.8</ele><time>2026-03-29T09:51:25.002Z</time></trkpt><trkpt lat="38.162197941600596" lon="13.25387059172887"><ele>596.5999999999999</ele><time>2026-03-29T09:51:26.002Z</time></trkpt><trkpt lat="38.16209338584064" lon="13.253922940689135"><ele>593.4000000000001</ele><time>2026-03-29T09:51:27.002Z</time></trkpt><trkpt lat="38.16198939495249" lon="13.253992905014519"><ele>590.2</ele><time>2026-03-29T09:51:28.002Z</time></trkpt><trkpt lat="38.161903418401735" lon="13.25404669487938"><ele>587.0</ele><time>2026-03-29T09:51:29.002Z</time></trkpt><trkpt lat="38.16181453944483" lon="13.254094685723596"><ele>593.8000000000001</ele><time>2026-03-29T09:51:30.002Z</time></trkpt><trkpt lat="38.16171036230282" lon="13.254138492639669"><ele>600.6</ele><time>2026-03-29T09:51:31.002Z</time></trkpt><trkpt lat="38.16159315411363" lon="13.254169584954138"><ele>607.4000000000001</ele><time>2026-03-29T09:51:32.002Z</time></trkpt><trkpt lat="38.1615043538864" lon="13.254175345587093"><ele>614.2</ele><time>2026-03-29T09:51:33.002Z</time></trkpt><trkpt lat="38.161411656609395" lon="13.254187425386966"><ele>621.0</ele><time>2026-03-29T09:51:34.002Z</time></trkpt><trkpt lat="38.16133163722262" lon="13.254248390011742"><ele>621.0</ele><time>2026-03-29T09:51:35.002Z</time></trkpt><trkpt lat="38.16121298101768" lon="13.254277782341203"><ele>621.0</ele><time>2026-03-29T09:51:36.002Z</time></trkpt><trkpt lat="38.16108893984087" lon="13.254336212884681"><ele>621.0</ele><time>2026-03-29T09:51:37.002Z</time></trkpt><trkpt lat="38.16098477303542" lon="13.254404947993363"><ele>621.0</ele><time>2026-03-29T09:51:38.002Z</time></trkpt><trkpt lat="38.16086903493498" lon="13.25443685062112"><ele>621.0</ele><time>2026-03-29T09:51:39.002Z</time></trkpt><trkpt lat="38.16079102047051" lon="13.25448171100806"><ele>621.0</ele><time>2026-03-29T09:51:40.002Z</time></trkpt><trkpt lat="38.160720448044614" lon="13.25452294789506"><ele>621.0</ele><time>2026-03-29T09:51:41.002Z</time></trkpt><trkpt lat="38.16065822938278" lon="13.25456915735093"><ele>621.0</ele><time>2026-03-29T09:51:42.002Z</time></trkpt><trkpt lat="38.160596314647364" lon="13.25459434492461"><ele>621.0</ele><time>2026-03-29T09:51:44.002Z</time></trkpt><trkpt lat="38.16053682421593" lon="13.254630665328031"><ele>621.0</ele><time>2026-03-29T09:52:45.001Z</time></trkpt><trkpt lat="38.16044103030671" lon="13.254703364933508"><ele>619.8</ele><time>2026-03-29T09:52:48.001Z</time></trkpt><trkpt lat="38.16037038546462" lon="13.254740002865127"><ele>618.6</ele><time>2026-03-29T09:52:49.001Z</time></trkpt><trkpt lat="38.16027958220284" lon="13.25482711305164"><ele>617.4</ele><time>2026-03-29T09:52:51.001Z</time></trkpt><trkpt lat="38.16017275307522" lon="13.25489897163475"><ele>616.2</ele><time>2026-03-29T09:52:53.001Z</time></trkpt><trkpt lat="38.160051846567214" lon="13.254958657677872"><ele>615.0</ele><time>2026-03-29T09:52:55.001Z</time></trkpt><trkpt lat="38.15999328951476" lon="13.255015828643357"><ele>619.0</ele><time>2026-03-29T09:52:56.001Z</time></trkpt><trkpt lat="38.159930440165304" lon="13.255032838315637"><ele>623.0</ele><time>2026-03-29T09:52:57.001Z</time></trkpt><trkpt lat="38.159829813066196" lon="13.255088399404558"><ele>627.0</ele><time>2026-03-29T09:52:59.001Z</time></trkpt><trkpt lat="38.15974793471557" lon="13.255126077846922"><ele>631.0</ele><time>2026-03-29T09:53:01.001Z</time></trkpt><trkpt lat="38.15966488862826" lon="13.255156302960676"><ele>635.0</ele><time>2026-03-29T09:53:03.001Z</time></trkpt><trkpt lat="38.15959331261497" lon="13.255177505436402"><ele>639.0</ele><time>2026-03-29T09:53:06.001Z</time></trkpt><trkpt lat="38.15952581873843" lon="13.255194650777167"><ele>639.4</ele><time>2026-03-29T09:53:17.001Z</time></trkpt><trkpt lat="38.15941705232815" lon="13.255232949692175"><ele>639.8</ele><time>2026-03-29T09:53:32.001Z</time></trkpt><trkpt lat="38.159296486340146" lon="13.255252312987121"><ele>640.1999999999999</ele><time>2026-03-29T09:53:34.001Z</time></trkpt><trkpt lat="38.159200962334" lon="13.255246864727916"><ele>640.5999999999999</ele><time>2026-03-29T09:53:36.001Z</time></trkpt><trkpt lat="38.15912945046553" lon="13.255260209237841"><ele>641.0</ele><time>2026-03-29T09:53:38.001Z</time></trkpt><trkpt lat="38.15903323255154" lon="13.255286619077735"><ele>642.3333333333333</ele><time>2026-03-29T09:53:40.002Z</time></trkpt><trkpt lat="38.158916787096295" lon="13.2553120040952"><ele>643.6666666666666</ele><time>2026-03-29T09:53:42.002Z</time></trkpt><trkpt lat="38.15885256066519" lon="13.255304137485613"><ele>645.0</ele><time>2026-03-29T09:53:43.002Z</time></trkpt><trkpt lat="38.1587873407522" lon="13.255316148613119"><ele>646.3333333333334</ele><time>2026-03-29T09:53:44.002Z</time></trkpt><trkpt lat="38.158728609101594" lon="13.255346740195845"><ele>647.6666666666667</ele><time>2026-03-29T09:53:45.002Z</time></trkpt><trkpt lat="38.15860616752623" lon="13.255364254316156"><ele>649.0</ele><time>2026-03-29T09:53:47.002Z</time></trkpt><trkpt lat="38.15850710257223" lon="13.255383366999324"><ele>649.0</ele><time>2026-03-29T09:53:49.002Z</time></trkpt><trkpt lat="38.15843904935102" lon="13.25539577870726"><ele>649.0</ele><time>2026-03-29T09:53:50.002Z</time></trkpt><trkpt lat="38.15835000288975" lon="13.255396690394264"><ele>649.0</ele><time>2026-03-29T09:53:52.002Z</time></trkpt><trkpt lat="38.158283561306774" lon="13.25540892652135"><ele>649.0</ele><time>2026-03-29T09:53:53.002Z</time></trkpt><trkpt lat="38.15820543868947" lon="13.255443932856364"><ele>649.0</ele><time>2026-03-29T09:53:54.002Z</time></trkpt><trkpt lat="38.1581375869211" lon="13.255441752161058"><ele>649.0</ele><time>2026-03-29T09:53:56.002Z</time></trkpt><trkpt lat="38.1580464671919" lon="13.25545545906122"><ele>649.8333333333334</ele><time>2026-03-29T09:53:57.002Z</time></trkpt><trkpt lat="38.15796794509178" lon="13.255478406796591"><ele>650.6666666666667</ele><time>2026-03-29T09:53:58.002Z</time></trkpt><trkpt lat="38.15789467775066" lon="13.255473386673478"><ele>651.5</ele><time>2026-03-29T09:53:59.002Z</time></trkpt><trkpt lat="38.1578214149252" lon="13.255498574022031"><ele>652.3333333333334</ele><time>2026-03-29T09:54:00.002Z</time></trkpt><trkpt lat="38.157750515119616" lon="13.255511667416059"><ele>653.1666666666666</ele><time>2026-03-29T09:54:01.002Z</time></trkpt><trkpt lat="38.15762250458331" lon="13.255542032300013"><ele>654.0</ele><time>2026-03-29T09:54:03.002Z</time></trkpt><trkpt lat="38.15749020431119" lon="13.255579200076632"><ele>654.0</ele><time>2026-03-29T09:54:05.002Z</time></trkpt><trkpt lat="38.15742327146189" lon="13.25559463841029"><ele>654.0</ele><time>2026-03-29T09:54:06.002Z</time></trkpt><trkpt lat="38.15729954759632" lon="13.255644804021566"><ele>654.0</ele><time>2026-03-29T09:54:08.002Z</time></trkpt><trkpt lat="38.157189037615645" lon="13.255709513661055"><ele>654.0</ele><time>2026-03-29T09:54:10.002Z</time></trkpt><trkpt lat="38.15712728177371" lon="13.25576946795189"><ele>654.0</ele><time>2026-03-29T09:54:11.002Z</time></trkpt><trkpt lat="38.15707042589861" lon="13.255841216956071"><ele>655.0</ele><time>2026-03-29T09:54:12.002Z</time></trkpt><trkpt lat="38.157015604404094" lon="13.255901516331996"><ele>656.0</ele><time>2026-03-29T09:54:13.002Z</time></trkpt><trkpt lat="38.156928739304426" lon="13.25602444266476"><ele>657.0</ele><time>2026-03-29T09:54:15.002Z</time></trkpt><trkpt lat="38.15682900753476" lon="13.256156955878467"><ele>658.0</ele><time>2026-03-29T09:54:17.002Z</time></trkpt><trkpt lat="38.15676745506599" lon="13.256210416987997"><ele>659.0</ele><time>2026-03-29T09:54:18.002Z</time></trkpt><trkpt lat="38.1566968164779" lon="13.256296330034427"><ele>659.0</ele><time>2026-03-29T09:54:20.001Z</time></trkpt><trkpt lat="38.15664335476296" lon="13.256346615518607"><ele>659.0</ele><time>2026-03-29T09:54:21.001Z</time></trkpt><trkpt lat="38.156583217327835" lon="13.256388883908498"><ele>659.0</ele><time>2026-03-29T09:54:22.001Z</time></trkpt><trkpt lat="38.15651719437722" lon="13.256456211625924"><ele>659.0</ele><time>2026-03-29T09:54:23.001Z</time></trkpt><trkpt lat="38.156466363662425" lon="13.256506535073857"><ele>659.0</ele><time>2026-03-29T09:54:24.001Z</time></trkpt><trkpt lat="38.15641511336548" lon="13.25657994407505"><ele>659.0</ele><time>2026-03-29T09:54:25.001Z</time></trkpt><trkpt lat="38.15634907273488" lon="13.25663302528527"><ele>659.0</ele><time>2026-03-29T09:54:26.001Z</time></trkpt><trkpt lat="38.156293356200734" lon="13.256691461464792"><ele>659.5</ele><time>2026-03-29T09:54:27.001Z</time></trkpt><trkpt lat="38.156238292622305" lon="13.256741484305781"><ele>660.0</ele><time>2026-03-29T09:54:28.001Z</time></trkpt><trkpt lat="38.15616484838352" lon="13.25682061305736"><ele>660.5</ele><time>2026-03-29T09:54:29.001Z</time></trkpt><trkpt lat="38.15610892940578" lon="13.25688163976141"><ele>661.0</ele><time>2026-03-29T09:54:30.001Z</time></trkpt><trkpt lat="38.156045380444326" lon="13.256966942760569"><ele>661.5</ele><time>2026-03-29T09:54:31.001Z</time></trkpt><trkpt lat="38.15597996663719" lon="13.2570383839315"><ele>662.0</ele><time>2026-03-29T09:54:32.001Z</time></trkpt><trkpt lat="38.15591414375542" lon="13.25711404097796"><ele>662.0</ele><time>2026-03-29T09:54:33.001Z</time></trkpt><trkpt lat="38.1558593053474" lon="13.257181088909695"><ele>662.0</ele><time>2026-03-29T09:54:34.001Z</time></trkpt><trkpt lat="38.15578982733329" lon="13.257265819533387"><ele>662.0</ele><time>2026-03-29T09:54:35.001Z</time></trkpt><trkpt lat="38.155718626685356" lon="13.25738914272941"><ele>662.0</ele><time>2026-03-29T09:54:37.001Z</time></trkpt><trkpt lat="38.15564893008926" lon="13.257502253383585"><ele>662.0</ele><time>2026-03-29T09:54:38.001Z</time></trkpt><trkpt lat="38.1555932400272" lon="13.257622023683865"><ele>660.2</ele><time>2026-03-29T09:54:39.001Z</time></trkpt><trkpt lat="38.15552616448332" lon="13.257724011206234"><ele>658.4000000000001</ele><time>2026-03-29T09:54:40.001Z</time></trkpt><trkpt lat="38.15548090103942" lon="13.25784031967666"><ele>656.5999999999999</ele><time>2026-03-29T09:54:41.001Z</time></trkpt><trkpt lat="38.155420741387736" lon="13.257938843894154"><ele>654.8</ele><time>2026-03-29T09:54:42.001Z</time></trkpt><trkpt lat="38.155355050575345" lon="13.258054001115221"><ele>653.0</ele><time>2026-03-29T09:54:43.001Z</time></trkpt><trkpt lat="38.155294173732464" lon="13.25816401756423"><ele>651.5999999999999</ele><time>2026-03-29T09:54:44.001Z</time></trkpt><trkpt lat="38.15524105180559" lon="13.258267052134574"><ele>650.1999999999999</ele><time>2026-03-29T09:54:45.001Z</time></trkpt><trkpt lat="38.155167022583676" lon="13.258367546850831"><ele>648.8</ele><time>2026-03-29T09:54:46.001Z</time></trkpt><trkpt lat="38.1551092594436" lon="13.258473451458523"><ele>647.4</ele><time>2026-03-29T09:54:47.001Z</time></trkpt><trkpt lat="38.15504772154913" lon="13.258586276701392"><ele>646.0</ele><time>2026-03-29T09:54:48.001Z</time></trkpt><trkpt lat="38.155005738990376" lon="13.25870863180584"><ele>646.0</ele><time>2026-03-29T09:54:49.001Z</time></trkpt><trkpt lat="38.154940248776455" lon="13.258841901971923"><ele>646.0</ele><time>2026-03-29T09:54:50.001Z</time></trkpt><trkpt lat="38.15487341304745" lon="13.25895904530175"><ele>646.0</ele><time>2026-03-29T09:54:51.001Z</time></trkpt><trkpt lat="38.15482970700255" lon="13.259087597376412"><ele>646.0</ele><time>2026-03-29T09:54:52.001Z</time></trkpt><trkpt lat="38.15479090643254" lon="13.259160640923508"><ele>646.0</ele><time>2026-03-29T09:54:53.001Z</time></trkpt><trkpt lat="38.154754580210906" lon="13.259253131370066"><ele>641.4</ele><time>2026-03-29T09:54:54.001Z</time></trkpt><trkpt lat="38.154705093537146" lon="13.259363128767982"><ele>636.8</ele><time>2026-03-29T09:54:55.001Z</time></trkpt><trkpt lat="38.15464269294909" lon="13.25945141204664"><ele>632.1999999999999</ele><time>2026-03-29T09:54:56.001Z</time></trkpt><trkpt lat="38.154592297322154" lon="13.259546740320907"><ele>627.5999999999999</ele><time>2026-03-29T09:54:57.001Z</time></trkpt><trkpt lat="38.15453491440575" lon="13.259650793894165"><ele>623.0</ele><time>2026-03-29T09:54:58.001Z</time></trkpt><trkpt lat="38.15450084548337" lon="13.259746270901429"><ele>626.0</ele><time>2026-03-29T09:54:59.001Z</time></trkpt><trkpt lat="38.154443051400634" lon="13.259837874194416"><ele>629.0</ele><time>2026-03-29T09:55:00.001Z</time></trkpt><trkpt lat="38.154389009413535" lon="13.259926454628467"><ele>632.0</ele><time>2026-03-29T09:55:01.001Z</time></trkpt><trkpt lat="38.15432962021556" lon="13.260024134764086"><ele>635.0</ele><time>2026-03-29T09:55:02.001Z</time></trkpt><trkpt lat="38.15426780090836" lon="13.2601123356243"><ele>638.0</ele><time>2026-03-29T09:55:03.001Z</time></trkpt><trkpt lat="38.15421355743763" lon="13.260192121697747"><ele>638.0</ele><time>2026-03-29T09:55:04.001Z</time></trkpt><trkpt lat="38.15414313435941" lon="13.26026941383638"><ele>638.0</ele><time>2026-03-29T09:55:05.001Z</time></trkpt><trkpt lat="38.1540904952724" lon="13.260337943495031"><ele>638.0</ele><time>2026-03-29T09:55:06.001Z</time></trkpt><trkpt lat="38.154037927848556" lon="13.260398984301988"><ele>638.0</ele><time>2026-03-29T09:55:07.001Z</time></trkpt><trkpt lat="38.15397923343791" lon="13.260465278097161"><ele>638.0</ele><time>2026-03-29T09:55:08.001Z</time></trkpt><trkpt lat="38.153921776328964" lon="13.260553475417616"><ele>638.0</ele><time>2026-03-29T09:55:09.001Z</time></trkpt><trkpt lat="38.15384125382669" lon="13.260616572043979"><ele>636.3333333333333</ele><time>2026-03-29T09:55:10.001Z</time></trkpt><trkpt lat="38.15377446966767" lon="13.260689560753312"><ele>634.6666666666666</ele><time>2026-03-29T09:55:11.001Z</time></trkpt><trkpt lat="38.15371548748855" lon="13.260781870962704"><ele>633.0</ele><time>2026-03-29T09:55:12.001Z</time></trkpt><trkpt lat="38.15363779436712" lon="13.260851910687572"><ele>631.3333333333334</ele><time>2026-03-29T09:55:13.001Z</time></trkpt><trkpt lat="38.15357923228915" lon="13.26092768450043"><ele>629.6666666666667</ele><time>2026-03-29T09:55:14.001Z</time></trkpt><trkpt lat="38.15351895191909" lon="13.260995798304725"><ele>628.0</ele><time>2026-03-29T09:55:15.001Z</time></trkpt><trkpt lat="38.15345929828468" lon="13.26106539347799"><ele>628.0</ele><time>2026-03-29T09:55:16.001Z</time></trkpt><trkpt lat="38.153391156495665" lon="13.261124836752439"><ele>628.0</ele><time>2026-03-29T09:55:17.001Z</time></trkpt><trkpt lat="38.15333671289827" lon="13.26118816247549"><ele>628.0</ele><time>2026-03-29T09:55:18.001Z</time></trkpt><trkpt lat="38.15327905562276" lon="13.261271140724027"><ele>628.0</ele><time>2026-03-29T09:55:19.001Z</time></trkpt><trkpt lat="38.15321062678546" lon="13.261358131703927"><ele>628.0</ele><time>2026-03-29T09:55:20.001Z</time></trkpt><trkpt lat="38.15313076729026" lon="13.261433287612899"><ele>628.0</ele><time>2026-03-29T09:55:21.001Z</time></trkpt><trkpt lat="38.15307553158444" lon="13.261524301078632"><ele>627.0</ele><time>2026-03-29T09:55:22.001Z</time></trkpt><trkpt lat="38.15300185917969" lon="13.261582669576029"><ele>626.0</ele><time>2026-03-29T09:55:23.001Z</time></trkpt><trkpt lat="38.152937822874186" lon="13.261660236490396"><ele>625.0</ele><time>2026-03-29T09:55:24.001Z</time></trkpt><trkpt lat="38.15288427733959" lon="13.261736878305609"><ele>624.0</ele><time>2026-03-29T09:55:25.001Z</time></trkpt><trkpt lat="38.1528512564872" lon="13.261827307125422"><ele>623.0</ele><time>2026-03-29T09:55:26.001Z</time></trkpt><trkpt lat="38.1528024933534" lon="13.261938263718246"><ele>622.0</ele><time>2026-03-29T09:55:27.001Z</time></trkpt><trkpt lat="38.15275904183406" lon="13.262002578411396"><ele>622.0</ele><time>2026-03-29T09:55:28.001Z</time></trkpt><trkpt lat="38.15274403329459" lon="13.262089841306212"><ele>622.0</ele><time>2026-03-29T09:55:29.001Z</time></trkpt><trkpt lat="38.15271210481418" lon="13.262182629202755"><ele>622.0</ele><time>2026-03-29T09:55:30.001Z</time></trkpt><trkpt lat="38.1526812639433" lon="13.262281919669041"><ele>622.0</ele><time>2026-03-29T09:55:31.001Z</time></trkpt><trkpt lat="38.152656797887424" lon="13.262391893402555"><ele>622.0</ele><time>2026-03-29T09:55:32.001Z</time></trkpt><trkpt lat="38.15262201383047" lon="13.262489801750954"><ele>622.0</ele><time>2026-03-29T09:55:33.001Z</time></trkpt><trkpt lat="38.15261612750411" lon="13.262609501186057"><ele>623.6666666666667</ele><time>2026-03-29T09:55:34.001Z</time></trkpt><trkpt lat="38.15260791805243" lon="13.262718260643823"><ele>625.3333333333334</ele><time>2026-03-29T09:55:35.001Z</time></trkpt><trkpt lat="38.15258376102672" lon="13.262823535309677"><ele>627.0</ele><time>2026-03-29T09:55:36.001Z</time></trkpt><trkpt lat="38.15258474248023" lon="13.262935320985106"><ele>628.6666666666666</ele><time>2026-03-29T09:55:37.001Z</time></trkpt><trkpt lat="38.15256975749629" lon="13.26301408653755"><ele>630.3333333333333</ele><time>2026-03-29T09:55:38.001Z</time></trkpt><trkpt lat="38.15256569988155" lon="13.263110914985983"><ele>632.0</ele><time>2026-03-29T09:55:39.001Z</time></trkpt><trkpt lat="38.15258225753182" lon="13.263211850467316"><ele>632.6666666666666</ele><time>2026-03-29T09:55:40.001Z</time></trkpt><trkpt lat="38.15257004373212" lon="13.263325975083058"><ele>633.3333333333333</ele><time>2026-03-29T09:55:41.001Z</time></trkpt><trkpt lat="38.15258303463406" lon="13.263435022613214"><ele>634.0</ele><time>2026-03-29T09:55:42.001Z</time></trkpt><trkpt lat="38.15260686542543" lon="13.26355770903811"><ele>634.6666666666666</ele><time>2026-03-29T09:55:43.001Z</time></trkpt><trkpt lat="38.15262764468176" lon="13.26365771214943"><ele>635.3333333333334</ele><time>2026-03-29T09:55:44.001Z</time></trkpt><trkpt lat="38.152661681356925" lon="13.263742947086463"><ele>636.0</ele><time>2026-03-29T09:55:45.001Z</time></trkpt><trkpt lat="38.15267064119417" lon="13.263833762271744"><ele>636.0</ele><time>2026-03-29T09:55:46.001Z</time></trkpt><trkpt lat="38.152706213737574" lon="13.263915700036533"><ele>636.0</ele><time>2026-03-29T09:55:47.001Z</time></trkpt><trkpt lat="38.15273260779862" lon="13.264012058721386"><ele>636.0</ele><time>2026-03-29T09:55:48.001Z</time></trkpt><trkpt lat="38.152778044032246" lon="13.264135542470866"><ele>636.0</ele><time>2026-03-29T09:55:50.001Z</time></trkpt><trkpt lat="38.152813120479735" lon="13.264226122937027"><ele>636.0</ele><time>2026-03-29T09:55:51.001Z</time></trkpt><trkpt lat="38.15283183268632" lon="13.26431865382724"><ele>636.0</ele><time>2026-03-29T09:55:52.001Z</time></trkpt><trkpt lat="38.15287883096525" lon="13.2644461704217"><ele>634.5</ele><time>2026-03-29T09:55:53.001Z</time></trkpt><trkpt lat="38.15293098368177" lon="13.264538581197638"><ele>633.0</ele><time>2026-03-29T09:55:54.001Z</time></trkpt><trkpt lat="38.15295486789145" lon="13.264618874884421"><ele>631.5</ele><time>2026-03-29T09:55:55.001Z</time></trkpt><trkpt lat="38.15299416309999" lon="13.264713604001637"><ele>630.0</ele><time>2026-03-29T09:55:56.001Z</time></trkpt><trkpt lat="38.15302037834668" lon="13.264822254964072"><ele>628.5</ele><time>2026-03-29T09:55:57.001Z</time></trkpt><trkpt lat="38.15305131067873" lon="13.264902893123162"><ele>627.0</ele><time>2026-03-29T09:55:58.001Z</time></trkpt><trkpt lat="38.15309295639083" lon="13.26498686304309"><ele>625.8333333333334</ele><time>2026-03-29T09:55:59.001Z</time></trkpt><trkpt lat="38.15311294074898" lon="13.265070387356312"><ele>624.6666666666666</ele><time>2026-03-29T09:56:00.001Z</time></trkpt><trkpt lat="38.15314462918195" lon="13.2651647697011"><ele>623.5</ele><time>2026-03-29T09:56:01.001Z</time></trkpt><trkpt lat="38.1531924442408" lon="13.265263420640023"><ele>622.3333333333333</ele><time>2026-03-29T09:56:02.001Z</time></trkpt><trkpt lat="38.15321935704604" lon="13.26537813364853"><ele>621.1666666666666</ele><time>2026-03-29T09:56:03.001Z</time></trkpt><trkpt lat="38.15324064920624" lon="13.26548283280088"><ele>620.0</ele><time>2026-03-29T09:56:04.001Z</time></trkpt><trkpt lat="38.153256799057786" lon="13.265573668824116"><ele>623.6</ele><time>2026-03-29T09:56:05.001Z</time></trkpt><trkpt lat="38.153277951787764" lon="13.265670915059383"><ele>627.2</ele><time>2026-03-29T09:56:06.001Z</time></trkpt><trkpt lat="38.15329567021712" lon="13.265758616937193"><ele>630.8</ele><time>2026-03-29T09:56:07.001Z</time></trkpt><trkpt lat="38.153331278634745" lon="13.265896405364078"><ele>634.4</ele><time>2026-03-29T09:56:09.001Z</time></trkpt><trkpt lat="38.15331794186959" lon="13.26600835971311"><ele>638.0</ele><time>2026-03-29T09:56:11.001Z</time></trkpt><trkpt lat="38.15328834195964" lon="13.266126058027922"><ele>638.0</ele><time>2026-03-29T09:56:14.002Z</time></trkpt><trkpt lat="38.15322769934803" lon="13.26618654235362"><ele>638.0</ele><time>2026-03-29T09:56:16.002Z</time></trkpt><trkpt lat="38.153180680117835" lon="13.266261402465943"><ele>626.0</ele><time>2026-03-29T09:56:38.001Z</time></trkpt><trkpt lat="38.15325467850465" lon="13.266197412528314"><ele>638.0</ele><time>2026-03-29T09:57:38.001Z</time></trkpt><trkpt lat="38.1531784101858" lon="13.26626428166635"><ele>626.0</ele><time>2026-03-29T09:57:39.001Z</time></trkpt></trkseg><trkseg><trkpt lat="38.15320006199921" lon="13.266017610721358"><ele>626.0</ele><time>2026-03-29T10:07:41.003Z</time></trkpt><trkpt lat="38.15312755645307" lon="13.266124464569854"><ele>626.0</ele><time>2026-03-29T10:07:44.003Z</time></trkpt><trkpt lat="38.15305997250041" lon="13.266191435450077"><ele>626.0</ele><time>2026-03-29T10:07:57.002Z</time></trkpt><trkpt lat="38.15298105421916" lon="13.26620175024929"><ele>626.0</ele><time>2026-03-29T10:07:58.002Z</time></trkpt><trkpt lat="38.152913978309314" lon="13.266217295126395"><ele>626.0</ele><time>2026-03-29T10:08:00.002Z</time></trkpt><trkpt lat="38.15281123802003" lon="13.266147829016443"><ele>626.0</ele><time>2026-03-29T10:08:01.002Z</time></trkpt><trkpt lat="38.15268876745869" lon="13.266089700675575"><ele>626.0</ele><time>2026-03-29T10:08:03.002Z</time></trkpt><trkpt lat="38.15257489048566" lon="13.266029033677375"><ele>626.0</ele><time>2026-03-29T10:08:05.001Z</time></trkpt><trkpt lat="38.152510136484814" lon="13.266004017466704"><ele>626.0</ele><time>2026-03-29T10:08:06.001Z</time></trkpt><trkpt lat="38.152416199348906" lon="13.265918422794915"><ele>626.0</ele><time>2026-03-29T10:08:08.001Z</time></trkpt><trkpt lat="38.152315825925236" lon="13.265798115873986"><ele>626.0</ele><time>2026-03-29T10:08:10.001Z</time></trkpt><trkpt lat="38.152267966475904" lon="13.265738832603633"><ele>626.0</ele><time>2026-03-29T10:08:11.001Z</time></trkpt><trkpt lat="38.152215510523234" lon="13.265682288495887"><ele>626.0</ele><time>2026-03-29T10:08:12.001Z</time></trkpt><trkpt lat="38.15216257203222" lon="13.26560952634056"><ele>626.0</ele><time>2026-03-29T10:08:13.001Z</time></trkpt><trkpt lat="38.152071392665896" lon="13.265535204479857"><ele>626.0</ele><time>2026-03-29T10:08:14.001Z</time></trkpt><trkpt lat="38.151991704923965" lon="13.265454683642838"><ele>626.0</ele><time>2026-03-29T10:08:15.001Z</time></trkpt><trkpt lat="38.1519122861684" lon="13.265389587049262"><ele>622.8333333333333</ele><time>2026-03-29T10:08:16.001Z</time></trkpt><trkpt lat="38.15183660229595" lon="13.26532089145226"><ele>619.6666666666666</ele><time>2026-03-29T10:08:17.001Z</time></trkpt><trkpt lat="38.15176222905713" lon="13.265289292909381"><ele>616.5</ele><time>2026-03-29T10:08:18.001Z</time></trkpt><trkpt lat="38.151693045419805" lon="13.265245958514932"><ele>613.3333333333334</ele><time>2026-03-29T10:08:19.001Z</time></trkpt><trkpt lat="38.151616742472406" lon="13.265203046312203"><ele>610.1666666666667</ele><time>2026-03-29T10:08:20.001Z</time></trkpt><trkpt lat="38.15152633948606" lon="13.265167247543008"><ele>607.0</ele><time>2026-03-29T10:08:21.001Z</time></trkpt><trkpt lat="38.15144324447331" lon="13.265113875096716"><ele>607.0</ele><time>2026-03-29T10:08:22.001Z</time></trkpt><trkpt lat="38.151298025482404" lon="13.265017966821313"><ele>607.0</ele><time>2026-03-29T10:08:24Z</time></trkpt><trkpt lat="38.15120813502643" lon="13.264961187142026"><ele>607.0</ele><time>2026-03-29T10:08:25Z</time></trkpt><trkpt lat="38.15112509112596" lon="13.264905787013173"><ele>607.0</ele><time>2026-03-29T10:08:26Z</time></trkpt><trkpt lat="38.15105847700612" lon="13.264840067530445"><ele>607.0</ele><time>2026-03-29T10:08:27Z</time></trkpt><trkpt lat="38.150986929482904" lon="13.264807046990917"><ele>607.0</ele><time>2026-03-29T10:08:28Z</time></trkpt><trkpt lat="38.15085487383506" lon="13.264767695000906"><ele>607.0</ele><time>2026-03-29T10:08:30Z</time></trkpt><trkpt lat="38.15078068283018" lon="13.2647983858986"><ele>607.0</ele><time>2026-03-29T10:08:31Z</time></trkpt><trkpt lat="38.150704971751004" lon="13.264826042177088"><ele>607.0</ele><time>2026-03-29T10:08:32Z</time></trkpt><trkpt lat="38.150618297692105" lon="13.26487739460337"><ele>607.0</ele><time>2026-03-29T10:08:33Z</time></trkpt><trkpt lat="38.15053864976199" lon="13.264944134748012"><ele>607.7142857142857</ele><time>2026-03-29T10:08:34Z</time></trkpt><trkpt lat="38.15046759133796" lon="13.265013618319188"><ele>608.4285714285714</ele><time>2026-03-29T10:08:35Z</time></trkpt><trkpt lat="38.150399482081646" lon="13.265046278240849"><ele>609.1428571428571</ele><time>2026-03-29T10:08:36Z</time></trkpt><trkpt lat="38.15033439079173" lon="13.265042508861725"><ele>609.8571428571429</ele><time>2026-03-29T10:08:37Z</time></trkpt><trkpt lat="38.15025808815269" lon="13.26505064651676"><ele>610.5714285714286</ele><time>2026-03-29T10:08:38Z</time></trkpt><trkpt lat="38.150188163388734" lon="13.265022360667524"><ele>611.2857142857142</ele><time>2026-03-29T10:08:39Z</time></trkpt><trkpt lat="38.1501443980192" lon="13.264957445303661"><ele>612.0</ele><time>2026-03-29T10:08:40Z</time></trkpt><trkpt lat="38.15010745291373" lon="13.264876430975386"><ele>609.3333333333334</ele><time>2026-03-29T10:08:41Z</time></trkpt><trkpt lat="38.150035108038" lon="13.264778590685156"><ele>606.6666666666666</ele><time>2026-03-29T10:08:42Z</time></trkpt><trkpt lat="38.14997256256835" lon="13.264709233210358"><ele>604.0</ele><time>2026-03-29T10:08:43Z</time></trkpt><trkpt lat="38.14992153201779" lon="13.264644150851293"><ele>601.3333333333333</ele><time>2026-03-29T10:08:44Z</time></trkpt><trkpt lat="38.14984797907429" lon="13.264584952783066"><ele>598.6666666666666</ele><time>2026-03-29T10:08:45Z</time></trkpt><trkpt lat="38.14976832181201" lon="13.264525532037373"><ele>596.0</ele><time>2026-03-29T10:08:46Z</time></trkpt><trkpt lat="38.14968924866333" lon="13.2644815270205"><ele>596.0</ele><time>2026-03-29T10:08:47Z</time></trkpt><trkpt lat="38.14959628401437" lon="13.26442797110208"><ele>596.0</ele><time>2026-03-29T10:08:48Z</time></trkpt><trkpt lat="38.149506368820944" lon="13.264390910722838"><ele>596.0</ele><time>2026-03-29T10:08:49Z</time></trkpt><trkpt lat="38.14940884373167" lon="13.264353045356657"><ele>596.0</ele><time>2026-03-29T10:08:50Z</time></trkpt><trkpt lat="38.149296933245196" lon="13.264295466283288"><ele>596.0</ele><time>2026-03-29T10:08:51Z</time></trkpt><trkpt lat="38.14920585749428" lon="13.26425911668021"><ele>596.0</ele><time>2026-03-29T10:08:52Z</time></trkpt><trkpt lat="38.14910847549689" lon="13.264219160694605"><ele>596.0</ele><time>2026-03-29T10:08:53Z</time></trkpt><trkpt lat="38.14901236656332" lon="13.264163737341224"><ele>596.0</ele><time>2026-03-29T10:08:54Z</time></trkpt><trkpt lat="38.14893582770434" lon="13.26408466754729"><ele>596.0</ele><time>2026-03-29T10:08:55Z</time></trkpt><trkpt lat="38.148870982914694" lon="13.264012492424387"><ele>596.0</ele><time>2026-03-29T10:08:56Z</time></trkpt><trkpt lat="38.14879511909061" lon="13.263950087681309"><ele>596.3333333333333</ele><time>2026-03-29T10:08:57Z</time></trkpt><trkpt lat="38.14874129001008" lon="13.263864097953325"><ele>596.6666666666666</ele><time>2026-03-29T10:08:58Z</time></trkpt><trkpt lat="38.14867133046319" lon="13.263805576622412"><ele>597.0</ele><time>2026-03-29T10:08:59Z</time></trkpt><trkpt lat="38.14861453886724" lon="13.263741920551782"><ele>597.3333333333334</ele><time>2026-03-29T10:09:00Z</time></trkpt><trkpt lat="38.14855294283653" lon="13.263673533928197"><ele>597.6666666666667</ele><time>2026-03-29T10:09:01Z</time></trkpt><trkpt lat="38.14849432068178" lon="13.263604604013766"><ele>598.0</ele><time>2026-03-29T10:09:02Z</time></trkpt><trkpt lat="38.14843603934632" lon="13.26353551638722"><ele>598.0</ele><time>2026-03-29T10:09:03Z</time></trkpt><trkpt lat="38.14837713986135" lon="13.26346473463503"><ele>598.0</ele><time>2026-03-29T10:09:04Z</time></trkpt><trkpt lat="38.14831746670514" lon="13.263391858636544"><ele>598.0</ele><time>2026-03-29T10:09:05Z</time></trkpt><trkpt lat="38.14825501561464" lon="13.263313330099686"><ele>598.0</ele><time>2026-03-29T10:09:06Z</time></trkpt><trkpt lat="38.148202043407764" lon="13.263243541134322"><ele>598.0</ele><time>2026-03-29T10:09:07Z</time></trkpt><trkpt lat="38.14814783672713" lon="13.263171891416718"><ele>598.0</ele><time>2026-03-29T10:09:08Z</time></trkpt><trkpt lat="38.148106038521725" lon="13.263093993483997"><ele>599.3333333333334</ele><time>2026-03-29T10:09:09Z</time></trkpt><trkpt lat="38.14804365895271" lon="13.263036058006353"><ele>600.6666666666667</ele><time>2026-03-29T10:09:10Z</time></trkpt><trkpt lat="38.14798837233766" lon="13.26295726649564"><ele>602.0</ele><time>2026-03-29T10:09:11Z</time></trkpt><trkpt lat="38.1479345311053" lon="13.262882836575995"><ele>603.3333333333334</ele><time>2026-03-29T10:09:12Z</time></trkpt><trkpt lat="38.14787490434401" lon="13.262812274158936"><ele>604.6666666666666</ele><time>2026-03-29T10:09:13Z</time></trkpt><trkpt lat="38.14781254466047" lon="13.262749675181583"><ele>606.0</ele><time>2026-03-29T10:09:14Z</time></trkpt><trkpt lat="38.14774562126144" lon="13.262682641023082"><ele>606.0</ele><time>2026-03-29T10:09:15Z</time></trkpt><trkpt lat="38.14766969282059" lon="13.262611177372253"><ele>606.0</ele><time>2026-03-29T10:09:16Z</time></trkpt><trkpt lat="38.14759394435402" lon="13.262522514061995"><ele>606.0</ele><time>2026-03-29T10:09:17Z</time></trkpt><trkpt lat="38.147508903607" lon="13.262434675712232"><ele>606.0</ele><time>2026-03-29T10:09:18Z</time></trkpt><trkpt lat="38.14743275678379" lon="13.262333419239944"><ele>606.0</ele><time>2026-03-29T10:09:19Z</time></trkpt><trkpt lat="38.147358477101164" lon="13.262249900064381"><ele>607.0</ele><time>2026-03-29T10:09:20Z</time></trkpt><trkpt lat="38.14727517178872" lon="13.262165935536311"><ele>608.0</ele><time>2026-03-29T10:09:21Z</time></trkpt><trkpt lat="38.14717759817827" lon="13.262070643453537"><ele>609.0</ele><time>2026-03-29T10:09:22Z</time></trkpt><trkpt lat="38.14707769418674" lon="13.261967168438092"><ele>610.0</ele><time>2026-03-29T10:09:23Z</time></trkpt><trkpt lat="38.14698064787681" lon="13.261866570896316"><ele>610.0</ele><time>2026-03-29T10:09:24Z</time></trkpt><trkpt lat="38.14689963383427" lon="13.261777526805028"><ele>610.0</ele><time>2026-03-29T10:09:25Z</time></trkpt><trkpt lat="38.14681371307904" lon="13.261696826637674"><ele>610.0</ele><time>2026-03-29T10:09:26Z</time></trkpt><trkpt lat="38.14673129900956" lon="13.261604882160572"><ele>610.0</ele><time>2026-03-29T10:09:27Z</time></trkpt><trkpt lat="38.146642066922716" lon="13.261536994001766"><ele>610.0</ele><time>2026-03-29T10:09:28Z</time></trkpt><trkpt lat="38.14657085653853" lon="13.261466503185838"><ele>609.4</ele><time>2026-03-29T10:09:29Z</time></trkpt><trkpt lat="38.14650389649221" lon="13.261412409616431"><ele>608.8</ele><time>2026-03-29T10:09:30Z</time></trkpt><trkpt lat="38.14642535731114" lon="13.261361169634547"><ele>608.2</ele><time>2026-03-29T10:09:31Z</time></trkpt><trkpt lat="38.14635594233576" lon="13.261296016638747"><ele>607.6</ele><time>2026-03-29T10:09:32Z</time></trkpt><trkpt lat="38.146274733935364" lon="13.261224099747814"><ele>607.0</ele><time>2026-03-29T10:09:33Z</time></trkpt><trkpt lat="38.146189334980406" lon="13.261160759717576"><ele>607.0</ele><time>2026-03-29T10:09:34Z</time></trkpt><trkpt lat="38.146108218630424" lon="13.261102966901865"><ele>607.0</ele><time>2026-03-29T10:09:35Z</time></trkpt><trkpt lat="38.14602793614436" lon="13.261023057448142"><ele>607.0</ele><time>2026-03-29T10:09:36Z</time></trkpt><trkpt lat="38.14595716583313" lon="13.260940222073923"><ele>607.0</ele><time>2026-03-29T10:09:37Z</time></trkpt><trkpt lat="38.145892189052205" lon="13.260853480432646"><ele>607.0</ele><time>2026-03-29T10:09:38Z</time></trkpt><trkpt lat="38.145831806530516" lon="13.260766730328687"><ele>607.0</ele><time>2026-03-29T10:09:39Z</time></trkpt><trkpt lat="38.145763727030854" lon="13.260679013501916"><ele>607.0</ele><time>2026-03-29T10:09:40Z</time></trkpt><trkpt lat="38.14569477836084" lon="13.260609459303327"><ele>607.0</ele><time>2026-03-29T10:09:41Z</time></trkpt><trkpt lat="38.14561517578716" lon="13.26053881534698"><ele>607.0</ele><time>2026-03-29T10:09:42Z</time></trkpt><trkpt lat="38.145536934721896" lon="13.260482540553232"><ele>607.0</ele><time>2026-03-29T10:09:43Z</time></trkpt><trkpt lat="38.14545993368817" lon="13.26042348569624"><ele>606.6</ele><time>2026-03-29T10:09:44Z</time></trkpt><trkpt lat="38.145403375890986" lon="13.260348655284043"><ele>606.2</ele><time>2026-03-29T10:09:45Z</time></trkpt><trkpt lat="38.145333744358105" lon="13.260296428318677"><ele>605.8</ele><time>2026-03-29T10:09:46Z</time></trkpt><trkpt lat="38.14526715393838" lon="13.260217771033812"><ele>605.4</ele><time>2026-03-29T10:09:47Z</time></trkpt><trkpt lat="38.14519929149731" lon="13.260134773993542"><ele>605.0</ele><time>2026-03-29T10:09:48Z</time></trkpt><trkpt lat="38.14511363627469" lon="13.260043602792916"><ele>605.0</ele><time>2026-03-29T10:09:49Z</time></trkpt><trkpt lat="38.145036869711745" lon="13.259955459677172"><ele>605.0</ele><time>2026-03-29T10:09:50Z</time></trkpt><trkpt lat="38.14496354652948" lon="13.259856799495253"><ele>605.0</ele><time>2026-03-29T10:09:51Z</time></trkpt><trkpt lat="38.144892096275896" lon="13.259758802808204"><ele>605.0</ele><time>2026-03-29T10:09:52Z</time></trkpt><trkpt lat="38.14482231206386" lon="13.259660679601357"><ele>605.0</ele><time>2026-03-29T10:09:53Z</time></trkpt><trkpt lat="38.14475589827501" lon="13.259560580742589"><ele>606.4</ele><time>2026-03-29T10:09:54Z</time></trkpt><trkpt lat="38.14469005431246" lon="13.25945730447978"><ele>607.8</ele><time>2026-03-29T10:09:55Z</time></trkpt><trkpt lat="38.14462092050889" lon="13.25935147586698"><ele>609.2</ele><time>2026-03-29T10:09:56Z</time></trkpt><trkpt lat="38.14454898772814" lon="13.259246960213499"><ele>610.6</ele><time>2026-03-29T10:09:57Z</time></trkpt><trkpt lat="38.144477860711326" lon="13.259142387154949"><ele>612.0</ele><time>2026-03-29T10:09:58Z</time></trkpt><trkpt lat="38.14442307460783" lon="13.259033344942825"><ele>607.2</ele><time>2026-03-29T10:09:59Z</time></trkpt><trkpt lat="38.14435689758288" lon="13.258927946577524"><ele>602.4000000000001</ele><time>2026-03-29T10:10:00Z</time></trkpt><trkpt lat="38.144299887857905" lon="13.258810687187996"><ele>597.5999999999999</ele><time>2026-03-29T10:10:01Z</time></trkpt><trkpt lat="38.14425126267328" lon="13.258704872238889"><ele>592.8</ele><time>2026-03-29T10:10:02Z</time></trkpt><trkpt lat="38.14422699394899" lon="13.258589237706385"><ele>588.0</ele><time>2026-03-29T10:10:03Z</time></trkpt><trkpt lat="38.14419622458895" lon="13.25849999713732"><ele>588.0</ele><time>2026-03-29T10:10:04Z</time></trkpt><trkpt lat="38.144153488524836" lon="13.258431893255226"><ele>588.0</ele><time>2026-03-29T10:10:05Z</time></trkpt><trkpt lat="38.14410776044626" lon="13.258336159126838"><ele>588.0</ele><time>2026-03-29T10:10:06Z</time></trkpt><trkpt lat="38.14405727927303" lon="13.25824747348656"><ele>588.0</ele><time>2026-03-29T10:10:07Z</time></trkpt><trkpt lat="38.143993488907306" lon="13.258161153496967"><ele>588.0</ele><time>2026-03-29T10:10:08Z</time></trkpt><trkpt lat="38.143919767634706" lon="13.258079301566339"><ele>588.0</ele><time>2026-03-29T10:10:09Z</time></trkpt><trkpt lat="38.14386355851485" lon="13.257987701782655"><ele>588.4</ele><time>2026-03-29T10:10:10Z</time></trkpt><trkpt lat="38.1437916478706" lon="13.257893357392906"><ele>588.8</ele><time>2026-03-29T10:10:11Z</time></trkpt><trkpt lat="38.14372197089146" lon="13.257797164632793"><ele>589.2</ele><time>2026-03-29T10:10:12Z</time></trkpt><trkpt lat="38.14366256817282" lon="13.25770428031902"><ele>589.6</ele><time>2026-03-29T10:10:13Z</time></trkpt><trkpt lat="38.1435914220934" lon="13.257634605263124"><ele>590.0</ele><time>2026-03-29T10:10:14Z</time></trkpt><trkpt lat="38.14352450261377" lon="13.257571578073222"><ele>590.0</ele><time>2026-03-29T10:10:15Z</time></trkpt><trkpt lat="38.143462624704554" lon="13.25750287470355"><ele>590.0</ele><time>2026-03-29T10:10:16Z</time></trkpt><trkpt lat="38.143385922850456" lon="13.257411829557553"><ele>590.0</ele><time>2026-03-29T10:10:17Z</time></trkpt><trkpt lat="38.143326965070045" lon="13.257323195985917"><ele>590.0</ele><time>2026-03-29T10:10:18Z</time></trkpt><trkpt lat="38.143283792431205" lon="13.25722705727904"><ele>590.0</ele><time>2026-03-29T10:10:19Z</time></trkpt><trkpt lat="38.1432525318063" lon="13.257134069145357"><ele>590.0</ele><time>2026-03-29T10:10:20Z</time></trkpt><trkpt lat="38.1432177053795" lon="13.257018571854939"><ele>592.2</ele><time>2026-03-29T10:10:21Z</time></trkpt><trkpt lat="38.14318118119497" lon="13.256897231545981"><ele>594.4</ele><time>2026-03-29T10:10:22Z</time></trkpt><trkpt lat="38.143147673485714" lon="13.256780763465104"><ele>596.6</ele><time>2026-03-29T10:10:23Z</time></trkpt><trkpt lat="38.14311895965854" lon="13.25665020531925"><ele>598.8</ele><time>2026-03-29T10:10:24Z</time></trkpt><trkpt lat="38.14309634394553" lon="13.256533283165165"><ele>601.0</ele><time>2026-03-29T10:10:25Z</time></trkpt><trkpt lat="38.14306185284358" lon="13.256425765701609"><ele>601.0</ele><time>2026-03-29T10:10:26Z</time></trkpt><trkpt lat="38.14302338827347" lon="13.25631459715083"><ele>601.0</ele><time>2026-03-29T10:10:27Z</time></trkpt><trkpt lat="38.14299695600558" lon="13.25620446568811"><ele>601.0</ele><time>2026-03-29T10:10:28Z</time></trkpt><trkpt lat="38.14295993666798" lon="13.256110010709438"><ele>601.0</ele><time>2026-03-29T10:10:29Z</time></trkpt><trkpt lat="38.1429270854733" lon="13.256005014113287"><ele>601.0</ele><time>2026-03-29T10:10:30Z</time></trkpt><trkpt lat="38.14290172029073" lon="13.255888500156935"><ele>601.0</ele><time>2026-03-29T10:10:31Z</time></trkpt><trkpt lat="38.142863632822156" lon="13.255810433885776"><ele>601.0</ele><time>2026-03-29T10:10:32Z</time></trkpt><trkpt lat="38.14281665186838" lon="13.255726869552689"><ele>601.0</ele><time>2026-03-29T10:10:33Z</time></trkpt><trkpt lat="38.142746659687724" lon="13.255620865628684"><ele>601.0</ele><time>2026-03-29T10:10:34Z</time></trkpt><trkpt lat="38.14269456466849" lon="13.255526145644575"><ele>601.0</ele><time>2026-03-29T10:10:35Z</time></trkpt><trkpt lat="38.14262273374058" lon="13.255415436191532"><ele>596.0</ele><time>2026-03-29T10:10:36Z</time></trkpt><trkpt lat="38.142566645624946" lon="13.255312714713568"><ele>591.0</ele><time>2026-03-29T10:10:37Z</time></trkpt><trkpt lat="38.14250743398165" lon="13.25519826234047"><ele>586.0</ele><time>2026-03-29T10:10:38Z</time></trkpt><trkpt lat="38.14245921357561" lon="13.255075434320714"><ele>581.0</ele><time>2026-03-29T10:10:39Z</time></trkpt><trkpt lat="38.142405240755245" lon="13.254958329759678"><ele>576.0</ele><time>2026-03-29T10:10:40Z</time></trkpt><trkpt lat="38.142359081356865" lon="13.254840246999391"><ele>583.0</ele><time>2026-03-29T10:10:41Z</time></trkpt><trkpt lat="38.14231090208264" lon="13.254712975170058"><ele>590.0</ele><time>2026-03-29T10:10:42Z</time></trkpt><trkpt lat="38.14226869280266" lon="13.25458742267845"><ele>597.0</ele><time>2026-03-29T10:10:43Z</time></trkpt><trkpt lat="38.142232041473996" lon="13.254476965237531"><ele>604.0</ele><time>2026-03-29T10:10:44Z</time></trkpt><trkpt lat="38.14219375146562" lon="13.254356283326187"><ele>611.0</ele><time>2026-03-29T10:10:45Z</time></trkpt><trkpt lat="38.142155092163115" lon="13.254241851183094"><ele>611.0</ele><time>2026-03-29T10:10:46Z</time></trkpt><trkpt lat="38.14211539073522" lon="13.25413630559521"><ele>611.0</ele><time>2026-03-29T10:10:47Z</time></trkpt><trkpt lat="38.142075150007436" lon="13.254029965502664"><ele>611.0</ele><time>2026-03-29T10:10:48Z</time></trkpt><trkpt lat="38.142011994326616" lon="13.253890900181725"><ele>611.0</ele><time>2026-03-29T10:10:49Z</time></trkpt><trkpt lat="38.14195483991893" lon="13.253764290316067"><ele>611.0</ele><time>2026-03-29T10:10:50Z</time></trkpt><trkpt lat="38.141902719899996" lon="13.25363577479606"><ele>606.6</ele><time>2026-03-29T10:10:51Z</time></trkpt><trkpt lat="38.141856877286706" lon="13.253518871524612"><ele>602.2</ele><time>2026-03-29T10:10:52Z</time></trkpt><trkpt lat="38.14180435141107" lon="13.253397812149565"><ele>597.8</ele><time>2026-03-29T10:10:53Z</time></trkpt><trkpt lat="38.141774791655344" lon="13.253286892425177"><ele>593.4</ele><time>2026-03-29T10:10:54Z</time></trkpt><trkpt lat="38.14173741582302" lon="13.253174396251124"><ele>589.0</ele><time>2026-03-29T10:10:55Z</time></trkpt><trkpt lat="38.141697185318414" lon="13.253065919488892"><ele>583.0</ele><time>2026-03-29T10:10:56Z</time></trkpt><trkpt lat="38.14164425278598" lon="13.252955278598165"><ele>577.0</ele><time>2026-03-29T10:10:57Z</time></trkpt><trkpt lat="38.14159648058567" lon="13.252866552224527"><ele>571.0</ele><time>2026-03-29T10:10:58Z</time></trkpt><trkpt lat="38.14154336473823" lon="13.252765753168267"><ele>565.0</ele><time>2026-03-29T10:10:59Z</time></trkpt><trkpt lat="38.14149920899834" lon="13.252669885531263"><ele>559.0</ele><time>2026-03-29T10:11:00Z</time></trkpt><trkpt lat="38.14145998650228" lon="13.252553213095023"><ele>565.4</ele><time>2026-03-29T10:11:01Z</time></trkpt><trkpt lat="38.141410105365466" lon="13.252428819710284"><ele>571.8</ele><time>2026-03-29T10:11:02Z</time></trkpt><trkpt lat="38.14136162673679" lon="13.2523078874375"><ele>578.2</ele><time>2026-03-29T10:11:03Z</time></trkpt><trkpt lat="38.14130450829381" lon="13.252180363333684"><ele>584.6</ele><time>2026-03-29T10:11:04Z</time></trkpt><trkpt lat="38.141250172884625" lon="13.25205427922509"><ele>591.0</ele><time>2026-03-29T10:11:05Z</time></trkpt><trkpt lat="38.141195425236475" lon="13.251928213770212"><ele>591.0</ele><time>2026-03-29T10:11:06Z</time></trkpt><trkpt lat="38.14114230879437" lon="13.251804456040098"><ele>591.0</ele><time>2026-03-29T10:11:07Z</time></trkpt><trkpt lat="38.14108491203175" lon="13.251676806428025"><ele>591.0</ele><time>2026-03-29T10:11:08Z</time></trkpt><trkpt lat="38.14103525720978" lon="13.251560290239892"><ele>591.0</ele><time>2026-03-29T10:11:09Z</time></trkpt><trkpt lat="38.140984617902014" lon="13.25145715050625"><ele>591.0</ele><time>2026-03-29T10:11:10Z</time></trkpt><trkpt lat="38.14094507056974" lon="13.251370553525401"><ele>594.3333333333334</ele><time>2026-03-29T10:11:11Z</time></trkpt><trkpt lat="38.1409062200471" lon="13.251257010357081"><ele>597.6666666666666</ele><time>2026-03-29T10:11:12Z</time></trkpt><trkpt lat="38.14086081424882" lon="13.251171445650435"><ele>601.0</ele><time>2026-03-29T10:11:13Z</time></trkpt><trkpt lat="38.14082654721101" lon="13.251076533001486"><ele>604.3333333333333</ele><time>2026-03-29T10:11:14Z</time></trkpt><trkpt lat="38.14078914801787" lon="13.250974616857482"><ele>607.6666666666666</ele><time>2026-03-29T10:11:15Z</time></trkpt><trkpt lat="38.14075010839505" lon="13.250875244403444"><ele>611.0</ele><time>2026-03-29T10:11:16Z</time></trkpt><trkpt lat="38.14070255886799" lon="13.250766945052543"><ele>611.0</ele><time>2026-03-29T10:11:17Z</time></trkpt><trkpt lat="38.140647146435604" lon="13.250658845637256"><ele>611.0</ele><time>2026-03-29T10:11:18Z</time></trkpt><trkpt lat="38.14058884583188" lon="13.250562839076014"><ele>611.0</ele><time>2026-03-29T10:11:19Z</time></trkpt><trkpt lat="38.14052694171684" lon="13.250464811207152"><ele>611.0</ele><time>2026-03-29T10:11:20Z</time></trkpt><trkpt lat="38.14046783493417" lon="13.250363198720414"><ele>611.0</ele><time>2026-03-29T10:11:21Z</time></trkpt><trkpt lat="38.1404054291959" lon="13.250252514081243"><ele>605.0</ele><time>2026-03-29T10:11:22Z</time></trkpt><trkpt lat="38.14034345480139" lon="13.250154622307354"><ele>599.0</ele><time>2026-03-29T10:11:23Z</time></trkpt><trkpt lat="38.14028604525613" lon="13.250057248325964"><ele>593.0</ele><time>2026-03-29T10:11:24Z</time></trkpt><trkpt lat="38.1402127695654" lon="13.249962235284723"><ele>587.0</ele><time>2026-03-29T10:11:25Z</time></trkpt><trkpt lat="38.1401692210072" lon="13.24986651690914"><ele>581.0</ele><time>2026-03-29T10:11:26Z</time></trkpt><trkpt lat="38.14010513812329" lon="13.249767485915429"><ele>582.8</ele><time>2026-03-29T10:11:27Z</time></trkpt><trkpt lat="38.140035684624365" lon="13.24966616275203"><ele>584.6</ele><time>2026-03-29T10:11:28Z</time></trkpt><trkpt lat="38.13997255391451" lon="13.249558770600586"><ele>586.4</ele><time>2026-03-29T10:11:29Z</time></trkpt><trkpt lat="38.1399088307426" lon="13.2494595183524"><ele>588.2</ele><time>2026-03-29T10:11:30Z</time></trkpt><trkpt lat="38.13984383553883" lon="13.249358835143116"><ele>590.0</ele><time>2026-03-29T10:11:31Z</time></trkpt><trkpt lat="38.13977740406221" lon="13.249259301650476"><ele>590.0</ele><time>2026-03-29T10:11:32Z</time></trkpt><trkpt lat="38.13971509037614" lon="13.24915685654237"><ele>590.0</ele><time>2026-03-29T10:11:33Z</time></trkpt><trkpt lat="38.13964778361474" lon="13.249048992082129"><ele>590.0</ele><time>2026-03-29T10:11:34Z</time></trkpt><trkpt lat="38.1395822026874" lon="13.248949807205484"><ele>590.0</ele><time>2026-03-29T10:11:35Z</time></trkpt><trkpt lat="38.13951198666241" lon="13.248846696253358"><ele>590.0</ele><time>2026-03-29T10:11:36Z</time></trkpt><trkpt lat="38.13944257022394" lon="13.24874601127805"><ele>584.0</ele><time>2026-03-29T10:11:37Z</time></trkpt><trkpt lat="38.139381619460195" lon="13.248655826870989"><ele>578.0</ele><time>2026-03-29T10:11:38Z</time></trkpt><trkpt lat="38.139326722830354" lon="13.248556112112624"><ele>572.0</ele><time>2026-03-29T10:11:39Z</time></trkpt><trkpt lat="38.13924653583433" lon="13.24845464824956"><ele>566.0</ele><time>2026-03-29T10:11:40Z</time></trkpt><trkpt lat="38.13917835929093" lon="13.248359346960973"><ele>560.0</ele><time>2026-03-29T10:11:41Z</time></trkpt><trkpt lat="38.13911517383754" lon="13.248263741136656"><ele>562.6</ele><time>2026-03-29T10:11:42Z</time></trkpt><trkpt lat="38.139042817550354" lon="13.248162435281206"><ele>565.2</ele><time>2026-03-29T10:11:43Z</time></trkpt><trkpt lat="38.138979718544896" lon="13.248057846738325"><ele>567.8</ele><time>2026-03-29T10:11:44Z</time></trkpt><trkpt lat="38.13891571257215" lon="13.247957621004435"><ele>570.4</ele><time>2026-03-29T10:11:45Z</time></trkpt><trkpt lat="38.138850009329026" lon="13.24786375056444"><ele>573.0</ele><time>2026-03-29T10:11:46Z</time></trkpt><trkpt lat="38.13877648987793" lon="13.247774910623294"><ele>573.0</ele><time>2026-03-29T10:11:47Z</time></trkpt><trkpt lat="38.1387149592097" lon="13.247675744831183"><ele>573.0</ele><time>2026-03-29T10:11:48Z</time></trkpt><trkpt lat="38.1386522588564" lon="13.24759418757056"><ele>573.0</ele><time>2026-03-29T10:11:49Z</time></trkpt><trkpt lat="38.13859663824057" lon="13.247495645092638"><ele>573.0</ele><time>2026-03-29T10:11:50Z</time></trkpt><trkpt lat="38.13853700339165" lon="13.247402242673397"><ele>573.0</ele><time>2026-03-29T10:11:51Z</time></trkpt><trkpt lat="38.138461810645445" lon="13.247310524960774"><ele>574.8</ele><time>2026-03-29T10:11:52Z</time></trkpt><trkpt lat="38.13840941988793" lon="13.247216117387614"><ele>576.5999999999999</ele><time>2026-03-29T10:11:53Z</time></trkpt><trkpt lat="38.13833065961466" lon="13.247116845919683"><ele>578.4000000000001</ele><time>2026-03-29T10:11:54Z</time></trkpt><trkpt lat="38.138280033678456" lon="13.247026633980973"><ele>580.2</ele><time>2026-03-29T10:11:55Z</time></trkpt><trkpt lat="38.13818138096031" lon="13.246913562249071"><ele>582.0</ele><time>2026-03-29T10:11:56Z</time></trkpt><trkpt lat="38.138102460716325" lon="13.246821506836943"><ele>582.0</ele><time>2026-03-29T10:11:57Z</time></trkpt><trkpt lat="38.13803815707147" lon="13.246717307314922"><ele>582.0</ele><time>2026-03-29T10:11:58Z</time></trkpt><trkpt lat="38.13796570860127" lon="13.246621037172778"><ele>582.0</ele><time>2026-03-29T10:11:59Z</time></trkpt><trkpt lat="38.137891746162765" lon="13.246530621289471"><ele>582.0</ele><time>2026-03-29T10:12:00Z</time></trkpt><trkpt lat="38.13782502138652" lon="13.246423780158981"><ele>582.0</ele><time>2026-03-29T10:12:01Z</time></trkpt><trkpt lat="38.13774362584199" lon="13.246336948066268"><ele>581.2</ele><time>2026-03-29T10:12:02Z</time></trkpt><trkpt lat="38.137664768663825" lon="13.246246422640162"><ele>580.4000000000001</ele><time>2026-03-29T10:12:03Z</time></trkpt><trkpt lat="38.137585311168934" lon="13.246155925207129"><ele>579.5999999999999</ele><time>2026-03-29T10:12:04Z</time></trkpt><trkpt lat="38.13751782812101" lon="13.246081548028867"><ele>578.8</ele><time>2026-03-29T10:12:05Z</time></trkpt><trkpt lat="38.13743673930059" lon="13.246003420323383"><ele>578.0</ele><time>2026-03-29T10:12:06Z</time></trkpt><trkpt lat="38.13735680848337" lon="13.245927327909502"><ele>578.0</ele><time>2026-03-29T10:12:07Z</time></trkpt><trkpt lat="38.13727746153093" lon="13.245857284849409"><ele>578.0</ele><time>2026-03-29T10:12:08Z</time></trkpt><trkpt lat="38.13719571567416" lon="13.245789254394522"><ele>578.0</ele><time>2026-03-29T10:12:09Z</time></trkpt><trkpt lat="38.137114776070234" lon="13.245724798540808"><ele>578.0</ele><time>2026-03-29T10:12:10Z</time></trkpt><trkpt lat="38.1370432516554" lon="13.245668164172018"><ele>578.0</ele><time>2026-03-29T10:12:11Z</time></trkpt><trkpt lat="38.136963208684584" lon="13.24561956186794"><ele>569.0</ele><time>2026-03-29T10:12:12Z</time></trkpt><trkpt lat="38.13688262116793" lon="13.245576999558617"><ele>560.0</ele><time>2026-03-29T10:12:13Z</time></trkpt><trkpt lat="38.136806319174305" lon="13.245531937835755"><ele>551.0</ele><time>2026-03-29T10:12:14Z</time></trkpt><trkpt lat="38.13671468325225" lon="13.24549057918905"><ele>542.0</ele><time>2026-03-29T10:12:15Z</time></trkpt><trkpt lat="38.13662012900182" lon="13.24544967890989"><ele>533.0</ele><time>2026-03-29T10:12:16Z</time></trkpt><trkpt lat="38.13652869404032" lon="13.245418827913275"><ele>533.0</ele><time>2026-03-29T10:12:17Z</time></trkpt><trkpt lat="38.13644396698508" lon="13.245389201360851"><ele>533.0</ele><time>2026-03-29T10:12:18Z</time></trkpt><trkpt lat="38.13635301257162" lon="13.245382710385627"><ele>533.0</ele><time>2026-03-29T10:12:19Z</time></trkpt><trkpt lat="38.13627146655934" lon="13.245356034835327"><ele>533.0</ele><time>2026-03-29T10:12:20Z</time></trkpt><trkpt lat="38.13617900954053" lon="13.245348835598517"><ele>533.0</ele><time>2026-03-29T10:12:21Z</time></trkpt><trkpt lat="38.13609471433457" lon="13.245370193694658"><ele>533.0</ele><time>2026-03-29T10:12:22Z</time></trkpt><trkpt lat="38.13600029278715" lon="13.245362175995012"><ele>533.0</ele><time>2026-03-29T10:12:23Z</time></trkpt><trkpt lat="38.13590516542161" lon="13.245380387908684"><ele>533.0</ele><time>2026-03-29T10:12:24Z</time></trkpt><trkpt lat="38.13580921482965" lon="13.245401114724055"><ele>533.0</ele><time>2026-03-29T10:12:25Z</time></trkpt><trkpt lat="38.135713623909744" lon="13.245418328239621"><ele>533.0</ele><time>2026-03-29T10:12:26Z</time></trkpt><trkpt lat="38.13561147711855" lon="13.245442739740232"><ele>533.0</ele><time>2026-03-29T10:12:27Z</time></trkpt><trkpt lat="38.13551995415363" lon="13.24545481420047"><ele>532.4</ele><time>2026-03-29T10:12:28Z</time></trkpt><trkpt lat="38.135425874944296" lon="13.245453370463006"><ele>531.8</ele><time>2026-03-29T10:12:29Z</time></trkpt><trkpt lat="38.13533046653003" lon="13.245481898034834"><ele>531.2</ele><time>2026-03-29T10:12:30Z</time></trkpt><trkpt lat="38.135227631703934" lon="13.245490523355748"><ele>530.6</ele><time>2026-03-29T10:12:31Z</time></trkpt><trkpt lat="38.13515436916686" lon="13.245510031577037"><ele>530.0</ele><time>2026-03-29T10:12:32Z</time></trkpt><trkpt lat="38.13504900770807" lon="13.245538823462793"><ele>530.0</ele><time>2026-03-29T10:12:33Z</time></trkpt><trkpt lat="38.13494672342565" lon="13.245564337651693"><ele>530.0</ele><time>2026-03-29T10:12:34Z</time></trkpt><trkpt lat="38.134848743998894" lon="13.245578287955972"><ele>530.0</ele><time>2026-03-29T10:12:35Z</time></trkpt><trkpt lat="38.13475256610843" lon="13.245594231280224"><ele>530.0</ele><time>2026-03-29T10:12:36Z</time></trkpt><trkpt lat="38.13465430265818" lon="13.245607172012427"><ele>530.0</ele><time>2026-03-29T10:12:37Z</time></trkpt><trkpt lat="38.13454999492507" lon="13.245626737227672"><ele>528.8</ele><time>2026-03-29T10:12:38Z</time></trkpt><trkpt lat="38.13445494330385" lon="13.245624754454726"><ele>527.6</ele><time>2026-03-29T10:12:39Z</time></trkpt><trkpt lat="38.13435136910447" lon="13.245641192068916"><ele>526.4</ele><time>2026-03-29T10:12:40Z</time></trkpt><trkpt lat="38.13425363449891" lon="13.245651874978684"><ele>525.2</ele><time>2026-03-29T10:12:41Z</time></trkpt><trkpt lat="38.13415172834245" lon="13.24567256763146"><ele>524.0</ele><time>2026-03-29T10:12:42Z</time></trkpt><trkpt lat="38.134056187906666" lon="13.245682053635877"><ele>532.0</ele><time>2026-03-29T10:12:43Z</time></trkpt><trkpt lat="38.13396052670379" lon="13.245685832277578"><ele>540.0</ele><time>2026-03-29T10:12:44Z</time></trkpt><trkpt lat="38.13388305587441" lon="13.24567656714635"><ele>548.0</ele><time>2026-03-29T10:12:45Z</time></trkpt><trkpt lat="38.13380281440723" lon="13.245667400680118"><ele>556.0</ele><time>2026-03-29T10:12:46Z</time></trkpt><trkpt lat="38.13372674607039" lon="13.24566475512706"><ele>564.0</ele><time>2026-03-29T10:12:47Z</time></trkpt><trkpt lat="38.13365331663484" lon="13.2456568459414"><ele>572.0</ele><time>2026-03-29T10:12:48Z</time></trkpt><trkpt lat="38.133568613505986" lon="13.245639094501067"><ele>564.4</ele><time>2026-03-29T10:12:49Z</time></trkpt><trkpt lat="38.13347418883236" lon="13.245617549922923"><ele>556.8000000000001</ele><time>2026-03-29T10:12:50Z</time></trkpt><trkpt lat="38.13337915618459" lon="13.245608434490741"><ele>549.2</ele><time>2026-03-29T10:12:51Z</time></trkpt><trkpt lat="38.13327879764843" lon="13.245581264088033"><ele>541.6</ele><time>2026-03-29T10:12:52Z</time></trkpt><trkpt lat="38.13319007562609" lon="13.245558571764388"><ele>534.0</ele><time>2026-03-29T10:12:53Z</time></trkpt><trkpt lat="38.133100898554225" lon="13.245535678833724"><ele>534.0</ele><time>2026-03-29T10:12:54Z</time></trkpt><trkpt lat="38.1330293553105" lon="13.245507662884027"><ele>534.0</ele><time>2026-03-29T10:12:55Z</time></trkpt><trkpt lat="38.13295766087062" lon="13.24548582686659"><ele>534.0</ele><time>2026-03-29T10:12:56Z</time></trkpt><trkpt lat="38.13287605593143" lon="13.245467731630512"><ele>534.0</ele><time>2026-03-29T10:12:57Z</time></trkpt><trkpt lat="38.13280268838706" lon="13.245455978472004"><ele>534.0</ele><time>2026-03-29T10:12:58Z</time></trkpt><trkpt lat="38.13273201594275" lon="13.245465991560188"><ele>534.0</ele><time>2026-03-29T10:12:59Z</time></trkpt><trkpt lat="38.132651645745334" lon="13.245489905035043"><ele>534.0</ele><time>2026-03-29T10:13:00Z</time></trkpt><trkpt lat="38.13256817187351" lon="13.245529491194622"><ele>534.0</ele><time>2026-03-29T10:13:01Z</time></trkpt><trkpt lat="38.1324734291993" lon="13.245576164967144"><ele>534.0</ele><time>2026-03-29T10:13:02Z</time></trkpt><trkpt lat="38.13238661792889" lon="13.245604499094377"><ele>534.0</ele><time>2026-03-29T10:13:03Z</time></trkpt><trkpt lat="38.132288639973346" lon="13.245669831936203"><ele>534.0</ele><time>2026-03-29T10:13:04Z</time></trkpt><trkpt lat="38.132205472185106" lon="13.245709806775887"><ele>537.8333333333334</ele><time>2026-03-29T10:13:05Z</time></trkpt><trkpt lat="38.13212554621332" lon="13.245746633183026"><ele>541.6666666666666</ele><time>2026-03-29T10:13:06Z</time></trkpt><trkpt lat="38.132055618513284" lon="13.245787861824002"><ele>545.5</ele><time>2026-03-29T10:13:07Z</time></trkpt><trkpt lat="38.13198997116453" lon="13.245827191580988"><ele>549.3333333333333</ele><time>2026-03-29T10:13:08Z</time></trkpt><trkpt lat="38.1318992666329" lon="13.245884333090139"><ele>553.1666666666666</ele><time>2026-03-29T10:13:09Z</time></trkpt><trkpt lat="38.13180607359649" lon="13.245925300374951"><ele>557.0</ele><time>2026-03-29T10:13:10Z</time></trkpt><trkpt lat="38.131690271429704" lon="13.245975368405746"><ele>557.0</ele><time>2026-03-29T10:13:11Z</time></trkpt><trkpt lat="38.131584751535584" lon="13.24600825011111"><ele>557.0</ele><time>2026-03-29T10:13:12Z</time></trkpt><trkpt lat="38.131481069957104" lon="13.246038014989525"><ele>557.0</ele><time>2026-03-29T10:13:13Z</time></trkpt><trkpt lat="38.131397182166104" lon="13.246063765647529"><ele>557.0</ele><time>2026-03-29T10:13:14Z</time></trkpt><trkpt lat="38.13130755647335" lon="13.246088457317596"><ele>557.0</ele><time>2026-03-29T10:13:15Z</time></trkpt><trkpt lat="38.13122793412029" lon="13.246114034147134"><ele>554.6666666666666</ele><time>2026-03-29T10:13:16Z</time></trkpt><trkpt lat="38.131152012282605" lon="13.2461391176577"><ele>552.3333333333333</ele><time>2026-03-29T10:13:17Z</time></trkpt><trkpt lat="38.131073745709536" lon="13.246156248404484"><ele>550.0</ele><time>2026-03-29T10:13:18Z</time></trkpt><trkpt lat="38.13101307032081" lon="13.246182744187578"><ele>547.6666666666666</ele><time>2026-03-29T10:13:19Z</time></trkpt><trkpt lat="38.13094677723086" lon="13.246214941695225"><ele>545.3333333333334</ele><time>2026-03-29T10:13:20Z</time></trkpt><trkpt lat="38.13086606520581" lon="13.246252240650607"><ele>543.0</ele><time>2026-03-29T10:13:21Z</time></trkpt><trkpt lat="38.13077641542252" lon="13.246305773979124"><ele>544.8333333333334</ele><time>2026-03-29T10:13:22Z</time></trkpt><trkpt lat="38.13069742626908" lon="13.246380163039378"><ele>546.6666666666666</ele><time>2026-03-29T10:13:23Z</time></trkpt><trkpt lat="38.130620174198796" lon="13.246418184228657"><ele>548.5</ele><time>2026-03-29T10:13:24Z</time></trkpt><trkpt lat="38.130545058590656" lon="13.246465591748905"><ele>550.3333333333333</ele><time>2026-03-29T10:13:25Z</time></trkpt><trkpt lat="38.13045763900132" lon="13.246525129399034"><ele>552.1666666666666</ele><time>2026-03-29T10:13:26Z</time></trkpt><trkpt lat="38.130384917795354" lon="13.24657614345157"><ele>554.0</ele><time>2026-03-29T10:13:27Z</time></trkpt><trkpt lat="38.130302582080645" lon="13.246645106297679"><ele>554.0</ele><time>2026-03-29T10:13:28Z</time></trkpt><trkpt lat="38.13023879835247" lon="13.246696514826802"><ele>554.0</ele><time>2026-03-29T10:13:29Z</time></trkpt><trkpt lat="38.13017042500758" lon="13.246750119877321"><ele>554.0</ele><time>2026-03-29T10:13:30Z</time></trkpt><trkpt lat="38.13010084992228" lon="13.246821416364723"><ele>554.0</ele><time>2026-03-29T10:13:31Z</time></trkpt><trkpt lat="38.13005395921924" lon="13.246890057556099"><ele>554.0</ele><time>2026-03-29T10:13:32Z</time></trkpt><trkpt lat="38.129996674591304" lon="13.246990634382056"><ele>554.0</ele><time>2026-03-29T10:13:33Z</time></trkpt><trkpt lat="38.1299663319571" lon="13.247084214965296"><ele>554.0</ele><time>2026-03-29T10:13:34Z</time></trkpt><trkpt lat="38.12992725150799" lon="13.247190661025478"><ele>554.0</ele><time>2026-03-29T10:13:35Z</time></trkpt><trkpt lat="38.12990485709087" lon="13.247298526211747"><ele>554.0</ele><time>2026-03-29T10:13:36Z</time></trkpt><trkpt lat="38.12987310124434" lon="13.24739354052451"><ele>554.0</ele><time>2026-03-29T10:13:37Z</time></trkpt><trkpt lat="38.1298510693385" lon="13.247498536487374"><ele>554.0</ele><time>2026-03-29T10:13:38Z</time></trkpt><trkpt lat="38.12984229435228" lon="13.24760943662172"><ele>554.0</ele><time>2026-03-29T10:13:39Z</time></trkpt><trkpt lat="38.12980237313877" lon="13.247783672258024"><ele>553.5</ele><time>2026-03-29T10:13:41Z</time></trkpt><trkpt lat="38.12978472710846" lon="13.247880827103119"><ele>553.0</ele><time>2026-03-29T10:13:42Z</time></trkpt><trkpt lat="38.12977459486091" lon="13.247962880139063"><ele>552.5</ele><time>2026-03-29T10:13:43Z</time></trkpt><trkpt lat="38.129749661488674" lon="13.248044276564224"><ele>552.0</ele><time>2026-03-29T10:13:44Z</time></trkpt><trkpt lat="38.12973352162077" lon="13.248144154860636"><ele>551.5</ele><time>2026-03-29T10:13:45Z</time></trkpt><trkpt lat="38.1297129941049" lon="13.248222644895273"><ele>551.0</ele><time>2026-03-29T10:13:46Z</time></trkpt><trkpt lat="38.12966009994491" lon="13.248359779960968"><ele>559.0</ele><time>2026-03-29T10:13:48Z</time></trkpt><trkpt lat="38.12962473906908" lon="13.248482434384778"><ele>559.0</ele><time>2026-03-29T10:13:50Z</time></trkpt><trkpt lat="38.12958089045922" lon="13.248603474422328"><ele>559.0</ele><time>2026-03-29T10:13:52Z</time></trkpt><trkpt lat="38.12951580510974" lon="13.248620055503332"><ele>559.0</ele><time>2026-03-29T10:13:54Z</time></trkpt><trkpt lat="38.12945650055813" lon="13.248659166396589"><ele>559.0</ele><time>2026-03-29T10:13:56Z</time></trkpt></trkseg></trk></gpx>